<?xml version="1.0" encoding="UTF-8" standalone="no" ?>
<gpx xmlns="http://www.topografix.com/GPX/1/1" xmlns:xsi="http://www.w3.org/2001/XMLSchema-instance" xsi:schemaLocation="http://www.topografix.com/GPX/1/1 http://www.topografix.com/GPX/1/1/gpx.xsd" version="1.1" creator="VisuGPX - https://www.visugpx.com">
  <metadata>
    <name>Canal du Midi : Montesquieu Lauragais - Castelnaudary</name>
    <desc><![CDATA[Canal du Midi : Montesquieu Lauragais - Castelnaudary]]></desc>
  </metadata>
  <trk>
    <name><![CDATA[Canal du Midi : Montesquieu Lauragais - Castelnaudary_1]]></name>
    <trkseg>
      <trkpt lat="43.41839" lon="1.64112">
        <ele>168.4</ele>
        <time>2017-03-16T11:15:57Z</time>
      </trkpt>
      <trkpt lat="43.41844" lon="1.64115">
        <ele>167.2</ele>
        <time>2017-03-16T11:16:11Z</time>
      </trkpt>
      <trkpt lat="43.4185" lon="1.6411">
        <ele>166.5</ele>
        <time>2017-03-16T11:16:16Z</time>
      </trkpt>
      <trkpt lat="43.41858" lon="1.64104">
        <ele>166.9</ele>
        <time>2017-03-16T11:16:21Z</time>
      </trkpt>
      <trkpt lat="43.41865" lon="1.64101">
        <ele>166.7</ele>
        <time>2017-03-16T11:16:25Z</time>
      </trkpt>
      <trkpt lat="43.41869" lon="1.64093">
        <ele>166.8</ele>
        <time>2017-03-16T11:16:30Z</time>
      </trkpt>
      <trkpt lat="43.4187" lon="1.64084">
        <ele>167.8</ele>
        <time>2017-03-16T11:16:37Z</time>
      </trkpt>
      <trkpt lat="43.4187" lon="1.64083">
        <ele>167.6</ele>
        <time>2017-03-16T11:16:44Z</time>
      </trkpt>
      <trkpt lat="43.41868" lon="1.64092">
        <ele>166.4</ele>
        <time>2017-03-16T11:17:06Z</time>
      </trkpt>
      <trkpt lat="43.41867" lon="1.64104">
        <ele>166.3</ele>
        <time>2017-03-16T11:17:09Z</time>
      </trkpt>
      <trkpt lat="43.41865" lon="1.64114">
        <ele>166.3</ele>
        <time>2017-03-16T11:17:11Z</time>
      </trkpt>
      <trkpt lat="43.41861" lon="1.64126">
        <ele>166.3</ele>
        <time>2017-03-16T11:17:13Z</time>
      </trkpt>
      <trkpt lat="43.41851" lon="1.64135">
        <ele>166.5</ele>
        <time>2017-03-16T11:17:15Z</time>
      </trkpt>
      <trkpt lat="43.41841" lon="1.64138">
        <ele>166.7</ele>
        <time>2017-03-16T11:17:17Z</time>
      </trkpt>
      <trkpt lat="43.41831" lon="1.64138">
        <ele>166.8</ele>
        <time>2017-03-16T11:17:19Z</time>
      </trkpt>
      <trkpt lat="43.41821" lon="1.64141">
        <ele>167</ele>
        <time>2017-03-16T11:17:21Z</time>
      </trkpt>
      <trkpt lat="43.41812" lon="1.64146">
        <ele>167.2</ele>
        <time>2017-03-16T11:17:23Z</time>
      </trkpt>
      <trkpt lat="43.41804" lon="1.6415">
        <ele>167.5</ele>
        <time>2017-03-16T11:17:25Z</time>
      </trkpt>
      <trkpt lat="43.41794" lon="1.64154">
        <ele>167.8</ele>
        <time>2017-03-16T11:17:27Z</time>
      </trkpt>
      <trkpt lat="43.41784" lon="1.6416">
        <ele>168</ele>
        <time>2017-03-16T11:17:29Z</time>
      </trkpt>
      <trkpt lat="43.41776" lon="1.64171">
        <ele>168.3</ele>
        <time>2017-03-16T11:17:31Z</time>
      </trkpt>
      <trkpt lat="43.41768" lon="1.64183">
        <ele>168.4</ele>
        <time>2017-03-16T11:17:33Z</time>
      </trkpt>
      <trkpt lat="43.41757" lon="1.64192">
        <ele>168.5</ele>
        <time>2017-03-16T11:17:35Z</time>
      </trkpt>
      <trkpt lat="43.41747" lon="1.64199">
        <ele>168.8</ele>
        <time>2017-03-16T11:17:37Z</time>
      </trkpt>
      <trkpt lat="43.41736" lon="1.64208">
        <ele>169</ele>
        <time>2017-03-16T11:17:39Z</time>
      </trkpt>
      <trkpt lat="43.41727" lon="1.64216">
        <ele>169.4</ele>
        <time>2017-03-16T11:17:41Z</time>
      </trkpt>
      <trkpt lat="43.41718" lon="1.64223">
        <ele>169.7</ele>
        <time>2017-03-16T11:17:43Z</time>
      </trkpt>
      <trkpt lat="43.41709" lon="1.64229">
        <ele>170.2</ele>
        <time>2017-03-16T11:17:45Z</time>
      </trkpt>
      <trkpt lat="43.417" lon="1.64237">
        <ele>170.7</ele>
        <time>2017-03-16T11:17:47Z</time>
      </trkpt>
      <trkpt lat="43.41693" lon="1.64245">
        <ele>171.2</ele>
        <time>2017-03-16T11:17:49Z</time>
      </trkpt>
      <trkpt lat="43.41686" lon="1.64253">
        <ele>171.8</ele>
        <time>2017-03-16T11:17:51Z</time>
      </trkpt>
      <trkpt lat="43.41678" lon="1.64261">
        <ele>172.5</ele>
        <time>2017-03-16T11:17:53Z</time>
      </trkpt>
      <trkpt lat="43.4167" lon="1.64269">
        <ele>173.3</ele>
        <time>2017-03-16T11:17:55Z</time>
      </trkpt>
      <trkpt lat="43.4166" lon="1.64279">
        <ele>173.9</ele>
        <time>2017-03-16T11:17:57Z</time>
      </trkpt>
      <trkpt lat="43.4165" lon="1.64289">
        <ele>174.6</ele>
        <time>2017-03-16T11:17:59Z</time>
      </trkpt>
      <trkpt lat="43.41641" lon="1.64299">
        <ele>175.3</ele>
        <time>2017-03-16T11:18:01Z</time>
      </trkpt>
      <trkpt lat="43.41633" lon="1.6431">
        <ele>175.8</ele>
        <time>2017-03-16T11:18:03Z</time>
      </trkpt>
      <trkpt lat="43.41624" lon="1.64322">
        <ele>176.5</ele>
        <time>2017-03-16T11:18:05Z</time>
      </trkpt>
      <trkpt lat="43.41616" lon="1.64332">
        <ele>176.9</ele>
        <time>2017-03-16T11:18:07Z</time>
      </trkpt>
      <trkpt lat="43.41606" lon="1.64343">
        <ele>177.5</ele>
        <time>2017-03-16T11:18:09Z</time>
      </trkpt>
      <trkpt lat="43.41596" lon="1.64354">
        <ele>178.2</ele>
        <time>2017-03-16T11:18:11Z</time>
      </trkpt>
      <trkpt lat="43.41589" lon="1.64364">
        <ele>178.9</ele>
        <time>2017-03-16T11:18:13Z</time>
      </trkpt>
      <trkpt lat="43.41585" lon="1.64372">
        <ele>179.8</ele>
        <time>2017-03-16T11:18:15Z</time>
      </trkpt>
      <trkpt lat="43.4158" lon="1.64386">
        <ele>181.1</ele>
        <time>2017-03-16T11:18:18Z</time>
      </trkpt>
      <trkpt lat="43.41576" lon="1.64397">
        <ele>181.8</ele>
        <time>2017-03-16T11:18:20Z</time>
      </trkpt>
      <trkpt lat="43.41572" lon="1.64405">
        <ele>183.3</ele>
        <time>2017-03-16T11:18:23Z</time>
      </trkpt>
      <trkpt lat="43.41568" lon="1.64414">
        <ele>184.2</ele>
        <time>2017-03-16T11:18:25Z</time>
      </trkpt>
      <trkpt lat="43.41563" lon="1.64422">
        <ele>185.2</ele>
        <time>2017-03-16T11:18:27Z</time>
      </trkpt>
      <trkpt lat="43.41555" lon="1.64436">
        <ele>186.2</ele>
        <time>2017-03-16T11:18:29Z</time>
      </trkpt>
      <trkpt lat="43.41551" lon="1.64445">
        <ele>187.3</ele>
        <time>2017-03-16T11:18:31Z</time>
      </trkpt>
      <trkpt lat="43.41546" lon="1.64455">
        <ele>188</ele>
        <time>2017-03-16T11:18:33Z</time>
      </trkpt>
      <trkpt lat="43.41542" lon="1.64465">
        <ele>189.1</ele>
        <time>2017-03-16T11:18:35Z</time>
      </trkpt>
      <trkpt lat="43.41536" lon="1.64477">
        <ele>190</ele>
        <time>2017-03-16T11:18:37Z</time>
      </trkpt>
      <trkpt lat="43.41532" lon="1.64487">
        <ele>191.2</ele>
        <time>2017-03-16T11:18:39Z</time>
      </trkpt>
      <trkpt lat="43.41526" lon="1.64498">
        <ele>192.1</ele>
        <time>2017-03-16T11:18:41Z</time>
      </trkpt>
      <trkpt lat="43.41521" lon="1.64511">
        <ele>192.9</ele>
        <time>2017-03-16T11:18:43Z</time>
      </trkpt>
      <trkpt lat="43.41514" lon="1.64525">
        <ele>193.9</ele>
        <time>2017-03-16T11:18:45Z</time>
      </trkpt>
      <trkpt lat="43.41506" lon="1.6454">
        <ele>194.7</ele>
        <time>2017-03-16T11:18:47Z</time>
      </trkpt>
      <trkpt lat="43.41498" lon="1.64556">
        <ele>195.5</ele>
        <time>2017-03-16T11:18:49Z</time>
      </trkpt>
      <trkpt lat="43.41491" lon="1.6457">
        <ele>196.3</ele>
        <time>2017-03-16T11:18:51Z</time>
      </trkpt>
      <trkpt lat="43.41482" lon="1.64585">
        <ele>197.4</ele>
        <time>2017-03-16T11:18:53Z</time>
      </trkpt>
      <trkpt lat="43.41477" lon="1.64592">
        <ele>198.6</ele>
        <time>2017-03-16T11:18:55Z</time>
      </trkpt>
      <trkpt lat="43.41468" lon="1.64604">
        <ele>199.7</ele>
        <time>2017-03-16T11:18:57Z</time>
      </trkpt>
      <trkpt lat="43.41461" lon="1.64612">
        <ele>200.8</ele>
        <time>2017-03-16T11:18:59Z</time>
      </trkpt>
      <trkpt lat="43.41453" lon="1.6462">
        <ele>201.8</ele>
        <time>2017-03-16T11:19:01Z</time>
      </trkpt>
      <trkpt lat="43.41445" lon="1.64628">
        <ele>202.9</ele>
        <time>2017-03-16T11:19:03Z</time>
      </trkpt>
      <trkpt lat="43.41435" lon="1.64638">
        <ele>204.2</ele>
        <time>2017-03-16T11:19:05Z</time>
      </trkpt>
      <trkpt lat="43.41424" lon="1.64646">
        <ele>205.2</ele>
        <time>2017-03-16T11:19:07Z</time>
      </trkpt>
      <trkpt lat="43.41414" lon="1.64655">
        <ele>206.3</ele>
        <time>2017-03-16T11:19:09Z</time>
      </trkpt>
      <trkpt lat="43.41402" lon="1.64662">
        <ele>207.3</ele>
        <time>2017-03-16T11:19:11Z</time>
      </trkpt>
      <trkpt lat="43.41392" lon="1.64668">
        <ele>208.5</ele>
        <time>2017-03-16T11:19:13Z</time>
      </trkpt>
      <trkpt lat="43.4138" lon="1.64674">
        <ele>209.8</ele>
        <time>2017-03-16T11:19:15Z</time>
      </trkpt>
      <trkpt lat="43.41369" lon="1.6468">
        <ele>210.9</ele>
        <time>2017-03-16T11:19:17Z</time>
      </trkpt>
      <trkpt lat="43.41358" lon="1.64685">
        <ele>211.9</ele>
        <time>2017-03-16T11:19:19Z</time>
      </trkpt>
      <trkpt lat="43.41347" lon="1.64688">
        <ele>212.9</ele>
        <time>2017-03-16T11:19:21Z</time>
      </trkpt>
      <trkpt lat="43.41338" lon="1.6469">
        <ele>214</ele>
        <time>2017-03-16T11:19:23Z</time>
      </trkpt>
      <trkpt lat="43.41328" lon="1.64693">
        <ele>215.1</ele>
        <time>2017-03-16T11:19:25Z</time>
      </trkpt>
      <trkpt lat="43.41317" lon="1.64698">
        <ele>216.2</ele>
        <time>2017-03-16T11:19:27Z</time>
      </trkpt>
      <trkpt lat="43.41306" lon="1.64702">
        <ele>217.3</ele>
        <time>2017-03-16T11:19:29Z</time>
      </trkpt>
      <trkpt lat="43.41296" lon="1.64706">
        <ele>218.5</ele>
        <time>2017-03-16T11:19:31Z</time>
      </trkpt>
      <trkpt lat="43.41285" lon="1.64711">
        <ele>219.7</ele>
        <time>2017-03-16T11:19:33Z</time>
      </trkpt>
      <trkpt lat="43.41274" lon="1.64718">
        <ele>220.9</ele>
        <time>2017-03-16T11:19:35Z</time>
      </trkpt>
      <trkpt lat="43.41263" lon="1.64726">
        <ele>222.2</ele>
        <time>2017-03-16T11:19:37Z</time>
      </trkpt>
      <trkpt lat="43.41253" lon="1.64735">
        <ele>223.6</ele>
        <time>2017-03-16T11:19:39Z</time>
      </trkpt>
      <trkpt lat="43.41243" lon="1.64745">
        <ele>224.8</ele>
        <time>2017-03-16T11:19:41Z</time>
      </trkpt>
      <trkpt lat="43.41234" lon="1.64758">
        <ele>226.1</ele>
        <time>2017-03-16T11:19:43Z</time>
      </trkpt>
      <trkpt lat="43.41226" lon="1.6477">
        <ele>227.3</ele>
        <time>2017-03-16T11:19:45Z</time>
      </trkpt>
      <trkpt lat="43.41221" lon="1.64782">
        <ele>228.3</ele>
        <time>2017-03-16T11:19:47Z</time>
      </trkpt>
      <trkpt lat="43.41214" lon="1.64795">
        <ele>229.4</ele>
        <time>2017-03-16T11:19:49Z</time>
      </trkpt>
      <trkpt lat="43.41209" lon="1.64808">
        <ele>230.6</ele>
        <time>2017-03-16T11:19:51Z</time>
      </trkpt>
      <trkpt lat="43.41204" lon="1.64822">
        <ele>231.4</ele>
        <time>2017-03-16T11:19:53Z</time>
      </trkpt>
      <trkpt lat="43.41198" lon="1.64838">
        <ele>232.5</ele>
        <time>2017-03-16T11:19:55Z</time>
      </trkpt>
      <trkpt lat="43.41194" lon="1.64846">
        <ele>233.1</ele>
        <time>2017-03-16T11:19:56Z</time>
      </trkpt>
      <trkpt lat="43.4119" lon="1.64855">
        <ele>233.8</ele>
        <time>2017-03-16T11:19:57Z</time>
      </trkpt>
      <trkpt lat="43.41187" lon="1.64868">
        <ele>234.6</ele>
        <time>2017-03-16T11:19:59Z</time>
      </trkpt>
      <trkpt lat="43.41184" lon="1.64882">
        <ele>235.4</ele>
        <time>2017-03-16T11:20:01Z</time>
      </trkpt>
      <trkpt lat="43.4118" lon="1.64894">
        <ele>236.5</ele>
        <time>2017-03-16T11:20:03Z</time>
      </trkpt>
      <trkpt lat="43.41177" lon="1.64909">
        <ele>237.9</ele>
        <time>2017-03-16T11:20:05Z</time>
      </trkpt>
      <trkpt lat="43.41173" lon="1.64923">
        <ele>238.9</ele>
        <time>2017-03-16T11:20:07Z</time>
      </trkpt>
      <trkpt lat="43.41169" lon="1.64936">
        <ele>240</ele>
        <time>2017-03-16T11:20:09Z</time>
      </trkpt>
      <trkpt lat="43.41167" lon="1.64947">
        <ele>240.9</ele>
        <time>2017-03-16T11:20:11Z</time>
      </trkpt>
      <trkpt lat="43.41162" lon="1.64961">
        <ele>242</ele>
        <time>2017-03-16T11:20:13Z</time>
      </trkpt>
      <trkpt lat="43.41158" lon="1.64976">
        <ele>243.3</ele>
        <time>2017-03-16T11:20:15Z</time>
      </trkpt>
      <trkpt lat="43.41157" lon="1.64995">
        <ele>244.8</ele>
        <time>2017-03-16T11:20:17Z</time>
      </trkpt>
      <trkpt lat="43.41155" lon="1.65012">
        <ele>245.9</ele>
        <time>2017-03-16T11:20:19Z</time>
      </trkpt>
      <trkpt lat="43.41153" lon="1.65029">
        <ele>247.1</ele>
        <time>2017-03-16T11:20:21Z</time>
      </trkpt>
      <trkpt lat="43.41151" lon="1.65046">
        <ele>248</ele>
        <time>2017-03-16T11:20:23Z</time>
      </trkpt>
      <trkpt lat="43.41151" lon="1.65063">
        <ele>248.5</ele>
        <time>2017-03-16T11:20:25Z</time>
      </trkpt>
      <trkpt lat="43.4115" lon="1.65084">
        <ele>249.7</ele>
        <time>2017-03-16T11:20:27Z</time>
      </trkpt>
      <trkpt lat="43.4115" lon="1.65102">
        <ele>250.8</ele>
        <time>2017-03-16T11:20:29Z</time>
      </trkpt>
      <trkpt lat="43.4115" lon="1.65118">
        <ele>251.9</ele>
        <time>2017-03-16T11:20:31Z</time>
      </trkpt>
      <trkpt lat="43.41148" lon="1.65127">
        <ele>252.3</ele>
        <time>2017-03-16T11:20:32Z</time>
      </trkpt>
      <trkpt lat="43.4114" lon="1.65127">
        <ele>252.8</ele>
        <time>2017-03-16T11:20:33Z</time>
      </trkpt>
      <trkpt lat="43.4114" lon="1.65141">
        <ele>253.4</ele>
        <time>2017-03-16T11:20:35Z</time>
      </trkpt>
      <trkpt lat="43.41143" lon="1.65155">
        <ele>254.3</ele>
        <time>2017-03-16T11:20:37Z</time>
      </trkpt>
      <trkpt lat="43.41144" lon="1.65171">
        <ele>255.3</ele>
        <time>2017-03-16T11:20:39Z</time>
      </trkpt>
      <trkpt lat="43.41128" lon="1.65217">
        <ele>248.8</ele>
        <time>2017-03-16T11:20:41Z</time>
      </trkpt>
      <trkpt lat="43.41128" lon="1.65232">
        <ele>248</ele>
        <time>2017-03-16T11:20:43Z</time>
      </trkpt>
      <trkpt lat="43.41129" lon="1.65245">
        <ele>247.7</ele>
        <time>2017-03-16T11:20:45Z</time>
      </trkpt>
      <trkpt lat="43.41132" lon="1.65261">
        <ele>244.7</ele>
        <time>2017-03-16T11:20:47Z</time>
      </trkpt>
      <trkpt lat="43.41133" lon="1.65275">
        <ele>242.2</ele>
        <time>2017-03-16T11:20:49Z</time>
      </trkpt>
      <trkpt lat="43.41134" lon="1.65288">
        <ele>240.9</ele>
        <time>2017-03-16T11:20:51Z</time>
      </trkpt>
      <trkpt lat="43.41134" lon="1.65304">
        <ele>240</ele>
        <time>2017-03-16T11:20:53Z</time>
      </trkpt>
      <trkpt lat="43.41136" lon="1.65316">
        <ele>238.5</ele>
        <time>2017-03-16T11:20:55Z</time>
      </trkpt>
      <trkpt lat="43.41138" lon="1.6533">
        <ele>238</ele>
        <time>2017-03-16T11:20:57Z</time>
      </trkpt>
      <trkpt lat="43.41142" lon="1.65343">
        <ele>234.6</ele>
        <time>2017-03-16T11:20:59Z</time>
      </trkpt>
      <trkpt lat="43.41144" lon="1.65356">
        <ele>231.4</ele>
        <time>2017-03-16T11:21:01Z</time>
      </trkpt>
      <trkpt lat="43.41148" lon="1.65372">
        <ele>230</ele>
        <time>2017-03-16T11:21:03Z</time>
      </trkpt>
      <trkpt lat="43.41153" lon="1.65387">
        <ele>227.7</ele>
        <time>2017-03-16T11:21:05Z</time>
      </trkpt>
      <trkpt lat="43.41158" lon="1.65395">
        <ele>227</ele>
        <time>2017-03-16T11:21:06Z</time>
      </trkpt>
      <trkpt lat="43.4116" lon="1.65407">
        <ele>225.9</ele>
        <time>2017-03-16T11:21:07Z</time>
      </trkpt>
      <trkpt lat="43.41164" lon="1.65417">
        <ele>224.7</ele>
        <time>2017-03-16T11:21:08Z</time>
      </trkpt>
      <trkpt lat="43.41166" lon="1.65426">
        <ele>222.3</ele>
        <time>2017-03-16T11:21:09Z</time>
      </trkpt>
      <trkpt lat="43.4117" lon="1.65444">
        <ele>219.6</ele>
        <time>2017-03-16T11:21:11Z</time>
      </trkpt>
      <trkpt lat="43.41174" lon="1.65462">
        <ele>216.2</ele>
        <time>2017-03-16T11:21:13Z</time>
      </trkpt>
      <trkpt lat="43.41176" lon="1.65471">
        <ele>214.7</ele>
        <time>2017-03-16T11:21:14Z</time>
      </trkpt>
      <trkpt lat="43.41178" lon="1.65481">
        <ele>213.7</ele>
        <time>2017-03-16T11:21:15Z</time>
      </trkpt>
      <trkpt lat="43.41184" lon="1.65498">
        <ele>210.4</ele>
        <time>2017-03-16T11:21:17Z</time>
      </trkpt>
      <trkpt lat="43.41187" lon="1.65516">
        <ele>207.1</ele>
        <time>2017-03-16T11:21:19Z</time>
      </trkpt>
      <trkpt lat="43.41188" lon="1.6553">
        <ele>204.4</ele>
        <time>2017-03-16T11:21:21Z</time>
      </trkpt>
      <trkpt lat="43.4119" lon="1.65543">
        <ele>202.9</ele>
        <time>2017-03-16T11:21:23Z</time>
      </trkpt>
      <trkpt lat="43.41194" lon="1.65557">
        <ele>200.4</ele>
        <time>2017-03-16T11:21:25Z</time>
      </trkpt>
      <trkpt lat="43.41199" lon="1.6557">
        <ele>198.8</ele>
        <time>2017-03-16T11:21:27Z</time>
      </trkpt>
      <trkpt lat="43.41201" lon="1.65583">
        <ele>197.2</ele>
        <time>2017-03-16T11:21:29Z</time>
      </trkpt>
      <trkpt lat="43.41205" lon="1.65596">
        <ele>195.6</ele>
        <time>2017-03-16T11:21:31Z</time>
      </trkpt>
      <trkpt lat="43.41208" lon="1.65606">
        <ele>194.1</ele>
        <time>2017-03-16T11:21:33Z</time>
      </trkpt>
      <trkpt lat="43.41209" lon="1.65621">
        <ele>191.6</ele>
        <time>2017-03-16T11:21:36Z</time>
      </trkpt>
      <trkpt lat="43.41211" lon="1.65631">
        <ele>190.2</ele>
        <time>2017-03-16T11:21:38Z</time>
      </trkpt>
      <trkpt lat="43.41214" lon="1.65644">
        <ele>188.4</ele>
        <time>2017-03-16T11:21:40Z</time>
      </trkpt>
      <trkpt lat="43.41218" lon="1.65657">
        <ele>186.7</ele>
        <time>2017-03-16T11:21:42Z</time>
      </trkpt>
      <trkpt lat="43.41221" lon="1.65669">
        <ele>185.3</ele>
        <time>2017-03-16T11:21:44Z</time>
      </trkpt>
      <trkpt lat="43.41223" lon="1.65679">
        <ele>183.8</ele>
        <time>2017-03-16T11:21:46Z</time>
      </trkpt>
      <trkpt lat="43.41224" lon="1.65693">
        <ele>182.3</ele>
        <time>2017-03-16T11:21:49Z</time>
      </trkpt>
      <trkpt lat="43.41225" lon="1.65704">
        <ele>181.5</ele>
        <time>2017-03-16T11:21:51Z</time>
      </trkpt>
      <trkpt lat="43.41226" lon="1.65718">
        <ele>180.6</ele>
        <time>2017-03-16T11:21:53Z</time>
      </trkpt>
      <trkpt lat="43.41228" lon="1.65735">
        <ele>179.8</ele>
        <time>2017-03-16T11:21:55Z</time>
      </trkpt>
      <trkpt lat="43.41229" lon="1.65751">
        <ele>179.1</ele>
        <time>2017-03-16T11:21:57Z</time>
      </trkpt>
      <trkpt lat="43.41229" lon="1.65769">
        <ele>178.4</ele>
        <time>2017-03-16T11:21:59Z</time>
      </trkpt>
      <trkpt lat="43.41228" lon="1.65785">
        <ele>177.6</ele>
        <time>2017-03-16T11:22:01Z</time>
      </trkpt>
      <trkpt lat="43.41229" lon="1.65799">
        <ele>176.9</ele>
        <time>2017-03-16T11:22:03Z</time>
      </trkpt>
      <trkpt lat="43.4123" lon="1.65815">
        <ele>176.2</ele>
        <time>2017-03-16T11:22:05Z</time>
      </trkpt>
      <trkpt lat="43.4123" lon="1.6583">
        <ele>175.5</ele>
        <time>2017-03-16T11:22:07Z</time>
      </trkpt>
      <trkpt lat="43.41229" lon="1.65847">
        <ele>175</ele>
        <time>2017-03-16T11:22:09Z</time>
      </trkpt>
      <trkpt lat="43.41227" lon="1.65861">
        <ele>174.5</ele>
        <time>2017-03-16T11:22:11Z</time>
      </trkpt>
      <trkpt lat="43.41225" lon="1.65872">
        <ele>173.9</ele>
        <time>2017-03-16T11:22:13Z</time>
      </trkpt>
      <trkpt lat="43.41223" lon="1.65887">
        <ele>173.2</ele>
        <time>2017-03-16T11:22:16Z</time>
      </trkpt>
      <trkpt lat="43.41223" lon="1.65897">
        <ele>172.8</ele>
        <time>2017-03-16T11:22:18Z</time>
      </trkpt>
      <trkpt lat="43.41221" lon="1.65909">
        <ele>172.1</ele>
        <time>2017-03-16T11:22:21Z</time>
      </trkpt>
      <trkpt lat="43.41219" lon="1.65919">
        <ele>171.5</ele>
        <time>2017-03-16T11:22:23Z</time>
      </trkpt>
      <trkpt lat="43.41217" lon="1.65929">
        <ele>171.3</ele>
        <time>2017-03-16T11:22:25Z</time>
      </trkpt>
      <trkpt lat="43.41214" lon="1.65941">
        <ele>171</ele>
        <time>2017-03-16T11:22:27Z</time>
      </trkpt>
      <trkpt lat="43.4121" lon="1.65955">
        <ele>170.7</ele>
        <time>2017-03-16T11:22:29Z</time>
      </trkpt>
      <trkpt lat="43.41205" lon="1.65968">
        <ele>170.8</ele>
        <time>2017-03-16T11:22:31Z</time>
      </trkpt>
      <trkpt lat="43.41199" lon="1.65981">
        <ele>171.1</ele>
        <time>2017-03-16T11:22:33Z</time>
      </trkpt>
      <trkpt lat="43.41194" lon="1.65995">
        <ele>170.8</ele>
        <time>2017-03-16T11:22:35Z</time>
      </trkpt>
      <trkpt lat="43.41188" lon="1.66008">
        <ele>171</ele>
        <time>2017-03-16T11:22:37Z</time>
      </trkpt>
      <trkpt lat="43.41185" lon="1.66022">
        <ele>170.9</ele>
        <time>2017-03-16T11:22:39Z</time>
      </trkpt>
      <trkpt lat="43.41178" lon="1.66037">
        <ele>170.2</ele>
        <time>2017-03-16T11:22:41Z</time>
      </trkpt>
      <trkpt lat="43.41173" lon="1.66048">
        <ele>170.2</ele>
        <time>2017-03-16T11:22:43Z</time>
      </trkpt>
      <trkpt lat="43.41169" lon="1.66059">
        <ele>170</ele>
        <time>2017-03-16T11:22:45Z</time>
      </trkpt>
      <trkpt lat="43.41165" lon="1.66069">
        <ele>169.8</ele>
        <time>2017-03-16T11:22:47Z</time>
      </trkpt>
      <trkpt lat="43.41161" lon="1.6608">
        <ele>169.7</ele>
        <time>2017-03-16T11:22:49Z</time>
      </trkpt>
      <trkpt lat="43.41155" lon="1.66088">
        <ele>169.4</ele>
        <time>2017-03-16T11:22:51Z</time>
      </trkpt>
      <trkpt lat="43.41149" lon="1.66097">
        <ele>169</ele>
        <time>2017-03-16T11:22:53Z</time>
      </trkpt>
      <trkpt lat="43.41142" lon="1.66107">
        <ele>168.4</ele>
        <time>2017-03-16T11:22:55Z</time>
      </trkpt>
      <trkpt lat="43.41135" lon="1.66119">
        <ele>168.1</ele>
        <time>2017-03-16T11:22:57Z</time>
      </trkpt>
      <trkpt lat="43.41128" lon="1.66131">
        <ele>167.8</ele>
        <time>2017-03-16T11:22:59Z</time>
      </trkpt>
      <trkpt lat="43.4112" lon="1.66141">
        <ele>167.6</ele>
        <time>2017-03-16T11:23:01Z</time>
      </trkpt>
      <trkpt lat="43.41112" lon="1.66153">
        <ele>166.9</ele>
        <time>2017-03-16T11:23:03Z</time>
      </trkpt>
      <trkpt lat="43.41107" lon="1.66161">
        <ele>166.8</ele>
        <time>2017-03-16T11:23:04Z</time>
      </trkpt>
      <trkpt lat="43.41095" lon="1.66175">
        <ele>167.6</ele>
        <time>2017-03-16T11:23:06Z</time>
      </trkpt>
      <trkpt lat="43.41086" lon="1.66185">
        <ele>167.8</ele>
        <time>2017-03-16T11:23:08Z</time>
      </trkpt>
      <trkpt lat="43.41078" lon="1.66196">
        <ele>167.9</ele>
        <time>2017-03-16T11:23:10Z</time>
      </trkpt>
      <trkpt lat="43.41069" lon="1.66206">
        <ele>167.9</ele>
        <time>2017-03-16T11:23:12Z</time>
      </trkpt>
      <trkpt lat="43.41062" lon="1.66214">
        <ele>167.9</ele>
        <time>2017-03-16T11:23:14Z</time>
      </trkpt>
      <trkpt lat="43.41055" lon="1.66223">
        <ele>167.8</ele>
        <time>2017-03-16T11:23:16Z</time>
      </trkpt>
      <trkpt lat="43.41048" lon="1.66231">
        <ele>167.9</ele>
        <time>2017-03-16T11:23:18Z</time>
      </trkpt>
      <trkpt lat="43.41041" lon="1.66239">
        <ele>167.8</ele>
        <time>2017-03-16T11:23:20Z</time>
      </trkpt>
      <trkpt lat="43.41034" lon="1.66249">
        <ele>168</ele>
        <time>2017-03-16T11:23:22Z</time>
      </trkpt>
      <trkpt lat="43.41029" lon="1.66255">
        <ele>168.4</ele>
        <time>2017-03-16T11:23:23Z</time>
      </trkpt>
      <trkpt lat="43.41019" lon="1.66267">
        <ele>169.2</ele>
        <time>2017-03-16T11:23:25Z</time>
      </trkpt>
      <trkpt lat="43.4101" lon="1.66277">
        <ele>169.4</ele>
        <time>2017-03-16T11:23:27Z</time>
      </trkpt>
      <trkpt lat="43.41001" lon="1.66287">
        <ele>169.3</ele>
        <time>2017-03-16T11:23:29Z</time>
      </trkpt>
      <trkpt lat="43.40992" lon="1.66296">
        <ele>169.4</ele>
        <time>2017-03-16T11:23:31Z</time>
      </trkpt>
      <trkpt lat="43.40984" lon="1.66303">
        <ele>169.8</ele>
        <time>2017-03-16T11:23:33Z</time>
      </trkpt>
      <trkpt lat="43.40978" lon="1.6631">
        <ele>170.1</ele>
        <time>2017-03-16T11:23:35Z</time>
      </trkpt>
      <trkpt lat="43.40972" lon="1.66317">
        <ele>170.4</ele>
        <time>2017-03-16T11:23:37Z</time>
      </trkpt>
      <trkpt lat="43.40963" lon="1.66325">
        <ele>170.6</ele>
        <time>2017-03-16T11:23:39Z</time>
      </trkpt>
      <trkpt lat="43.40955" lon="1.66333">
        <ele>170.6</ele>
        <time>2017-03-16T11:23:41Z</time>
      </trkpt>
      <trkpt lat="43.40945" lon="1.66343">
        <ele>170.5</ele>
        <time>2017-03-16T11:23:43Z</time>
      </trkpt>
      <trkpt lat="43.40936" lon="1.66353">
        <ele>169.9</ele>
        <time>2017-03-16T11:23:45Z</time>
      </trkpt>
      <trkpt lat="43.40925" lon="1.66362">
        <ele>169.5</ele>
        <time>2017-03-16T11:23:47Z</time>
      </trkpt>
      <trkpt lat="43.40917" lon="1.66369">
        <ele>169.5</ele>
        <time>2017-03-16T11:23:49Z</time>
      </trkpt>
      <trkpt lat="43.40908" lon="1.66377">
        <ele>169.3</ele>
        <time>2017-03-16T11:23:51Z</time>
      </trkpt>
      <trkpt lat="43.40901" lon="1.66384">
        <ele>169.2</ele>
        <time>2017-03-16T11:23:52Z</time>
      </trkpt>
      <trkpt lat="43.40891" lon="1.66392">
        <ele>169.3</ele>
        <time>2017-03-16T11:23:54Z</time>
      </trkpt>
      <trkpt lat="43.40882" lon="1.66398">
        <ele>169.3</ele>
        <time>2017-03-16T11:23:56Z</time>
      </trkpt>
      <trkpt lat="43.40874" lon="1.66405">
        <ele>169.2</ele>
        <time>2017-03-16T11:23:58Z</time>
      </trkpt>
      <trkpt lat="43.40864" lon="1.66413">
        <ele>169</ele>
        <time>2017-03-16T11:24:00Z</time>
      </trkpt>
      <trkpt lat="43.40856" lon="1.6642">
        <ele>169</ele>
        <time>2017-03-16T11:24:02Z</time>
      </trkpt>
      <trkpt lat="43.40849" lon="1.66426">
        <ele>168.8</ele>
        <time>2017-03-16T11:24:04Z</time>
      </trkpt>
      <trkpt lat="43.40841" lon="1.66432">
        <ele>168.8</ele>
        <time>2017-03-16T11:24:06Z</time>
      </trkpt>
      <trkpt lat="43.40831" lon="1.66441">
        <ele>168.9</ele>
        <time>2017-03-16T11:24:08Z</time>
      </trkpt>
      <trkpt lat="43.40822" lon="1.66448">
        <ele>169</ele>
        <time>2017-03-16T11:24:10Z</time>
      </trkpt>
      <trkpt lat="43.4081" lon="1.66457">
        <ele>169.4</ele>
        <time>2017-03-16T11:24:12Z</time>
      </trkpt>
      <trkpt lat="43.40801" lon="1.66463">
        <ele>169.5</ele>
        <time>2017-03-16T11:24:14Z</time>
      </trkpt>
      <trkpt lat="43.40791" lon="1.6647">
        <ele>169.3</ele>
        <time>2017-03-16T11:24:16Z</time>
      </trkpt>
      <trkpt lat="43.40782" lon="1.66477">
        <ele>169.2</ele>
        <time>2017-03-16T11:24:18Z</time>
      </trkpt>
      <trkpt lat="43.40773" lon="1.66484">
        <ele>168.9</ele>
        <time>2017-03-16T11:24:20Z</time>
      </trkpt>
      <trkpt lat="43.40762" lon="1.66491">
        <ele>168.5</ele>
        <time>2017-03-16T11:24:22Z</time>
      </trkpt>
      <trkpt lat="43.40753" lon="1.66497">
        <ele>168.3</ele>
        <time>2017-03-16T11:24:24Z</time>
      </trkpt>
      <trkpt lat="43.40745" lon="1.66502">
        <ele>168.3</ele>
        <time>2017-03-16T11:24:26Z</time>
      </trkpt>
      <trkpt lat="43.40735" lon="1.66509">
        <ele>168.3</ele>
        <time>2017-03-16T11:24:28Z</time>
      </trkpt>
      <trkpt lat="43.40726" lon="1.66513">
        <ele>168.3</ele>
        <time>2017-03-16T11:24:30Z</time>
      </trkpt>
      <trkpt lat="43.40716" lon="1.66519">
        <ele>168.6</ele>
        <time>2017-03-16T11:24:32Z</time>
      </trkpt>
      <trkpt lat="43.40707" lon="1.66524">
        <ele>168.5</ele>
        <time>2017-03-16T11:24:34Z</time>
      </trkpt>
      <trkpt lat="43.40696" lon="1.6653">
        <ele>168.4</ele>
        <time>2017-03-16T11:24:36Z</time>
      </trkpt>
      <trkpt lat="43.40686" lon="1.66536">
        <ele>168.4</ele>
        <time>2017-03-16T11:24:38Z</time>
      </trkpt>
      <trkpt lat="43.40676" lon="1.66541">
        <ele>168.2</ele>
        <time>2017-03-16T11:24:40Z</time>
      </trkpt>
      <trkpt lat="43.40664" lon="1.66548">
        <ele>168.1</ele>
        <time>2017-03-16T11:24:42Z</time>
      </trkpt>
      <trkpt lat="43.40653" lon="1.66556">
        <ele>168</ele>
        <time>2017-03-16T11:24:44Z</time>
      </trkpt>
      <trkpt lat="43.40643" lon="1.66559">
        <ele>168</ele>
        <time>2017-03-16T11:24:46Z</time>
      </trkpt>
      <trkpt lat="43.40633" lon="1.66563">
        <ele>168.1</ele>
        <time>2017-03-16T11:24:48Z</time>
      </trkpt>
      <trkpt lat="43.40624" lon="1.66566">
        <ele>168.5</ele>
        <time>2017-03-16T11:24:50Z</time>
      </trkpt>
      <trkpt lat="43.40614" lon="1.66571">
        <ele>168.7</ele>
        <time>2017-03-16T11:24:52Z</time>
      </trkpt>
      <trkpt lat="43.40605" lon="1.66575">
        <ele>168.8</ele>
        <time>2017-03-16T11:24:54Z</time>
      </trkpt>
      <trkpt lat="43.40598" lon="1.66579">
        <ele>169</ele>
        <time>2017-03-16T11:24:56Z</time>
      </trkpt>
      <trkpt lat="43.40588" lon="1.66586">
        <ele>168.9</ele>
        <time>2017-03-16T11:24:58Z</time>
      </trkpt>
      <trkpt lat="43.40578" lon="1.66593">
        <ele>168.8</ele>
        <time>2017-03-16T11:25:00Z</time>
      </trkpt>
      <trkpt lat="43.40568" lon="1.666">
        <ele>168.5</ele>
        <time>2017-03-16T11:25:02Z</time>
      </trkpt>
      <trkpt lat="43.40559" lon="1.66605">
        <ele>168.4</ele>
        <time>2017-03-16T11:25:04Z</time>
      </trkpt>
      <trkpt lat="43.40552" lon="1.66607">
        <ele>168.4</ele>
        <time>2017-03-16T11:25:06Z</time>
      </trkpt>
      <trkpt lat="43.40543" lon="1.66614">
        <ele>168.1</ele>
        <time>2017-03-16T11:25:08Z</time>
      </trkpt>
      <trkpt lat="43.40536" lon="1.66619">
        <ele>168.5</ele>
        <time>2017-03-16T11:25:10Z</time>
      </trkpt>
      <trkpt lat="43.40527" lon="1.66626">
        <ele>168.6</ele>
        <time>2017-03-16T11:25:12Z</time>
      </trkpt>
      <trkpt lat="43.40517" lon="1.66637">
        <ele>168.6</ele>
        <time>2017-03-16T11:25:14Z</time>
      </trkpt>
      <trkpt lat="43.4051" lon="1.66645">
        <ele>168.5</ele>
        <time>2017-03-16T11:25:15Z</time>
      </trkpt>
      <trkpt lat="43.40496" lon="1.66656">
        <ele>168.6</ele>
        <time>2017-03-16T11:25:17Z</time>
      </trkpt>
      <trkpt lat="43.4049" lon="1.66663">
        <ele>168.7</ele>
        <time>2017-03-16T11:25:18Z</time>
      </trkpt>
      <trkpt lat="43.40484" lon="1.66669">
        <ele>168.5</ele>
        <time>2017-03-16T11:25:19Z</time>
      </trkpt>
      <trkpt lat="43.40479" lon="1.66676">
        <ele>168.8</ele>
        <time>2017-03-16T11:25:20Z</time>
      </trkpt>
      <trkpt lat="43.4047" lon="1.66687">
        <ele>169.1</ele>
        <time>2017-03-16T11:25:22Z</time>
      </trkpt>
      <trkpt lat="43.40464" lon="1.66696">
        <ele>169</ele>
        <time>2017-03-16T11:25:24Z</time>
      </trkpt>
      <trkpt lat="43.40459" lon="1.66703">
        <ele>169.2</ele>
        <time>2017-03-16T11:25:26Z</time>
      </trkpt>
      <trkpt lat="43.40451" lon="1.66714">
        <ele>168.8</ele>
        <time>2017-03-16T11:25:28Z</time>
      </trkpt>
      <trkpt lat="43.40444" lon="1.66725">
        <ele>168.7</ele>
        <time>2017-03-16T11:25:31Z</time>
      </trkpt>
      <trkpt lat="43.40437" lon="1.66735">
        <ele>168.8</ele>
        <time>2017-03-16T11:25:33Z</time>
      </trkpt>
      <trkpt lat="43.40433" lon="1.66743">
        <ele>169</ele>
        <time>2017-03-16T11:25:35Z</time>
      </trkpt>
      <trkpt lat="43.40426" lon="1.66755">
        <ele>169</ele>
        <time>2017-03-16T11:25:37Z</time>
      </trkpt>
      <trkpt lat="43.40421" lon="1.66767">
        <ele>169</ele>
        <time>2017-03-16T11:25:39Z</time>
      </trkpt>
      <trkpt lat="43.40416" lon="1.66778">
        <ele>169.1</ele>
        <time>2017-03-16T11:25:41Z</time>
      </trkpt>
      <trkpt lat="43.40411" lon="1.66788">
        <ele>169</ele>
        <time>2017-03-16T11:25:42Z</time>
      </trkpt>
      <trkpt lat="43.40408" lon="1.66797">
        <ele>169.1</ele>
        <time>2017-03-16T11:25:44Z</time>
      </trkpt>
      <trkpt lat="43.40404" lon="1.66806">
        <ele>169</ele>
        <time>2017-03-16T11:25:45Z</time>
      </trkpt>
      <trkpt lat="43.40399" lon="1.66817">
        <ele>169.1</ele>
        <time>2017-03-16T11:25:47Z</time>
      </trkpt>
      <trkpt lat="43.40394" lon="1.66828">
        <ele>169.1</ele>
        <time>2017-03-16T11:25:49Z</time>
      </trkpt>
      <trkpt lat="43.40389" lon="1.66841">
        <ele>169.1</ele>
        <time>2017-03-16T11:25:51Z</time>
      </trkpt>
      <trkpt lat="43.40385" lon="1.66849">
        <ele>168.8</ele>
        <time>2017-03-16T11:25:52Z</time>
      </trkpt>
      <trkpt lat="43.40378" lon="1.66863">
        <ele>168.6</ele>
        <time>2017-03-16T11:25:54Z</time>
      </trkpt>
      <trkpt lat="43.40374" lon="1.66875">
        <ele>168.6</ele>
        <time>2017-03-16T11:25:56Z</time>
      </trkpt>
      <trkpt lat="43.40369" lon="1.66887">
        <ele>168.6</ele>
        <time>2017-03-16T11:25:58Z</time>
      </trkpt>
      <trkpt lat="43.40362" lon="1.66898">
        <ele>168.3</ele>
        <time>2017-03-16T11:26:00Z</time>
      </trkpt>
      <trkpt lat="43.40357" lon="1.66913">
        <ele>168.6</ele>
        <time>2017-03-16T11:26:02Z</time>
      </trkpt>
      <trkpt lat="43.40354" lon="1.66923">
        <ele>169.1</ele>
        <time>2017-03-16T11:26:03Z</time>
      </trkpt>
      <trkpt lat="43.4035" lon="1.66933">
        <ele>169.3</ele>
        <time>2017-03-16T11:26:04Z</time>
      </trkpt>
      <trkpt lat="43.40344" lon="1.66949">
        <ele>169.7</ele>
        <time>2017-03-16T11:26:06Z</time>
      </trkpt>
      <trkpt lat="43.40338" lon="1.66963">
        <ele>170</ele>
        <time>2017-03-16T11:26:08Z</time>
      </trkpt>
      <trkpt lat="43.40332" lon="1.66977">
        <ele>170.1</ele>
        <time>2017-03-16T11:26:10Z</time>
      </trkpt>
      <trkpt lat="43.40327" lon="1.6699">
        <ele>169.9</ele>
        <time>2017-03-16T11:26:12Z</time>
      </trkpt>
      <trkpt lat="43.40322" lon="1.67003">
        <ele>169.9</ele>
        <time>2017-03-16T11:26:14Z</time>
      </trkpt>
      <trkpt lat="43.40318" lon="1.67017">
        <ele>169.6</ele>
        <time>2017-03-16T11:26:16Z</time>
      </trkpt>
      <trkpt lat="43.40314" lon="1.6703">
        <ele>170.2</ele>
        <time>2017-03-16T11:26:18Z</time>
      </trkpt>
      <trkpt lat="43.4031" lon="1.67042">
        <ele>170.3</ele>
        <time>2017-03-16T11:26:20Z</time>
      </trkpt>
      <trkpt lat="43.40303" lon="1.67058">
        <ele>170.9</ele>
        <time>2017-03-16T11:26:22Z</time>
      </trkpt>
      <trkpt lat="43.403" lon="1.67072">
        <ele>170.9</ele>
        <time>2017-03-16T11:26:24Z</time>
      </trkpt>
      <trkpt lat="43.40296" lon="1.67086">
        <ele>171.1</ele>
        <time>2017-03-16T11:26:26Z</time>
      </trkpt>
      <trkpt lat="43.40293" lon="1.671">
        <ele>171.3</ele>
        <time>2017-03-16T11:26:28Z</time>
      </trkpt>
      <trkpt lat="43.40288" lon="1.67114">
        <ele>171.3</ele>
        <time>2017-03-16T11:26:30Z</time>
      </trkpt>
      <trkpt lat="43.40282" lon="1.67132">
        <ele>171.2</ele>
        <time>2017-03-16T11:26:32Z</time>
      </trkpt>
      <trkpt lat="43.40277" lon="1.6714">
        <ele>170.7</ele>
        <time>2017-03-16T11:26:33Z</time>
      </trkpt>
      <trkpt lat="43.40272" lon="1.67151">
        <ele>171</ele>
        <time>2017-03-16T11:26:34Z</time>
      </trkpt>
      <trkpt lat="43.40267" lon="1.67162">
        <ele>170.9</ele>
        <time>2017-03-16T11:26:35Z</time>
      </trkpt>
      <trkpt lat="43.40265" lon="1.67171">
        <ele>171</ele>
        <time>2017-03-16T11:26:36Z</time>
      </trkpt>
      <trkpt lat="43.4026" lon="1.67187">
        <ele>171.2</ele>
        <time>2017-03-16T11:26:38Z</time>
      </trkpt>
      <trkpt lat="43.40254" lon="1.67203">
        <ele>171.2</ele>
        <time>2017-03-16T11:26:40Z</time>
      </trkpt>
      <trkpt lat="43.40249" lon="1.6722">
        <ele>170.9</ele>
        <time>2017-03-16T11:26:42Z</time>
      </trkpt>
      <trkpt lat="43.40246" lon="1.6723">
        <ele>170.8</ele>
        <time>2017-03-16T11:26:43Z</time>
      </trkpt>
      <trkpt lat="43.4024" lon="1.67246">
        <ele>170.5</ele>
        <time>2017-03-16T11:26:45Z</time>
      </trkpt>
      <trkpt lat="43.40235" lon="1.6726">
        <ele>170.3</ele>
        <time>2017-03-16T11:26:47Z</time>
      </trkpt>
      <trkpt lat="43.40232" lon="1.67273">
        <ele>169.9</ele>
        <time>2017-03-16T11:26:49Z</time>
      </trkpt>
      <trkpt lat="43.40228" lon="1.67286">
        <ele>169.6</ele>
        <time>2017-03-16T11:26:51Z</time>
      </trkpt>
      <trkpt lat="43.40224" lon="1.673">
        <ele>169.1</ele>
        <time>2017-03-16T11:26:53Z</time>
      </trkpt>
      <trkpt lat="43.4022" lon="1.67315">
        <ele>168.7</ele>
        <time>2017-03-16T11:26:55Z</time>
      </trkpt>
      <trkpt lat="43.40215" lon="1.6733">
        <ele>168.2</ele>
        <time>2017-03-16T11:26:57Z</time>
      </trkpt>
      <trkpt lat="43.40212" lon="1.67346">
        <ele>167.8</ele>
        <time>2017-03-16T11:26:59Z</time>
      </trkpt>
      <trkpt lat="43.40208" lon="1.67362">
        <ele>167.6</ele>
        <time>2017-03-16T11:27:01Z</time>
      </trkpt>
      <trkpt lat="43.40204" lon="1.67377">
        <ele>167.3</ele>
        <time>2017-03-16T11:27:03Z</time>
      </trkpt>
      <trkpt lat="43.402" lon="1.67391">
        <ele>166.8</ele>
        <time>2017-03-16T11:27:05Z</time>
      </trkpt>
      <trkpt lat="43.40197" lon="1.67404">
        <ele>166.6</ele>
        <time>2017-03-16T11:27:07Z</time>
      </trkpt>
      <trkpt lat="43.40194" lon="1.67415">
        <ele>166.6</ele>
        <time>2017-03-16T11:27:09Z</time>
      </trkpt>
      <trkpt lat="43.4019" lon="1.67428">
        <ele>166.6</ele>
        <time>2017-03-16T11:27:11Z</time>
      </trkpt>
      <trkpt lat="43.40184" lon="1.67442">
        <ele>166.6</ele>
        <time>2017-03-16T11:27:13Z</time>
      </trkpt>
      <trkpt lat="43.40178" lon="1.67455">
        <ele>166.5</ele>
        <time>2017-03-16T11:27:15Z</time>
      </trkpt>
      <trkpt lat="43.40172" lon="1.67468">
        <ele>166.5</ele>
        <time>2017-03-16T11:27:17Z</time>
      </trkpt>
      <trkpt lat="43.40167" lon="1.67482">
        <ele>166.2</ele>
        <time>2017-03-16T11:27:19Z</time>
      </trkpt>
      <trkpt lat="43.4016" lon="1.67498">
        <ele>166</ele>
        <time>2017-03-16T11:27:21Z</time>
      </trkpt>
      <trkpt lat="43.40154" lon="1.67512">
        <ele>166</ele>
        <time>2017-03-16T11:27:23Z</time>
      </trkpt>
      <trkpt lat="43.40148" lon="1.67524">
        <ele>165.8</ele>
        <time>2017-03-16T11:27:25Z</time>
      </trkpt>
      <trkpt lat="43.40143" lon="1.67537">
        <ele>165.7</ele>
        <time>2017-03-16T11:27:27Z</time>
      </trkpt>
      <trkpt lat="43.40137" lon="1.67549">
        <ele>165.3</ele>
        <time>2017-03-16T11:27:29Z</time>
      </trkpt>
      <trkpt lat="43.40131" lon="1.6756">
        <ele>165.1</ele>
        <time>2017-03-16T11:27:31Z</time>
      </trkpt>
      <trkpt lat="43.40126" lon="1.67572">
        <ele>164.6</ele>
        <time>2017-03-16T11:27:33Z</time>
      </trkpt>
      <trkpt lat="43.40119" lon="1.67583">
        <ele>164.1</ele>
        <time>2017-03-16T11:27:35Z</time>
      </trkpt>
      <trkpt lat="43.40113" lon="1.67595">
        <ele>163.6</ele>
        <time>2017-03-16T11:27:37Z</time>
      </trkpt>
      <trkpt lat="43.40107" lon="1.67606">
        <ele>163.2</ele>
        <time>2017-03-16T11:27:39Z</time>
      </trkpt>
      <trkpt lat="43.40101" lon="1.67616">
        <ele>162.7</ele>
        <time>2017-03-16T11:27:41Z</time>
      </trkpt>
      <trkpt lat="43.40095" lon="1.67628">
        <ele>161.8</ele>
        <time>2017-03-16T11:27:43Z</time>
      </trkpt>
      <trkpt lat="43.40087" lon="1.6764">
        <ele>160.9</ele>
        <time>2017-03-16T11:27:45Z</time>
      </trkpt>
      <trkpt lat="43.40081" lon="1.67653">
        <ele>160.3</ele>
        <time>2017-03-16T11:27:47Z</time>
      </trkpt>
      <trkpt lat="43.40074" lon="1.67665">
        <ele>159.6</ele>
        <time>2017-03-16T11:27:49Z</time>
      </trkpt>
      <trkpt lat="43.40067" lon="1.67678">
        <ele>159.2</ele>
        <time>2017-03-16T11:27:51Z</time>
      </trkpt>
      <trkpt lat="43.40063" lon="1.6769">
        <ele>158.8</ele>
        <time>2017-03-16T11:27:53Z</time>
      </trkpt>
      <trkpt lat="43.40056" lon="1.67705">
        <ele>158.3</ele>
        <time>2017-03-16T11:27:55Z</time>
      </trkpt>
      <trkpt lat="43.40049" lon="1.6772">
        <ele>158.1</ele>
        <time>2017-03-16T11:27:57Z</time>
      </trkpt>
      <trkpt lat="43.40043" lon="1.67732">
        <ele>157.8</ele>
        <time>2017-03-16T11:27:59Z</time>
      </trkpt>
      <trkpt lat="43.40037" lon="1.67744">
        <ele>157.4</ele>
        <time>2017-03-16T11:28:01Z</time>
      </trkpt>
      <trkpt lat="43.4003" lon="1.67757">
        <ele>157</ele>
        <time>2017-03-16T11:28:03Z</time>
      </trkpt>
      <trkpt lat="43.40025" lon="1.67767">
        <ele>156.3</ele>
        <time>2017-03-16T11:28:05Z</time>
      </trkpt>
      <trkpt lat="43.40017" lon="1.67778">
        <ele>155.9</ele>
        <time>2017-03-16T11:28:07Z</time>
      </trkpt>
      <trkpt lat="43.4001" lon="1.67788">
        <ele>155.6</ele>
        <time>2017-03-16T11:28:09Z</time>
      </trkpt>
      <trkpt lat="43.40003" lon="1.67799">
        <ele>155.3</ele>
        <time>2017-03-16T11:28:11Z</time>
      </trkpt>
      <trkpt lat="43.39997" lon="1.67812">
        <ele>154.9</ele>
        <time>2017-03-16T11:28:13Z</time>
      </trkpt>
      <trkpt lat="43.39991" lon="1.67829">
        <ele>154.6</ele>
        <time>2017-03-16T11:28:15Z</time>
      </trkpt>
      <trkpt lat="43.39985" lon="1.67843">
        <ele>154.3</ele>
        <time>2017-03-16T11:28:17Z</time>
      </trkpt>
      <trkpt lat="43.39981" lon="1.67855">
        <ele>153.9</ele>
        <time>2017-03-16T11:28:19Z</time>
      </trkpt>
      <trkpt lat="43.39974" lon="1.67865">
        <ele>153.9</ele>
        <time>2017-03-16T11:28:21Z</time>
      </trkpt>
      <trkpt lat="43.39967" lon="1.67877">
        <ele>154.8</ele>
        <time>2017-03-16T11:28:23Z</time>
      </trkpt>
      <trkpt lat="43.39958" lon="1.6789">
        <ele>156.3</ele>
        <time>2017-03-16T11:28:25Z</time>
      </trkpt>
      <trkpt lat="43.39951" lon="1.67902">
        <ele>157.7</ele>
        <time>2017-03-16T11:28:27Z</time>
      </trkpt>
      <trkpt lat="43.39943" lon="1.67913">
        <ele>159</ele>
        <time>2017-03-16T11:28:29Z</time>
      </trkpt>
      <trkpt lat="43.39936" lon="1.67921">
        <ele>159.5</ele>
        <time>2017-03-16T11:28:31Z</time>
      </trkpt>
      <trkpt lat="43.39929" lon="1.67928">
        <ele>159.6</ele>
        <time>2017-03-16T11:28:33Z</time>
      </trkpt>
      <trkpt lat="43.39922" lon="1.67935">
        <ele>160.1</ele>
        <time>2017-03-16T11:28:35Z</time>
      </trkpt>
      <trkpt lat="43.39914" lon="1.67941">
        <ele>160.4</ele>
        <time>2017-03-16T11:28:37Z</time>
      </trkpt>
      <trkpt lat="43.39906" lon="1.67944">
        <ele>160.9</ele>
        <time>2017-03-16T11:28:39Z</time>
      </trkpt>
      <trkpt lat="43.39898" lon="1.67947">
        <ele>161.6</ele>
        <time>2017-03-16T11:28:41Z</time>
      </trkpt>
      <trkpt lat="43.39891" lon="1.67951">
        <ele>162</ele>
        <time>2017-03-16T11:28:43Z</time>
      </trkpt>
      <trkpt lat="43.39885" lon="1.67955">
        <ele>162.8</ele>
        <time>2017-03-16T11:28:45Z</time>
      </trkpt>
      <trkpt lat="43.39877" lon="1.67957">
        <ele>163.5</ele>
        <time>2017-03-16T11:28:48Z</time>
      </trkpt>
      <trkpt lat="43.39869" lon="1.67962">
        <ele>163.9</ele>
        <time>2017-03-16T11:28:51Z</time>
      </trkpt>
      <trkpt lat="43.3986" lon="1.67967">
        <ele>164.5</ele>
        <time>2017-03-16T11:28:54Z</time>
      </trkpt>
      <trkpt lat="43.39852" lon="1.67974">
        <ele>165.2</ele>
        <time>2017-03-16T11:28:57Z</time>
      </trkpt>
      <trkpt lat="43.39845" lon="1.67978">
        <ele>165.9</ele>
        <time>2017-03-16T11:28:59Z</time>
      </trkpt>
      <trkpt lat="43.39838" lon="1.67984">
        <ele>166.2</ele>
        <time>2017-03-16T11:29:01Z</time>
      </trkpt>
      <trkpt lat="43.39833" lon="1.67991">
        <ele>166.5</ele>
        <time>2017-03-16T11:29:03Z</time>
      </trkpt>
      <trkpt lat="43.39824" lon="1.68001">
        <ele>167.3</ele>
        <time>2017-03-16T11:29:06Z</time>
      </trkpt>
      <trkpt lat="43.39818" lon="1.68008">
        <ele>167.8</ele>
        <time>2017-03-16T11:29:08Z</time>
      </trkpt>
      <trkpt lat="43.39811" lon="1.68017">
        <ele>168.2</ele>
        <time>2017-03-16T11:29:11Z</time>
      </trkpt>
      <trkpt lat="43.39805" lon="1.68028">
        <ele>168</ele>
        <time>2017-03-16T11:29:14Z</time>
      </trkpt>
      <trkpt lat="43.398" lon="1.68038">
        <ele>167.8</ele>
        <time>2017-03-16T11:29:16Z</time>
      </trkpt>
      <trkpt lat="43.39795" lon="1.68049">
        <ele>167.6</ele>
        <time>2017-03-16T11:29:18Z</time>
      </trkpt>
      <trkpt lat="43.39792" lon="1.68061">
        <ele>167.6</ele>
        <time>2017-03-16T11:29:20Z</time>
      </trkpt>
      <trkpt lat="43.39788" lon="1.68075">
        <ele>167.8</ele>
        <time>2017-03-16T11:29:22Z</time>
      </trkpt>
      <trkpt lat="43.39784" lon="1.68088">
        <ele>168</ele>
        <time>2017-03-16T11:29:24Z</time>
      </trkpt>
      <trkpt lat="43.3978" lon="1.68102">
        <ele>168.1</ele>
        <time>2017-03-16T11:29:26Z</time>
      </trkpt>
      <trkpt lat="43.39776" lon="1.68115">
        <ele>168.2</ele>
        <time>2017-03-16T11:29:28Z</time>
      </trkpt>
      <trkpt lat="43.39772" lon="1.68127">
        <ele>168.2</ele>
        <time>2017-03-16T11:29:30Z</time>
      </trkpt>
      <trkpt lat="43.39769" lon="1.6814">
        <ele>168.3</ele>
        <time>2017-03-16T11:29:32Z</time>
      </trkpt>
      <trkpt lat="43.39766" lon="1.68154">
        <ele>168.3</ele>
        <time>2017-03-16T11:29:34Z</time>
      </trkpt>
      <trkpt lat="43.39762" lon="1.68168">
        <ele>168.5</ele>
        <time>2017-03-16T11:29:36Z</time>
      </trkpt>
      <trkpt lat="43.39759" lon="1.68181">
        <ele>168.5</ele>
        <time>2017-03-16T11:29:38Z</time>
      </trkpt>
      <trkpt lat="43.39755" lon="1.68194">
        <ele>168.5</ele>
        <time>2017-03-16T11:29:40Z</time>
      </trkpt>
      <trkpt lat="43.3975" lon="1.68207">
        <ele>168.5</ele>
        <time>2017-03-16T11:29:42Z</time>
      </trkpt>
      <trkpt lat="43.39747" lon="1.68219">
        <ele>168.5</ele>
        <time>2017-03-16T11:29:44Z</time>
      </trkpt>
      <trkpt lat="43.39742" lon="1.6823">
        <ele>168.4</ele>
        <time>2017-03-16T11:29:46Z</time>
      </trkpt>
      <trkpt lat="43.39738" lon="1.68241">
        <ele>168.1</ele>
        <time>2017-03-16T11:29:48Z</time>
      </trkpt>
      <trkpt lat="43.39732" lon="1.68252">
        <ele>167.6</ele>
        <time>2017-03-16T11:29:50Z</time>
      </trkpt>
      <trkpt lat="43.39726" lon="1.68261">
        <ele>167.2</ele>
        <time>2017-03-16T11:29:52Z</time>
      </trkpt>
      <trkpt lat="43.39721" lon="1.68271">
        <ele>166.8</ele>
        <time>2017-03-16T11:29:54Z</time>
      </trkpt>
      <trkpt lat="43.39713" lon="1.68282">
        <ele>166.3</ele>
        <time>2017-03-16T11:29:56Z</time>
      </trkpt>
      <trkpt lat="43.39705" lon="1.68293">
        <ele>165.8</ele>
        <time>2017-03-16T11:29:58Z</time>
      </trkpt>
      <trkpt lat="43.39695" lon="1.68301">
        <ele>165.4</ele>
        <time>2017-03-16T11:30:00Z</time>
      </trkpt>
      <trkpt lat="43.39687" lon="1.68308">
        <ele>165</ele>
        <time>2017-03-16T11:30:02Z</time>
      </trkpt>
      <trkpt lat="43.39677" lon="1.68317">
        <ele>164.9</ele>
        <time>2017-03-16T11:30:04Z</time>
      </trkpt>
      <trkpt lat="43.39667" lon="1.68327">
        <ele>166.3</ele>
        <time>2017-03-16T11:30:06Z</time>
      </trkpt>
      <trkpt lat="43.39658" lon="1.68334">
        <ele>166.1</ele>
        <time>2017-03-16T11:30:08Z</time>
      </trkpt>
      <trkpt lat="43.39649" lon="1.68341">
        <ele>165.9</ele>
        <time>2017-03-16T11:30:10Z</time>
      </trkpt>
      <trkpt lat="43.39639" lon="1.68348">
        <ele>165.7</ele>
        <time>2017-03-16T11:30:12Z</time>
      </trkpt>
      <trkpt lat="43.3963" lon="1.68355">
        <ele>165.6</ele>
        <time>2017-03-16T11:30:14Z</time>
      </trkpt>
      <trkpt lat="43.3962" lon="1.68363">
        <ele>166.3</ele>
        <time>2017-03-16T11:30:16Z</time>
      </trkpt>
      <trkpt lat="43.39611" lon="1.6837">
        <ele>166.8</ele>
        <time>2017-03-16T11:30:18Z</time>
      </trkpt>
      <trkpt lat="43.39602" lon="1.68377">
        <ele>167.1</ele>
        <time>2017-03-16T11:30:20Z</time>
      </trkpt>
      <trkpt lat="43.39593" lon="1.68385">
        <ele>167.7</ele>
        <time>2017-03-16T11:30:22Z</time>
      </trkpt>
      <trkpt lat="43.39586" lon="1.68395">
        <ele>167.9</ele>
        <time>2017-03-16T11:30:24Z</time>
      </trkpt>
      <trkpt lat="43.39578" lon="1.68405">
        <ele>168.1</ele>
        <time>2017-03-16T11:30:26Z</time>
      </trkpt>
      <trkpt lat="43.39573" lon="1.68414">
        <ele>167.9</ele>
        <time>2017-03-16T11:30:28Z</time>
      </trkpt>
      <trkpt lat="43.3957" lon="1.68425">
        <ele>167.8</ele>
        <time>2017-03-16T11:30:30Z</time>
      </trkpt>
      <trkpt lat="43.39565" lon="1.68437">
        <ele>167.8</ele>
        <time>2017-03-16T11:30:32Z</time>
      </trkpt>
      <trkpt lat="43.39563" lon="1.68452">
        <ele>167.5</ele>
        <time>2017-03-16T11:30:34Z</time>
      </trkpt>
      <trkpt lat="43.39562" lon="1.68469">
        <ele>167</ele>
        <time>2017-03-16T11:30:36Z</time>
      </trkpt>
      <trkpt lat="43.39562" lon="1.68485">
        <ele>166.8</ele>
        <time>2017-03-16T11:30:38Z</time>
      </trkpt>
      <trkpt lat="43.39563" lon="1.68501">
        <ele>166.7</ele>
        <time>2017-03-16T11:30:40Z</time>
      </trkpt>
      <trkpt lat="43.39564" lon="1.68519">
        <ele>166.7</ele>
        <time>2017-03-16T11:30:42Z</time>
      </trkpt>
      <trkpt lat="43.39565" lon="1.68533">
        <ele>167</ele>
        <time>2017-03-16T11:30:44Z</time>
      </trkpt>
      <trkpt lat="43.39566" lon="1.68548">
        <ele>167.3</ele>
        <time>2017-03-16T11:30:46Z</time>
      </trkpt>
      <trkpt lat="43.39567" lon="1.68561">
        <ele>167.4</ele>
        <time>2017-03-16T11:30:48Z</time>
      </trkpt>
      <trkpt lat="43.3957" lon="1.68574">
        <ele>167.6</ele>
        <time>2017-03-16T11:30:50Z</time>
      </trkpt>
      <trkpt lat="43.39571" lon="1.68588">
        <ele>167.5</ele>
        <time>2017-03-16T11:30:52Z</time>
      </trkpt>
      <trkpt lat="43.39571" lon="1.68602">
        <ele>167.2</ele>
        <time>2017-03-16T11:30:54Z</time>
      </trkpt>
      <trkpt lat="43.39572" lon="1.68618">
        <ele>167.2</ele>
        <time>2017-03-16T11:30:56Z</time>
      </trkpt>
      <trkpt lat="43.39572" lon="1.68632">
        <ele>167.1</ele>
        <time>2017-03-16T11:30:58Z</time>
      </trkpt>
      <trkpt lat="43.39572" lon="1.68647">
        <ele>167.4</ele>
        <time>2017-03-16T11:31:00Z</time>
      </trkpt>
      <trkpt lat="43.39572" lon="1.68662">
        <ele>167.6</ele>
        <time>2017-03-16T11:31:02Z</time>
      </trkpt>
      <trkpt lat="43.3957" lon="1.68678">
        <ele>167.4</ele>
        <time>2017-03-16T11:31:04Z</time>
      </trkpt>
      <trkpt lat="43.3957" lon="1.68693">
        <ele>167.2</ele>
        <time>2017-03-16T11:31:06Z</time>
      </trkpt>
      <trkpt lat="43.39567" lon="1.68709">
        <ele>167</ele>
        <time>2017-03-16T11:31:08Z</time>
      </trkpt>
      <trkpt lat="43.39565" lon="1.68725">
        <ele>166.8</ele>
        <time>2017-03-16T11:31:10Z</time>
      </trkpt>
      <trkpt lat="43.39562" lon="1.6874">
        <ele>166.3</ele>
        <time>2017-03-16T11:31:12Z</time>
      </trkpt>
      <trkpt lat="43.39558" lon="1.68757">
        <ele>165.8</ele>
        <time>2017-03-16T11:31:14Z</time>
      </trkpt>
      <trkpt lat="43.39553" lon="1.68772">
        <ele>165.3</ele>
        <time>2017-03-16T11:31:16Z</time>
      </trkpt>
      <trkpt lat="43.39547" lon="1.68786">
        <ele>164.7</ele>
        <time>2017-03-16T11:31:18Z</time>
      </trkpt>
      <trkpt lat="43.39539" lon="1.68799">
        <ele>164.3</ele>
        <time>2017-03-16T11:31:20Z</time>
      </trkpt>
      <trkpt lat="43.39529" lon="1.68811">
        <ele>164.3</ele>
        <time>2017-03-16T11:31:22Z</time>
      </trkpt>
      <trkpt lat="43.39519" lon="1.68818">
        <ele>164.1</ele>
        <time>2017-03-16T11:31:24Z</time>
      </trkpt>
      <trkpt lat="43.39507" lon="1.68822">
        <ele>163.6</ele>
        <time>2017-03-16T11:31:26Z</time>
      </trkpt>
      <trkpt lat="43.39495" lon="1.68822">
        <ele>163.6</ele>
        <time>2017-03-16T11:31:28Z</time>
      </trkpt>
      <trkpt lat="43.39483" lon="1.68821">
        <ele>163.6</ele>
        <time>2017-03-16T11:31:30Z</time>
      </trkpt>
      <trkpt lat="43.39472" lon="1.68817">
        <ele>163.2</ele>
        <time>2017-03-16T11:31:32Z</time>
      </trkpt>
      <trkpt lat="43.3946" lon="1.68815">
        <ele>163.5</ele>
        <time>2017-03-16T11:31:34Z</time>
      </trkpt>
      <trkpt lat="43.39449" lon="1.68812">
        <ele>163.4</ele>
        <time>2017-03-16T11:31:36Z</time>
      </trkpt>
      <trkpt lat="43.39437" lon="1.68812">
        <ele>164.3</ele>
        <time>2017-03-16T11:31:38Z</time>
      </trkpt>
      <trkpt lat="43.39427" lon="1.68812">
        <ele>165</ele>
        <time>2017-03-16T11:31:40Z</time>
      </trkpt>
      <trkpt lat="43.39417" lon="1.68811">
        <ele>165.9</ele>
        <time>2017-03-16T11:31:42Z</time>
      </trkpt>
      <trkpt lat="43.39407" lon="1.68808">
        <ele>166</ele>
        <time>2017-03-16T11:31:44Z</time>
      </trkpt>
      <trkpt lat="43.39396" lon="1.68805">
        <ele>166.2</ele>
        <time>2017-03-16T11:31:46Z</time>
      </trkpt>
      <trkpt lat="43.39384" lon="1.68798">
        <ele>166.5</ele>
        <time>2017-03-16T11:31:48Z</time>
      </trkpt>
      <trkpt lat="43.3937" lon="1.68798">
        <ele>166.9</ele>
        <time>2017-03-16T11:31:50Z</time>
      </trkpt>
      <trkpt lat="43.3936" lon="1.68809">
        <ele>167.6</ele>
        <time>2017-03-16T11:31:52Z</time>
      </trkpt>
      <trkpt lat="43.39356" lon="1.68825">
        <ele>167.8</ele>
        <time>2017-03-16T11:31:54Z</time>
      </trkpt>
      <trkpt lat="43.3935" lon="1.68838">
        <ele>168.8</ele>
        <time>2017-03-16T11:31:56Z</time>
      </trkpt>
      <trkpt lat="43.39344" lon="1.68847">
        <ele>169.1</ele>
        <time>2017-03-16T11:31:58Z</time>
      </trkpt>
      <trkpt lat="43.39337" lon="1.68856">
        <ele>169.5</ele>
        <time>2017-03-16T11:32:00Z</time>
      </trkpt>
      <trkpt lat="43.3933" lon="1.68867">
        <ele>169.8</ele>
        <time>2017-03-16T11:32:02Z</time>
      </trkpt>
      <trkpt lat="43.39322" lon="1.68879">
        <ele>169.8</ele>
        <time>2017-03-16T11:32:04Z</time>
      </trkpt>
      <trkpt lat="43.39315" lon="1.6889">
        <ele>169.9</ele>
        <time>2017-03-16T11:32:06Z</time>
      </trkpt>
      <trkpt lat="43.39309" lon="1.68902">
        <ele>169.7</ele>
        <time>2017-03-16T11:32:08Z</time>
      </trkpt>
      <trkpt lat="43.39303" lon="1.68913">
        <ele>169.5</ele>
        <time>2017-03-16T11:32:10Z</time>
      </trkpt>
      <trkpt lat="43.39297" lon="1.68926">
        <ele>169.3</ele>
        <time>2017-03-16T11:32:12Z</time>
      </trkpt>
      <trkpt lat="43.39291" lon="1.68939">
        <ele>168.8</ele>
        <time>2017-03-16T11:32:14Z</time>
      </trkpt>
      <trkpt lat="43.39287" lon="1.68952">
        <ele>168.4</ele>
        <time>2017-03-16T11:32:16Z</time>
      </trkpt>
      <trkpt lat="43.39282" lon="1.68965">
        <ele>168</ele>
        <time>2017-03-16T11:32:18Z</time>
      </trkpt>
      <trkpt lat="43.39277" lon="1.6898">
        <ele>167.6</ele>
        <time>2017-03-16T11:32:20Z</time>
      </trkpt>
      <trkpt lat="43.39273" lon="1.68995">
        <ele>167.5</ele>
        <time>2017-03-16T11:32:22Z</time>
      </trkpt>
      <trkpt lat="43.39269" lon="1.69009">
        <ele>166.9</ele>
        <time>2017-03-16T11:32:24Z</time>
      </trkpt>
      <trkpt lat="43.39264" lon="1.69022">
        <ele>166.8</ele>
        <time>2017-03-16T11:32:26Z</time>
      </trkpt>
      <trkpt lat="43.39261" lon="1.69035">
        <ele>166.6</ele>
        <time>2017-03-16T11:32:28Z</time>
      </trkpt>
      <trkpt lat="43.39256" lon="1.69046">
        <ele>166.2</ele>
        <time>2017-03-16T11:32:30Z</time>
      </trkpt>
      <trkpt lat="43.39252" lon="1.69058">
        <ele>165.8</ele>
        <time>2017-03-16T11:32:32Z</time>
      </trkpt>
      <trkpt lat="43.39249" lon="1.69069">
        <ele>165.6</ele>
        <time>2017-03-16T11:32:34Z</time>
      </trkpt>
      <trkpt lat="43.39245" lon="1.69082">
        <ele>165.5</ele>
        <time>2017-03-16T11:32:36Z</time>
      </trkpt>
      <trkpt lat="43.39241" lon="1.69093">
        <ele>165.5</ele>
        <time>2017-03-16T11:32:38Z</time>
      </trkpt>
      <trkpt lat="43.39237" lon="1.69105">
        <ele>165.5</ele>
        <time>2017-03-16T11:32:40Z</time>
      </trkpt>
      <trkpt lat="43.39233" lon="1.69117">
        <ele>165.5</ele>
        <time>2017-03-16T11:32:42Z</time>
      </trkpt>
      <trkpt lat="43.39228" lon="1.69127">
        <ele>165.2</ele>
        <time>2017-03-16T11:32:44Z</time>
      </trkpt>
      <trkpt lat="43.39222" lon="1.69135">
        <ele>164.4</ele>
        <time>2017-03-16T11:32:46Z</time>
      </trkpt>
      <trkpt lat="43.39214" lon="1.69145">
        <ele>163.8</ele>
        <time>2017-03-16T11:32:48Z</time>
      </trkpt>
      <trkpt lat="43.39208" lon="1.69154">
        <ele>164.3</ele>
        <time>2017-03-16T11:32:50Z</time>
      </trkpt>
      <trkpt lat="43.392" lon="1.69161">
        <ele>164.7</ele>
        <time>2017-03-16T11:32:53Z</time>
      </trkpt>
      <trkpt lat="43.39195" lon="1.69166">
        <ele>167.1</ele>
        <time>2017-03-16T11:33:00Z</time>
      </trkpt>
      <trkpt lat="43.39187" lon="1.69171">
        <ele>169.5</ele>
        <time>2017-03-16T11:33:03Z</time>
      </trkpt>
      <trkpt lat="43.39179" lon="1.69178">
        <ele>169.5</ele>
        <time>2017-03-16T11:33:06Z</time>
      </trkpt>
      <trkpt lat="43.39173" lon="1.69189">
        <ele>169.8</ele>
        <time>2017-03-16T11:33:10Z</time>
      </trkpt>
      <trkpt lat="43.39166" lon="1.69196">
        <ele>169.9</ele>
        <time>2017-03-16T11:33:14Z</time>
      </trkpt>
      <trkpt lat="43.39159" lon="1.69201">
        <ele>169.7</ele>
        <time>2017-03-16T11:33:18Z</time>
      </trkpt>
      <trkpt lat="43.39153" lon="1.6921">
        <ele>170.1</ele>
        <time>2017-03-16T11:33:24Z</time>
      </trkpt>
      <trkpt lat="43.39146" lon="1.69217">
        <ele>170.1</ele>
        <time>2017-03-16T11:33:29Z</time>
      </trkpt>
      <trkpt lat="43.39142" lon="1.69225">
        <ele>170.2</ele>
        <time>2017-03-16T11:33:33Z</time>
      </trkpt>
      <trkpt lat="43.3914" lon="1.69232">
        <ele>170.5</ele>
        <time>2017-03-16T11:33:41Z</time>
      </trkpt>
      <trkpt lat="43.3914" lon="1.69236">
        <ele>174.5</ele>
        <time>2017-03-16T11:40:31Z</time>
      </trkpt>
      <trkpt lat="43.39141" lon="1.69235">
        <ele>174.7</ele>
        <time>2017-03-16T11:40:38Z</time>
      </trkpt>
      <trkpt lat="43.39132" lon="1.69241">
        <ele>174.4</ele>
        <time>2017-03-16T11:55:47Z</time>
      </trkpt>
      <trkpt lat="43.39127" lon="1.69247">
        <ele>174.4</ele>
        <time>2017-03-16T11:55:50Z</time>
      </trkpt>
      <trkpt lat="43.39121" lon="1.69255">
        <ele>174.6</ele>
        <time>2017-03-16T11:55:53Z</time>
      </trkpt>
      <trkpt lat="43.39115" lon="1.69264">
        <ele>174.5</ele>
        <time>2017-03-16T11:55:56Z</time>
      </trkpt>
      <trkpt lat="43.39109" lon="1.69274">
        <ele>174.7</ele>
        <time>2017-03-16T11:55:59Z</time>
      </trkpt>
      <trkpt lat="43.39103" lon="1.69283">
        <ele>174.7</ele>
        <time>2017-03-16T11:56:02Z</time>
      </trkpt>
      <trkpt lat="43.39094" lon="1.69292">
        <ele>175.3</ele>
        <time>2017-03-16T11:56:05Z</time>
      </trkpt>
      <trkpt lat="43.39087" lon="1.69301">
        <ele>175.6</ele>
        <time>2017-03-16T11:56:08Z</time>
      </trkpt>
      <trkpt lat="43.39078" lon="1.6931">
        <ele>175.6</ele>
        <time>2017-03-16T11:56:11Z</time>
      </trkpt>
      <trkpt lat="43.39072" lon="1.69317">
        <ele>175.6</ele>
        <time>2017-03-16T11:56:13Z</time>
      </trkpt>
      <trkpt lat="43.39066" lon="1.69325">
        <ele>175.6</ele>
        <time>2017-03-16T11:56:15Z</time>
      </trkpt>
      <trkpt lat="43.39061" lon="1.69333">
        <ele>175.8</ele>
        <time>2017-03-16T11:56:17Z</time>
      </trkpt>
      <trkpt lat="43.39054" lon="1.69339">
        <ele>175.2</ele>
        <time>2017-03-16T11:56:19Z</time>
      </trkpt>
      <trkpt lat="43.39049" lon="1.69346">
        <ele>174.9</ele>
        <time>2017-03-16T11:56:21Z</time>
      </trkpt>
      <trkpt lat="43.39043" lon="1.69352">
        <ele>174.7</ele>
        <time>2017-03-16T11:56:23Z</time>
      </trkpt>
      <trkpt lat="43.39035" lon="1.69361">
        <ele>175</ele>
        <time>2017-03-16T11:56:25Z</time>
      </trkpt>
      <trkpt lat="43.39028" lon="1.69369">
        <ele>174.9</ele>
        <time>2017-03-16T11:56:27Z</time>
      </trkpt>
      <trkpt lat="43.39023" lon="1.69377">
        <ele>174.7</ele>
        <time>2017-03-16T11:56:29Z</time>
      </trkpt>
      <trkpt lat="43.39017" lon="1.69388">
        <ele>174.3</ele>
        <time>2017-03-16T11:56:32Z</time>
      </trkpt>
      <trkpt lat="43.39013" lon="1.69397">
        <ele>174.4</ele>
        <time>2017-03-16T11:56:34Z</time>
      </trkpt>
      <trkpt lat="43.39008" lon="1.69406">
        <ele>174.7</ele>
        <time>2017-03-16T11:56:36Z</time>
      </trkpt>
      <trkpt lat="43.39005" lon="1.69415">
        <ele>174.5</ele>
        <time>2017-03-16T11:56:38Z</time>
      </trkpt>
      <trkpt lat="43.39" lon="1.69427">
        <ele>174.2</ele>
        <time>2017-03-16T11:56:40Z</time>
      </trkpt>
      <trkpt lat="43.38997" lon="1.69438">
        <ele>173.8</ele>
        <time>2017-03-16T11:56:42Z</time>
      </trkpt>
      <trkpt lat="43.38994" lon="1.69449">
        <ele>174</ele>
        <time>2017-03-16T11:56:44Z</time>
      </trkpt>
      <trkpt lat="43.38991" lon="1.69459">
        <ele>173.7</ele>
        <time>2017-03-16T11:56:46Z</time>
      </trkpt>
      <trkpt lat="43.38988" lon="1.69471">
        <ele>173.6</ele>
        <time>2017-03-16T11:56:48Z</time>
      </trkpt>
      <trkpt lat="43.38984" lon="1.69483">
        <ele>173.6</ele>
        <time>2017-03-16T11:56:50Z</time>
      </trkpt>
      <trkpt lat="43.3898" lon="1.69496">
        <ele>173.7</ele>
        <time>2017-03-16T11:56:52Z</time>
      </trkpt>
      <trkpt lat="43.38977" lon="1.69508">
        <ele>173.4</ele>
        <time>2017-03-16T11:56:54Z</time>
      </trkpt>
      <trkpt lat="43.38975" lon="1.69521">
        <ele>173.3</ele>
        <time>2017-03-16T11:56:56Z</time>
      </trkpt>
      <trkpt lat="43.38974" lon="1.69534">
        <ele>173.3</ele>
        <time>2017-03-16T11:56:58Z</time>
      </trkpt>
      <trkpt lat="43.38973" lon="1.69547">
        <ele>173.4</ele>
        <time>2017-03-16T11:57:00Z</time>
      </trkpt>
      <trkpt lat="43.38974" lon="1.6956">
        <ele>172.3</ele>
        <time>2017-03-16T11:57:02Z</time>
      </trkpt>
      <trkpt lat="43.38976" lon="1.69573">
        <ele>172.4</ele>
        <time>2017-03-16T11:57:04Z</time>
      </trkpt>
      <trkpt lat="43.3898" lon="1.69586">
        <ele>172.9</ele>
        <time>2017-03-16T11:57:06Z</time>
      </trkpt>
      <trkpt lat="43.38984" lon="1.69598">
        <ele>173.1</ele>
        <time>2017-03-16T11:57:08Z</time>
      </trkpt>
      <trkpt lat="43.38991" lon="1.69611">
        <ele>173.4</ele>
        <time>2017-03-16T11:57:10Z</time>
      </trkpt>
      <trkpt lat="43.38997" lon="1.69624">
        <ele>173.9</ele>
        <time>2017-03-16T11:57:12Z</time>
      </trkpt>
      <trkpt lat="43.39003" lon="1.69635">
        <ele>174.2</ele>
        <time>2017-03-16T11:57:14Z</time>
      </trkpt>
      <trkpt lat="43.3901" lon="1.69645">
        <ele>174.7</ele>
        <time>2017-03-16T11:57:16Z</time>
      </trkpt>
      <trkpt lat="43.39018" lon="1.69657">
        <ele>174.6</ele>
        <time>2017-03-16T11:57:18Z</time>
      </trkpt>
      <trkpt lat="43.39024" lon="1.69669">
        <ele>174.7</ele>
        <time>2017-03-16T11:57:20Z</time>
      </trkpt>
      <trkpt lat="43.39031" lon="1.69682">
        <ele>174.9</ele>
        <time>2017-03-16T11:57:22Z</time>
      </trkpt>
      <trkpt lat="43.39037" lon="1.69696">
        <ele>174.5</ele>
        <time>2017-03-16T11:57:24Z</time>
      </trkpt>
      <trkpt lat="43.39042" lon="1.6971">
        <ele>174.3</ele>
        <time>2017-03-16T11:57:26Z</time>
      </trkpt>
      <trkpt lat="43.39045" lon="1.69727">
        <ele>174.2</ele>
        <time>2017-03-16T11:57:28Z</time>
      </trkpt>
      <trkpt lat="43.39045" lon="1.69742">
        <ele>173.9</ele>
        <time>2017-03-16T11:57:30Z</time>
      </trkpt>
      <trkpt lat="43.39044" lon="1.69758">
        <ele>174.1</ele>
        <time>2017-03-16T11:57:32Z</time>
      </trkpt>
      <trkpt lat="43.39043" lon="1.69772">
        <ele>174</ele>
        <time>2017-03-16T11:57:34Z</time>
      </trkpt>
      <trkpt lat="43.39042" lon="1.69786">
        <ele>173.8</ele>
        <time>2017-03-16T11:57:36Z</time>
      </trkpt>
      <trkpt lat="43.3904" lon="1.69801">
        <ele>173.8</ele>
        <time>2017-03-16T11:57:38Z</time>
      </trkpt>
      <trkpt lat="43.39039" lon="1.69816">
        <ele>173.5</ele>
        <time>2017-03-16T11:57:40Z</time>
      </trkpt>
      <trkpt lat="43.39037" lon="1.69832">
        <ele>173.2</ele>
        <time>2017-03-16T11:57:42Z</time>
      </trkpt>
      <trkpt lat="43.39036" lon="1.69847">
        <ele>172.7</ele>
        <time>2017-03-16T11:57:44Z</time>
      </trkpt>
      <trkpt lat="43.39035" lon="1.69862">
        <ele>172.3</ele>
        <time>2017-03-16T11:57:46Z</time>
      </trkpt>
      <trkpt lat="43.39033" lon="1.69876">
        <ele>172.3</ele>
        <time>2017-03-16T11:57:48Z</time>
      </trkpt>
      <trkpt lat="43.39031" lon="1.69891">
        <ele>172.4</ele>
        <time>2017-03-16T11:57:50Z</time>
      </trkpt>
      <trkpt lat="43.39029" lon="1.69905">
        <ele>172.4</ele>
        <time>2017-03-16T11:57:52Z</time>
      </trkpt>
      <trkpt lat="43.39026" lon="1.69919">
        <ele>172.4</ele>
        <time>2017-03-16T11:57:54Z</time>
      </trkpt>
      <trkpt lat="43.39021" lon="1.69932">
        <ele>172</ele>
        <time>2017-03-16T11:57:56Z</time>
      </trkpt>
      <trkpt lat="43.39014" lon="1.69943">
        <ele>171.4</ele>
        <time>2017-03-16T11:57:58Z</time>
      </trkpt>
      <trkpt lat="43.39005" lon="1.69953">
        <ele>171.1</ele>
        <time>2017-03-16T11:58:00Z</time>
      </trkpt>
      <trkpt lat="43.38997" lon="1.69961">
        <ele>171.4</ele>
        <time>2017-03-16T11:58:02Z</time>
      </trkpt>
      <trkpt lat="43.38988" lon="1.69968">
        <ele>171.3</ele>
        <time>2017-03-16T11:58:04Z</time>
      </trkpt>
      <trkpt lat="43.38978" lon="1.69971">
        <ele>171.2</ele>
        <time>2017-03-16T11:58:06Z</time>
      </trkpt>
      <trkpt lat="43.38968" lon="1.6997">
        <ele>171</ele>
        <time>2017-03-16T11:58:08Z</time>
      </trkpt>
      <trkpt lat="43.38959" lon="1.69969">
        <ele>171</ele>
        <time>2017-03-16T11:58:10Z</time>
      </trkpt>
      <trkpt lat="43.38948" lon="1.69969">
        <ele>171.1</ele>
        <time>2017-03-16T11:58:12Z</time>
      </trkpt>
      <trkpt lat="43.38938" lon="1.69968">
        <ele>171.4</ele>
        <time>2017-03-16T11:58:14Z</time>
      </trkpt>
      <trkpt lat="43.38928" lon="1.69967">
        <ele>171.9</ele>
        <time>2017-03-16T11:58:16Z</time>
      </trkpt>
      <trkpt lat="43.38918" lon="1.69965">
        <ele>172.1</ele>
        <time>2017-03-16T11:58:18Z</time>
      </trkpt>
      <trkpt lat="43.38908" lon="1.69965">
        <ele>172.3</ele>
        <time>2017-03-16T11:58:20Z</time>
      </trkpt>
      <trkpt lat="43.38898" lon="1.69964">
        <ele>172.6</ele>
        <time>2017-03-16T11:58:22Z</time>
      </trkpt>
      <trkpt lat="43.38887" lon="1.69965">
        <ele>172.5</ele>
        <time>2017-03-16T11:58:24Z</time>
      </trkpt>
      <trkpt lat="43.38876" lon="1.69967">
        <ele>173.8</ele>
        <time>2017-03-16T11:58:26Z</time>
      </trkpt>
      <trkpt lat="43.38866" lon="1.6997">
        <ele>174.2</ele>
        <time>2017-03-16T11:58:28Z</time>
      </trkpt>
      <trkpt lat="43.38855" lon="1.69975">
        <ele>174.4</ele>
        <time>2017-03-16T11:58:30Z</time>
      </trkpt>
      <trkpt lat="43.38845" lon="1.69981">
        <ele>174.5</ele>
        <time>2017-03-16T11:58:32Z</time>
      </trkpt>
      <trkpt lat="43.38835" lon="1.69988">
        <ele>174.5</ele>
        <time>2017-03-16T11:58:34Z</time>
      </trkpt>
      <trkpt lat="43.38826" lon="1.69995">
        <ele>174.6</ele>
        <time>2017-03-16T11:58:36Z</time>
      </trkpt>
      <trkpt lat="43.38817" lon="1.70002">
        <ele>175</ele>
        <time>2017-03-16T11:58:38Z</time>
      </trkpt>
      <trkpt lat="43.38809" lon="1.7001">
        <ele>175.2</ele>
        <time>2017-03-16T11:58:40Z</time>
      </trkpt>
      <trkpt lat="43.388" lon="1.70018">
        <ele>175.6</ele>
        <time>2017-03-16T11:58:42Z</time>
      </trkpt>
      <trkpt lat="43.38791" lon="1.70026">
        <ele>175.2</ele>
        <time>2017-03-16T11:58:44Z</time>
      </trkpt>
      <trkpt lat="43.38782" lon="1.70034">
        <ele>176.1</ele>
        <time>2017-03-16T11:58:46Z</time>
      </trkpt>
      <trkpt lat="43.38772" lon="1.70042">
        <ele>176.4</ele>
        <time>2017-03-16T11:58:48Z</time>
      </trkpt>
      <trkpt lat="43.38763" lon="1.7005">
        <ele>176.8</ele>
        <time>2017-03-16T11:58:50Z</time>
      </trkpt>
      <trkpt lat="43.38754" lon="1.70059">
        <ele>177</ele>
        <time>2017-03-16T11:58:52Z</time>
      </trkpt>
      <trkpt lat="43.38745" lon="1.70065">
        <ele>176.5</ele>
        <time>2017-03-16T11:58:54Z</time>
      </trkpt>
      <trkpt lat="43.38736" lon="1.70072">
        <ele>176.1</ele>
        <time>2017-03-16T11:58:56Z</time>
      </trkpt>
      <trkpt lat="43.38727" lon="1.7008">
        <ele>176.1</ele>
        <time>2017-03-16T11:58:58Z</time>
      </trkpt>
      <trkpt lat="43.38717" lon="1.70088">
        <ele>175</ele>
        <time>2017-03-16T11:59:00Z</time>
      </trkpt>
      <trkpt lat="43.38708" lon="1.70096">
        <ele>175.3</ele>
        <time>2017-03-16T11:59:02Z</time>
      </trkpt>
      <trkpt lat="43.38699" lon="1.70104">
        <ele>174.9</ele>
        <time>2017-03-16T11:59:04Z</time>
      </trkpt>
      <trkpt lat="43.38689" lon="1.70113">
        <ele>175.4</ele>
        <time>2017-03-16T11:59:06Z</time>
      </trkpt>
      <trkpt lat="43.3868" lon="1.70122">
        <ele>175.8</ele>
        <time>2017-03-16T11:59:08Z</time>
      </trkpt>
      <trkpt lat="43.38671" lon="1.70129">
        <ele>176.2</ele>
        <time>2017-03-16T11:59:10Z</time>
      </trkpt>
      <trkpt lat="43.38664" lon="1.70138">
        <ele>176</ele>
        <time>2017-03-16T11:59:12Z</time>
      </trkpt>
      <trkpt lat="43.38656" lon="1.70148">
        <ele>175.6</ele>
        <time>2017-03-16T11:59:14Z</time>
      </trkpt>
      <trkpt lat="43.38648" lon="1.70158">
        <ele>175.4</ele>
        <time>2017-03-16T11:59:16Z</time>
      </trkpt>
      <trkpt lat="43.38641" lon="1.7017">
        <ele>175.4</ele>
        <time>2017-03-16T11:59:18Z</time>
      </trkpt>
      <trkpt lat="43.38634" lon="1.7018">
        <ele>175.1</ele>
        <time>2017-03-16T11:59:20Z</time>
      </trkpt>
      <trkpt lat="43.38627" lon="1.70192">
        <ele>174.5</ele>
        <time>2017-03-16T11:59:22Z</time>
      </trkpt>
      <trkpt lat="43.3862" lon="1.70204">
        <ele>174.6</ele>
        <time>2017-03-16T11:59:24Z</time>
      </trkpt>
      <trkpt lat="43.38612" lon="1.70215">
        <ele>174.6</ele>
        <time>2017-03-16T11:59:26Z</time>
      </trkpt>
      <trkpt lat="43.38605" lon="1.70225">
        <ele>174.3</ele>
        <time>2017-03-16T11:59:28Z</time>
      </trkpt>
      <trkpt lat="43.38597" lon="1.70236">
        <ele>174.3</ele>
        <time>2017-03-16T11:59:30Z</time>
      </trkpt>
      <trkpt lat="43.3859" lon="1.70248">
        <ele>174.2</ele>
        <time>2017-03-16T11:59:32Z</time>
      </trkpt>
      <trkpt lat="43.38582" lon="1.70259">
        <ele>174.4</ele>
        <time>2017-03-16T11:59:34Z</time>
      </trkpt>
      <trkpt lat="43.38578" lon="1.7027">
        <ele>174</ele>
        <time>2017-03-16T11:59:36Z</time>
      </trkpt>
      <trkpt lat="43.38571" lon="1.70283">
        <ele>173.7</ele>
        <time>2017-03-16T11:59:38Z</time>
      </trkpt>
      <trkpt lat="43.38565" lon="1.70296">
        <ele>173.7</ele>
        <time>2017-03-16T11:59:40Z</time>
      </trkpt>
      <trkpt lat="43.38558" lon="1.70308">
        <ele>173.4</ele>
        <time>2017-03-16T11:59:42Z</time>
      </trkpt>
      <trkpt lat="43.38551" lon="1.7032">
        <ele>172.7</ele>
        <time>2017-03-16T11:59:44Z</time>
      </trkpt>
      <trkpt lat="43.38544" lon="1.70334">
        <ele>172.8</ele>
        <time>2017-03-16T11:59:46Z</time>
      </trkpt>
      <trkpt lat="43.38537" lon="1.70347">
        <ele>172.8</ele>
        <time>2017-03-16T11:59:48Z</time>
      </trkpt>
      <trkpt lat="43.3853" lon="1.70359">
        <ele>173.2</ele>
        <time>2017-03-16T11:59:50Z</time>
      </trkpt>
      <trkpt lat="43.38525" lon="1.7037">
        <ele>173</ele>
        <time>2017-03-16T11:59:52Z</time>
      </trkpt>
      <trkpt lat="43.38519" lon="1.70382">
        <ele>173.9</ele>
        <time>2017-03-16T11:59:54Z</time>
      </trkpt>
      <trkpt lat="43.38513" lon="1.70393">
        <ele>174.2</ele>
        <time>2017-03-16T11:59:56Z</time>
      </trkpt>
      <trkpt lat="43.38508" lon="1.70407">
        <ele>174.2</ele>
        <time>2017-03-16T11:59:58Z</time>
      </trkpt>
      <trkpt lat="43.38503" lon="1.7042">
        <ele>174.3</ele>
        <time>2017-03-16T12:00:00Z</time>
      </trkpt>
      <trkpt lat="43.38498" lon="1.70434">
        <ele>174.4</ele>
        <time>2017-03-16T12:00:02Z</time>
      </trkpt>
      <trkpt lat="43.38495" lon="1.70448">
        <ele>174.1</ele>
        <time>2017-03-16T12:00:04Z</time>
      </trkpt>
      <trkpt lat="43.38493" lon="1.70462">
        <ele>174.4</ele>
        <time>2017-03-16T12:00:06Z</time>
      </trkpt>
      <trkpt lat="43.38495" lon="1.70476">
        <ele>174.8</ele>
        <time>2017-03-16T12:00:08Z</time>
      </trkpt>
      <trkpt lat="43.38498" lon="1.7049">
        <ele>174.6</ele>
        <time>2017-03-16T12:00:10Z</time>
      </trkpt>
      <trkpt lat="43.38501" lon="1.70504">
        <ele>174.4</ele>
        <time>2017-03-16T12:00:12Z</time>
      </trkpt>
      <trkpt lat="43.38505" lon="1.70517">
        <ele>174.1</ele>
        <time>2017-03-16T12:00:14Z</time>
      </trkpt>
      <trkpt lat="43.38509" lon="1.70531">
        <ele>174.3</ele>
        <time>2017-03-16T12:00:16Z</time>
      </trkpt>
      <trkpt lat="43.38512" lon="1.70544">
        <ele>173.6</ele>
        <time>2017-03-16T12:00:18Z</time>
      </trkpt>
      <trkpt lat="43.38517" lon="1.70558">
        <ele>172.9</ele>
        <time>2017-03-16T12:00:20Z</time>
      </trkpt>
      <trkpt lat="43.3852" lon="1.70571">
        <ele>172.2</ele>
        <time>2017-03-16T12:00:22Z</time>
      </trkpt>
      <trkpt lat="43.38525" lon="1.70584">
        <ele>171.8</ele>
        <time>2017-03-16T12:00:24Z</time>
      </trkpt>
      <trkpt lat="43.3853" lon="1.70597">
        <ele>171.7</ele>
        <time>2017-03-16T12:00:26Z</time>
      </trkpt>
      <trkpt lat="43.38535" lon="1.70611">
        <ele>171.4</ele>
        <time>2017-03-16T12:00:28Z</time>
      </trkpt>
      <trkpt lat="43.38539" lon="1.70624">
        <ele>171.3</ele>
        <time>2017-03-16T12:00:30Z</time>
      </trkpt>
      <trkpt lat="43.38543" lon="1.70637">
        <ele>170.6</ele>
        <time>2017-03-16T12:00:32Z</time>
      </trkpt>
      <trkpt lat="43.38545" lon="1.70649">
        <ele>170.3</ele>
        <time>2017-03-16T12:00:34Z</time>
      </trkpt>
      <trkpt lat="43.3855" lon="1.7066">
        <ele>170.9</ele>
        <time>2017-03-16T12:00:36Z</time>
      </trkpt>
      <trkpt lat="43.38553" lon="1.7067">
        <ele>170.7</ele>
        <time>2017-03-16T12:00:38Z</time>
      </trkpt>
      <trkpt lat="43.38556" lon="1.70682">
        <ele>170.4</ele>
        <time>2017-03-16T12:00:40Z</time>
      </trkpt>
      <trkpt lat="43.38559" lon="1.70694">
        <ele>170</ele>
        <time>2017-03-16T12:00:42Z</time>
      </trkpt>
      <trkpt lat="43.38564" lon="1.70707">
        <ele>169.7</ele>
        <time>2017-03-16T12:00:44Z</time>
      </trkpt>
      <trkpt lat="43.38569" lon="1.7072">
        <ele>170.7</ele>
        <time>2017-03-16T12:00:46Z</time>
      </trkpt>
      <trkpt lat="43.38576" lon="1.70733">
        <ele>171.3</ele>
        <time>2017-03-16T12:00:48Z</time>
      </trkpt>
      <trkpt lat="43.38581" lon="1.70745">
        <ele>171.5</ele>
        <time>2017-03-16T12:00:50Z</time>
      </trkpt>
      <trkpt lat="43.38586" lon="1.70759">
        <ele>171.5</ele>
        <time>2017-03-16T12:00:52Z</time>
      </trkpt>
      <trkpt lat="43.38591" lon="1.70771">
        <ele>171.3</ele>
        <time>2017-03-16T12:00:54Z</time>
      </trkpt>
      <trkpt lat="43.38595" lon="1.70784">
        <ele>171.5</ele>
        <time>2017-03-16T12:00:56Z</time>
      </trkpt>
      <trkpt lat="43.386" lon="1.70795">
        <ele>171.7</ele>
        <time>2017-03-16T12:00:58Z</time>
      </trkpt>
      <trkpt lat="43.38604" lon="1.70808">
        <ele>171.3</ele>
        <time>2017-03-16T12:01:01Z</time>
      </trkpt>
      <trkpt lat="43.38606" lon="1.7082">
        <ele>169.9</ele>
        <time>2017-03-16T12:01:03Z</time>
      </trkpt>
      <trkpt lat="43.38609" lon="1.70833">
        <ele>169.1</ele>
        <time>2017-03-16T12:01:05Z</time>
      </trkpt>
      <trkpt lat="43.38612" lon="1.70845">
        <ele>168.4</ele>
        <time>2017-03-16T12:01:07Z</time>
      </trkpt>
      <trkpt lat="43.38614" lon="1.70858">
        <ele>168.2</ele>
        <time>2017-03-16T12:01:09Z</time>
      </trkpt>
      <trkpt lat="43.38617" lon="1.70869">
        <ele>168.9</ele>
        <time>2017-03-16T12:01:11Z</time>
      </trkpt>
      <trkpt lat="43.3862" lon="1.70878">
        <ele>168.6</ele>
        <time>2017-03-16T12:01:13Z</time>
      </trkpt>
      <trkpt lat="43.38625" lon="1.70888">
        <ele>169.5</ele>
        <time>2017-03-16T12:01:15Z</time>
      </trkpt>
      <trkpt lat="43.38632" lon="1.70897">
        <ele>169.8</ele>
        <time>2017-03-16T12:01:17Z</time>
      </trkpt>
      <trkpt lat="43.38639" lon="1.70907">
        <ele>169.4</ele>
        <time>2017-03-16T12:01:19Z</time>
      </trkpt>
      <trkpt lat="43.38644" lon="1.70917">
        <ele>169.7</ele>
        <time>2017-03-16T12:01:21Z</time>
      </trkpt>
      <trkpt lat="43.38649" lon="1.70926">
        <ele>169.5</ele>
        <time>2017-03-16T12:01:23Z</time>
      </trkpt>
      <trkpt lat="43.38654" lon="1.70937">
        <ele>169.6</ele>
        <time>2017-03-16T12:01:25Z</time>
      </trkpt>
      <trkpt lat="43.38661" lon="1.70946">
        <ele>169.5</ele>
        <time>2017-03-16T12:01:27Z</time>
      </trkpt>
      <trkpt lat="43.38666" lon="1.70955">
        <ele>169.2</ele>
        <time>2017-03-16T12:01:29Z</time>
      </trkpt>
      <trkpt lat="43.38673" lon="1.70964">
        <ele>169.1</ele>
        <time>2017-03-16T12:01:31Z</time>
      </trkpt>
      <trkpt lat="43.38682" lon="1.70972">
        <ele>168.7</ele>
        <time>2017-03-16T12:01:33Z</time>
      </trkpt>
      <trkpt lat="43.3869" lon="1.70978">
        <ele>168.7</ele>
        <time>2017-03-16T12:01:35Z</time>
      </trkpt>
      <trkpt lat="43.38699" lon="1.70982">
        <ele>168.9</ele>
        <time>2017-03-16T12:01:37Z</time>
      </trkpt>
      <trkpt lat="43.38708" lon="1.70987">
        <ele>169.4</ele>
        <time>2017-03-16T12:01:39Z</time>
      </trkpt>
      <trkpt lat="43.38718" lon="1.70991">
        <ele>169.5</ele>
        <time>2017-03-16T12:01:41Z</time>
      </trkpt>
      <trkpt lat="43.38727" lon="1.70995">
        <ele>169.8</ele>
        <time>2017-03-16T12:01:43Z</time>
      </trkpt>
      <trkpt lat="43.38737" lon="1.71">
        <ele>170.3</ele>
        <time>2017-03-16T12:01:45Z</time>
      </trkpt>
      <trkpt lat="43.38746" lon="1.71006">
        <ele>170.4</ele>
        <time>2017-03-16T12:01:47Z</time>
      </trkpt>
      <trkpt lat="43.38755" lon="1.71012">
        <ele>170.8</ele>
        <time>2017-03-16T12:01:49Z</time>
      </trkpt>
      <trkpt lat="43.38763" lon="1.71019">
        <ele>170.9</ele>
        <time>2017-03-16T12:01:51Z</time>
      </trkpt>
      <trkpt lat="43.38772" lon="1.71027">
        <ele>171.1</ele>
        <time>2017-03-16T12:01:53Z</time>
      </trkpt>
      <trkpt lat="43.38782" lon="1.71033">
        <ele>171.2</ele>
        <time>2017-03-16T12:01:55Z</time>
      </trkpt>
      <trkpt lat="43.38789" lon="1.71039">
        <ele>171.9</ele>
        <time>2017-03-16T12:01:57Z</time>
      </trkpt>
      <trkpt lat="43.38797" lon="1.71046">
        <ele>172.2</ele>
        <time>2017-03-16T12:01:59Z</time>
      </trkpt>
      <trkpt lat="43.38804" lon="1.71053">
        <ele>172.6</ele>
        <time>2017-03-16T12:02:01Z</time>
      </trkpt>
      <trkpt lat="43.38811" lon="1.71059">
        <ele>172.6</ele>
        <time>2017-03-16T12:02:03Z</time>
      </trkpt>
      <trkpt lat="43.38819" lon="1.71065">
        <ele>172.8</ele>
        <time>2017-03-16T12:02:05Z</time>
      </trkpt>
      <trkpt lat="43.38826" lon="1.71071">
        <ele>172.2</ele>
        <time>2017-03-16T12:02:07Z</time>
      </trkpt>
      <trkpt lat="43.38834" lon="1.71076">
        <ele>172.2</ele>
        <time>2017-03-16T12:02:09Z</time>
      </trkpt>
      <trkpt lat="43.38843" lon="1.71082">
        <ele>172.2</ele>
        <time>2017-03-16T12:02:11Z</time>
      </trkpt>
      <trkpt lat="43.38851" lon="1.71088">
        <ele>172.7</ele>
        <time>2017-03-16T12:02:13Z</time>
      </trkpt>
      <trkpt lat="43.38859" lon="1.71094">
        <ele>172.1</ele>
        <time>2017-03-16T12:02:15Z</time>
      </trkpt>
      <trkpt lat="43.38867" lon="1.711">
        <ele>172.2</ele>
        <time>2017-03-16T12:02:17Z</time>
      </trkpt>
      <trkpt lat="43.38875" lon="1.71106">
        <ele>172.1</ele>
        <time>2017-03-16T12:02:19Z</time>
      </trkpt>
      <trkpt lat="43.38883" lon="1.71112">
        <ele>172</ele>
        <time>2017-03-16T12:02:21Z</time>
      </trkpt>
      <trkpt lat="43.38889" lon="1.71118">
        <ele>172.3</ele>
        <time>2017-03-16T12:02:23Z</time>
      </trkpt>
      <trkpt lat="43.38898" lon="1.71123">
        <ele>173.5</ele>
        <time>2017-03-16T12:02:26Z</time>
      </trkpt>
      <trkpt lat="43.38906" lon="1.71129">
        <ele>174</ele>
        <time>2017-03-16T12:02:29Z</time>
      </trkpt>
      <trkpt lat="43.38914" lon="1.71136">
        <ele>174.6</ele>
        <time>2017-03-16T12:02:33Z</time>
      </trkpt>
      <trkpt lat="43.38922" lon="1.71141">
        <ele>176.3</ele>
        <time>2017-03-16T12:02:40Z</time>
      </trkpt>
      <trkpt lat="43.38928" lon="1.71146">
        <ele>177.3</ele>
        <time>2017-03-16T12:02:43Z</time>
      </trkpt>
      <trkpt lat="43.38938" lon="1.71153">
        <ele>177.7</ele>
        <time>2017-03-16T12:02:46Z</time>
      </trkpt>
      <trkpt lat="43.38944" lon="1.71157">
        <ele>177.7</ele>
        <time>2017-03-16T12:02:48Z</time>
      </trkpt>
      <trkpt lat="43.38954" lon="1.71165">
        <ele>178.1</ele>
        <time>2017-03-16T12:02:51Z</time>
      </trkpt>
      <trkpt lat="43.38962" lon="1.71169">
        <ele>178.1</ele>
        <time>2017-03-16T12:02:53Z</time>
      </trkpt>
      <trkpt lat="43.3897" lon="1.71173">
        <ele>178.3</ele>
        <time>2017-03-16T12:02:55Z</time>
      </trkpt>
      <trkpt lat="43.38978" lon="1.71179">
        <ele>178.6</ele>
        <time>2017-03-16T12:02:57Z</time>
      </trkpt>
      <trkpt lat="43.38986" lon="1.71185">
        <ele>179.4</ele>
        <time>2017-03-16T12:02:59Z</time>
      </trkpt>
      <trkpt lat="43.38995" lon="1.71191">
        <ele>179.2</ele>
        <time>2017-03-16T12:03:01Z</time>
      </trkpt>
      <trkpt lat="43.39003" lon="1.71198">
        <ele>178.9</ele>
        <time>2017-03-16T12:03:03Z</time>
      </trkpt>
      <trkpt lat="43.39012" lon="1.71205">
        <ele>178.3</ele>
        <time>2017-03-16T12:03:05Z</time>
      </trkpt>
      <trkpt lat="43.39021" lon="1.71212">
        <ele>178.2</ele>
        <time>2017-03-16T12:03:07Z</time>
      </trkpt>
      <trkpt lat="43.39029" lon="1.7122">
        <ele>179</ele>
        <time>2017-03-16T12:03:09Z</time>
      </trkpt>
      <trkpt lat="43.39038" lon="1.71229">
        <ele>178.2</ele>
        <time>2017-03-16T12:03:11Z</time>
      </trkpt>
      <trkpt lat="43.39046" lon="1.71238">
        <ele>177.9</ele>
        <time>2017-03-16T12:03:13Z</time>
      </trkpt>
      <trkpt lat="43.39052" lon="1.71248">
        <ele>178.1</ele>
        <time>2017-03-16T12:03:15Z</time>
      </trkpt>
      <trkpt lat="43.39059" lon="1.71258">
        <ele>177.5</ele>
        <time>2017-03-16T12:03:17Z</time>
      </trkpt>
      <trkpt lat="43.39066" lon="1.71269">
        <ele>177.8</ele>
        <time>2017-03-16T12:03:19Z</time>
      </trkpt>
      <trkpt lat="43.39072" lon="1.71279">
        <ele>177.5</ele>
        <time>2017-03-16T12:03:21Z</time>
      </trkpt>
      <trkpt lat="43.39078" lon="1.71291">
        <ele>177</ele>
        <time>2017-03-16T12:03:23Z</time>
      </trkpt>
      <trkpt lat="43.39083" lon="1.71303">
        <ele>177.2</ele>
        <time>2017-03-16T12:03:25Z</time>
      </trkpt>
      <trkpt lat="43.39088" lon="1.71315">
        <ele>177.1</ele>
        <time>2017-03-16T12:03:27Z</time>
      </trkpt>
      <trkpt lat="43.3909" lon="1.71329">
        <ele>176.7</ele>
        <time>2017-03-16T12:03:29Z</time>
      </trkpt>
      <trkpt lat="43.39091" lon="1.71343">
        <ele>175.7</ele>
        <time>2017-03-16T12:03:31Z</time>
      </trkpt>
      <trkpt lat="43.39092" lon="1.71356">
        <ele>175.5</ele>
        <time>2017-03-16T12:03:33Z</time>
      </trkpt>
      <trkpt lat="43.39092" lon="1.7137">
        <ele>174.6</ele>
        <time>2017-03-16T12:03:35Z</time>
      </trkpt>
      <trkpt lat="43.3909" lon="1.71384">
        <ele>173.8</ele>
        <time>2017-03-16T12:03:37Z</time>
      </trkpt>
      <trkpt lat="43.39088" lon="1.71398">
        <ele>173.1</ele>
        <time>2017-03-16T12:03:39Z</time>
      </trkpt>
      <trkpt lat="43.39085" lon="1.71412">
        <ele>172.6</ele>
        <time>2017-03-16T12:03:41Z</time>
      </trkpt>
      <trkpt lat="43.39083" lon="1.71427">
        <ele>172.1</ele>
        <time>2017-03-16T12:03:43Z</time>
      </trkpt>
      <trkpt lat="43.39081" lon="1.71441">
        <ele>171.9</ele>
        <time>2017-03-16T12:03:45Z</time>
      </trkpt>
      <trkpt lat="43.39078" lon="1.71455">
        <ele>171.6</ele>
        <time>2017-03-16T12:03:47Z</time>
      </trkpt>
      <trkpt lat="43.39076" lon="1.7147">
        <ele>171.3</ele>
        <time>2017-03-16T12:03:49Z</time>
      </trkpt>
      <trkpt lat="43.39074" lon="1.71484">
        <ele>171.2</ele>
        <time>2017-03-16T12:03:51Z</time>
      </trkpt>
      <trkpt lat="43.39072" lon="1.71499">
        <ele>170.7</ele>
        <time>2017-03-16T12:03:53Z</time>
      </trkpt>
      <trkpt lat="43.39069" lon="1.71512">
        <ele>170.3</ele>
        <time>2017-03-16T12:03:55Z</time>
      </trkpt>
      <trkpt lat="43.39066" lon="1.71526">
        <ele>170</ele>
        <time>2017-03-16T12:03:57Z</time>
      </trkpt>
      <trkpt lat="43.39064" lon="1.7154">
        <ele>169.9</ele>
        <time>2017-03-16T12:03:59Z</time>
      </trkpt>
      <trkpt lat="43.39061" lon="1.71554">
        <ele>169.8</ele>
        <time>2017-03-16T12:04:01Z</time>
      </trkpt>
      <trkpt lat="43.39059" lon="1.71567">
        <ele>169.7</ele>
        <time>2017-03-16T12:04:03Z</time>
      </trkpt>
      <trkpt lat="43.39055" lon="1.7158">
        <ele>169.4</ele>
        <time>2017-03-16T12:04:05Z</time>
      </trkpt>
      <trkpt lat="43.39052" lon="1.71592">
        <ele>169.1</ele>
        <time>2017-03-16T12:04:07Z</time>
      </trkpt>
      <trkpt lat="43.3905" lon="1.71605">
        <ele>168.8</ele>
        <time>2017-03-16T12:04:09Z</time>
      </trkpt>
      <trkpt lat="43.39049" lon="1.71617">
        <ele>168.7</ele>
        <time>2017-03-16T12:04:11Z</time>
      </trkpt>
      <trkpt lat="43.39047" lon="1.71629">
        <ele>168.6</ele>
        <time>2017-03-16T12:04:13Z</time>
      </trkpt>
      <trkpt lat="43.39045" lon="1.71641">
        <ele>168.4</ele>
        <time>2017-03-16T12:04:15Z</time>
      </trkpt>
      <trkpt lat="43.39043" lon="1.71654">
        <ele>168.3</ele>
        <time>2017-03-16T12:04:17Z</time>
      </trkpt>
      <trkpt lat="43.39043" lon="1.71667">
        <ele>168.1</ele>
        <time>2017-03-16T12:04:19Z</time>
      </trkpt>
      <trkpt lat="43.39041" lon="1.71681">
        <ele>168</ele>
        <time>2017-03-16T12:04:21Z</time>
      </trkpt>
      <trkpt lat="43.39041" lon="1.71694">
        <ele>167.6</ele>
        <time>2017-03-16T12:04:23Z</time>
      </trkpt>
      <trkpt lat="43.39041" lon="1.71706">
        <ele>167.3</ele>
        <time>2017-03-16T12:04:25Z</time>
      </trkpt>
      <trkpt lat="43.39039" lon="1.71719">
        <ele>166.8</ele>
        <time>2017-03-16T12:04:27Z</time>
      </trkpt>
      <trkpt lat="43.39038" lon="1.71733">
        <ele>166.8</ele>
        <time>2017-03-16T12:04:29Z</time>
      </trkpt>
      <trkpt lat="43.39036" lon="1.71747">
        <ele>166.8</ele>
        <time>2017-03-16T12:04:31Z</time>
      </trkpt>
      <trkpt lat="43.39032" lon="1.71759">
        <ele>166.7</ele>
        <time>2017-03-16T12:04:33Z</time>
      </trkpt>
      <trkpt lat="43.39029" lon="1.71772">
        <ele>166.9</ele>
        <time>2017-03-16T12:04:35Z</time>
      </trkpt>
      <trkpt lat="43.39028" lon="1.71787">
        <ele>166.9</ele>
        <time>2017-03-16T12:04:37Z</time>
      </trkpt>
      <trkpt lat="43.39026" lon="1.71802">
        <ele>166.4</ele>
        <time>2017-03-16T12:04:39Z</time>
      </trkpt>
      <trkpt lat="43.39024" lon="1.71816">
        <ele>166.2</ele>
        <time>2017-03-16T12:04:41Z</time>
      </trkpt>
      <trkpt lat="43.39021" lon="1.71829">
        <ele>165.9</ele>
        <time>2017-03-16T12:04:43Z</time>
      </trkpt>
      <trkpt lat="43.39017" lon="1.71842">
        <ele>165.4</ele>
        <time>2017-03-16T12:04:45Z</time>
      </trkpt>
      <trkpt lat="43.39014" lon="1.71856">
        <ele>165.5</ele>
        <time>2017-03-16T12:04:47Z</time>
      </trkpt>
      <trkpt lat="43.39011" lon="1.71867">
        <ele>165.6</ele>
        <time>2017-03-16T12:04:49Z</time>
      </trkpt>
      <trkpt lat="43.39007" lon="1.7188">
        <ele>165.4</ele>
        <time>2017-03-16T12:04:51Z</time>
      </trkpt>
      <trkpt lat="43.39003" lon="1.71891">
        <ele>165.3</ele>
        <time>2017-03-16T12:04:53Z</time>
      </trkpt>
      <trkpt lat="43.38999" lon="1.71903">
        <ele>165.6</ele>
        <time>2017-03-16T12:04:55Z</time>
      </trkpt>
      <trkpt lat="43.38993" lon="1.71915">
        <ele>165.4</ele>
        <time>2017-03-16T12:04:57Z</time>
      </trkpt>
      <trkpt lat="43.38987" lon="1.71926">
        <ele>165.4</ele>
        <time>2017-03-16T12:04:59Z</time>
      </trkpt>
      <trkpt lat="43.3898" lon="1.71935">
        <ele>165.1</ele>
        <time>2017-03-16T12:05:01Z</time>
      </trkpt>
      <trkpt lat="43.38973" lon="1.71943">
        <ele>164.7</ele>
        <time>2017-03-16T12:05:03Z</time>
      </trkpt>
      <trkpt lat="43.38965" lon="1.7195">
        <ele>164.1</ele>
        <time>2017-03-16T12:05:05Z</time>
      </trkpt>
      <trkpt lat="43.38958" lon="1.71958">
        <ele>163.6</ele>
        <time>2017-03-16T12:05:07Z</time>
      </trkpt>
      <trkpt lat="43.38952" lon="1.71964">
        <ele>163.7</ele>
        <time>2017-03-16T12:05:09Z</time>
      </trkpt>
      <trkpt lat="43.38947" lon="1.7197">
        <ele>166</ele>
        <time>2017-03-16T12:05:16Z</time>
      </trkpt>
      <trkpt lat="43.38947" lon="1.71973">
        <ele>166.8</ele>
        <time>2017-03-16T12:05:34Z</time>
      </trkpt>
      <trkpt lat="43.38938" lon="1.71977">
        <ele>168.6</ele>
        <time>2017-03-16T12:05:44Z</time>
      </trkpt>
      <trkpt lat="43.38931" lon="1.71982">
        <ele>168.8</ele>
        <time>2017-03-16T12:05:47Z</time>
      </trkpt>
      <trkpt lat="43.38923" lon="1.71987">
        <ele>168.7</ele>
        <time>2017-03-16T12:05:49Z</time>
      </trkpt>
      <trkpt lat="43.38915" lon="1.71991">
        <ele>168.3</ele>
        <time>2017-03-16T12:05:51Z</time>
      </trkpt>
      <trkpt lat="43.38908" lon="1.71995">
        <ele>168.4</ele>
        <time>2017-03-16T12:05:53Z</time>
      </trkpt>
      <trkpt lat="43.389" lon="1.71999">
        <ele>168.8</ele>
        <time>2017-03-16T12:05:55Z</time>
      </trkpt>
      <trkpt lat="43.38891" lon="1.72002">
        <ele>169.2</ele>
        <time>2017-03-16T12:05:57Z</time>
      </trkpt>
      <trkpt lat="43.38882" lon="1.72006">
        <ele>170.2</ele>
        <time>2017-03-16T12:05:59Z</time>
      </trkpt>
      <trkpt lat="43.38872" lon="1.72009">
        <ele>170.7</ele>
        <time>2017-03-16T12:06:01Z</time>
      </trkpt>
      <trkpt lat="43.38863" lon="1.72011">
        <ele>171.2</ele>
        <time>2017-03-16T12:06:03Z</time>
      </trkpt>
      <trkpt lat="43.38854" lon="1.72015">
        <ele>171.8</ele>
        <time>2017-03-16T12:06:05Z</time>
      </trkpt>
      <trkpt lat="43.38845" lon="1.72016">
        <ele>171.9</ele>
        <time>2017-03-16T12:06:07Z</time>
      </trkpt>
      <trkpt lat="43.38836" lon="1.72018">
        <ele>171.1</ele>
        <time>2017-03-16T12:06:09Z</time>
      </trkpt>
      <trkpt lat="43.38826" lon="1.7202">
        <ele>171.9</ele>
        <time>2017-03-16T12:06:11Z</time>
      </trkpt>
      <trkpt lat="43.38816" lon="1.72022">
        <ele>172.3</ele>
        <time>2017-03-16T12:06:13Z</time>
      </trkpt>
      <trkpt lat="43.38806" lon="1.72024">
        <ele>172.7</ele>
        <time>2017-03-16T12:06:15Z</time>
      </trkpt>
      <trkpt lat="43.38796" lon="1.72025">
        <ele>173.4</ele>
        <time>2017-03-16T12:06:17Z</time>
      </trkpt>
      <trkpt lat="43.38786" lon="1.72027">
        <ele>173.4</ele>
        <time>2017-03-16T12:06:19Z</time>
      </trkpt>
      <trkpt lat="43.38777" lon="1.72028">
        <ele>173.5</ele>
        <time>2017-03-16T12:06:21Z</time>
      </trkpt>
      <trkpt lat="43.38768" lon="1.7203">
        <ele>173.6</ele>
        <time>2017-03-16T12:06:23Z</time>
      </trkpt>
      <trkpt lat="43.38758" lon="1.72033">
        <ele>173.8</ele>
        <time>2017-03-16T12:06:25Z</time>
      </trkpt>
      <trkpt lat="43.38748" lon="1.72035">
        <ele>173.3</ele>
        <time>2017-03-16T12:06:27Z</time>
      </trkpt>
      <trkpt lat="43.38739" lon="1.72038">
        <ele>173.4</ele>
        <time>2017-03-16T12:06:29Z</time>
      </trkpt>
      <trkpt lat="43.3873" lon="1.72042">
        <ele>173</ele>
        <time>2017-03-16T12:06:31Z</time>
      </trkpt>
      <trkpt lat="43.38721" lon="1.72046">
        <ele>173.3</ele>
        <time>2017-03-16T12:06:33Z</time>
      </trkpt>
      <trkpt lat="43.38712" lon="1.72053">
        <ele>173.8</ele>
        <time>2017-03-16T12:06:35Z</time>
      </trkpt>
      <trkpt lat="43.38703" lon="1.72059">
        <ele>174.1</ele>
        <time>2017-03-16T12:06:37Z</time>
      </trkpt>
      <trkpt lat="43.38694" lon="1.72067">
        <ele>174.1</ele>
        <time>2017-03-16T12:06:39Z</time>
      </trkpt>
      <trkpt lat="43.38684" lon="1.72075">
        <ele>173.8</ele>
        <time>2017-03-16T12:06:41Z</time>
      </trkpt>
      <trkpt lat="43.38676" lon="1.72083">
        <ele>173.3</ele>
        <time>2017-03-16T12:06:43Z</time>
      </trkpt>
      <trkpt lat="43.38668" lon="1.72092">
        <ele>173.1</ele>
        <time>2017-03-16T12:06:45Z</time>
      </trkpt>
      <trkpt lat="43.38661" lon="1.72104">
        <ele>172.9</ele>
        <time>2017-03-16T12:06:47Z</time>
      </trkpt>
      <trkpt lat="43.38654" lon="1.72115">
        <ele>172.7</ele>
        <time>2017-03-16T12:06:49Z</time>
      </trkpt>
      <trkpt lat="43.38647" lon="1.72125">
        <ele>172.5</ele>
        <time>2017-03-16T12:06:51Z</time>
      </trkpt>
      <trkpt lat="43.38641" lon="1.72136">
        <ele>172.3</ele>
        <time>2017-03-16T12:06:53Z</time>
      </trkpt>
      <trkpt lat="43.38635" lon="1.72147">
        <ele>172.3</ele>
        <time>2017-03-16T12:06:55Z</time>
      </trkpt>
      <trkpt lat="43.38629" lon="1.72157">
        <ele>171.7</ele>
        <time>2017-03-16T12:06:57Z</time>
      </trkpt>
      <trkpt lat="43.38623" lon="1.72168">
        <ele>171.4</ele>
        <time>2017-03-16T12:06:59Z</time>
      </trkpt>
      <trkpt lat="43.38616" lon="1.72179">
        <ele>171.7</ele>
        <time>2017-03-16T12:07:01Z</time>
      </trkpt>
      <trkpt lat="43.3861" lon="1.72191">
        <ele>171.4</ele>
        <time>2017-03-16T12:07:03Z</time>
      </trkpt>
      <trkpt lat="43.38603" lon="1.72202">
        <ele>171.4</ele>
        <time>2017-03-16T12:07:05Z</time>
      </trkpt>
      <trkpt lat="43.38597" lon="1.72214">
        <ele>171.3</ele>
        <time>2017-03-16T12:07:07Z</time>
      </trkpt>
      <trkpt lat="43.38589" lon="1.72225">
        <ele>171.2</ele>
        <time>2017-03-16T12:07:09Z</time>
      </trkpt>
      <trkpt lat="43.38583" lon="1.72237">
        <ele>171.3</ele>
        <time>2017-03-16T12:07:11Z</time>
      </trkpt>
      <trkpt lat="43.38576" lon="1.7225">
        <ele>171.7</ele>
        <time>2017-03-16T12:07:13Z</time>
      </trkpt>
      <trkpt lat="43.38569" lon="1.72262">
        <ele>172.2</ele>
        <time>2017-03-16T12:07:15Z</time>
      </trkpt>
      <trkpt lat="43.38562" lon="1.72274">
        <ele>172.1</ele>
        <time>2017-03-16T12:07:17Z</time>
      </trkpt>
      <trkpt lat="43.38554" lon="1.72287">
        <ele>172.3</ele>
        <time>2017-03-16T12:07:19Z</time>
      </trkpt>
      <trkpt lat="43.38548" lon="1.72297">
        <ele>172.7</ele>
        <time>2017-03-16T12:07:21Z</time>
      </trkpt>
      <trkpt lat="43.38541" lon="1.7231">
        <ele>173.2</ele>
        <time>2017-03-16T12:07:23Z</time>
      </trkpt>
      <trkpt lat="43.38535" lon="1.72321">
        <ele>174</ele>
        <time>2017-03-16T12:07:25Z</time>
      </trkpt>
      <trkpt lat="43.38528" lon="1.72333">
        <ele>174.2</ele>
        <time>2017-03-16T12:07:27Z</time>
      </trkpt>
      <trkpt lat="43.38521" lon="1.72345">
        <ele>173.9</ele>
        <time>2017-03-16T12:07:29Z</time>
      </trkpt>
      <trkpt lat="43.38514" lon="1.72356">
        <ele>174.4</ele>
        <time>2017-03-16T12:07:31Z</time>
      </trkpt>
      <trkpt lat="43.38508" lon="1.72367">
        <ele>174.6</ele>
        <time>2017-03-16T12:07:33Z</time>
      </trkpt>
      <trkpt lat="43.38501" lon="1.72378">
        <ele>174.6</ele>
        <time>2017-03-16T12:07:35Z</time>
      </trkpt>
      <trkpt lat="43.38494" lon="1.72391">
        <ele>174.8</ele>
        <time>2017-03-16T12:07:37Z</time>
      </trkpt>
      <trkpt lat="43.38488" lon="1.72403">
        <ele>174.8</ele>
        <time>2017-03-16T12:07:39Z</time>
      </trkpt>
      <trkpt lat="43.38482" lon="1.72414">
        <ele>175.6</ele>
        <time>2017-03-16T12:07:41Z</time>
      </trkpt>
      <trkpt lat="43.38475" lon="1.72427">
        <ele>175.4</ele>
        <time>2017-03-16T12:07:43Z</time>
      </trkpt>
      <trkpt lat="43.3847" lon="1.7244">
        <ele>174.9</ele>
        <time>2017-03-16T12:07:45Z</time>
      </trkpt>
      <trkpt lat="43.38465" lon="1.72452">
        <ele>174.8</ele>
        <time>2017-03-16T12:07:47Z</time>
      </trkpt>
      <trkpt lat="43.38458" lon="1.72464">
        <ele>174.3</ele>
        <time>2017-03-16T12:07:49Z</time>
      </trkpt>
      <trkpt lat="43.38452" lon="1.72476">
        <ele>174.2</ele>
        <time>2017-03-16T12:07:51Z</time>
      </trkpt>
      <trkpt lat="43.38447" lon="1.72489">
        <ele>173.9</ele>
        <time>2017-03-16T12:07:53Z</time>
      </trkpt>
      <trkpt lat="43.38441" lon="1.72502">
        <ele>173.6</ele>
        <time>2017-03-16T12:07:55Z</time>
      </trkpt>
      <trkpt lat="43.38437" lon="1.72513">
        <ele>173.3</ele>
        <time>2017-03-16T12:07:57Z</time>
      </trkpt>
      <trkpt lat="43.38433" lon="1.72525">
        <ele>172.9</ele>
        <time>2017-03-16T12:07:59Z</time>
      </trkpt>
      <trkpt lat="43.38429" lon="1.72537">
        <ele>172.3</ele>
        <time>2017-03-16T12:08:01Z</time>
      </trkpt>
      <trkpt lat="43.38426" lon="1.72548">
        <ele>171.9</ele>
        <time>2017-03-16T12:08:03Z</time>
      </trkpt>
      <trkpt lat="43.38421" lon="1.7256">
        <ele>171.9</ele>
        <time>2017-03-16T12:08:05Z</time>
      </trkpt>
      <trkpt lat="43.38416" lon="1.72572">
        <ele>172.8</ele>
        <time>2017-03-16T12:08:07Z</time>
      </trkpt>
      <trkpt lat="43.38412" lon="1.72584">
        <ele>172.9</ele>
        <time>2017-03-16T12:08:09Z</time>
      </trkpt>
      <trkpt lat="43.38406" lon="1.72597">
        <ele>174.3</ele>
        <time>2017-03-16T12:08:11Z</time>
      </trkpt>
      <trkpt lat="43.384" lon="1.7261">
        <ele>176.3</ele>
        <time>2017-03-16T12:08:13Z</time>
      </trkpt>
      <trkpt lat="43.38395" lon="1.72618">
        <ele>176.7</ele>
        <time>2017-03-16T12:08:14Z</time>
      </trkpt>
      <trkpt lat="43.38388" lon="1.72631">
        <ele>177.3</ele>
        <time>2017-03-16T12:08:16Z</time>
      </trkpt>
      <trkpt lat="43.38382" lon="1.72644">
        <ele>178.5</ele>
        <time>2017-03-16T12:08:18Z</time>
      </trkpt>
      <trkpt lat="43.38376" lon="1.72656">
        <ele>179.6</ele>
        <time>2017-03-16T12:08:20Z</time>
      </trkpt>
      <trkpt lat="43.3837" lon="1.72667">
        <ele>180.8</ele>
        <time>2017-03-16T12:08:22Z</time>
      </trkpt>
      <trkpt lat="43.38365" lon="1.72678">
        <ele>181.3</ele>
        <time>2017-03-16T12:08:24Z</time>
      </trkpt>
      <trkpt lat="43.38361" lon="1.72688">
        <ele>180</ele>
        <time>2017-03-16T12:08:26Z</time>
      </trkpt>
      <trkpt lat="43.38357" lon="1.72699">
        <ele>180</ele>
        <time>2017-03-16T12:08:28Z</time>
      </trkpt>
      <trkpt lat="43.38352" lon="1.7271">
        <ele>180</ele>
        <time>2017-03-16T12:08:30Z</time>
      </trkpt>
      <trkpt lat="43.38348" lon="1.72721">
        <ele>180.2</ele>
        <time>2017-03-16T12:08:32Z</time>
      </trkpt>
      <trkpt lat="43.38344" lon="1.72731">
        <ele>180.4</ele>
        <time>2017-03-16T12:08:34Z</time>
      </trkpt>
      <trkpt lat="43.3834" lon="1.7274">
        <ele>180.7</ele>
        <time>2017-03-16T12:08:36Z</time>
      </trkpt>
      <trkpt lat="43.38335" lon="1.72748">
        <ele>181.3</ele>
        <time>2017-03-16T12:08:38Z</time>
      </trkpt>
      <trkpt lat="43.38329" lon="1.72757">
        <ele>180.7</ele>
        <time>2017-03-16T12:08:41Z</time>
      </trkpt>
      <trkpt lat="43.38322" lon="1.72761">
        <ele>179.5</ele>
        <time>2017-03-16T12:08:45Z</time>
      </trkpt>
      <trkpt lat="43.38316" lon="1.72768">
        <ele>179.5</ele>
        <time>2017-03-16T12:08:48Z</time>
      </trkpt>
      <trkpt lat="43.3831" lon="1.72777">
        <ele>179.8</ele>
        <time>2017-03-16T12:08:51Z</time>
      </trkpt>
      <trkpt lat="43.38304" lon="1.72787">
        <ele>180</ele>
        <time>2017-03-16T12:08:54Z</time>
      </trkpt>
      <trkpt lat="43.38299" lon="1.72795">
        <ele>180.2</ele>
        <time>2017-03-16T12:08:56Z</time>
      </trkpt>
      <trkpt lat="43.38294" lon="1.72803">
        <ele>180.1</ele>
        <time>2017-03-16T12:08:58Z</time>
      </trkpt>
      <trkpt lat="43.38288" lon="1.72812">
        <ele>180.3</ele>
        <time>2017-03-16T12:09:00Z</time>
      </trkpt>
      <trkpt lat="43.38284" lon="1.7282">
        <ele>180</ele>
        <time>2017-03-16T12:09:02Z</time>
      </trkpt>
      <trkpt lat="43.38281" lon="1.7283">
        <ele>180.3</ele>
        <time>2017-03-16T12:09:04Z</time>
      </trkpt>
      <trkpt lat="43.38276" lon="1.72842">
        <ele>180.2</ele>
        <time>2017-03-16T12:09:07Z</time>
      </trkpt>
      <trkpt lat="43.38271" lon="1.72852">
        <ele>179.7</ele>
        <time>2017-03-16T12:09:10Z</time>
      </trkpt>
      <trkpt lat="43.38266" lon="1.7286">
        <ele>179.6</ele>
        <time>2017-03-16T12:09:12Z</time>
      </trkpt>
      <trkpt lat="43.3826" lon="1.72869">
        <ele>178.9</ele>
        <time>2017-03-16T12:09:14Z</time>
      </trkpt>
      <trkpt lat="43.38255" lon="1.72879">
        <ele>178.5</ele>
        <time>2017-03-16T12:09:16Z</time>
      </trkpt>
      <trkpt lat="43.38249" lon="1.72888">
        <ele>178.1</ele>
        <time>2017-03-16T12:09:18Z</time>
      </trkpt>
      <trkpt lat="43.38244" lon="1.72897">
        <ele>177.5</ele>
        <time>2017-03-16T12:09:20Z</time>
      </trkpt>
      <trkpt lat="43.38238" lon="1.72908">
        <ele>177.6</ele>
        <time>2017-03-16T12:09:22Z</time>
      </trkpt>
      <trkpt lat="43.38233" lon="1.7292">
        <ele>177.3</ele>
        <time>2017-03-16T12:09:24Z</time>
      </trkpt>
      <trkpt lat="43.38227" lon="1.72931">
        <ele>177</ele>
        <time>2017-03-16T12:09:26Z</time>
      </trkpt>
      <trkpt lat="43.38222" lon="1.72943">
        <ele>177.3</ele>
        <time>2017-03-16T12:09:28Z</time>
      </trkpt>
      <trkpt lat="43.38216" lon="1.72955">
        <ele>178</ele>
        <time>2017-03-16T12:09:30Z</time>
      </trkpt>
      <trkpt lat="43.3821" lon="1.72967">
        <ele>178.9</ele>
        <time>2017-03-16T12:09:32Z</time>
      </trkpt>
      <trkpt lat="43.38205" lon="1.72979">
        <ele>178.8</ele>
        <time>2017-03-16T12:09:34Z</time>
      </trkpt>
      <trkpt lat="43.382" lon="1.72989">
        <ele>178.6</ele>
        <time>2017-03-16T12:09:36Z</time>
      </trkpt>
      <trkpt lat="43.38195" lon="1.73">
        <ele>178.2</ele>
        <time>2017-03-16T12:09:38Z</time>
      </trkpt>
      <trkpt lat="43.3819" lon="1.73011">
        <ele>178</ele>
        <time>2017-03-16T12:09:40Z</time>
      </trkpt>
      <trkpt lat="43.38184" lon="1.73022">
        <ele>177.4</ele>
        <time>2017-03-16T12:09:42Z</time>
      </trkpt>
      <trkpt lat="43.38179" lon="1.73034">
        <ele>176.8</ele>
        <time>2017-03-16T12:09:44Z</time>
      </trkpt>
      <trkpt lat="43.38173" lon="1.73045">
        <ele>176.8</ele>
        <time>2017-03-16T12:09:46Z</time>
      </trkpt>
      <trkpt lat="43.38168" lon="1.73058">
        <ele>176.7</ele>
        <time>2017-03-16T12:09:48Z</time>
      </trkpt>
      <trkpt lat="43.38163" lon="1.73071">
        <ele>176.3</ele>
        <time>2017-03-16T12:09:50Z</time>
      </trkpt>
      <trkpt lat="43.38157" lon="1.73085">
        <ele>176.1</ele>
        <time>2017-03-16T12:09:52Z</time>
      </trkpt>
      <trkpt lat="43.38153" lon="1.73099">
        <ele>176.4</ele>
        <time>2017-03-16T12:09:54Z</time>
      </trkpt>
      <trkpt lat="43.38148" lon="1.73113">
        <ele>176.3</ele>
        <time>2017-03-16T12:09:56Z</time>
      </trkpt>
      <trkpt lat="43.38143" lon="1.73129">
        <ele>176.2</ele>
        <time>2017-03-16T12:09:58Z</time>
      </trkpt>
      <trkpt lat="43.38137" lon="1.73145">
        <ele>176.3</ele>
        <time>2017-03-16T12:10:00Z</time>
      </trkpt>
      <trkpt lat="43.38132" lon="1.73158">
        <ele>176.2</ele>
        <time>2017-03-16T12:10:02Z</time>
      </trkpt>
      <trkpt lat="43.38127" lon="1.73172">
        <ele>175.9</ele>
        <time>2017-03-16T12:10:04Z</time>
      </trkpt>
      <trkpt lat="43.38123" lon="1.73185">
        <ele>175.9</ele>
        <time>2017-03-16T12:10:06Z</time>
      </trkpt>
      <trkpt lat="43.3812" lon="1.73199">
        <ele>175.9</ele>
        <time>2017-03-16T12:10:08Z</time>
      </trkpt>
      <trkpt lat="43.38117" lon="1.73212">
        <ele>175.7</ele>
        <time>2017-03-16T12:10:10Z</time>
      </trkpt>
      <trkpt lat="43.38113" lon="1.73225">
        <ele>175.2</ele>
        <time>2017-03-16T12:10:12Z</time>
      </trkpt>
      <trkpt lat="43.3811" lon="1.7324">
        <ele>175.1</ele>
        <time>2017-03-16T12:10:14Z</time>
      </trkpt>
      <trkpt lat="43.38107" lon="1.73255">
        <ele>174.8</ele>
        <time>2017-03-16T12:10:16Z</time>
      </trkpt>
      <trkpt lat="43.38103" lon="1.73269">
        <ele>174.4</ele>
        <time>2017-03-16T12:10:18Z</time>
      </trkpt>
      <trkpt lat="43.38098" lon="1.73283">
        <ele>174.2</ele>
        <time>2017-03-16T12:10:20Z</time>
      </trkpt>
      <trkpt lat="43.38095" lon="1.73297">
        <ele>174.1</ele>
        <time>2017-03-16T12:10:22Z</time>
      </trkpt>
      <trkpt lat="43.38092" lon="1.73311">
        <ele>174</ele>
        <time>2017-03-16T12:10:24Z</time>
      </trkpt>
      <trkpt lat="43.38089" lon="1.73326">
        <ele>173.9</ele>
        <time>2017-03-16T12:10:26Z</time>
      </trkpt>
      <trkpt lat="43.38087" lon="1.7334">
        <ele>173.6</ele>
        <time>2017-03-16T12:10:28Z</time>
      </trkpt>
      <trkpt lat="43.38083" lon="1.73353">
        <ele>173.7</ele>
        <time>2017-03-16T12:10:30Z</time>
      </trkpt>
      <trkpt lat="43.3808" lon="1.73367">
        <ele>173.4</ele>
        <time>2017-03-16T12:10:32Z</time>
      </trkpt>
      <trkpt lat="43.38077" lon="1.73381">
        <ele>173.4</ele>
        <time>2017-03-16T12:10:34Z</time>
      </trkpt>
      <trkpt lat="43.38074" lon="1.73394">
        <ele>172.8</ele>
        <time>2017-03-16T12:10:36Z</time>
      </trkpt>
      <trkpt lat="43.3807" lon="1.73407">
        <ele>172.5</ele>
        <time>2017-03-16T12:10:38Z</time>
      </trkpt>
      <trkpt lat="43.38066" lon="1.7342">
        <ele>173</ele>
        <time>2017-03-16T12:10:40Z</time>
      </trkpt>
      <trkpt lat="43.38061" lon="1.73434">
        <ele>173</ele>
        <time>2017-03-16T12:10:42Z</time>
      </trkpt>
      <trkpt lat="43.38057" lon="1.73445">
        <ele>172.8</ele>
        <time>2017-03-16T12:10:44Z</time>
      </trkpt>
      <trkpt lat="43.38052" lon="1.73459">
        <ele>172.1</ele>
        <time>2017-03-16T12:10:46Z</time>
      </trkpt>
      <trkpt lat="43.38047" lon="1.73472">
        <ele>171.5</ele>
        <time>2017-03-16T12:10:48Z</time>
      </trkpt>
      <trkpt lat="43.38042" lon="1.73486">
        <ele>171.2</ele>
        <time>2017-03-16T12:10:50Z</time>
      </trkpt>
      <trkpt lat="43.38038" lon="1.73499">
        <ele>170.9</ele>
        <time>2017-03-16T12:10:52Z</time>
      </trkpt>
      <trkpt lat="43.38034" lon="1.73513">
        <ele>170.5</ele>
        <time>2017-03-16T12:10:54Z</time>
      </trkpt>
      <trkpt lat="43.38028" lon="1.73526">
        <ele>170.1</ele>
        <time>2017-03-16T12:10:56Z</time>
      </trkpt>
      <trkpt lat="43.38022" lon="1.7354">
        <ele>170.1</ele>
        <time>2017-03-16T12:10:58Z</time>
      </trkpt>
      <trkpt lat="43.38017" lon="1.73553">
        <ele>169.6</ele>
        <time>2017-03-16T12:11:00Z</time>
      </trkpt>
      <trkpt lat="43.38012" lon="1.73567">
        <ele>169.1</ele>
        <time>2017-03-16T12:11:02Z</time>
      </trkpt>
      <trkpt lat="43.38006" lon="1.7358">
        <ele>168.2</ele>
        <time>2017-03-16T12:11:04Z</time>
      </trkpt>
      <trkpt lat="43.38001" lon="1.73594">
        <ele>167.4</ele>
        <time>2017-03-16T12:11:06Z</time>
      </trkpt>
      <trkpt lat="43.37995" lon="1.73609">
        <ele>167.1</ele>
        <time>2017-03-16T12:11:08Z</time>
      </trkpt>
      <trkpt lat="43.3799" lon="1.73624">
        <ele>167</ele>
        <time>2017-03-16T12:11:10Z</time>
      </trkpt>
      <trkpt lat="43.37985" lon="1.73639">
        <ele>167.4</ele>
        <time>2017-03-16T12:11:12Z</time>
      </trkpt>
      <trkpt lat="43.3798" lon="1.73654">
        <ele>168.3</ele>
        <time>2017-03-16T12:11:14Z</time>
      </trkpt>
      <trkpt lat="43.37975" lon="1.73668">
        <ele>169</ele>
        <time>2017-03-16T12:11:16Z</time>
      </trkpt>
      <trkpt lat="43.37969" lon="1.73682">
        <ele>169.2</ele>
        <time>2017-03-16T12:11:18Z</time>
      </trkpt>
      <trkpt lat="43.37964" lon="1.73695">
        <ele>169.2</ele>
        <time>2017-03-16T12:11:20Z</time>
      </trkpt>
      <trkpt lat="43.3796" lon="1.73708">
        <ele>169</ele>
        <time>2017-03-16T12:11:22Z</time>
      </trkpt>
      <trkpt lat="43.37955" lon="1.73721">
        <ele>168.7</ele>
        <time>2017-03-16T12:11:24Z</time>
      </trkpt>
      <trkpt lat="43.3795" lon="1.73733">
        <ele>169.1</ele>
        <time>2017-03-16T12:11:26Z</time>
      </trkpt>
      <trkpt lat="43.37946" lon="1.73746">
        <ele>169.3</ele>
        <time>2017-03-16T12:11:28Z</time>
      </trkpt>
      <trkpt lat="43.37942" lon="1.73757">
        <ele>169.3</ele>
        <time>2017-03-16T12:11:30Z</time>
      </trkpt>
      <trkpt lat="43.37936" lon="1.73768">
        <ele>169.2</ele>
        <time>2017-03-16T12:11:32Z</time>
      </trkpt>
      <trkpt lat="43.37932" lon="1.73781">
        <ele>169.6</ele>
        <time>2017-03-16T12:11:34Z</time>
      </trkpt>
      <trkpt lat="43.37927" lon="1.73793">
        <ele>169.7</ele>
        <time>2017-03-16T12:11:36Z</time>
      </trkpt>
      <trkpt lat="43.37921" lon="1.73805">
        <ele>170.5</ele>
        <time>2017-03-16T12:11:38Z</time>
      </trkpt>
      <trkpt lat="43.37915" lon="1.73817">
        <ele>170.6</ele>
        <time>2017-03-16T12:11:40Z</time>
      </trkpt>
      <trkpt lat="43.37909" lon="1.73828">
        <ele>170.8</ele>
        <time>2017-03-16T12:11:42Z</time>
      </trkpt>
      <trkpt lat="43.37904" lon="1.7384">
        <ele>170.6</ele>
        <time>2017-03-16T12:11:44Z</time>
      </trkpt>
      <trkpt lat="43.37898" lon="1.73852">
        <ele>170.5</ele>
        <time>2017-03-16T12:11:46Z</time>
      </trkpt>
      <trkpt lat="43.37891" lon="1.73865">
        <ele>171.3</ele>
        <time>2017-03-16T12:11:48Z</time>
      </trkpt>
      <trkpt lat="43.37884" lon="1.73876">
        <ele>171.2</ele>
        <time>2017-03-16T12:11:50Z</time>
      </trkpt>
      <trkpt lat="43.37877" lon="1.73887">
        <ele>171.7</ele>
        <time>2017-03-16T12:11:52Z</time>
      </trkpt>
      <trkpt lat="43.37869" lon="1.73899">
        <ele>171.9</ele>
        <time>2017-03-16T12:11:54Z</time>
      </trkpt>
      <trkpt lat="43.37862" lon="1.73909">
        <ele>172.4</ele>
        <time>2017-03-16T12:11:56Z</time>
      </trkpt>
      <trkpt lat="43.37854" lon="1.73921">
        <ele>172.7</ele>
        <time>2017-03-16T12:11:58Z</time>
      </trkpt>
      <trkpt lat="43.37846" lon="1.73932">
        <ele>172.7</ele>
        <time>2017-03-16T12:12:00Z</time>
      </trkpt>
      <trkpt lat="43.37837" lon="1.73943">
        <ele>173</ele>
        <time>2017-03-16T12:12:02Z</time>
      </trkpt>
      <trkpt lat="43.37828" lon="1.73953">
        <ele>172.7</ele>
        <time>2017-03-16T12:12:05Z</time>
      </trkpt>
      <trkpt lat="43.37819" lon="1.73964">
        <ele>172.9</ele>
        <time>2017-03-16T12:12:06Z</time>
      </trkpt>
      <trkpt lat="43.37811" lon="1.73974">
        <ele>172.1</ele>
        <time>2017-03-16T12:12:08Z</time>
      </trkpt>
      <trkpt lat="43.37802" lon="1.73983">
        <ele>171.8</ele>
        <time>2017-03-16T12:12:10Z</time>
      </trkpt>
      <trkpt lat="43.37793" lon="1.73993">
        <ele>171.3</ele>
        <time>2017-03-16T12:12:12Z</time>
      </trkpt>
      <trkpt lat="43.37784" lon="1.74002">
        <ele>170.7</ele>
        <time>2017-03-16T12:12:14Z</time>
      </trkpt>
      <trkpt lat="43.37776" lon="1.74012">
        <ele>171</ele>
        <time>2017-03-16T12:12:16Z</time>
      </trkpt>
      <trkpt lat="43.37767" lon="1.74021">
        <ele>170.6</ele>
        <time>2017-03-16T12:12:18Z</time>
      </trkpt>
      <trkpt lat="43.37758" lon="1.7403">
        <ele>170.6</ele>
        <time>2017-03-16T12:12:20Z</time>
      </trkpt>
      <trkpt lat="43.37749" lon="1.7404">
        <ele>170.1</ele>
        <time>2017-03-16T12:12:22Z</time>
      </trkpt>
      <trkpt lat="43.3774" lon="1.74049">
        <ele>170.6</ele>
        <time>2017-03-16T12:12:24Z</time>
      </trkpt>
      <trkpt lat="43.37731" lon="1.74058">
        <ele>170.4</ele>
        <time>2017-03-16T12:12:26Z</time>
      </trkpt>
      <trkpt lat="43.37722" lon="1.74067">
        <ele>170.1</ele>
        <time>2017-03-16T12:12:28Z</time>
      </trkpt>
      <trkpt lat="43.37714" lon="1.74077">
        <ele>170.1</ele>
        <time>2017-03-16T12:12:30Z</time>
      </trkpt>
      <trkpt lat="43.37706" lon="1.74086">
        <ele>169.5</ele>
        <time>2017-03-16T12:12:32Z</time>
      </trkpt>
      <trkpt lat="43.37698" lon="1.74095">
        <ele>168.7</ele>
        <time>2017-03-16T12:12:34Z</time>
      </trkpt>
      <trkpt lat="43.3769" lon="1.74105">
        <ele>168.3</ele>
        <time>2017-03-16T12:12:37Z</time>
      </trkpt>
      <trkpt lat="43.37682" lon="1.74117">
        <ele>168.1</ele>
        <time>2017-03-16T12:12:38Z</time>
      </trkpt>
      <trkpt lat="43.37673" lon="1.7413">
        <ele>168.7</ele>
        <time>2017-03-16T12:12:40Z</time>
      </trkpt>
      <trkpt lat="43.37666" lon="1.74144">
        <ele>169.5</ele>
        <time>2017-03-16T12:12:42Z</time>
      </trkpt>
      <trkpt lat="43.3766" lon="1.74158">
        <ele>169.2</ele>
        <time>2017-03-16T12:12:44Z</time>
      </trkpt>
      <trkpt lat="43.37655" lon="1.74172">
        <ele>169.4</ele>
        <time>2017-03-16T12:12:46Z</time>
      </trkpt>
      <trkpt lat="43.37649" lon="1.74187">
        <ele>169.3</ele>
        <time>2017-03-16T12:12:48Z</time>
      </trkpt>
      <trkpt lat="43.37645" lon="1.74201">
        <ele>169</ele>
        <time>2017-03-16T12:12:50Z</time>
      </trkpt>
      <trkpt lat="43.37639" lon="1.74216">
        <ele>168.7</ele>
        <time>2017-03-16T12:12:52Z</time>
      </trkpt>
      <trkpt lat="43.37633" lon="1.7423">
        <ele>168.8</ele>
        <time>2017-03-16T12:12:54Z</time>
      </trkpt>
      <trkpt lat="43.37628" lon="1.74244">
        <ele>168.8</ele>
        <time>2017-03-16T12:12:56Z</time>
      </trkpt>
      <trkpt lat="43.37624" lon="1.74258">
        <ele>168.8</ele>
        <time>2017-03-16T12:12:58Z</time>
      </trkpt>
      <trkpt lat="43.37619" lon="1.74273">
        <ele>168.3</ele>
        <time>2017-03-16T12:13:00Z</time>
      </trkpt>
      <trkpt lat="43.37614" lon="1.74288">
        <ele>168.2</ele>
        <time>2017-03-16T12:13:02Z</time>
      </trkpt>
      <trkpt lat="43.37611" lon="1.74302">
        <ele>167.6</ele>
        <time>2017-03-16T12:13:04Z</time>
      </trkpt>
      <trkpt lat="43.37607" lon="1.74315">
        <ele>167.2</ele>
        <time>2017-03-16T12:13:06Z</time>
      </trkpt>
      <trkpt lat="43.37603" lon="1.74327">
        <ele>167.2</ele>
        <time>2017-03-16T12:13:08Z</time>
      </trkpt>
      <trkpt lat="43.376" lon="1.7434">
        <ele>167.2</ele>
        <time>2017-03-16T12:13:10Z</time>
      </trkpt>
      <trkpt lat="43.37596" lon="1.74353">
        <ele>166.9</ele>
        <time>2017-03-16T12:13:12Z</time>
      </trkpt>
      <trkpt lat="43.37593" lon="1.74366">
        <ele>167.3</ele>
        <time>2017-03-16T12:13:14Z</time>
      </trkpt>
      <trkpt lat="43.3759" lon="1.74379">
        <ele>166.7</ele>
        <time>2017-03-16T12:13:16Z</time>
      </trkpt>
      <trkpt lat="43.37585" lon="1.74393">
        <ele>166.7</ele>
        <time>2017-03-16T12:13:18Z</time>
      </trkpt>
      <trkpt lat="43.37581" lon="1.74407">
        <ele>167.2</ele>
        <time>2017-03-16T12:13:20Z</time>
      </trkpt>
      <trkpt lat="43.37579" lon="1.74421">
        <ele>167.6</ele>
        <time>2017-03-16T12:13:22Z</time>
      </trkpt>
      <trkpt lat="43.37575" lon="1.74434">
        <ele>167.4</ele>
        <time>2017-03-16T12:13:24Z</time>
      </trkpt>
      <trkpt lat="43.37571" lon="1.74448">
        <ele>167.2</ele>
        <time>2017-03-16T12:13:26Z</time>
      </trkpt>
      <trkpt lat="43.37567" lon="1.74462">
        <ele>167.4</ele>
        <time>2017-03-16T12:13:28Z</time>
      </trkpt>
      <trkpt lat="43.37564" lon="1.74474">
        <ele>167.5</ele>
        <time>2017-03-16T12:13:30Z</time>
      </trkpt>
      <trkpt lat="43.3756" lon="1.74486">
        <ele>167.4</ele>
        <time>2017-03-16T12:13:32Z</time>
      </trkpt>
      <trkpt lat="43.37557" lon="1.74498">
        <ele>167</ele>
        <time>2017-03-16T12:13:34Z</time>
      </trkpt>
      <trkpt lat="43.37554" lon="1.7451">
        <ele>167.1</ele>
        <time>2017-03-16T12:13:36Z</time>
      </trkpt>
      <trkpt lat="43.3755" lon="1.74523">
        <ele>167.4</ele>
        <time>2017-03-16T12:13:38Z</time>
      </trkpt>
      <trkpt lat="43.37546" lon="1.74535">
        <ele>166.8</ele>
        <time>2017-03-16T12:13:40Z</time>
      </trkpt>
      <trkpt lat="43.37543" lon="1.74548">
        <ele>166.8</ele>
        <time>2017-03-16T12:13:42Z</time>
      </trkpt>
      <trkpt lat="43.37539" lon="1.74562">
        <ele>167.1</ele>
        <time>2017-03-16T12:13:44Z</time>
      </trkpt>
      <trkpt lat="43.37535" lon="1.74575">
        <ele>167</ele>
        <time>2017-03-16T12:13:46Z</time>
      </trkpt>
      <trkpt lat="43.3753" lon="1.74589">
        <ele>166.9</ele>
        <time>2017-03-16T12:13:48Z</time>
      </trkpt>
      <trkpt lat="43.37525" lon="1.74602">
        <ele>167.2</ele>
        <time>2017-03-16T12:13:50Z</time>
      </trkpt>
      <trkpt lat="43.3752" lon="1.74616">
        <ele>167.5</ele>
        <time>2017-03-16T12:13:52Z</time>
      </trkpt>
      <trkpt lat="43.37515" lon="1.74628">
        <ele>167.2</ele>
        <time>2017-03-16T12:13:54Z</time>
      </trkpt>
      <trkpt lat="43.3751" lon="1.74642">
        <ele>166.5</ele>
        <time>2017-03-16T12:13:56Z</time>
      </trkpt>
      <trkpt lat="43.37505" lon="1.74656">
        <ele>165.8</ele>
        <time>2017-03-16T12:13:58Z</time>
      </trkpt>
      <trkpt lat="43.37501" lon="1.74668">
        <ele>165.8</ele>
        <time>2017-03-16T12:14:00Z</time>
      </trkpt>
      <trkpt lat="43.37495" lon="1.74681">
        <ele>166.3</ele>
        <time>2017-03-16T12:14:02Z</time>
      </trkpt>
      <trkpt lat="43.3749" lon="1.74694">
        <ele>166.8</ele>
        <time>2017-03-16T12:14:04Z</time>
      </trkpt>
      <trkpt lat="43.37484" lon="1.74706">
        <ele>166.3</ele>
        <time>2017-03-16T12:14:06Z</time>
      </trkpt>
      <trkpt lat="43.37479" lon="1.74718">
        <ele>165.7</ele>
        <time>2017-03-16T12:14:08Z</time>
      </trkpt>
      <trkpt lat="43.37473" lon="1.74729">
        <ele>165.8</ele>
        <time>2017-03-16T12:14:10Z</time>
      </trkpt>
      <trkpt lat="43.37468" lon="1.74741">
        <ele>165.5</ele>
        <time>2017-03-16T12:14:12Z</time>
      </trkpt>
      <trkpt lat="43.37462" lon="1.74753">
        <ele>165.7</ele>
        <time>2017-03-16T12:14:14Z</time>
      </trkpt>
      <trkpt lat="43.37456" lon="1.74764">
        <ele>165.4</ele>
        <time>2017-03-16T12:14:16Z</time>
      </trkpt>
      <trkpt lat="43.3745" lon="1.74774">
        <ele>165.2</ele>
        <time>2017-03-16T12:14:18Z</time>
      </trkpt>
      <trkpt lat="43.37443" lon="1.74785">
        <ele>165.2</ele>
        <time>2017-03-16T12:14:20Z</time>
      </trkpt>
      <trkpt lat="43.37437" lon="1.74794">
        <ele>164.7</ele>
        <time>2017-03-16T12:14:22Z</time>
      </trkpt>
      <trkpt lat="43.37431" lon="1.74801">
        <ele>163.8</ele>
        <time>2017-03-16T12:14:24Z</time>
      </trkpt>
      <trkpt lat="43.37423" lon="1.74809">
        <ele>163.9</ele>
        <time>2017-03-16T12:14:26Z</time>
      </trkpt>
      <trkpt lat="43.37415" lon="1.74822">
        <ele>163.8</ele>
        <time>2017-03-16T12:14:28Z</time>
      </trkpt>
      <trkpt lat="43.37406" lon="1.74834">
        <ele>163.1</ele>
        <time>2017-03-16T12:14:30Z</time>
      </trkpt>
      <trkpt lat="43.37398" lon="1.74844">
        <ele>162.8</ele>
        <time>2017-03-16T12:14:32Z</time>
      </trkpt>
      <trkpt lat="43.37389" lon="1.74857">
        <ele>162.8</ele>
        <time>2017-03-16T12:14:34Z</time>
      </trkpt>
      <trkpt lat="43.37381" lon="1.74868">
        <ele>162.5</ele>
        <time>2017-03-16T12:14:36Z</time>
      </trkpt>
      <trkpt lat="43.37374" lon="1.74878">
        <ele>161.9</ele>
        <time>2017-03-16T12:14:38Z</time>
      </trkpt>
      <trkpt lat="43.37366" lon="1.74889">
        <ele>162.6</ele>
        <time>2017-03-16T12:14:40Z</time>
      </trkpt>
      <trkpt lat="43.37358" lon="1.74899">
        <ele>162.1</ele>
        <time>2017-03-16T12:14:42Z</time>
      </trkpt>
      <trkpt lat="43.3735" lon="1.7491">
        <ele>162.1</ele>
        <time>2017-03-16T12:14:44Z</time>
      </trkpt>
      <trkpt lat="43.37341" lon="1.74922">
        <ele>161.9</ele>
        <time>2017-03-16T12:14:46Z</time>
      </trkpt>
      <trkpt lat="43.37333" lon="1.74933">
        <ele>161.9</ele>
        <time>2017-03-16T12:14:48Z</time>
      </trkpt>
      <trkpt lat="43.37324" lon="1.74943">
        <ele>161.4</ele>
        <time>2017-03-16T12:14:50Z</time>
      </trkpt>
      <trkpt lat="43.37317" lon="1.74953">
        <ele>161.5</ele>
        <time>2017-03-16T12:14:52Z</time>
      </trkpt>
      <trkpt lat="43.3731" lon="1.74964">
        <ele>161.3</ele>
        <time>2017-03-16T12:14:54Z</time>
      </trkpt>
      <trkpt lat="43.37303" lon="1.74976">
        <ele>161.8</ele>
        <time>2017-03-16T12:14:56Z</time>
      </trkpt>
      <trkpt lat="43.37297" lon="1.74991">
        <ele>161.6</ele>
        <time>2017-03-16T12:14:58Z</time>
      </trkpt>
      <trkpt lat="43.3729" lon="1.75004">
        <ele>161.4</ele>
        <time>2017-03-16T12:15:00Z</time>
      </trkpt>
      <trkpt lat="43.37285" lon="1.75015">
        <ele>161.6</ele>
        <time>2017-03-16T12:15:02Z</time>
      </trkpt>
      <trkpt lat="43.37279" lon="1.75027">
        <ele>161.5</ele>
        <time>2017-03-16T12:15:04Z</time>
      </trkpt>
      <trkpt lat="43.37272" lon="1.75041">
        <ele>161.7</ele>
        <time>2017-03-16T12:15:06Z</time>
      </trkpt>
      <trkpt lat="43.37266" lon="1.75054">
        <ele>161.9</ele>
        <time>2017-03-16T12:15:08Z</time>
      </trkpt>
      <trkpt lat="43.3726" lon="1.75067">
        <ele>161.9</ele>
        <time>2017-03-16T12:15:10Z</time>
      </trkpt>
      <trkpt lat="43.37253" lon="1.75081">
        <ele>161.8</ele>
        <time>2017-03-16T12:15:12Z</time>
      </trkpt>
      <trkpt lat="43.37248" lon="1.75096">
        <ele>161.6</ele>
        <time>2017-03-16T12:15:14Z</time>
      </trkpt>
      <trkpt lat="43.37243" lon="1.75109">
        <ele>161.2</ele>
        <time>2017-03-16T12:15:16Z</time>
      </trkpt>
      <trkpt lat="43.37238" lon="1.75124">
        <ele>161.6</ele>
        <time>2017-03-16T12:15:18Z</time>
      </trkpt>
      <trkpt lat="43.37234" lon="1.75136">
        <ele>161.6</ele>
        <time>2017-03-16T12:15:20Z</time>
      </trkpt>
      <trkpt lat="43.37231" lon="1.75149">
        <ele>162.7</ele>
        <time>2017-03-16T12:15:22Z</time>
      </trkpt>
      <trkpt lat="43.37225" lon="1.75164">
        <ele>162.9</ele>
        <time>2017-03-16T12:15:24Z</time>
      </trkpt>
      <trkpt lat="43.3722" lon="1.75179">
        <ele>163.2</ele>
        <time>2017-03-16T12:15:26Z</time>
      </trkpt>
      <trkpt lat="43.37215" lon="1.75195">
        <ele>163.7</ele>
        <time>2017-03-16T12:15:28Z</time>
      </trkpt>
      <trkpt lat="43.37209" lon="1.75211">
        <ele>163.5</ele>
        <time>2017-03-16T12:15:30Z</time>
      </trkpt>
      <trkpt lat="43.37203" lon="1.75227">
        <ele>163.4</ele>
        <time>2017-03-16T12:15:32Z</time>
      </trkpt>
      <trkpt lat="43.37196" lon="1.75243">
        <ele>163.6</ele>
        <time>2017-03-16T12:15:34Z</time>
      </trkpt>
      <trkpt lat="43.37192" lon="1.75255">
        <ele>164.1</ele>
        <time>2017-03-16T12:15:36Z</time>
      </trkpt>
      <trkpt lat="43.37186" lon="1.75269">
        <ele>164.4</ele>
        <time>2017-03-16T12:15:38Z</time>
      </trkpt>
      <trkpt lat="43.37182" lon="1.75281">
        <ele>164.9</ele>
        <time>2017-03-16T12:15:40Z</time>
      </trkpt>
      <trkpt lat="43.37177" lon="1.75293">
        <ele>165.1</ele>
        <time>2017-03-16T12:15:42Z</time>
      </trkpt>
      <trkpt lat="43.37172" lon="1.75306">
        <ele>165.4</ele>
        <time>2017-03-16T12:15:44Z</time>
      </trkpt>
      <trkpt lat="43.37169" lon="1.75318">
        <ele>165</ele>
        <time>2017-03-16T12:15:46Z</time>
      </trkpt>
      <trkpt lat="43.37165" lon="1.75329">
        <ele>164.4</ele>
        <time>2017-03-16T12:15:48Z</time>
      </trkpt>
      <trkpt lat="43.3716" lon="1.75341">
        <ele>164.4</ele>
        <time>2017-03-16T12:15:50Z</time>
      </trkpt>
      <trkpt lat="43.37153" lon="1.75353">
        <ele>164.4</ele>
        <time>2017-03-16T12:15:52Z</time>
      </trkpt>
      <trkpt lat="43.37146" lon="1.75364">
        <ele>164.2</ele>
        <time>2017-03-16T12:15:54Z</time>
      </trkpt>
      <trkpt lat="43.37139" lon="1.75375">
        <ele>164.8</ele>
        <time>2017-03-16T12:15:56Z</time>
      </trkpt>
      <trkpt lat="43.37132" lon="1.75385">
        <ele>164.9</ele>
        <time>2017-03-16T12:15:58Z</time>
      </trkpt>
      <trkpt lat="43.37123" lon="1.754">
        <ele>165.3</ele>
        <time>2017-03-16T12:16:00Z</time>
      </trkpt>
      <trkpt lat="43.37115" lon="1.75409">
        <ele>165.9</ele>
        <time>2017-03-16T12:16:02Z</time>
      </trkpt>
      <trkpt lat="43.37107" lon="1.75417">
        <ele>166.2</ele>
        <time>2017-03-16T12:16:04Z</time>
      </trkpt>
      <trkpt lat="43.37099" lon="1.75425">
        <ele>166.8</ele>
        <time>2017-03-16T12:16:06Z</time>
      </trkpt>
      <trkpt lat="43.37091" lon="1.75433">
        <ele>168.3</ele>
        <time>2017-03-16T12:16:08Z</time>
      </trkpt>
      <trkpt lat="43.37082" lon="1.75441">
        <ele>168.8</ele>
        <time>2017-03-16T12:16:10Z</time>
      </trkpt>
      <trkpt lat="43.37073" lon="1.7545">
        <ele>169.7</ele>
        <time>2017-03-16T12:16:12Z</time>
      </trkpt>
      <trkpt lat="43.37064" lon="1.75459">
        <ele>170.4</ele>
        <time>2017-03-16T12:16:14Z</time>
      </trkpt>
      <trkpt lat="43.37055" lon="1.75468">
        <ele>171</ele>
        <time>2017-03-16T12:16:16Z</time>
      </trkpt>
      <trkpt lat="43.37046" lon="1.75478">
        <ele>171.5</ele>
        <time>2017-03-16T12:16:18Z</time>
      </trkpt>
      <trkpt lat="43.37037" lon="1.75486">
        <ele>171.8</ele>
        <time>2017-03-16T12:16:20Z</time>
      </trkpt>
      <trkpt lat="43.37028" lon="1.75495">
        <ele>172.3</ele>
        <time>2017-03-16T12:16:22Z</time>
      </trkpt>
      <trkpt lat="43.3702" lon="1.75502">
        <ele>172.6</ele>
        <time>2017-03-16T12:16:24Z</time>
      </trkpt>
      <trkpt lat="43.37012" lon="1.7551">
        <ele>172.7</ele>
        <time>2017-03-16T12:16:26Z</time>
      </trkpt>
      <trkpt lat="43.37005" lon="1.75517">
        <ele>172.8</ele>
        <time>2017-03-16T12:16:28Z</time>
      </trkpt>
      <trkpt lat="43.36997" lon="1.75524">
        <ele>172.9</ele>
        <time>2017-03-16T12:16:30Z</time>
      </trkpt>
      <trkpt lat="43.3699" lon="1.75531">
        <ele>172.6</ele>
        <time>2017-03-16T12:16:32Z</time>
      </trkpt>
      <trkpt lat="43.36982" lon="1.75538">
        <ele>172.7</ele>
        <time>2017-03-16T12:16:34Z</time>
      </trkpt>
      <trkpt lat="43.36975" lon="1.75546">
        <ele>173</ele>
        <time>2017-03-16T12:16:36Z</time>
      </trkpt>
      <trkpt lat="43.36968" lon="1.75553">
        <ele>173.2</ele>
        <time>2017-03-16T12:16:38Z</time>
      </trkpt>
      <trkpt lat="43.36962" lon="1.75561">
        <ele>173.7</ele>
        <time>2017-03-16T12:16:40Z</time>
      </trkpt>
      <trkpt lat="43.36956" lon="1.75568">
        <ele>173.8</ele>
        <time>2017-03-16T12:16:42Z</time>
      </trkpt>
      <trkpt lat="43.3695" lon="1.75573">
        <ele>173.9</ele>
        <time>2017-03-16T12:16:44Z</time>
      </trkpt>
      <trkpt lat="43.36942" lon="1.75581">
        <ele>173.8</ele>
        <time>2017-03-16T12:16:47Z</time>
      </trkpt>
      <trkpt lat="43.36932" lon="1.7559">
        <ele>173.6</ele>
        <time>2017-03-16T12:16:50Z</time>
      </trkpt>
      <trkpt lat="43.36926" lon="1.75597">
        <ele>173</ele>
        <time>2017-03-16T12:16:52Z</time>
      </trkpt>
      <trkpt lat="43.36919" lon="1.75602">
        <ele>172.9</ele>
        <time>2017-03-16T12:16:54Z</time>
      </trkpt>
      <trkpt lat="43.36913" lon="1.75607">
        <ele>173.6</ele>
        <time>2017-03-16T12:16:56Z</time>
      </trkpt>
      <trkpt lat="43.36906" lon="1.75611">
        <ele>174.5</ele>
        <time>2017-03-16T12:16:58Z</time>
      </trkpt>
      <trkpt lat="43.36896" lon="1.75619">
        <ele>175.7</ele>
        <time>2017-03-16T12:17:01Z</time>
      </trkpt>
      <trkpt lat="43.3689" lon="1.75625">
        <ele>176.1</ele>
        <time>2017-03-16T12:17:03Z</time>
      </trkpt>
      <trkpt lat="43.36884" lon="1.75631">
        <ele>177.2</ele>
        <time>2017-03-16T12:17:05Z</time>
      </trkpt>
      <trkpt lat="43.36877" lon="1.75637">
        <ele>177.7</ele>
        <time>2017-03-16T12:17:07Z</time>
      </trkpt>
      <trkpt lat="43.36869" lon="1.75643">
        <ele>178</ele>
        <time>2017-03-16T12:17:09Z</time>
      </trkpt>
      <trkpt lat="43.36863" lon="1.75651">
        <ele>178.2</ele>
        <time>2017-03-16T12:17:11Z</time>
      </trkpt>
      <trkpt lat="43.36857" lon="1.75658">
        <ele>178.2</ele>
        <time>2017-03-16T12:17:13Z</time>
      </trkpt>
      <trkpt lat="43.36851" lon="1.75667">
        <ele>178</ele>
        <time>2017-03-16T12:17:16Z</time>
      </trkpt>
      <trkpt lat="43.36847" lon="1.75675">
        <ele>178.4</ele>
        <time>2017-03-16T12:17:19Z</time>
      </trkpt>
      <trkpt lat="43.36839" lon="1.75683">
        <ele>179.7</ele>
        <time>2017-03-16T12:17:22Z</time>
      </trkpt>
      <trkpt lat="43.36831" lon="1.75693">
        <ele>179.9</ele>
        <time>2017-03-16T12:17:25Z</time>
      </trkpt>
      <trkpt lat="43.36826" lon="1.75699">
        <ele>180.1</ele>
        <time>2017-03-16T12:17:27Z</time>
      </trkpt>
      <trkpt lat="43.3682" lon="1.75706">
        <ele>180</ele>
        <time>2017-03-16T12:17:29Z</time>
      </trkpt>
      <trkpt lat="43.36814" lon="1.75715">
        <ele>180.2</ele>
        <time>2017-03-16T12:17:31Z</time>
      </trkpt>
      <trkpt lat="43.36809" lon="1.75724">
        <ele>182.5</ele>
        <time>2017-03-16T12:17:34Z</time>
      </trkpt>
      <trkpt lat="43.36802" lon="1.75733">
        <ele>183.9</ele>
        <time>2017-03-16T12:17:38Z</time>
      </trkpt>
      <trkpt lat="43.36794" lon="1.75742">
        <ele>184</ele>
        <time>2017-03-16T12:17:41Z</time>
      </trkpt>
      <trkpt lat="43.36788" lon="1.75749">
        <ele>183.8</ele>
        <time>2017-03-16T12:17:43Z</time>
      </trkpt>
      <trkpt lat="43.36782" lon="1.75757">
        <ele>184.5</ele>
        <time>2017-03-16T12:17:45Z</time>
      </trkpt>
      <trkpt lat="43.36776" lon="1.75765">
        <ele>184.4</ele>
        <time>2017-03-16T12:17:47Z</time>
      </trkpt>
      <trkpt lat="43.3677" lon="1.75773">
        <ele>184.3</ele>
        <time>2017-03-16T12:17:49Z</time>
      </trkpt>
      <trkpt lat="43.36764" lon="1.75782">
        <ele>184.4</ele>
        <time>2017-03-16T12:17:51Z</time>
      </trkpt>
      <trkpt lat="43.36758" lon="1.75791">
        <ele>185</ele>
        <time>2017-03-16T12:17:53Z</time>
      </trkpt>
      <trkpt lat="43.36752" lon="1.758">
        <ele>185.1</ele>
        <time>2017-03-16T12:17:55Z</time>
      </trkpt>
      <trkpt lat="43.36746" lon="1.7581">
        <ele>184.7</ele>
        <time>2017-03-16T12:17:57Z</time>
      </trkpt>
      <trkpt lat="43.3674" lon="1.75819">
        <ele>184.1</ele>
        <time>2017-03-16T12:17:59Z</time>
      </trkpt>
      <trkpt lat="43.36734" lon="1.75829">
        <ele>183.9</ele>
        <time>2017-03-16T12:18:01Z</time>
      </trkpt>
      <trkpt lat="43.36729" lon="1.75838">
        <ele>183.7</ele>
        <time>2017-03-16T12:18:03Z</time>
      </trkpt>
      <trkpt lat="43.36724" lon="1.75848">
        <ele>183.9</ele>
        <time>2017-03-16T12:18:05Z</time>
      </trkpt>
      <trkpt lat="43.36719" lon="1.75859">
        <ele>184.7</ele>
        <time>2017-03-16T12:18:07Z</time>
      </trkpt>
      <trkpt lat="43.36716" lon="1.7587">
        <ele>184.9</ele>
        <time>2017-03-16T12:18:09Z</time>
      </trkpt>
      <trkpt lat="43.36711" lon="1.7588">
        <ele>184.7</ele>
        <time>2017-03-16T12:18:11Z</time>
      </trkpt>
      <trkpt lat="43.36707" lon="1.75889">
        <ele>184.6</ele>
        <time>2017-03-16T12:18:13Z</time>
      </trkpt>
      <trkpt lat="43.36702" lon="1.75899">
        <ele>184.4</ele>
        <time>2017-03-16T12:18:15Z</time>
      </trkpt>
      <trkpt lat="43.36698" lon="1.75909">
        <ele>183.8</ele>
        <time>2017-03-16T12:18:17Z</time>
      </trkpt>
      <trkpt lat="43.36694" lon="1.7592">
        <ele>183.4</ele>
        <time>2017-03-16T12:18:19Z</time>
      </trkpt>
      <trkpt lat="43.3669" lon="1.7593">
        <ele>183.2</ele>
        <time>2017-03-16T12:18:21Z</time>
      </trkpt>
      <trkpt lat="43.36685" lon="1.75941">
        <ele>182.5</ele>
        <time>2017-03-16T12:18:23Z</time>
      </trkpt>
      <trkpt lat="43.36681" lon="1.75951">
        <ele>182.9</ele>
        <time>2017-03-16T12:18:25Z</time>
      </trkpt>
      <trkpt lat="43.36677" lon="1.75961">
        <ele>183</ele>
        <time>2017-03-16T12:18:27Z</time>
      </trkpt>
      <trkpt lat="43.36673" lon="1.75972">
        <ele>182.6</ele>
        <time>2017-03-16T12:18:29Z</time>
      </trkpt>
      <trkpt lat="43.36668" lon="1.75982">
        <ele>182</ele>
        <time>2017-03-16T12:18:31Z</time>
      </trkpt>
      <trkpt lat="43.36664" lon="1.75993">
        <ele>181.8</ele>
        <time>2017-03-16T12:18:33Z</time>
      </trkpt>
      <trkpt lat="43.3666" lon="1.76003">
        <ele>182.1</ele>
        <time>2017-03-16T12:18:35Z</time>
      </trkpt>
      <trkpt lat="43.36656" lon="1.76015">
        <ele>181.9</ele>
        <time>2017-03-16T12:18:37Z</time>
      </trkpt>
      <trkpt lat="43.36652" lon="1.76026">
        <ele>181.9</ele>
        <time>2017-03-16T12:18:39Z</time>
      </trkpt>
      <trkpt lat="43.36647" lon="1.76037">
        <ele>182.9</ele>
        <time>2017-03-16T12:18:41Z</time>
      </trkpt>
      <trkpt lat="43.36643" lon="1.76048">
        <ele>183.1</ele>
        <time>2017-03-16T12:18:43Z</time>
      </trkpt>
      <trkpt lat="43.36637" lon="1.7606">
        <ele>183.8</ele>
        <time>2017-03-16T12:18:45Z</time>
      </trkpt>
      <trkpt lat="43.36632" lon="1.76073">
        <ele>183.6</ele>
        <time>2017-03-16T12:18:47Z</time>
      </trkpt>
      <trkpt lat="43.36626" lon="1.76087">
        <ele>183.7</ele>
        <time>2017-03-16T12:18:49Z</time>
      </trkpt>
      <trkpt lat="43.36622" lon="1.76102">
        <ele>183.8</ele>
        <time>2017-03-16T12:18:51Z</time>
      </trkpt>
      <trkpt lat="43.36616" lon="1.76117">
        <ele>184.5</ele>
        <time>2017-03-16T12:18:53Z</time>
      </trkpt>
      <trkpt lat="43.36612" lon="1.76131">
        <ele>184.7</ele>
        <time>2017-03-16T12:18:55Z</time>
      </trkpt>
      <trkpt lat="43.36609" lon="1.76145">
        <ele>184.9</ele>
        <time>2017-03-16T12:18:57Z</time>
      </trkpt>
      <trkpt lat="43.36605" lon="1.76159">
        <ele>184.7</ele>
        <time>2017-03-16T12:18:59Z</time>
      </trkpt>
      <trkpt lat="43.36603" lon="1.76172">
        <ele>184</ele>
        <time>2017-03-16T12:19:01Z</time>
      </trkpt>
      <trkpt lat="43.366" lon="1.76185">
        <ele>183</ele>
        <time>2017-03-16T12:19:03Z</time>
      </trkpt>
      <trkpt lat="43.36597" lon="1.76201">
        <ele>182.3</ele>
        <time>2017-03-16T12:19:05Z</time>
      </trkpt>
      <trkpt lat="43.36594" lon="1.76218">
        <ele>182</ele>
        <time>2017-03-16T12:19:07Z</time>
      </trkpt>
      <trkpt lat="43.36591" lon="1.76237">
        <ele>182.1</ele>
        <time>2017-03-16T12:19:09Z</time>
      </trkpt>
      <trkpt lat="43.36588" lon="1.76254">
        <ele>182.8</ele>
        <time>2017-03-16T12:19:11Z</time>
      </trkpt>
      <trkpt lat="43.36586" lon="1.76269">
        <ele>182.2</ele>
        <time>2017-03-16T12:19:13Z</time>
      </trkpt>
      <trkpt lat="43.36585" lon="1.76284">
        <ele>182.2</ele>
        <time>2017-03-16T12:19:15Z</time>
      </trkpt>
      <trkpt lat="43.36584" lon="1.76299">
        <ele>182.5</ele>
        <time>2017-03-16T12:19:17Z</time>
      </trkpt>
      <trkpt lat="43.36582" lon="1.76311">
        <ele>183</ele>
        <time>2017-03-16T12:19:19Z</time>
      </trkpt>
      <trkpt lat="43.36581" lon="1.76323">
        <ele>183.6</ele>
        <time>2017-03-16T12:19:21Z</time>
      </trkpt>
      <trkpt lat="43.36579" lon="1.76333">
        <ele>183.6</ele>
        <time>2017-03-16T12:19:23Z</time>
      </trkpt>
      <trkpt lat="43.36577" lon="1.76345">
        <ele>184.1</ele>
        <time>2017-03-16T12:19:25Z</time>
      </trkpt>
      <trkpt lat="43.36574" lon="1.76355">
        <ele>184.3</ele>
        <time>2017-03-16T12:19:27Z</time>
      </trkpt>
      <trkpt lat="43.36573" lon="1.76365">
        <ele>184.1</ele>
        <time>2017-03-16T12:19:29Z</time>
      </trkpt>
      <trkpt lat="43.3657" lon="1.76376">
        <ele>184.4</ele>
        <time>2017-03-16T12:19:31Z</time>
      </trkpt>
      <trkpt lat="43.36567" lon="1.7639">
        <ele>184.1</ele>
        <time>2017-03-16T12:19:33Z</time>
      </trkpt>
      <trkpt lat="43.36564" lon="1.76403">
        <ele>184.1</ele>
        <time>2017-03-16T12:19:35Z</time>
      </trkpt>
      <trkpt lat="43.3656" lon="1.76416">
        <ele>184.5</ele>
        <time>2017-03-16T12:19:37Z</time>
      </trkpt>
      <trkpt lat="43.36555" lon="1.76428">
        <ele>183.7</ele>
        <time>2017-03-16T12:19:39Z</time>
      </trkpt>
      <trkpt lat="43.36549" lon="1.76442">
        <ele>183.1</ele>
        <time>2017-03-16T12:19:41Z</time>
      </trkpt>
      <trkpt lat="43.36542" lon="1.76456">
        <ele>182.7</ele>
        <time>2017-03-16T12:19:43Z</time>
      </trkpt>
      <trkpt lat="43.36534" lon="1.7647">
        <ele>183.1</ele>
        <time>2017-03-16T12:19:45Z</time>
      </trkpt>
      <trkpt lat="43.36527" lon="1.76485">
        <ele>182.5</ele>
        <time>2017-03-16T12:19:47Z</time>
      </trkpt>
      <trkpt lat="43.3652" lon="1.76499">
        <ele>181.6</ele>
        <time>2017-03-16T12:19:49Z</time>
      </trkpt>
      <trkpt lat="43.36514" lon="1.76513">
        <ele>181.6</ele>
        <time>2017-03-16T12:19:51Z</time>
      </trkpt>
      <trkpt lat="43.36509" lon="1.76527">
        <ele>181.5</ele>
        <time>2017-03-16T12:19:53Z</time>
      </trkpt>
      <trkpt lat="43.36503" lon="1.7654">
        <ele>180.6</ele>
        <time>2017-03-16T12:19:55Z</time>
      </trkpt>
      <trkpt lat="43.36498" lon="1.76553">
        <ele>179.8</ele>
        <time>2017-03-16T12:19:57Z</time>
      </trkpt>
      <trkpt lat="43.36494" lon="1.76565">
        <ele>179.2</ele>
        <time>2017-03-16T12:19:59Z</time>
      </trkpt>
      <trkpt lat="43.36489" lon="1.76577">
        <ele>178.6</ele>
        <time>2017-03-16T12:20:01Z</time>
      </trkpt>
      <trkpt lat="43.36484" lon="1.76592">
        <ele>178.1</ele>
        <time>2017-03-16T12:20:03Z</time>
      </trkpt>
      <trkpt lat="43.36478" lon="1.76606">
        <ele>177.6</ele>
        <time>2017-03-16T12:20:05Z</time>
      </trkpt>
      <trkpt lat="43.36473" lon="1.76621">
        <ele>177.3</ele>
        <time>2017-03-16T12:20:07Z</time>
      </trkpt>
      <trkpt lat="43.36467" lon="1.76635">
        <ele>176.6</ele>
        <time>2017-03-16T12:20:09Z</time>
      </trkpt>
      <trkpt lat="43.36463" lon="1.76649">
        <ele>176.2</ele>
        <time>2017-03-16T12:20:11Z</time>
      </trkpt>
      <trkpt lat="43.36457" lon="1.76663">
        <ele>176.1</ele>
        <time>2017-03-16T12:20:13Z</time>
      </trkpt>
      <trkpt lat="43.36453" lon="1.76677">
        <ele>175.9</ele>
        <time>2017-03-16T12:20:15Z</time>
      </trkpt>
      <trkpt lat="43.36448" lon="1.76691">
        <ele>175.7</ele>
        <time>2017-03-16T12:20:17Z</time>
      </trkpt>
      <trkpt lat="43.36444" lon="1.76704">
        <ele>175.2</ele>
        <time>2017-03-16T12:20:19Z</time>
      </trkpt>
      <trkpt lat="43.36438" lon="1.76719">
        <ele>175.1</ele>
        <time>2017-03-16T12:20:21Z</time>
      </trkpt>
      <trkpt lat="43.36433" lon="1.76734">
        <ele>175.3</ele>
        <time>2017-03-16T12:20:23Z</time>
      </trkpt>
      <trkpt lat="43.36429" lon="1.76749">
        <ele>174.7</ele>
        <time>2017-03-16T12:20:25Z</time>
      </trkpt>
      <trkpt lat="43.36425" lon="1.76763">
        <ele>174.7</ele>
        <time>2017-03-16T12:20:27Z</time>
      </trkpt>
      <trkpt lat="43.36421" lon="1.76777">
        <ele>174.3</ele>
        <time>2017-03-16T12:20:29Z</time>
      </trkpt>
      <trkpt lat="43.36417" lon="1.76791">
        <ele>174.2</ele>
        <time>2017-03-16T12:20:31Z</time>
      </trkpt>
      <trkpt lat="43.36413" lon="1.76807">
        <ele>174.1</ele>
        <time>2017-03-16T12:20:33Z</time>
      </trkpt>
      <trkpt lat="43.36411" lon="1.76823">
        <ele>174.7</ele>
        <time>2017-03-16T12:20:35Z</time>
      </trkpt>
      <trkpt lat="43.36408" lon="1.76838">
        <ele>174.8</ele>
        <time>2017-03-16T12:20:37Z</time>
      </trkpt>
      <trkpt lat="43.36407" lon="1.76854">
        <ele>175.5</ele>
        <time>2017-03-16T12:20:39Z</time>
      </trkpt>
      <trkpt lat="43.36406" lon="1.76871">
        <ele>176.5</ele>
        <time>2017-03-16T12:20:41Z</time>
      </trkpt>
      <trkpt lat="43.36404" lon="1.76887">
        <ele>177.8</ele>
        <time>2017-03-16T12:20:43Z</time>
      </trkpt>
      <trkpt lat="43.36404" lon="1.76903">
        <ele>178.4</ele>
        <time>2017-03-16T12:20:45Z</time>
      </trkpt>
      <trkpt lat="43.36403" lon="1.76919">
        <ele>179.2</ele>
        <time>2017-03-16T12:20:47Z</time>
      </trkpt>
      <trkpt lat="43.36402" lon="1.76936">
        <ele>179.7</ele>
        <time>2017-03-16T12:20:49Z</time>
      </trkpt>
      <trkpt lat="43.36401" lon="1.76952">
        <ele>179.3</ele>
        <time>2017-03-16T12:20:51Z</time>
      </trkpt>
      <trkpt lat="43.364" lon="1.76968">
        <ele>179.6</ele>
        <time>2017-03-16T12:20:53Z</time>
      </trkpt>
      <trkpt lat="43.36399" lon="1.76984">
        <ele>180.3</ele>
        <time>2017-03-16T12:20:55Z</time>
      </trkpt>
      <trkpt lat="43.36397" lon="1.77">
        <ele>180.7</ele>
        <time>2017-03-16T12:20:57Z</time>
      </trkpt>
      <trkpt lat="43.36395" lon="1.77014">
        <ele>180.4</ele>
        <time>2017-03-16T12:20:59Z</time>
      </trkpt>
      <trkpt lat="43.36393" lon="1.7703">
        <ele>180.2</ele>
        <time>2017-03-16T12:21:01Z</time>
      </trkpt>
      <trkpt lat="43.3639" lon="1.77045">
        <ele>180.3</ele>
        <time>2017-03-16T12:21:03Z</time>
      </trkpt>
      <trkpt lat="43.36388" lon="1.7706">
        <ele>180.6</ele>
        <time>2017-03-16T12:21:05Z</time>
      </trkpt>
      <trkpt lat="43.36385" lon="1.77075">
        <ele>180.6</ele>
        <time>2017-03-16T12:21:07Z</time>
      </trkpt>
      <trkpt lat="43.36383" lon="1.77091">
        <ele>180.7</ele>
        <time>2017-03-16T12:21:09Z</time>
      </trkpt>
      <trkpt lat="43.36381" lon="1.77106">
        <ele>180.9</ele>
        <time>2017-03-16T12:21:11Z</time>
      </trkpt>
      <trkpt lat="43.36379" lon="1.77121">
        <ele>181.5</ele>
        <time>2017-03-16T12:21:13Z</time>
      </trkpt>
      <trkpt lat="43.36377" lon="1.77135">
        <ele>181.9</ele>
        <time>2017-03-16T12:21:15Z</time>
      </trkpt>
      <trkpt lat="43.36376" lon="1.77149">
        <ele>181.8</ele>
        <time>2017-03-16T12:21:17Z</time>
      </trkpt>
      <trkpt lat="43.36374" lon="1.77161">
        <ele>181.7</ele>
        <time>2017-03-16T12:21:19Z</time>
      </trkpt>
      <trkpt lat="43.36371" lon="1.77174">
        <ele>181.5</ele>
        <time>2017-03-16T12:21:21Z</time>
      </trkpt>
      <trkpt lat="43.36368" lon="1.77187">
        <ele>181.8</ele>
        <time>2017-03-16T12:21:23Z</time>
      </trkpt>
      <trkpt lat="43.36365" lon="1.772">
        <ele>181</ele>
        <time>2017-03-16T12:21:25Z</time>
      </trkpt>
      <trkpt lat="43.36362" lon="1.77212">
        <ele>181</ele>
        <time>2017-03-16T12:21:27Z</time>
      </trkpt>
      <trkpt lat="43.36358" lon="1.77225">
        <ele>180.6</ele>
        <time>2017-03-16T12:21:29Z</time>
      </trkpt>
      <trkpt lat="43.36356" lon="1.77237">
        <ele>181.1</ele>
        <time>2017-03-16T12:21:31Z</time>
      </trkpt>
      <trkpt lat="43.36354" lon="1.77248">
        <ele>181.3</ele>
        <time>2017-03-16T12:21:33Z</time>
      </trkpt>
      <trkpt lat="43.36351" lon="1.77257">
        <ele>181.4</ele>
        <time>2017-03-16T12:21:35Z</time>
      </trkpt>
      <trkpt lat="43.36348" lon="1.77268">
        <ele>182</ele>
        <time>2017-03-16T12:21:37Z</time>
      </trkpt>
      <trkpt lat="43.36344" lon="1.77281">
        <ele>183.2</ele>
        <time>2017-03-16T12:21:40Z</time>
      </trkpt>
      <trkpt lat="43.36342" lon="1.77292">
        <ele>183.8</ele>
        <time>2017-03-16T12:21:43Z</time>
      </trkpt>
      <trkpt lat="43.36338" lon="1.77302">
        <ele>184.3</ele>
        <time>2017-03-16T12:21:46Z</time>
      </trkpt>
      <trkpt lat="43.36334" lon="1.7731">
        <ele>184.7</ele>
        <time>2017-03-16T12:21:49Z</time>
      </trkpt>
      <trkpt lat="43.3633" lon="1.77321">
        <ele>185.2</ele>
        <time>2017-03-16T12:21:52Z</time>
      </trkpt>
      <trkpt lat="43.36326" lon="1.77334">
        <ele>185.2</ele>
        <time>2017-03-16T12:21:55Z</time>
      </trkpt>
      <trkpt lat="43.36322" lon="1.77347">
        <ele>184.9</ele>
        <time>2017-03-16T12:21:58Z</time>
      </trkpt>
      <trkpt lat="43.3632" lon="1.7736">
        <ele>184.7</ele>
        <time>2017-03-16T12:22:01Z</time>
      </trkpt>
      <trkpt lat="43.36316" lon="1.77372">
        <ele>184.1</ele>
        <time>2017-03-16T12:22:05Z</time>
      </trkpt>
      <trkpt lat="43.36312" lon="1.77386">
        <ele>183.7</ele>
        <time>2017-03-16T12:22:08Z</time>
      </trkpt>
      <trkpt lat="43.36308" lon="1.77397">
        <ele>183.5</ele>
        <time>2017-03-16T12:22:10Z</time>
      </trkpt>
      <trkpt lat="43.36304" lon="1.77409">
        <ele>183.8</ele>
        <time>2017-03-16T12:22:12Z</time>
      </trkpt>
      <trkpt lat="43.36301" lon="1.77421">
        <ele>183.8</ele>
        <time>2017-03-16T12:22:14Z</time>
      </trkpt>
      <trkpt lat="43.36296" lon="1.77434">
        <ele>183.7</ele>
        <time>2017-03-16T12:22:16Z</time>
      </trkpt>
      <trkpt lat="43.36293" lon="1.77447">
        <ele>183.7</ele>
        <time>2017-03-16T12:22:18Z</time>
      </trkpt>
      <trkpt lat="43.36289" lon="1.77462">
        <ele>183.8</ele>
        <time>2017-03-16T12:22:20Z</time>
      </trkpt>
      <trkpt lat="43.36284" lon="1.77476">
        <ele>183.8</ele>
        <time>2017-03-16T12:22:22Z</time>
      </trkpt>
      <trkpt lat="43.3628" lon="1.77491">
        <ele>183.7</ele>
        <time>2017-03-16T12:22:24Z</time>
      </trkpt>
      <trkpt lat="43.36275" lon="1.77505">
        <ele>183.7</ele>
        <time>2017-03-16T12:22:26Z</time>
      </trkpt>
      <trkpt lat="43.3627" lon="1.77519">
        <ele>183.2</ele>
        <time>2017-03-16T12:22:28Z</time>
      </trkpt>
      <trkpt lat="43.36264" lon="1.77533">
        <ele>183.6</ele>
        <time>2017-03-16T12:22:30Z</time>
      </trkpt>
      <trkpt lat="43.36259" lon="1.77548">
        <ele>183.8</ele>
        <time>2017-03-16T12:22:32Z</time>
      </trkpt>
      <trkpt lat="43.36254" lon="1.77561">
        <ele>183.9</ele>
        <time>2017-03-16T12:22:34Z</time>
      </trkpt>
      <trkpt lat="43.36249" lon="1.77574">
        <ele>184.2</ele>
        <time>2017-03-16T12:22:36Z</time>
      </trkpt>
      <trkpt lat="43.36243" lon="1.77588">
        <ele>184.5</ele>
        <time>2017-03-16T12:22:38Z</time>
      </trkpt>
      <trkpt lat="43.36238" lon="1.77601">
        <ele>184.5</ele>
        <time>2017-03-16T12:22:40Z</time>
      </trkpt>
      <trkpt lat="43.36235" lon="1.77616">
        <ele>184.3</ele>
        <time>2017-03-16T12:22:42Z</time>
      </trkpt>
      <trkpt lat="43.36231" lon="1.77631">
        <ele>184.6</ele>
        <time>2017-03-16T12:22:44Z</time>
      </trkpt>
      <trkpt lat="43.36226" lon="1.77643">
        <ele>185.4</ele>
        <time>2017-03-16T12:22:46Z</time>
      </trkpt>
      <trkpt lat="43.3622" lon="1.77653">
        <ele>186.6</ele>
        <time>2017-03-16T12:22:48Z</time>
      </trkpt>
      <trkpt lat="43.36214" lon="1.77662">
        <ele>187.1</ele>
        <time>2017-03-16T12:22:50Z</time>
      </trkpt>
      <trkpt lat="43.36208" lon="1.77673">
        <ele>187.3</ele>
        <time>2017-03-16T12:22:52Z</time>
      </trkpt>
      <trkpt lat="43.36201" lon="1.77683">
        <ele>187.6</ele>
        <time>2017-03-16T12:22:54Z</time>
      </trkpt>
      <trkpt lat="43.36194" lon="1.77693">
        <ele>187.5</ele>
        <time>2017-03-16T12:22:56Z</time>
      </trkpt>
      <trkpt lat="43.36186" lon="1.77703">
        <ele>187.9</ele>
        <time>2017-03-16T12:22:58Z</time>
      </trkpt>
      <trkpt lat="43.36179" lon="1.77714">
        <ele>187.4</ele>
        <time>2017-03-16T12:23:00Z</time>
      </trkpt>
      <trkpt lat="43.36172" lon="1.77725">
        <ele>186.8</ele>
        <time>2017-03-16T12:23:02Z</time>
      </trkpt>
      <trkpt lat="43.36164" lon="1.77736">
        <ele>186</ele>
        <time>2017-03-16T12:23:04Z</time>
      </trkpt>
      <trkpt lat="43.36157" lon="1.77748">
        <ele>185</ele>
        <time>2017-03-16T12:23:06Z</time>
      </trkpt>
      <trkpt lat="43.36148" lon="1.77759">
        <ele>184.4</ele>
        <time>2017-03-16T12:23:08Z</time>
      </trkpt>
      <trkpt lat="43.36141" lon="1.77772">
        <ele>184.2</ele>
        <time>2017-03-16T12:23:10Z</time>
      </trkpt>
      <trkpt lat="43.36134" lon="1.77783">
        <ele>184.2</ele>
        <time>2017-03-16T12:23:12Z</time>
      </trkpt>
      <trkpt lat="43.36127" lon="1.77795">
        <ele>184.5</ele>
        <time>2017-03-16T12:23:14Z</time>
      </trkpt>
      <trkpt lat="43.3612" lon="1.77808">
        <ele>185.1</ele>
        <time>2017-03-16T12:23:16Z</time>
      </trkpt>
      <trkpt lat="43.36113" lon="1.77819">
        <ele>185.8</ele>
        <time>2017-03-16T12:23:18Z</time>
      </trkpt>
      <trkpt lat="43.36106" lon="1.7783">
        <ele>186.2</ele>
        <time>2017-03-16T12:23:20Z</time>
      </trkpt>
      <trkpt lat="43.36099" lon="1.77841">
        <ele>186.5</ele>
        <time>2017-03-16T12:23:22Z</time>
      </trkpt>
      <trkpt lat="43.36093" lon="1.77854">
        <ele>186.4</ele>
        <time>2017-03-16T12:23:24Z</time>
      </trkpt>
      <trkpt lat="43.36086" lon="1.77867">
        <ele>186.6</ele>
        <time>2017-03-16T12:23:26Z</time>
      </trkpt>
      <trkpt lat="43.3608" lon="1.7788">
        <ele>187.1</ele>
        <time>2017-03-16T12:23:28Z</time>
      </trkpt>
      <trkpt lat="43.36074" lon="1.77894">
        <ele>187.5</ele>
        <time>2017-03-16T12:23:30Z</time>
      </trkpt>
      <trkpt lat="43.36069" lon="1.77908">
        <ele>187.3</ele>
        <time>2017-03-16T12:23:32Z</time>
      </trkpt>
      <trkpt lat="43.36065" lon="1.77922">
        <ele>187</ele>
        <time>2017-03-16T12:23:34Z</time>
      </trkpt>
      <trkpt lat="43.36059" lon="1.77937">
        <ele>187.2</ele>
        <time>2017-03-16T12:23:36Z</time>
      </trkpt>
      <trkpt lat="43.36056" lon="1.77952">
        <ele>187.6</ele>
        <time>2017-03-16T12:23:38Z</time>
      </trkpt>
      <trkpt lat="43.36052" lon="1.77967">
        <ele>187.7</ele>
        <time>2017-03-16T12:23:40Z</time>
      </trkpt>
      <trkpt lat="43.36047" lon="1.77983">
        <ele>187.6</ele>
        <time>2017-03-16T12:23:42Z</time>
      </trkpt>
      <trkpt lat="43.36043" lon="1.77999">
        <ele>187.5</ele>
        <time>2017-03-16T12:23:44Z</time>
      </trkpt>
      <trkpt lat="43.36037" lon="1.78017">
        <ele>187.7</ele>
        <time>2017-03-16T12:23:46Z</time>
      </trkpt>
      <trkpt lat="43.36034" lon="1.78027">
        <ele>187.8</ele>
        <time>2017-03-16T12:23:47Z</time>
      </trkpt>
      <trkpt lat="43.36029" lon="1.78044">
        <ele>188.4</ele>
        <time>2017-03-16T12:23:49Z</time>
      </trkpt>
      <trkpt lat="43.36025" lon="1.78057">
        <ele>187.2</ele>
        <time>2017-03-16T12:23:51Z</time>
      </trkpt>
      <trkpt lat="43.3602" lon="1.78071">
        <ele>186.5</ele>
        <time>2017-03-16T12:23:53Z</time>
      </trkpt>
      <trkpt lat="43.36014" lon="1.78084">
        <ele>185.7</ele>
        <time>2017-03-16T12:23:55Z</time>
      </trkpt>
      <trkpt lat="43.36008" lon="1.78097">
        <ele>185.9</ele>
        <time>2017-03-16T12:23:57Z</time>
      </trkpt>
      <trkpt lat="43.36002" lon="1.78111">
        <ele>185.9</ele>
        <time>2017-03-16T12:23:59Z</time>
      </trkpt>
      <trkpt lat="43.35995" lon="1.78126">
        <ele>186.2</ele>
        <time>2017-03-16T12:24:01Z</time>
      </trkpt>
      <trkpt lat="43.35988" lon="1.78139">
        <ele>186.6</ele>
        <time>2017-03-16T12:24:03Z</time>
      </trkpt>
      <trkpt lat="43.35981" lon="1.78153">
        <ele>186.5</ele>
        <time>2017-03-16T12:24:05Z</time>
      </trkpt>
      <trkpt lat="43.35973" lon="1.78167">
        <ele>187.1</ele>
        <time>2017-03-16T12:24:07Z</time>
      </trkpt>
      <trkpt lat="43.35966" lon="1.78181">
        <ele>186.9</ele>
        <time>2017-03-16T12:24:09Z</time>
      </trkpt>
      <trkpt lat="43.35958" lon="1.78194">
        <ele>186</ele>
        <time>2017-03-16T12:24:11Z</time>
      </trkpt>
      <trkpt lat="43.3595" lon="1.78207">
        <ele>185.9</ele>
        <time>2017-03-16T12:24:13Z</time>
      </trkpt>
      <trkpt lat="43.35942" lon="1.78222">
        <ele>185.7</ele>
        <time>2017-03-16T12:24:15Z</time>
      </trkpt>
      <trkpt lat="43.35937" lon="1.78231">
        <ele>185.4</ele>
        <time>2017-03-16T12:24:16Z</time>
      </trkpt>
      <trkpt lat="43.35932" lon="1.78238">
        <ele>185</ele>
        <time>2017-03-16T12:24:17Z</time>
      </trkpt>
      <trkpt lat="43.35924" lon="1.78252">
        <ele>184.7</ele>
        <time>2017-03-16T12:24:19Z</time>
      </trkpt>
      <trkpt lat="43.35916" lon="1.78264">
        <ele>184.7</ele>
        <time>2017-03-16T12:24:21Z</time>
      </trkpt>
      <trkpt lat="43.35909" lon="1.78277">
        <ele>184.4</ele>
        <time>2017-03-16T12:24:23Z</time>
      </trkpt>
      <trkpt lat="43.35903" lon="1.78291">
        <ele>184.1</ele>
        <time>2017-03-16T12:24:25Z</time>
      </trkpt>
      <trkpt lat="43.35895" lon="1.78306">
        <ele>184</ele>
        <time>2017-03-16T12:24:27Z</time>
      </trkpt>
      <trkpt lat="43.35889" lon="1.7832">
        <ele>184.1</ele>
        <time>2017-03-16T12:24:29Z</time>
      </trkpt>
      <trkpt lat="43.35884" lon="1.78333">
        <ele>183.9</ele>
        <time>2017-03-16T12:24:31Z</time>
      </trkpt>
      <trkpt lat="43.35879" lon="1.78348">
        <ele>183.9</ele>
        <time>2017-03-16T12:24:33Z</time>
      </trkpt>
      <trkpt lat="43.35874" lon="1.78363">
        <ele>183.9</ele>
        <time>2017-03-16T12:24:35Z</time>
      </trkpt>
      <trkpt lat="43.35869" lon="1.78378">
        <ele>184.1</ele>
        <time>2017-03-16T12:24:37Z</time>
      </trkpt>
      <trkpt lat="43.35864" lon="1.78394">
        <ele>184.1</ele>
        <time>2017-03-16T12:24:39Z</time>
      </trkpt>
      <trkpt lat="43.35859" lon="1.78411">
        <ele>183.9</ele>
        <time>2017-03-16T12:24:41Z</time>
      </trkpt>
      <trkpt lat="43.35855" lon="1.78428">
        <ele>184.4</ele>
        <time>2017-03-16T12:24:43Z</time>
      </trkpt>
      <trkpt lat="43.35851" lon="1.78444">
        <ele>184.6</ele>
        <time>2017-03-16T12:24:45Z</time>
      </trkpt>
      <trkpt lat="43.35847" lon="1.78459">
        <ele>185.1</ele>
        <time>2017-03-16T12:24:47Z</time>
      </trkpt>
      <trkpt lat="43.35842" lon="1.78475">
        <ele>185.7</ele>
        <time>2017-03-16T12:24:49Z</time>
      </trkpt>
      <trkpt lat="43.35836" lon="1.78491">
        <ele>186.4</ele>
        <time>2017-03-16T12:24:51Z</time>
      </trkpt>
      <trkpt lat="43.35831" lon="1.78507">
        <ele>186.4</ele>
        <time>2017-03-16T12:24:53Z</time>
      </trkpt>
      <trkpt lat="43.35827" lon="1.78523">
        <ele>186.7</ele>
        <time>2017-03-16T12:24:55Z</time>
      </trkpt>
      <trkpt lat="43.35822" lon="1.78537">
        <ele>186.7</ele>
        <time>2017-03-16T12:24:57Z</time>
      </trkpt>
      <trkpt lat="43.35817" lon="1.78552">
        <ele>186.5</ele>
        <time>2017-03-16T12:24:59Z</time>
      </trkpt>
      <trkpt lat="43.35813" lon="1.78567">
        <ele>186.8</ele>
        <time>2017-03-16T12:25:01Z</time>
      </trkpt>
      <trkpt lat="43.3581" lon="1.7858">
        <ele>186.2</ele>
        <time>2017-03-16T12:25:03Z</time>
      </trkpt>
      <trkpt lat="43.35806" lon="1.78596">
        <ele>186.3</ele>
        <time>2017-03-16T12:25:05Z</time>
      </trkpt>
      <trkpt lat="43.35802" lon="1.78612">
        <ele>187</ele>
        <time>2017-03-16T12:25:07Z</time>
      </trkpt>
      <trkpt lat="43.35798" lon="1.78628">
        <ele>187.9</ele>
        <time>2017-03-16T12:25:09Z</time>
      </trkpt>
      <trkpt lat="43.35795" lon="1.78644">
        <ele>188</ele>
        <time>2017-03-16T12:25:11Z</time>
      </trkpt>
      <trkpt lat="43.3579" lon="1.78662">
        <ele>189</ele>
        <time>2017-03-16T12:25:13Z</time>
      </trkpt>
      <trkpt lat="43.35786" lon="1.7868">
        <ele>189.4</ele>
        <time>2017-03-16T12:25:15Z</time>
      </trkpt>
      <trkpt lat="43.35782" lon="1.78698">
        <ele>189.8</ele>
        <time>2017-03-16T12:25:17Z</time>
      </trkpt>
      <trkpt lat="43.35776" lon="1.78715">
        <ele>189.9</ele>
        <time>2017-03-16T12:25:19Z</time>
      </trkpt>
      <trkpt lat="43.35771" lon="1.78731">
        <ele>189.9</ele>
        <time>2017-03-16T12:25:21Z</time>
      </trkpt>
      <trkpt lat="43.35766" lon="1.78747">
        <ele>190.6</ele>
        <time>2017-03-16T12:25:23Z</time>
      </trkpt>
      <trkpt lat="43.35761" lon="1.78764">
        <ele>190.9</ele>
        <time>2017-03-16T12:25:25Z</time>
      </trkpt>
      <trkpt lat="43.35756" lon="1.78781">
        <ele>191.4</ele>
        <time>2017-03-16T12:25:27Z</time>
      </trkpt>
      <trkpt lat="43.35751" lon="1.78796">
        <ele>191.1</ele>
        <time>2017-03-16T12:25:29Z</time>
      </trkpt>
      <trkpt lat="43.35748" lon="1.7881">
        <ele>190.2</ele>
        <time>2017-03-16T12:25:31Z</time>
      </trkpt>
      <trkpt lat="43.35744" lon="1.78825">
        <ele>188.2</ele>
        <time>2017-03-16T12:25:33Z</time>
      </trkpt>
      <trkpt lat="43.3574" lon="1.78841">
        <ele>187.4</ele>
        <time>2017-03-16T12:25:35Z</time>
      </trkpt>
      <trkpt lat="43.35736" lon="1.78857">
        <ele>187.2</ele>
        <time>2017-03-16T12:25:37Z</time>
      </trkpt>
      <trkpt lat="43.35732" lon="1.78872">
        <ele>186</ele>
        <time>2017-03-16T12:25:39Z</time>
      </trkpt>
      <trkpt lat="43.35727" lon="1.78888">
        <ele>186.1</ele>
        <time>2017-03-16T12:25:41Z</time>
      </trkpt>
      <trkpt lat="43.35724" lon="1.78903">
        <ele>185.1</ele>
        <time>2017-03-16T12:25:43Z</time>
      </trkpt>
      <trkpt lat="43.3572" lon="1.78919">
        <ele>184.4</ele>
        <time>2017-03-16T12:25:45Z</time>
      </trkpt>
      <trkpt lat="43.35716" lon="1.78935">
        <ele>184</ele>
        <time>2017-03-16T12:25:47Z</time>
      </trkpt>
      <trkpt lat="43.3571" lon="1.7895">
        <ele>183.3</ele>
        <time>2017-03-16T12:25:49Z</time>
      </trkpt>
      <trkpt lat="43.35707" lon="1.78964">
        <ele>182.7</ele>
        <time>2017-03-16T12:25:51Z</time>
      </trkpt>
      <trkpt lat="43.35702" lon="1.78978">
        <ele>181.7</ele>
        <time>2017-03-16T12:25:53Z</time>
      </trkpt>
      <trkpt lat="43.35698" lon="1.78993">
        <ele>181.2</ele>
        <time>2017-03-16T12:25:55Z</time>
      </trkpt>
      <trkpt lat="43.35694" lon="1.7901">
        <ele>181.4</ele>
        <time>2017-03-16T12:25:57Z</time>
      </trkpt>
      <trkpt lat="43.3569" lon="1.79025">
        <ele>181.6</ele>
        <time>2017-03-16T12:25:59Z</time>
      </trkpt>
      <trkpt lat="43.35687" lon="1.7904">
        <ele>182</ele>
        <time>2017-03-16T12:26:01Z</time>
      </trkpt>
      <trkpt lat="43.35682" lon="1.79055">
        <ele>182.5</ele>
        <time>2017-03-16T12:26:03Z</time>
      </trkpt>
      <trkpt lat="43.35679" lon="1.79068">
        <ele>181.9</ele>
        <time>2017-03-16T12:26:05Z</time>
      </trkpt>
      <trkpt lat="43.35674" lon="1.79083">
        <ele>181.9</ele>
        <time>2017-03-16T12:26:07Z</time>
      </trkpt>
      <trkpt lat="43.3567" lon="1.79099">
        <ele>182.8</ele>
        <time>2017-03-16T12:26:09Z</time>
      </trkpt>
      <trkpt lat="43.35666" lon="1.79115">
        <ele>183</ele>
        <time>2017-03-16T12:26:11Z</time>
      </trkpt>
      <trkpt lat="43.35663" lon="1.79132">
        <ele>183</ele>
        <time>2017-03-16T12:26:13Z</time>
      </trkpt>
      <trkpt lat="43.35659" lon="1.7915">
        <ele>183.6</ele>
        <time>2017-03-16T12:26:15Z</time>
      </trkpt>
      <trkpt lat="43.35655" lon="1.79167">
        <ele>183.6</ele>
        <time>2017-03-16T12:26:17Z</time>
      </trkpt>
      <trkpt lat="43.35651" lon="1.79182">
        <ele>183.4</ele>
        <time>2017-03-16T12:26:19Z</time>
      </trkpt>
      <trkpt lat="43.35648" lon="1.79196">
        <ele>183.5</ele>
        <time>2017-03-16T12:26:21Z</time>
      </trkpt>
      <trkpt lat="43.35645" lon="1.79211">
        <ele>182.7</ele>
        <time>2017-03-16T12:26:23Z</time>
      </trkpt>
      <trkpt lat="43.35641" lon="1.79225">
        <ele>181.2</ele>
        <time>2017-03-16T12:26:25Z</time>
      </trkpt>
      <trkpt lat="43.35639" lon="1.79238">
        <ele>180.8</ele>
        <time>2017-03-16T12:26:27Z</time>
      </trkpt>
      <trkpt lat="43.35637" lon="1.79252">
        <ele>180.3</ele>
        <time>2017-03-16T12:26:29Z</time>
      </trkpt>
      <trkpt lat="43.35633" lon="1.79266">
        <ele>179.6</ele>
        <time>2017-03-16T12:26:31Z</time>
      </trkpt>
      <trkpt lat="43.3563" lon="1.79279">
        <ele>179.1</ele>
        <time>2017-03-16T12:26:33Z</time>
      </trkpt>
      <trkpt lat="43.35627" lon="1.79293">
        <ele>179.4</ele>
        <time>2017-03-16T12:26:35Z</time>
      </trkpt>
      <trkpt lat="43.35624" lon="1.79306">
        <ele>179.6</ele>
        <time>2017-03-16T12:26:37Z</time>
      </trkpt>
      <trkpt lat="43.35622" lon="1.7932">
        <ele>180.4</ele>
        <time>2017-03-16T12:26:39Z</time>
      </trkpt>
      <trkpt lat="43.3562" lon="1.79334">
        <ele>180</ele>
        <time>2017-03-16T12:26:41Z</time>
      </trkpt>
      <trkpt lat="43.35618" lon="1.79349">
        <ele>179.8</ele>
        <time>2017-03-16T12:26:43Z</time>
      </trkpt>
      <trkpt lat="43.35614" lon="1.79365">
        <ele>179.8</ele>
        <time>2017-03-16T12:26:45Z</time>
      </trkpt>
      <trkpt lat="43.35612" lon="1.79381">
        <ele>179.4</ele>
        <time>2017-03-16T12:26:47Z</time>
      </trkpt>
      <trkpt lat="43.3561" lon="1.79396">
        <ele>179.1</ele>
        <time>2017-03-16T12:26:49Z</time>
      </trkpt>
      <trkpt lat="43.35607" lon="1.79412">
        <ele>179.7</ele>
        <time>2017-03-16T12:26:51Z</time>
      </trkpt>
      <trkpt lat="43.35604" lon="1.79427">
        <ele>180.1</ele>
        <time>2017-03-16T12:26:53Z</time>
      </trkpt>
      <trkpt lat="43.35602" lon="1.79443">
        <ele>180.5</ele>
        <time>2017-03-16T12:26:55Z</time>
      </trkpt>
      <trkpt lat="43.35599" lon="1.79458">
        <ele>181.5</ele>
        <time>2017-03-16T12:26:57Z</time>
      </trkpt>
      <trkpt lat="43.35597" lon="1.79474">
        <ele>182.8</ele>
        <time>2017-03-16T12:26:59Z</time>
      </trkpt>
      <trkpt lat="43.35595" lon="1.7949">
        <ele>183.6</ele>
        <time>2017-03-16T12:27:01Z</time>
      </trkpt>
      <trkpt lat="43.35592" lon="1.79505">
        <ele>183.7</ele>
        <time>2017-03-16T12:27:03Z</time>
      </trkpt>
      <trkpt lat="43.3559" lon="1.7952">
        <ele>183.9</ele>
        <time>2017-03-16T12:27:05Z</time>
      </trkpt>
      <trkpt lat="43.35587" lon="1.79532">
        <ele>184.3</ele>
        <time>2017-03-16T12:27:07Z</time>
      </trkpt>
      <trkpt lat="43.35583" lon="1.79545">
        <ele>185.5</ele>
        <time>2017-03-16T12:27:10Z</time>
      </trkpt>
      <trkpt lat="43.3558" lon="1.79554">
        <ele>186.3</ele>
        <time>2017-03-16T12:27:13Z</time>
      </trkpt>
      <trkpt lat="43.35577" lon="1.79565">
        <ele>186.7</ele>
        <time>2017-03-16T12:27:16Z</time>
      </trkpt>
      <trkpt lat="43.35573" lon="1.79576">
        <ele>186.1</ele>
        <time>2017-03-16T12:27:18Z</time>
      </trkpt>
      <trkpt lat="43.35567" lon="1.79591">
        <ele>185.9</ele>
        <time>2017-03-16T12:27:20Z</time>
      </trkpt>
      <trkpt lat="43.35559" lon="1.79607">
        <ele>185.5</ele>
        <time>2017-03-16T12:27:22Z</time>
      </trkpt>
      <trkpt lat="43.35551" lon="1.79623">
        <ele>184.9</ele>
        <time>2017-03-16T12:27:24Z</time>
      </trkpt>
      <trkpt lat="43.35544" lon="1.79639">
        <ele>184.4</ele>
        <time>2017-03-16T12:27:26Z</time>
      </trkpt>
      <trkpt lat="43.35535" lon="1.79652">
        <ele>183.2</ele>
        <time>2017-03-16T12:27:28Z</time>
      </trkpt>
      <trkpt lat="43.35528" lon="1.79668">
        <ele>182.9</ele>
        <time>2017-03-16T12:27:30Z</time>
      </trkpt>
      <trkpt lat="43.35519" lon="1.79683">
        <ele>182.6</ele>
        <time>2017-03-16T12:27:32Z</time>
      </trkpt>
      <trkpt lat="43.35512" lon="1.79698">
        <ele>181.7</ele>
        <time>2017-03-16T12:27:34Z</time>
      </trkpt>
      <trkpt lat="43.35505" lon="1.79714">
        <ele>181.5</ele>
        <time>2017-03-16T12:27:36Z</time>
      </trkpt>
      <trkpt lat="43.35497" lon="1.79729">
        <ele>181.4</ele>
        <time>2017-03-16T12:27:38Z</time>
      </trkpt>
      <trkpt lat="43.3549" lon="1.79743">
        <ele>182.3</ele>
        <time>2017-03-16T12:27:40Z</time>
      </trkpt>
      <trkpt lat="43.35483" lon="1.79757">
        <ele>183.3</ele>
        <time>2017-03-16T12:27:42Z</time>
      </trkpt>
      <trkpt lat="43.35476" lon="1.79771">
        <ele>184</ele>
        <time>2017-03-16T12:27:44Z</time>
      </trkpt>
      <trkpt lat="43.35469" lon="1.79786">
        <ele>184</ele>
        <time>2017-03-16T12:27:46Z</time>
      </trkpt>
      <trkpt lat="43.35463" lon="1.79801">
        <ele>184.2</ele>
        <time>2017-03-16T12:27:48Z</time>
      </trkpt>
      <trkpt lat="43.35455" lon="1.79814">
        <ele>185.3</ele>
        <time>2017-03-16T12:27:50Z</time>
      </trkpt>
      <trkpt lat="43.35448" lon="1.79828">
        <ele>186.3</ele>
        <time>2017-03-16T12:27:52Z</time>
      </trkpt>
      <trkpt lat="43.35442" lon="1.79842">
        <ele>186.8</ele>
        <time>2017-03-16T12:27:54Z</time>
      </trkpt>
      <trkpt lat="43.35435" lon="1.79857">
        <ele>186.5</ele>
        <time>2017-03-16T12:27:56Z</time>
      </trkpt>
      <trkpt lat="43.35429" lon="1.79869">
        <ele>186</ele>
        <time>2017-03-16T12:27:58Z</time>
      </trkpt>
      <trkpt lat="43.35423" lon="1.79883">
        <ele>185.6</ele>
        <time>2017-03-16T12:28:00Z</time>
      </trkpt>
      <trkpt lat="43.35417" lon="1.79896">
        <ele>185.2</ele>
        <time>2017-03-16T12:28:02Z</time>
      </trkpt>
      <trkpt lat="43.35412" lon="1.79909">
        <ele>183.9</ele>
        <time>2017-03-16T12:28:04Z</time>
      </trkpt>
      <trkpt lat="43.35407" lon="1.79922">
        <ele>182.7</ele>
        <time>2017-03-16T12:28:06Z</time>
      </trkpt>
      <trkpt lat="43.35403" lon="1.79935">
        <ele>181.2</ele>
        <time>2017-03-16T12:28:08Z</time>
      </trkpt>
      <trkpt lat="43.35402" lon="1.79949">
        <ele>180.8</ele>
        <time>2017-03-16T12:28:10Z</time>
      </trkpt>
      <trkpt lat="43.35402" lon="1.79962">
        <ele>181.1</ele>
        <time>2017-03-16T12:28:12Z</time>
      </trkpt>
      <trkpt lat="43.35404" lon="1.79973">
        <ele>181.1</ele>
        <time>2017-03-16T12:28:14Z</time>
      </trkpt>
      <trkpt lat="43.35406" lon="1.79986">
        <ele>181</ele>
        <time>2017-03-16T12:28:16Z</time>
      </trkpt>
      <trkpt lat="43.35405" lon="1.79999">
        <ele>181</ele>
        <time>2017-03-16T12:28:18Z</time>
      </trkpt>
      <trkpt lat="43.35404" lon="1.80013">
        <ele>179.8</ele>
        <time>2017-03-16T12:28:20Z</time>
      </trkpt>
      <trkpt lat="43.35403" lon="1.80027">
        <ele>180.4</ele>
        <time>2017-03-16T12:28:22Z</time>
      </trkpt>
      <trkpt lat="43.35404" lon="1.80041">
        <ele>180.7</ele>
        <time>2017-03-16T12:28:24Z</time>
      </trkpt>
      <trkpt lat="43.35405" lon="1.80054">
        <ele>180.8</ele>
        <time>2017-03-16T12:28:26Z</time>
      </trkpt>
      <trkpt lat="43.35406" lon="1.80068">
        <ele>180.9</ele>
        <time>2017-03-16T12:28:28Z</time>
      </trkpt>
      <trkpt lat="43.35407" lon="1.80081">
        <ele>181.1</ele>
        <time>2017-03-16T12:28:30Z</time>
      </trkpt>
      <trkpt lat="43.3541" lon="1.80094">
        <ele>181.2</ele>
        <time>2017-03-16T12:28:32Z</time>
      </trkpt>
      <trkpt lat="43.35413" lon="1.80107">
        <ele>181.1</ele>
        <time>2017-03-16T12:28:34Z</time>
      </trkpt>
      <trkpt lat="43.35416" lon="1.80119">
        <ele>181</ele>
        <time>2017-03-16T12:28:36Z</time>
      </trkpt>
      <trkpt lat="43.3542" lon="1.80131">
        <ele>180.9</ele>
        <time>2017-03-16T12:28:38Z</time>
      </trkpt>
      <trkpt lat="43.35424" lon="1.80144">
        <ele>180.8</ele>
        <time>2017-03-16T12:28:40Z</time>
      </trkpt>
      <trkpt lat="43.35428" lon="1.80156">
        <ele>180.4</ele>
        <time>2017-03-16T12:28:42Z</time>
      </trkpt>
      <trkpt lat="43.35433" lon="1.80168">
        <ele>180.3</ele>
        <time>2017-03-16T12:28:44Z</time>
      </trkpt>
      <trkpt lat="43.35437" lon="1.8018">
        <ele>180.4</ele>
        <time>2017-03-16T12:28:46Z</time>
      </trkpt>
      <trkpt lat="43.35444" lon="1.80193">
        <ele>180.1</ele>
        <time>2017-03-16T12:28:48Z</time>
      </trkpt>
      <trkpt lat="43.35451" lon="1.80203">
        <ele>179.7</ele>
        <time>2017-03-16T12:28:50Z</time>
      </trkpt>
      <trkpt lat="43.35458" lon="1.80214">
        <ele>179.5</ele>
        <time>2017-03-16T12:28:52Z</time>
      </trkpt>
      <trkpt lat="43.35466" lon="1.80225">
        <ele>179.3</ele>
        <time>2017-03-16T12:28:54Z</time>
      </trkpt>
      <trkpt lat="43.35474" lon="1.80235">
        <ele>179.2</ele>
        <time>2017-03-16T12:28:56Z</time>
      </trkpt>
      <trkpt lat="43.35482" lon="1.80249">
        <ele>180.3</ele>
        <time>2017-03-16T12:28:58Z</time>
      </trkpt>
      <trkpt lat="43.35488" lon="1.80262">
        <ele>181.1</ele>
        <time>2017-03-16T12:29:00Z</time>
      </trkpt>
      <trkpt lat="43.35494" lon="1.80276">
        <ele>181.3</ele>
        <time>2017-03-16T12:29:02Z</time>
      </trkpt>
      <trkpt lat="43.35503" lon="1.80288">
        <ele>181.4</ele>
        <time>2017-03-16T12:29:04Z</time>
      </trkpt>
      <trkpt lat="43.35512" lon="1.80299">
        <ele>181.6</ele>
        <time>2017-03-16T12:29:06Z</time>
      </trkpt>
      <trkpt lat="43.3552" lon="1.8031">
        <ele>181.7</ele>
        <time>2017-03-16T12:29:08Z</time>
      </trkpt>
      <trkpt lat="43.35528" lon="1.8032">
        <ele>182</ele>
        <time>2017-03-16T12:29:10Z</time>
      </trkpt>
      <trkpt lat="43.35537" lon="1.8033">
        <ele>182</ele>
        <time>2017-03-16T12:29:12Z</time>
      </trkpt>
      <trkpt lat="43.35543" lon="1.80339">
        <ele>181.9</ele>
        <time>2017-03-16T12:29:14Z</time>
      </trkpt>
      <trkpt lat="43.35544" lon="1.80349">
        <ele>181.5</ele>
        <time>2017-03-16T12:29:16Z</time>
      </trkpt>
      <trkpt lat="43.35548" lon="1.80358">
        <ele>181</ele>
        <time>2017-03-16T12:29:18Z</time>
      </trkpt>
      <trkpt lat="43.35553" lon="1.80366">
        <ele>180.7</ele>
        <time>2017-03-16T12:29:20Z</time>
      </trkpt>
      <trkpt lat="43.35558" lon="1.80375">
        <ele>180</ele>
        <time>2017-03-16T12:29:22Z</time>
      </trkpt>
      <trkpt lat="43.35563" lon="1.80383">
        <ele>179.6</ele>
        <time>2017-03-16T12:29:24Z</time>
      </trkpt>
      <trkpt lat="43.35568" lon="1.80393">
        <ele>179</ele>
        <time>2017-03-16T12:29:26Z</time>
      </trkpt>
      <trkpt lat="43.35574" lon="1.80401">
        <ele>178.6</ele>
        <time>2017-03-16T12:29:28Z</time>
      </trkpt>
      <trkpt lat="43.3558" lon="1.80412">
        <ele>178.2</ele>
        <time>2017-03-16T12:29:30Z</time>
      </trkpt>
      <trkpt lat="43.35586" lon="1.8042">
        <ele>178.1</ele>
        <time>2017-03-16T12:29:32Z</time>
      </trkpt>
      <trkpt lat="43.35592" lon="1.80429">
        <ele>177.6</ele>
        <time>2017-03-16T12:29:34Z</time>
      </trkpt>
      <trkpt lat="43.35598" lon="1.80437">
        <ele>177</ele>
        <time>2017-03-16T12:29:36Z</time>
      </trkpt>
      <trkpt lat="43.35603" lon="1.80447">
        <ele>176.2</ele>
        <time>2017-03-16T12:29:38Z</time>
      </trkpt>
      <trkpt lat="43.35607" lon="1.80455">
        <ele>175.4</ele>
        <time>2017-03-16T12:29:40Z</time>
      </trkpt>
      <trkpt lat="43.35612" lon="1.80464">
        <ele>174.7</ele>
        <time>2017-03-16T12:29:42Z</time>
      </trkpt>
      <trkpt lat="43.35618" lon="1.80473">
        <ele>174.1</ele>
        <time>2017-03-16T12:29:44Z</time>
      </trkpt>
      <trkpt lat="43.35622" lon="1.80484">
        <ele>173.6</ele>
        <time>2017-03-16T12:29:46Z</time>
      </trkpt>
      <trkpt lat="43.35627" lon="1.80492">
        <ele>173</ele>
        <time>2017-03-16T12:29:48Z</time>
      </trkpt>
      <trkpt lat="43.35633" lon="1.80501">
        <ele>172.5</ele>
        <time>2017-03-16T12:29:50Z</time>
      </trkpt>
      <trkpt lat="43.35638" lon="1.80511">
        <ele>172.4</ele>
        <time>2017-03-16T12:29:52Z</time>
      </trkpt>
      <trkpt lat="43.35646" lon="1.80522">
        <ele>172.4</ele>
        <time>2017-03-16T12:29:54Z</time>
      </trkpt>
      <trkpt lat="43.35651" lon="1.80531">
        <ele>172.5</ele>
        <time>2017-03-16T12:29:56Z</time>
      </trkpt>
      <trkpt lat="43.35657" lon="1.8054">
        <ele>172.7</ele>
        <time>2017-03-16T12:29:58Z</time>
      </trkpt>
      <trkpt lat="43.35662" lon="1.80548">
        <ele>172.9</ele>
        <time>2017-03-16T12:30:00Z</time>
      </trkpt>
      <trkpt lat="43.35668" lon="1.80558">
        <ele>172.8</ele>
        <time>2017-03-16T12:30:03Z</time>
      </trkpt>
      <trkpt lat="43.35676" lon="1.8057">
        <ele>173.5</ele>
        <time>2017-03-16T12:30:06Z</time>
      </trkpt>
      <trkpt lat="43.35681" lon="1.80579">
        <ele>173.8</ele>
        <time>2017-03-16T12:30:08Z</time>
      </trkpt>
      <trkpt lat="43.35687" lon="1.80588">
        <ele>174.3</ele>
        <time>2017-03-16T12:30:10Z</time>
      </trkpt>
      <trkpt lat="43.35694" lon="1.80599">
        <ele>175</ele>
        <time>2017-03-16T12:30:12Z</time>
      </trkpt>
      <trkpt lat="43.35699" lon="1.80611">
        <ele>175.7</ele>
        <time>2017-03-16T12:30:14Z</time>
      </trkpt>
      <trkpt lat="43.35703" lon="1.80621">
        <ele>176.8</ele>
        <time>2017-03-16T12:30:16Z</time>
      </trkpt>
      <trkpt lat="43.35707" lon="1.80633">
        <ele>177.9</ele>
        <time>2017-03-16T12:30:18Z</time>
      </trkpt>
      <trkpt lat="43.35712" lon="1.80647">
        <ele>178.7</ele>
        <time>2017-03-16T12:30:20Z</time>
      </trkpt>
      <trkpt lat="43.3572" lon="1.80661">
        <ele>179.9</ele>
        <time>2017-03-16T12:30:22Z</time>
      </trkpt>
      <trkpt lat="43.35727" lon="1.80672">
        <ele>181.9</ele>
        <time>2017-03-16T12:30:24Z</time>
      </trkpt>
      <trkpt lat="43.35732" lon="1.80683">
        <ele>182.9</ele>
        <time>2017-03-16T12:30:26Z</time>
      </trkpt>
      <trkpt lat="43.35735" lon="1.80694">
        <ele>183.6</ele>
        <time>2017-03-16T12:30:28Z</time>
      </trkpt>
      <trkpt lat="43.35737" lon="1.80705">
        <ele>183.9</ele>
        <time>2017-03-16T12:30:30Z</time>
      </trkpt>
      <trkpt lat="43.35739" lon="1.80717">
        <ele>184.8</ele>
        <time>2017-03-16T12:30:32Z</time>
      </trkpt>
      <trkpt lat="43.35743" lon="1.80729">
        <ele>185.4</ele>
        <time>2017-03-16T12:30:34Z</time>
      </trkpt>
      <trkpt lat="43.35746" lon="1.80741">
        <ele>186</ele>
        <time>2017-03-16T12:30:36Z</time>
      </trkpt>
      <trkpt lat="43.35748" lon="1.80754">
        <ele>186.9</ele>
        <time>2017-03-16T12:30:38Z</time>
      </trkpt>
      <trkpt lat="43.3575" lon="1.80766">
        <ele>187.7</ele>
        <time>2017-03-16T12:30:40Z</time>
      </trkpt>
      <trkpt lat="43.35752" lon="1.80778">
        <ele>188.4</ele>
        <time>2017-03-16T12:30:42Z</time>
      </trkpt>
      <trkpt lat="43.35755" lon="1.8079">
        <ele>188.4</ele>
        <time>2017-03-16T12:30:44Z</time>
      </trkpt>
      <trkpt lat="43.35758" lon="1.80803">
        <ele>189.1</ele>
        <time>2017-03-16T12:30:46Z</time>
      </trkpt>
      <trkpt lat="43.35761" lon="1.80816">
        <ele>189.4</ele>
        <time>2017-03-16T12:30:48Z</time>
      </trkpt>
      <trkpt lat="43.35763" lon="1.80829">
        <ele>189.6</ele>
        <time>2017-03-16T12:30:50Z</time>
      </trkpt>
      <trkpt lat="43.35765" lon="1.80844">
        <ele>189.1</ele>
        <time>2017-03-16T12:30:52Z</time>
      </trkpt>
      <trkpt lat="43.35767" lon="1.80858">
        <ele>188.6</ele>
        <time>2017-03-16T12:30:54Z</time>
      </trkpt>
      <trkpt lat="43.3577" lon="1.80871">
        <ele>188.1</ele>
        <time>2017-03-16T12:30:56Z</time>
      </trkpt>
      <trkpt lat="43.35772" lon="1.80885">
        <ele>187.3</ele>
        <time>2017-03-16T12:30:58Z</time>
      </trkpt>
      <trkpt lat="43.35774" lon="1.80899">
        <ele>187.1</ele>
        <time>2017-03-16T12:31:00Z</time>
      </trkpt>
      <trkpt lat="43.35776" lon="1.80912">
        <ele>186.4</ele>
        <time>2017-03-16T12:31:02Z</time>
      </trkpt>
      <trkpt lat="43.35778" lon="1.80925">
        <ele>185.8</ele>
        <time>2017-03-16T12:31:04Z</time>
      </trkpt>
      <trkpt lat="43.35779" lon="1.80938">
        <ele>185.6</ele>
        <time>2017-03-16T12:31:06Z</time>
      </trkpt>
      <trkpt lat="43.35781" lon="1.80951">
        <ele>185.2</ele>
        <time>2017-03-16T12:31:08Z</time>
      </trkpt>
      <trkpt lat="43.35782" lon="1.80964">
        <ele>184.9</ele>
        <time>2017-03-16T12:31:10Z</time>
      </trkpt>
      <trkpt lat="43.35783" lon="1.80978">
        <ele>184.6</ele>
        <time>2017-03-16T12:31:12Z</time>
      </trkpt>
      <trkpt lat="43.35783" lon="1.80991">
        <ele>184.3</ele>
        <time>2017-03-16T12:31:14Z</time>
      </trkpt>
      <trkpt lat="43.35784" lon="1.81005">
        <ele>185.2</ele>
        <time>2017-03-16T12:31:16Z</time>
      </trkpt>
      <trkpt lat="43.35786" lon="1.81019">
        <ele>184.5</ele>
        <time>2017-03-16T12:31:18Z</time>
      </trkpt>
      <trkpt lat="43.35786" lon="1.81033">
        <ele>184</ele>
        <time>2017-03-16T12:31:20Z</time>
      </trkpt>
      <trkpt lat="43.35787" lon="1.81047">
        <ele>183.6</ele>
        <time>2017-03-16T12:31:22Z</time>
      </trkpt>
      <trkpt lat="43.35789" lon="1.81061">
        <ele>182.7</ele>
        <time>2017-03-16T12:31:24Z</time>
      </trkpt>
      <trkpt lat="43.3579" lon="1.81075">
        <ele>182.4</ele>
        <time>2017-03-16T12:31:26Z</time>
      </trkpt>
      <trkpt lat="43.35791" lon="1.8109">
        <ele>182.1</ele>
        <time>2017-03-16T12:31:28Z</time>
      </trkpt>
      <trkpt lat="43.35792" lon="1.81104">
        <ele>182.5</ele>
        <time>2017-03-16T12:31:30Z</time>
      </trkpt>
      <trkpt lat="43.35792" lon="1.81118">
        <ele>183</ele>
        <time>2017-03-16T12:31:32Z</time>
      </trkpt>
      <trkpt lat="43.35789" lon="1.8113">
        <ele>182.9</ele>
        <time>2017-03-16T12:31:34Z</time>
      </trkpt>
      <trkpt lat="43.35788" lon="1.81142">
        <ele>182.7</ele>
        <time>2017-03-16T12:31:36Z</time>
      </trkpt>
      <trkpt lat="43.35788" lon="1.81155">
        <ele>183.4</ele>
        <time>2017-03-16T12:31:38Z</time>
      </trkpt>
      <trkpt lat="43.35786" lon="1.81168">
        <ele>184.5</ele>
        <time>2017-03-16T12:31:40Z</time>
      </trkpt>
      <trkpt lat="43.35786" lon="1.81181">
        <ele>185.4</ele>
        <time>2017-03-16T12:31:42Z</time>
      </trkpt>
      <trkpt lat="43.35786" lon="1.81193">
        <ele>186.2</ele>
        <time>2017-03-16T12:31:44Z</time>
      </trkpt>
      <trkpt lat="43.35785" lon="1.81204">
        <ele>187.3</ele>
        <time>2017-03-16T12:31:46Z</time>
      </trkpt>
      <trkpt lat="43.35785" lon="1.81216">
        <ele>187.9</ele>
        <time>2017-03-16T12:31:48Z</time>
      </trkpt>
      <trkpt lat="43.35785" lon="1.81227">
        <ele>187</ele>
        <time>2017-03-16T12:31:50Z</time>
      </trkpt>
      <trkpt lat="43.35785" lon="1.8124">
        <ele>185.7</ele>
        <time>2017-03-16T12:31:52Z</time>
      </trkpt>
      <trkpt lat="43.35785" lon="1.81254">
        <ele>184.4</ele>
        <time>2017-03-16T12:31:54Z</time>
      </trkpt>
      <trkpt lat="43.35783" lon="1.81265">
        <ele>182.2</ele>
        <time>2017-03-16T12:31:56Z</time>
      </trkpt>
      <trkpt lat="43.35781" lon="1.81276">
        <ele>179.8</ele>
        <time>2017-03-16T12:31:58Z</time>
      </trkpt>
      <trkpt lat="43.35778" lon="1.81289">
        <ele>177.3</ele>
        <time>2017-03-16T12:32:00Z</time>
      </trkpt>
      <trkpt lat="43.35775" lon="1.81301">
        <ele>178</ele>
        <time>2017-03-16T12:32:02Z</time>
      </trkpt>
      <trkpt lat="43.35772" lon="1.81314">
        <ele>178.2</ele>
        <time>2017-03-16T12:32:04Z</time>
      </trkpt>
      <trkpt lat="43.35769" lon="1.81325">
        <ele>178.3</ele>
        <time>2017-03-16T12:32:06Z</time>
      </trkpt>
      <trkpt lat="43.35765" lon="1.81339">
        <ele>179.2</ele>
        <time>2017-03-16T12:32:08Z</time>
      </trkpt>
      <trkpt lat="43.35762" lon="1.81352">
        <ele>178.4</ele>
        <time>2017-03-16T12:32:10Z</time>
      </trkpt>
      <trkpt lat="43.35758" lon="1.81364">
        <ele>178.1</ele>
        <time>2017-03-16T12:32:12Z</time>
      </trkpt>
      <trkpt lat="43.35754" lon="1.81378">
        <ele>179.4</ele>
        <time>2017-03-16T12:32:14Z</time>
      </trkpt>
      <trkpt lat="43.3575" lon="1.81393">
        <ele>180.4</ele>
        <time>2017-03-16T12:32:16Z</time>
      </trkpt>
      <trkpt lat="43.35746" lon="1.81406">
        <ele>180.3</ele>
        <time>2017-03-16T12:32:18Z</time>
      </trkpt>
      <trkpt lat="43.35742" lon="1.8142">
        <ele>180.3</ele>
        <time>2017-03-16T12:32:20Z</time>
      </trkpt>
      <trkpt lat="43.35739" lon="1.81433">
        <ele>180.3</ele>
        <time>2017-03-16T12:32:22Z</time>
      </trkpt>
      <trkpt lat="43.35736" lon="1.81447">
        <ele>180.2</ele>
        <time>2017-03-16T12:32:24Z</time>
      </trkpt>
      <trkpt lat="43.35732" lon="1.81463">
        <ele>180.5</ele>
        <time>2017-03-16T12:32:26Z</time>
      </trkpt>
      <trkpt lat="43.35728" lon="1.81478">
        <ele>180.5</ele>
        <time>2017-03-16T12:32:28Z</time>
      </trkpt>
      <trkpt lat="43.35724" lon="1.81492">
        <ele>181.3</ele>
        <time>2017-03-16T12:32:30Z</time>
      </trkpt>
      <trkpt lat="43.35719" lon="1.81505">
        <ele>182.1</ele>
        <time>2017-03-16T12:32:32Z</time>
      </trkpt>
      <trkpt lat="43.35715" lon="1.81518">
        <ele>181.8</ele>
        <time>2017-03-16T12:32:34Z</time>
      </trkpt>
      <trkpt lat="43.35711" lon="1.81531">
        <ele>181.4</ele>
        <time>2017-03-16T12:32:36Z</time>
      </trkpt>
      <trkpt lat="43.35707" lon="1.81543">
        <ele>182.1</ele>
        <time>2017-03-16T12:32:38Z</time>
      </trkpt>
      <trkpt lat="43.35702" lon="1.81555">
        <ele>181.5</ele>
        <time>2017-03-16T12:32:40Z</time>
      </trkpt>
      <trkpt lat="43.35698" lon="1.81566">
        <ele>181</ele>
        <time>2017-03-16T12:32:42Z</time>
      </trkpt>
      <trkpt lat="43.35694" lon="1.81577">
        <ele>181.4</ele>
        <time>2017-03-16T12:32:44Z</time>
      </trkpt>
      <trkpt lat="43.3569" lon="1.81589">
        <ele>181.5</ele>
        <time>2017-03-16T12:32:46Z</time>
      </trkpt>
      <trkpt lat="43.35685" lon="1.816">
        <ele>181.4</ele>
        <time>2017-03-16T12:32:48Z</time>
      </trkpt>
      <trkpt lat="43.3568" lon="1.81613">
        <ele>180.8</ele>
        <time>2017-03-16T12:32:50Z</time>
      </trkpt>
      <trkpt lat="43.35677" lon="1.81627">
        <ele>182.7</ele>
        <time>2017-03-16T12:32:52Z</time>
      </trkpt>
      <trkpt lat="43.35676" lon="1.81641">
        <ele>183.6</ele>
        <time>2017-03-16T12:32:55Z</time>
      </trkpt>
      <trkpt lat="43.35672" lon="1.81654">
        <ele>184.4</ele>
        <time>2017-03-16T12:32:58Z</time>
      </trkpt>
      <trkpt lat="43.35668" lon="1.81662">
        <ele>185.2</ele>
        <time>2017-03-16T12:33:00Z</time>
      </trkpt>
      <trkpt lat="43.35664" lon="1.81673">
        <ele>185.9</ele>
        <time>2017-03-16T12:33:02Z</time>
      </trkpt>
      <trkpt lat="43.35659" lon="1.81683">
        <ele>185.2</ele>
        <time>2017-03-16T12:33:04Z</time>
      </trkpt>
      <trkpt lat="43.35654" lon="1.81693">
        <ele>185.5</ele>
        <time>2017-03-16T12:33:06Z</time>
      </trkpt>
      <trkpt lat="43.35648" lon="1.81703">
        <ele>185.7</ele>
        <time>2017-03-16T12:33:08Z</time>
      </trkpt>
      <trkpt lat="43.35641" lon="1.81714">
        <ele>184.7</ele>
        <time>2017-03-16T12:33:10Z</time>
      </trkpt>
      <trkpt lat="43.35635" lon="1.81724">
        <ele>184.9</ele>
        <time>2017-03-16T12:33:12Z</time>
      </trkpt>
      <trkpt lat="43.35628" lon="1.81732">
        <ele>184.7</ele>
        <time>2017-03-16T12:33:14Z</time>
      </trkpt>
      <trkpt lat="43.35622" lon="1.81742">
        <ele>185.4</ele>
        <time>2017-03-16T12:33:16Z</time>
      </trkpt>
      <trkpt lat="43.35616" lon="1.81749">
        <ele>185.5</ele>
        <time>2017-03-16T12:33:18Z</time>
      </trkpt>
      <trkpt lat="43.35609" lon="1.8176">
        <ele>185.7</ele>
        <time>2017-03-16T12:33:21Z</time>
      </trkpt>
      <trkpt lat="43.35603" lon="1.81769">
        <ele>185.3</ele>
        <time>2017-03-16T12:33:24Z</time>
      </trkpt>
      <trkpt lat="43.35595" lon="1.81778">
        <ele>184.7</ele>
        <time>2017-03-16T12:33:27Z</time>
      </trkpt>
      <trkpt lat="43.35588" lon="1.81789">
        <ele>184.4</ele>
        <time>2017-03-16T12:33:30Z</time>
      </trkpt>
      <trkpt lat="43.35582" lon="1.81797">
        <ele>183.9</ele>
        <time>2017-03-16T12:33:32Z</time>
      </trkpt>
      <trkpt lat="43.35578" lon="1.81805">
        <ele>184.3</ele>
        <time>2017-03-16T12:33:34Z</time>
      </trkpt>
      <trkpt lat="43.35569" lon="1.81813">
        <ele>183.6</ele>
        <time>2017-03-16T12:33:38Z</time>
      </trkpt>
      <trkpt lat="43.35562" lon="1.81816">
        <ele>183.1</ele>
        <time>2017-03-16T12:33:39Z</time>
      </trkpt>
      <trkpt lat="43.35555" lon="1.81819">
        <ele>182.3</ele>
        <time>2017-03-16T12:33:41Z</time>
      </trkpt>
      <trkpt lat="43.35548" lon="1.81827">
        <ele>183.3</ele>
        <time>2017-03-16T12:33:44Z</time>
      </trkpt>
      <trkpt lat="43.35544" lon="1.81837">
        <ele>184.2</ele>
        <time>2017-03-16T12:33:48Z</time>
      </trkpt>
      <trkpt lat="43.35536" lon="1.81839">
        <ele>184.5</ele>
        <time>2017-03-16T12:33:52Z</time>
      </trkpt>
      <trkpt lat="43.35528" lon="1.81844">
        <ele>186.6</ele>
        <time>2017-03-16T12:34:06Z</time>
      </trkpt>
      <trkpt lat="43.35522" lon="1.8185">
        <ele>186.6</ele>
        <time>2017-03-16T12:34:11Z</time>
      </trkpt>
      <trkpt lat="43.3552" lon="1.81851">
        <ele>186.3</ele>
        <time>2017-03-16T12:34:18Z</time>
      </trkpt>
      <trkpt lat="43.35513" lon="1.81856">
        <ele>185</ele>
        <time>2017-03-16T12:34:28Z</time>
      </trkpt>
      <trkpt lat="43.35508" lon="1.81863">
        <ele>184.7</ele>
        <time>2017-03-16T12:34:35Z</time>
      </trkpt>
      <trkpt lat="43.35508" lon="1.81864">
        <ele>184.7</ele>
        <time>2017-03-16T12:34:42Z</time>
      </trkpt>
      <trkpt lat="43.35506" lon="1.81867">
        <ele>183</ele>
        <time>2017-03-16T12:35:08Z</time>
      </trkpt>
      <trkpt lat="43.35502" lon="1.81875">
        <ele>185.5</ele>
        <time>2017-03-16T12:36:43Z</time>
      </trkpt>
      <trkpt lat="43.35495" lon="1.8188">
        <ele>185.3</ele>
        <time>2017-03-16T12:36:48Z</time>
      </trkpt>
      <trkpt lat="43.35488" lon="1.81885">
        <ele>185.9</ele>
        <time>2017-03-16T12:36:55Z</time>
      </trkpt>
      <trkpt lat="43.35481" lon="1.81893">
        <ele>187</ele>
        <time>2017-03-16T12:37:00Z</time>
      </trkpt>
      <trkpt lat="43.35474" lon="1.81899">
        <ele>188.3</ele>
        <time>2017-03-16T12:37:04Z</time>
      </trkpt>
      <trkpt lat="43.35467" lon="1.81907">
        <ele>189.2</ele>
        <time>2017-03-16T12:37:07Z</time>
      </trkpt>
      <trkpt lat="43.3546" lon="1.81913">
        <ele>190</ele>
        <time>2017-03-16T12:37:10Z</time>
      </trkpt>
      <trkpt lat="43.35453" lon="1.81919">
        <ele>190.3</ele>
        <time>2017-03-16T12:37:13Z</time>
      </trkpt>
      <trkpt lat="43.35446" lon="1.81926">
        <ele>190</ele>
        <time>2017-03-16T12:37:16Z</time>
      </trkpt>
      <trkpt lat="43.35439" lon="1.81932">
        <ele>189.3</ele>
        <time>2017-03-16T12:37:19Z</time>
      </trkpt>
      <trkpt lat="43.35431" lon="1.8194">
        <ele>188.1</ele>
        <time>2017-03-16T12:37:23Z</time>
      </trkpt>
      <trkpt lat="43.35426" lon="1.81945">
        <ele>188.4</ele>
        <time>2017-03-16T12:37:30Z</time>
      </trkpt>
      <trkpt lat="43.35418" lon="1.81943">
        <ele>191.6</ele>
        <time>2017-03-16T12:37:46Z</time>
      </trkpt>
      <trkpt lat="43.35412" lon="1.81935">
        <ele>190.7</ele>
        <time>2017-03-16T12:37:50Z</time>
      </trkpt>
      <trkpt lat="43.35404" lon="1.81931">
        <ele>188.9</ele>
        <time>2017-03-16T12:37:55Z</time>
      </trkpt>
      <trkpt lat="43.35396" lon="1.81928">
        <ele>188</ele>
        <time>2017-03-16T12:37:58Z</time>
      </trkpt>
      <trkpt lat="43.35388" lon="1.81926">
        <ele>187.3</ele>
        <time>2017-03-16T12:38:01Z</time>
      </trkpt>
      <trkpt lat="43.35379" lon="1.81924">
        <ele>186.4</ele>
        <time>2017-03-16T12:38:04Z</time>
      </trkpt>
      <trkpt lat="43.35372" lon="1.81922">
        <ele>186.2</ele>
        <time>2017-03-16T12:38:08Z</time>
      </trkpt>
      <trkpt lat="43.35364" lon="1.8192">
        <ele>185.8</ele>
        <time>2017-03-16T12:38:13Z</time>
      </trkpt>
      <trkpt lat="43.35354" lon="1.81917">
        <ele>185.3</ele>
        <time>2017-03-16T12:38:17Z</time>
      </trkpt>
      <trkpt lat="43.35346" lon="1.81916">
        <ele>185.2</ele>
        <time>2017-03-16T12:38:20Z</time>
      </trkpt>
      <trkpt lat="43.35339" lon="1.81915">
        <ele>185.3</ele>
        <time>2017-03-16T12:38:23Z</time>
      </trkpt>
      <trkpt lat="43.35331" lon="1.81913">
        <ele>184.7</ele>
        <time>2017-03-16T12:38:26Z</time>
      </trkpt>
      <trkpt lat="43.35323" lon="1.81913">
        <ele>185.1</ele>
        <time>2017-03-16T12:38:30Z</time>
      </trkpt>
      <trkpt lat="43.35315" lon="1.81917">
        <ele>186.9</ele>
        <time>2017-03-16T12:38:33Z</time>
      </trkpt>
      <trkpt lat="43.35309" lon="1.81921">
        <ele>188.6</ele>
        <time>2017-03-16T12:38:38Z</time>
      </trkpt>
      <trkpt lat="43.353" lon="1.81918">
        <ele>189.4</ele>
        <time>2017-03-16T12:38:45Z</time>
      </trkpt>
      <trkpt lat="43.35292" lon="1.81918">
        <ele>189.3</ele>
        <time>2017-03-16T12:38:49Z</time>
      </trkpt>
      <trkpt lat="43.35283" lon="1.81917">
        <ele>189.3</ele>
        <time>2017-03-16T12:38:53Z</time>
      </trkpt>
      <trkpt lat="43.35274" lon="1.81916">
        <ele>189.8</ele>
        <time>2017-03-16T12:38:57Z</time>
      </trkpt>
      <trkpt lat="43.35266" lon="1.81913">
        <ele>189.6</ele>
        <time>2017-03-16T12:39:01Z</time>
      </trkpt>
      <trkpt lat="43.35257" lon="1.81912">
        <ele>189.9</ele>
        <time>2017-03-16T12:39:04Z</time>
      </trkpt>
      <trkpt lat="43.3525" lon="1.8191">
        <ele>188.3</ele>
        <time>2017-03-16T12:39:07Z</time>
      </trkpt>
      <trkpt lat="43.35242" lon="1.81908">
        <ele>187.1</ele>
        <time>2017-03-16T12:39:10Z</time>
      </trkpt>
      <trkpt lat="43.35233" lon="1.81908">
        <ele>186</ele>
        <time>2017-03-16T12:39:13Z</time>
      </trkpt>
      <trkpt lat="43.35226" lon="1.81907">
        <ele>185.9</ele>
        <time>2017-03-16T12:39:16Z</time>
      </trkpt>
      <trkpt lat="43.35219" lon="1.81905">
        <ele>184.9</ele>
        <time>2017-03-16T12:39:19Z</time>
      </trkpt>
      <trkpt lat="43.35212" lon="1.81904">
        <ele>185.2</ele>
        <time>2017-03-16T12:39:22Z</time>
      </trkpt>
      <trkpt lat="43.35204" lon="1.81903">
        <ele>185.2</ele>
        <time>2017-03-16T12:39:25Z</time>
      </trkpt>
      <trkpt lat="43.35196" lon="1.81899">
        <ele>185.5</ele>
        <time>2017-03-16T12:39:28Z</time>
      </trkpt>
      <trkpt lat="43.35188" lon="1.81898">
        <ele>186.2</ele>
        <time>2017-03-16T12:39:31Z</time>
      </trkpt>
      <trkpt lat="43.3518" lon="1.81896">
        <ele>187.1</ele>
        <time>2017-03-16T12:39:34Z</time>
      </trkpt>
      <trkpt lat="43.35172" lon="1.81895">
        <ele>187.8</ele>
        <time>2017-03-16T12:39:37Z</time>
      </trkpt>
      <trkpt lat="43.35164" lon="1.81896">
        <ele>188.8</ele>
        <time>2017-03-16T12:39:40Z</time>
      </trkpt>
      <trkpt lat="43.35157" lon="1.81898">
        <ele>189.4</ele>
        <time>2017-03-16T12:39:44Z</time>
      </trkpt>
      <trkpt lat="43.35147" lon="1.81897">
        <ele>190.9</ele>
        <time>2017-03-16T12:39:48Z</time>
      </trkpt>
      <trkpt lat="43.3514" lon="1.81898">
        <ele>191.2</ele>
        <time>2017-03-16T12:39:51Z</time>
      </trkpt>
      <trkpt lat="43.35132" lon="1.81898">
        <ele>191.7</ele>
        <time>2017-03-16T12:39:54Z</time>
      </trkpt>
      <trkpt lat="43.35125" lon="1.81897">
        <ele>192.4</ele>
        <time>2017-03-16T12:39:57Z</time>
      </trkpt>
      <trkpt lat="43.35117" lon="1.81895">
        <ele>192.9</ele>
        <time>2017-03-16T12:40:00Z</time>
      </trkpt>
      <trkpt lat="43.3511" lon="1.81894">
        <ele>192.7</ele>
        <time>2017-03-16T12:40:03Z</time>
      </trkpt>
      <trkpt lat="43.35101" lon="1.8189">
        <ele>192.3</ele>
        <time>2017-03-16T12:40:08Z</time>
      </trkpt>
      <trkpt lat="43.35094" lon="1.81886">
        <ele>191.5</ele>
        <time>2017-03-16T12:40:13Z</time>
      </trkpt>
      <trkpt lat="43.35087" lon="1.81884">
        <ele>191.9</ele>
        <time>2017-03-16T12:40:17Z</time>
      </trkpt>
      <trkpt lat="43.35081" lon="1.81884">
        <ele>193.3</ele>
        <time>2017-03-16T12:40:24Z</time>
      </trkpt>
      <trkpt lat="43.35076" lon="1.81886">
        <ele>193.6</ele>
        <time>2017-03-16T12:40:31Z</time>
      </trkpt>
      <trkpt lat="43.35076" lon="1.81886">
        <ele>193.8</ele>
        <time>2017-03-16T12:40:38Z</time>
      </trkpt>
      <trkpt lat="43.3508" lon="1.81883">
        <ele>193.7</ele>
        <time>2017-03-16T12:41:10Z</time>
      </trkpt>
      <trkpt lat="43.35073" lon="1.81881">
        <ele>193.6</ele>
        <time>2017-03-16T12:41:24Z</time>
      </trkpt>
      <trkpt lat="43.3507" lon="1.81879">
        <ele>193.3</ele>
        <time>2017-03-16T12:41:31Z</time>
      </trkpt>
      <trkpt lat="43.35074" lon="1.81878">
        <ele>190.7</ele>
        <time>2017-03-16T12:41:53Z</time>
      </trkpt>
      <trkpt lat="43.35077" lon="1.81881">
        <ele>190.2</ele>
        <time>2017-03-16T12:42:00Z</time>
      </trkpt>
      <trkpt lat="43.35081" lon="1.81886">
        <ele>183.5</ele>
        <time>2017-03-16T12:42:59Z</time>
      </trkpt>
      <trkpt lat="43.35088" lon="1.81895">
        <ele>183.4</ele>
        <time>2017-03-16T12:43:03Z</time>
      </trkpt>
      <trkpt lat="43.35094" lon="1.81904">
        <ele>183</ele>
        <time>2017-03-16T12:43:07Z</time>
      </trkpt>
      <trkpt lat="43.35099" lon="1.81911">
        <ele>181.9</ele>
        <time>2017-03-16T12:43:11Z</time>
      </trkpt>
      <trkpt lat="43.35104" lon="1.81918">
        <ele>181.9</ele>
        <time>2017-03-16T12:43:14Z</time>
      </trkpt>
      <trkpt lat="43.3511" lon="1.8193">
        <ele>181.8</ele>
        <time>2017-03-16T12:43:18Z</time>
      </trkpt>
      <trkpt lat="43.35116" lon="1.81938">
        <ele>182.8</ele>
        <time>2017-03-16T12:43:22Z</time>
      </trkpt>
      <trkpt lat="43.35122" lon="1.81945">
        <ele>183.4</ele>
        <time>2017-03-16T12:43:27Z</time>
      </trkpt>
      <trkpt lat="43.35128" lon="1.81953">
        <ele>183.2</ele>
        <time>2017-03-16T12:43:32Z</time>
      </trkpt>
      <trkpt lat="43.35131" lon="1.81962">
        <ele>183</ele>
        <time>2017-03-16T12:43:38Z</time>
      </trkpt>
      <trkpt lat="43.35133" lon="1.81966">
        <ele>182.1</ele>
        <time>2017-03-16T12:43:45Z</time>
      </trkpt>
      <trkpt lat="43.35129" lon="1.81973">
        <ele>183.1</ele>
        <time>2017-03-16T12:43:56Z</time>
      </trkpt>
      <trkpt lat="43.35126" lon="1.81983">
        <ele>183.6</ele>
        <time>2017-03-16T12:44:02Z</time>
      </trkpt>
      <trkpt lat="43.35123" lon="1.81994">
        <ele>183.7</ele>
        <time>2017-03-16T12:44:06Z</time>
      </trkpt>
      <trkpt lat="43.35121" lon="1.82005">
        <ele>183.3</ele>
        <time>2017-03-16T12:44:09Z</time>
      </trkpt>
      <trkpt lat="43.35119" lon="1.82016">
        <ele>182.7</ele>
        <time>2017-03-16T12:44:12Z</time>
      </trkpt>
      <trkpt lat="43.35118" lon="1.82026">
        <ele>182.2</ele>
        <time>2017-03-16T12:44:15Z</time>
      </trkpt>
      <trkpt lat="43.35116" lon="1.82038">
        <ele>181.6</ele>
        <time>2017-03-16T12:44:19Z</time>
      </trkpt>
      <trkpt lat="43.35113" lon="1.82053">
        <ele>181</ele>
        <time>2017-03-16T12:44:22Z</time>
      </trkpt>
      <trkpt lat="43.35111" lon="1.82063">
        <ele>180.1</ele>
        <time>2017-03-16T12:44:25Z</time>
      </trkpt>
      <trkpt lat="43.35108" lon="1.82075">
        <ele>180</ele>
        <time>2017-03-16T12:44:28Z</time>
      </trkpt>
      <trkpt lat="43.35105" lon="1.82089">
        <ele>180</ele>
        <time>2017-03-16T12:44:31Z</time>
      </trkpt>
      <trkpt lat="43.35103" lon="1.82101">
        <ele>180.1</ele>
        <time>2017-03-16T12:44:34Z</time>
      </trkpt>
      <trkpt lat="43.35102" lon="1.82113">
        <ele>179.7</ele>
        <time>2017-03-16T12:44:37Z</time>
      </trkpt>
      <trkpt lat="43.351" lon="1.82125">
        <ele>180.8</ele>
        <time>2017-03-16T12:44:40Z</time>
      </trkpt>
      <trkpt lat="43.35102" lon="1.82135">
        <ele>181.3</ele>
        <time>2017-03-16T12:44:44Z</time>
      </trkpt>
      <trkpt lat="43.35103" lon="1.8214">
        <ele>181.1</ele>
        <time>2017-03-16T12:44:51Z</time>
      </trkpt>
      <trkpt lat="43.35103" lon="1.82145">
        <ele>180.5</ele>
        <time>2017-03-16T12:45:00Z</time>
      </trkpt>
      <trkpt lat="43.35105" lon="1.82155">
        <ele>180.4</ele>
        <time>2017-03-16T12:45:05Z</time>
      </trkpt>
      <trkpt lat="43.35107" lon="1.82165">
        <ele>180.5</ele>
        <time>2017-03-16T12:45:08Z</time>
      </trkpt>
      <trkpt lat="43.3511" lon="1.82177">
        <ele>181.4</ele>
        <time>2017-03-16T12:45:11Z</time>
      </trkpt>
      <trkpt lat="43.35113" lon="1.82189">
        <ele>181.7</ele>
        <time>2017-03-16T12:45:14Z</time>
      </trkpt>
      <trkpt lat="43.35117" lon="1.822">
        <ele>181.6</ele>
        <time>2017-03-16T12:45:17Z</time>
      </trkpt>
      <trkpt lat="43.35119" lon="1.82212">
        <ele>181.3</ele>
        <time>2017-03-16T12:45:21Z</time>
      </trkpt>
      <trkpt lat="43.35123" lon="1.82223">
        <ele>181.1</ele>
        <time>2017-03-16T12:45:24Z</time>
      </trkpt>
      <trkpt lat="43.35126" lon="1.82235">
        <ele>181</ele>
        <time>2017-03-16T12:45:27Z</time>
      </trkpt>
      <trkpt lat="43.3513" lon="1.82244">
        <ele>180.9</ele>
        <time>2017-03-16T12:45:30Z</time>
      </trkpt>
      <trkpt lat="43.35133" lon="1.82256">
        <ele>180.8</ele>
        <time>2017-03-16T12:45:34Z</time>
      </trkpt>
      <trkpt lat="43.35136" lon="1.82267">
        <ele>180.9</ele>
        <time>2017-03-16T12:45:38Z</time>
      </trkpt>
      <trkpt lat="43.35141" lon="1.82274">
        <ele>181.1</ele>
        <time>2017-03-16T12:45:41Z</time>
      </trkpt>
      <trkpt lat="43.35148" lon="1.82283">
        <ele>181.8</ele>
        <time>2017-03-16T12:45:45Z</time>
      </trkpt>
      <trkpt lat="43.35147" lon="1.8229">
        <ele>183.7</ele>
        <time>2017-03-16T12:45:52Z</time>
      </trkpt>
      <trkpt lat="43.35145" lon="1.82302">
        <ele>185.4</ele>
        <time>2017-03-16T12:45:57Z</time>
      </trkpt>
      <trkpt lat="43.35141" lon="1.82312">
        <ele>186.6</ele>
        <time>2017-03-16T12:46:04Z</time>
      </trkpt>
      <trkpt lat="43.35136" lon="1.8232">
        <ele>188.7</ele>
        <time>2017-03-16T12:46:09Z</time>
      </trkpt>
      <trkpt lat="43.35131" lon="1.82328">
        <ele>189.8</ele>
        <time>2017-03-16T12:46:13Z</time>
      </trkpt>
      <trkpt lat="43.35134" lon="1.8233">
        <ele>189.8</ele>
        <time>2017-03-16T12:46:20Z</time>
      </trkpt>
      <trkpt lat="43.35133" lon="1.82326">
        <ele>189.4</ele>
        <time>2017-03-16T12:46:27Z</time>
      </trkpt>
      <trkpt lat="43.35139" lon="1.82322">
        <ele>186.3</ele>
        <time>2017-03-16T12:49:45Z</time>
      </trkpt>
      <trkpt lat="43.35129" lon="1.82328">
        <ele>190.9</ele>
        <time>2017-03-16T12:51:34Z</time>
      </trkpt>
      <trkpt lat="43.35132" lon="1.82312">
        <ele>195.5</ele>
        <time>2017-03-16T12:55:36Z</time>
      </trkpt>
      <trkpt lat="43.35134" lon="1.82312">
        <ele>195.4</ele>
        <time>2017-03-16T12:55:43Z</time>
      </trkpt>
      <trkpt lat="43.35139" lon="1.82321">
        <ele>195.3</ele>
        <time>2017-03-16T12:55:49Z</time>
      </trkpt>
      <trkpt lat="43.35141" lon="1.82324">
        <ele>195.6</ele>
        <time>2017-03-16T12:55:56Z</time>
      </trkpt>
      <trkpt lat="43.35139" lon="1.82311">
        <ele>196.9</ele>
        <time>2017-03-16T13:01:32Z</time>
      </trkpt>
      <trkpt lat="43.35128" lon="1.82313">
        <ele>193.5</ele>
        <time>2017-03-16T13:03:31Z</time>
      </trkpt>
      <trkpt lat="43.35141" lon="1.82318">
        <ele>194.1</ele>
        <time>2017-03-16T13:04:48Z</time>
      </trkpt>
      <trkpt lat="43.35132" lon="1.82315">
        <ele>195</ele>
        <time>2017-03-16T13:06:19Z</time>
      </trkpt>
      <trkpt lat="43.35132" lon="1.82301">
        <ele>194.3</ele>
        <time>2017-03-16T13:06:34Z</time>
      </trkpt>
      <trkpt lat="43.35131" lon="1.82299">
        <ele>194.2</ele>
        <time>2017-03-16T13:06:41Z</time>
      </trkpt>
      <trkpt lat="43.35135" lon="1.82311">
        <ele>192.5</ele>
        <time>2017-03-16T13:07:01Z</time>
      </trkpt>
      <trkpt lat="43.35136" lon="1.82315">
        <ele>192</ele>
        <time>2017-03-16T13:07:08Z</time>
      </trkpt>
      <trkpt lat="43.35134" lon="1.82315">
        <ele>187.5</ele>
        <time>2017-03-16T13:12:40Z</time>
      </trkpt>
      <trkpt lat="43.35131" lon="1.82315">
        <ele>186.4</ele>
        <time>2017-03-16T13:12:47Z</time>
      </trkpt>
      <trkpt lat="43.35137" lon="1.82309">
        <ele>187.2</ele>
        <time>2017-03-16T13:13:12Z</time>
      </trkpt>
      <trkpt lat="43.35145" lon="1.82302">
        <ele>186.5</ele>
        <time>2017-03-16T13:13:17Z</time>
      </trkpt>
      <trkpt lat="43.35152" lon="1.82298">
        <ele>185</ele>
        <time>2017-03-16T13:13:24Z</time>
      </trkpt>
      <trkpt lat="43.35159" lon="1.82294">
        <ele>182.9</ele>
        <time>2017-03-16T13:13:31Z</time>
      </trkpt>
      <trkpt lat="43.35155" lon="1.82285">
        <ele>183.1</ele>
        <time>2017-03-16T13:13:34Z</time>
      </trkpt>
      <trkpt lat="43.35143" lon="1.82283">
        <ele>188.4</ele>
        <time>2017-03-16T13:14:19Z</time>
      </trkpt>
      <trkpt lat="43.3515" lon="1.82289">
        <ele>188.4</ele>
        <time>2017-03-16T13:14:23Z</time>
      </trkpt>
      <trkpt lat="43.35156" lon="1.82293">
        <ele>188.7</ele>
        <time>2017-03-16T13:14:26Z</time>
      </trkpt>
      <trkpt lat="43.35163" lon="1.82298">
        <ele>188.8</ele>
        <time>2017-03-16T13:14:30Z</time>
      </trkpt>
      <trkpt lat="43.3517" lon="1.82304">
        <ele>189</ele>
        <time>2017-03-16T13:14:34Z</time>
      </trkpt>
      <trkpt lat="43.35179" lon="1.8231">
        <ele>189.3</ele>
        <time>2017-03-16T13:14:38Z</time>
      </trkpt>
      <trkpt lat="43.35187" lon="1.82315">
        <ele>188</ele>
        <time>2017-03-16T13:14:41Z</time>
      </trkpt>
      <trkpt lat="43.35195" lon="1.82321">
        <ele>185.8</ele>
        <time>2017-03-16T13:14:44Z</time>
      </trkpt>
      <trkpt lat="43.35202" lon="1.82328">
        <ele>184.8</ele>
        <time>2017-03-16T13:14:47Z</time>
      </trkpt>
      <trkpt lat="43.35209" lon="1.82334">
        <ele>183.5</ele>
        <time>2017-03-16T13:14:51Z</time>
      </trkpt>
      <trkpt lat="43.35217" lon="1.82339">
        <ele>183.4</ele>
        <time>2017-03-16T13:14:54Z</time>
      </trkpt>
      <trkpt lat="43.35225" lon="1.82344">
        <ele>183.1</ele>
        <time>2017-03-16T13:14:57Z</time>
      </trkpt>
      <trkpt lat="43.35231" lon="1.82351">
        <ele>182.9</ele>
        <time>2017-03-16T13:15:01Z</time>
      </trkpt>
      <trkpt lat="43.35233" lon="1.82362">
        <ele>182.7</ele>
        <time>2017-03-16T13:15:06Z</time>
      </trkpt>
      <trkpt lat="43.3523" lon="1.82374">
        <ele>182.9</ele>
        <time>2017-03-16T13:15:10Z</time>
      </trkpt>
      <trkpt lat="43.35227" lon="1.82385">
        <ele>183</ele>
        <time>2017-03-16T13:15:14Z</time>
      </trkpt>
      <trkpt lat="43.35225" lon="1.82395">
        <ele>183.4</ele>
        <time>2017-03-16T13:15:18Z</time>
      </trkpt>
      <trkpt lat="43.35222" lon="1.82408">
        <ele>184.1</ele>
        <time>2017-03-16T13:15:22Z</time>
      </trkpt>
      <trkpt lat="43.35222" lon="1.8242">
        <ele>185</ele>
        <time>2017-03-16T13:15:26Z</time>
      </trkpt>
      <trkpt lat="43.35217" lon="1.82431">
        <ele>185.9</ele>
        <time>2017-03-16T13:15:30Z</time>
      </trkpt>
      <trkpt lat="43.3521" lon="1.82434">
        <ele>187.5</ele>
        <time>2017-03-16T13:15:33Z</time>
      </trkpt>
      <trkpt lat="43.35203" lon="1.82436">
        <ele>188.1</ele>
        <time>2017-03-16T13:15:36Z</time>
      </trkpt>
      <trkpt lat="43.35195" lon="1.82436">
        <ele>188.4</ele>
        <time>2017-03-16T13:15:39Z</time>
      </trkpt>
      <trkpt lat="43.35187" lon="1.82434">
        <ele>188.5</ele>
        <time>2017-03-16T13:15:42Z</time>
      </trkpt>
      <trkpt lat="43.35179" lon="1.82431">
        <ele>189.3</ele>
        <time>2017-03-16T13:15:46Z</time>
      </trkpt>
      <trkpt lat="43.35172" lon="1.82433">
        <ele>189.6</ele>
        <time>2017-03-16T13:15:52Z</time>
      </trkpt>
      <trkpt lat="43.35171" lon="1.82436">
        <ele>189.4</ele>
        <time>2017-03-16T13:15:59Z</time>
      </trkpt>
      <trkpt lat="43.35173" lon="1.82446">
        <ele>187.3</ele>
        <time>2017-03-16T13:16:13Z</time>
      </trkpt>
      <trkpt lat="43.35176" lon="1.82458">
        <ele>187.3</ele>
        <time>2017-03-16T13:16:17Z</time>
      </trkpt>
      <trkpt lat="43.35179" lon="1.82469">
        <ele>186.8</ele>
        <time>2017-03-16T13:16:20Z</time>
      </trkpt>
      <trkpt lat="43.3518" lon="1.82479">
        <ele>186.4</ele>
        <time>2017-03-16T13:16:23Z</time>
      </trkpt>
      <trkpt lat="43.35182" lon="1.82489">
        <ele>185.8</ele>
        <time>2017-03-16T13:16:26Z</time>
      </trkpt>
      <trkpt lat="43.35183" lon="1.825">
        <ele>185.2</ele>
        <time>2017-03-16T13:16:29Z</time>
      </trkpt>
      <trkpt lat="43.35186" lon="1.82511">
        <ele>184.8</ele>
        <time>2017-03-16T13:16:32Z</time>
      </trkpt>
      <trkpt lat="43.35188" lon="1.82522">
        <ele>184.5</ele>
        <time>2017-03-16T13:16:35Z</time>
      </trkpt>
      <trkpt lat="43.35192" lon="1.82534">
        <ele>183.9</ele>
        <time>2017-03-16T13:16:38Z</time>
      </trkpt>
      <trkpt lat="43.35194" lon="1.82545">
        <ele>183.7</ele>
        <time>2017-03-16T13:16:41Z</time>
      </trkpt>
      <trkpt lat="43.35197" lon="1.82556">
        <ele>184</ele>
        <time>2017-03-16T13:16:44Z</time>
      </trkpt>
      <trkpt lat="43.35199" lon="1.82566">
        <ele>184.3</ele>
        <time>2017-03-16T13:16:47Z</time>
      </trkpt>
      <trkpt lat="43.352" lon="1.82576">
        <ele>184.8</ele>
        <time>2017-03-16T13:16:50Z</time>
      </trkpt>
      <trkpt lat="43.35203" lon="1.82586">
        <ele>186.7</ele>
        <time>2017-03-16T13:16:54Z</time>
      </trkpt>
      <trkpt lat="43.35205" lon="1.82598">
        <ele>187.5</ele>
        <time>2017-03-16T13:17:00Z</time>
      </trkpt>
      <trkpt lat="43.35209" lon="1.82608">
        <ele>189.2</ele>
        <time>2017-03-16T13:17:05Z</time>
      </trkpt>
      <trkpt lat="43.35212" lon="1.82617">
        <ele>190.5</ele>
        <time>2017-03-16T13:17:09Z</time>
      </trkpt>
      <trkpt lat="43.35214" lon="1.82626">
        <ele>191.3</ele>
        <time>2017-03-16T13:17:13Z</time>
      </trkpt>
      <trkpt lat="43.35216" lon="1.82636">
        <ele>192</ele>
        <time>2017-03-16T13:17:17Z</time>
      </trkpt>
      <trkpt lat="43.35221" lon="1.82645">
        <ele>193.9</ele>
        <time>2017-03-16T13:17:22Z</time>
      </trkpt>
      <trkpt lat="43.35226" lon="1.82653">
        <ele>195.6</ele>
        <time>2017-03-16T13:17:26Z</time>
      </trkpt>
      <trkpt lat="43.35232" lon="1.82661">
        <ele>197.6</ele>
        <time>2017-03-16T13:17:31Z</time>
      </trkpt>
      <trkpt lat="43.35229" lon="1.82664">
        <ele>198.5</ele>
        <time>2017-03-16T13:17:38Z</time>
      </trkpt>
      <trkpt lat="43.35225" lon="1.8267">
        <ele>199.1</ele>
        <time>2017-03-16T13:17:45Z</time>
      </trkpt>
      <trkpt lat="43.35223" lon="1.82672">
        <ele>199.2</ele>
        <time>2017-03-16T13:17:52Z</time>
      </trkpt>
      <trkpt lat="43.35215" lon="1.82673">
        <ele>201.3</ele>
        <time>2017-03-16T13:19:15Z</time>
      </trkpt>
      <trkpt lat="43.35212" lon="1.82682">
        <ele>201.6</ele>
        <time>2017-03-16T13:19:21Z</time>
      </trkpt>
      <trkpt lat="43.35208" lon="1.82692">
        <ele>202.4</ele>
        <time>2017-03-16T13:19:25Z</time>
      </trkpt>
      <trkpt lat="43.35207" lon="1.82701">
        <ele>203.1</ele>
        <time>2017-03-16T13:19:29Z</time>
      </trkpt>
      <trkpt lat="43.35208" lon="1.82712">
        <ele>203.2</ele>
        <time>2017-03-16T13:19:34Z</time>
      </trkpt>
      <trkpt lat="43.35213" lon="1.82723">
        <ele>203.3</ele>
        <time>2017-03-16T13:19:39Z</time>
      </trkpt>
      <trkpt lat="43.35219" lon="1.82731">
        <ele>203.1</ele>
        <time>2017-03-16T13:19:43Z</time>
      </trkpt>
      <trkpt lat="43.35227" lon="1.82735">
        <ele>203.1</ele>
        <time>2017-03-16T13:19:47Z</time>
      </trkpt>
      <trkpt lat="43.35236" lon="1.82735">
        <ele>202.9</ele>
        <time>2017-03-16T13:19:51Z</time>
      </trkpt>
      <trkpt lat="43.35244" lon="1.8273">
        <ele>202.4</ele>
        <time>2017-03-16T13:19:55Z</time>
      </trkpt>
      <trkpt lat="43.3525" lon="1.82724">
        <ele>201.8</ele>
        <time>2017-03-16T13:19:58Z</time>
      </trkpt>
      <trkpt lat="43.35254" lon="1.82712">
        <ele>201.4</ele>
        <time>2017-03-16T13:20:02Z</time>
      </trkpt>
      <trkpt lat="43.35255" lon="1.82699">
        <ele>200.8</ele>
        <time>2017-03-16T13:20:06Z</time>
      </trkpt>
      <trkpt lat="43.35254" lon="1.82688">
        <ele>200.1</ele>
        <time>2017-03-16T13:20:09Z</time>
      </trkpt>
      <trkpt lat="43.35251" lon="1.82678">
        <ele>199.8</ele>
        <time>2017-03-16T13:20:12Z</time>
      </trkpt>
      <trkpt lat="43.35245" lon="1.82671">
        <ele>199.2</ele>
        <time>2017-03-16T13:20:16Z</time>
      </trkpt>
      <trkpt lat="43.35238" lon="1.82665">
        <ele>200.8</ele>
        <time>2017-03-16T13:20:21Z</time>
      </trkpt>
      <trkpt lat="43.35231" lon="1.82665">
        <ele>201.4</ele>
        <time>2017-03-16T13:20:25Z</time>
      </trkpt>
      <trkpt lat="43.35223" lon="1.82665">
        <ele>201.1</ele>
        <time>2017-03-16T13:20:30Z</time>
      </trkpt>
      <trkpt lat="43.3522" lon="1.82653">
        <ele>199.1</ele>
        <time>2017-03-16T13:20:35Z</time>
      </trkpt>
      <trkpt lat="43.35219" lon="1.82643">
        <ele>198</ele>
        <time>2017-03-16T13:20:38Z</time>
      </trkpt>
      <trkpt lat="43.35217" lon="1.82632">
        <ele>196.9</ele>
        <time>2017-03-16T13:20:41Z</time>
      </trkpt>
      <trkpt lat="43.35215" lon="1.82621">
        <ele>195.7</ele>
        <time>2017-03-16T13:20:44Z</time>
      </trkpt>
      <trkpt lat="43.35213" lon="1.82611">
        <ele>195.1</ele>
        <time>2017-03-16T13:20:47Z</time>
      </trkpt>
      <trkpt lat="43.35212" lon="1.826">
        <ele>193</ele>
        <time>2017-03-16T13:20:50Z</time>
      </trkpt>
      <trkpt lat="43.35208" lon="1.82589">
        <ele>192.6</ele>
        <time>2017-03-16T13:20:53Z</time>
      </trkpt>
      <trkpt lat="43.35205" lon="1.8258">
        <ele>191.7</ele>
        <time>2017-03-16T13:20:55Z</time>
      </trkpt>
      <trkpt lat="43.35202" lon="1.82569">
        <ele>191</ele>
        <time>2017-03-16T13:20:57Z</time>
      </trkpt>
      <trkpt lat="43.35199" lon="1.82557">
        <ele>190.4</ele>
        <time>2017-03-16T13:20:59Z</time>
      </trkpt>
      <trkpt lat="43.35196" lon="1.82543">
        <ele>189.5</ele>
        <time>2017-03-16T13:21:01Z</time>
      </trkpt>
      <trkpt lat="43.35194" lon="1.8253">
        <ele>188.8</ele>
        <time>2017-03-16T13:21:03Z</time>
      </trkpt>
      <trkpt lat="43.35191" lon="1.82516">
        <ele>188.5</ele>
        <time>2017-03-16T13:21:05Z</time>
      </trkpt>
      <trkpt lat="43.35187" lon="1.82502">
        <ele>187.8</ele>
        <time>2017-03-16T13:21:07Z</time>
      </trkpt>
      <trkpt lat="43.35184" lon="1.82487">
        <ele>187.4</ele>
        <time>2017-03-16T13:21:09Z</time>
      </trkpt>
      <trkpt lat="43.3518" lon="1.82473">
        <ele>186.8</ele>
        <time>2017-03-16T13:21:11Z</time>
      </trkpt>
      <trkpt lat="43.35177" lon="1.8246">
        <ele>185.1</ele>
        <time>2017-03-16T13:21:13Z</time>
      </trkpt>
      <trkpt lat="43.35175" lon="1.8245">
        <ele>183.9</ele>
        <time>2017-03-16T13:21:15Z</time>
      </trkpt>
      <trkpt lat="43.35177" lon="1.82438">
        <ele>182.8</ele>
        <time>2017-03-16T13:21:19Z</time>
      </trkpt>
      <trkpt lat="43.35185" lon="1.82439">
        <ele>181</ele>
        <time>2017-03-16T13:21:23Z</time>
      </trkpt>
      <trkpt lat="43.35195" lon="1.8244">
        <ele>180.1</ele>
        <time>2017-03-16T13:21:26Z</time>
      </trkpt>
      <trkpt lat="43.35205" lon="1.82437">
        <ele>179.2</ele>
        <time>2017-03-16T13:21:29Z</time>
      </trkpt>
      <trkpt lat="43.35214" lon="1.82434">
        <ele>178.5</ele>
        <time>2017-03-16T13:21:32Z</time>
      </trkpt>
      <trkpt lat="43.35219" lon="1.82426">
        <ele>179.8</ele>
        <time>2017-03-16T13:21:35Z</time>
      </trkpt>
      <trkpt lat="43.35221" lon="1.82415">
        <ele>179.3</ele>
        <time>2017-03-16T13:21:38Z</time>
      </trkpt>
      <trkpt lat="43.35224" lon="1.82406">
        <ele>179.2</ele>
        <time>2017-03-16T13:21:40Z</time>
      </trkpt>
      <trkpt lat="43.35228" lon="1.82393">
        <ele>180</ele>
        <time>2017-03-16T13:21:43Z</time>
      </trkpt>
      <trkpt lat="43.35233" lon="1.82382">
        <ele>180.1</ele>
        <time>2017-03-16T13:21:46Z</time>
      </trkpt>
      <trkpt lat="43.35238" lon="1.82372">
        <ele>178.5</ele>
        <time>2017-03-16T13:21:49Z</time>
      </trkpt>
      <trkpt lat="43.35239" lon="1.82368">
        <ele>178.7</ele>
        <time>2017-03-16T13:21:56Z</time>
      </trkpt>
      <trkpt lat="43.35247" lon="1.82368">
        <ele>179.2</ele>
        <time>2017-03-16T13:22:00Z</time>
      </trkpt>
      <trkpt lat="43.35254" lon="1.82364">
        <ele>180.9</ele>
        <time>2017-03-16T13:22:03Z</time>
      </trkpt>
      <trkpt lat="43.35263" lon="1.82364">
        <ele>182.1</ele>
        <time>2017-03-16T13:22:07Z</time>
      </trkpt>
      <trkpt lat="43.35273" lon="1.82363">
        <ele>182.1</ele>
        <time>2017-03-16T13:22:11Z</time>
      </trkpt>
      <trkpt lat="43.35281" lon="1.82361">
        <ele>181.7</ele>
        <time>2017-03-16T13:22:14Z</time>
      </trkpt>
      <trkpt lat="43.3529" lon="1.8236">
        <ele>181.6</ele>
        <time>2017-03-16T13:22:17Z</time>
      </trkpt>
      <trkpt lat="43.35298" lon="1.82357">
        <ele>180.9</ele>
        <time>2017-03-16T13:22:20Z</time>
      </trkpt>
      <trkpt lat="43.35305" lon="1.82354">
        <ele>179.5</ele>
        <time>2017-03-16T13:22:22Z</time>
      </trkpt>
      <trkpt lat="43.35315" lon="1.8235">
        <ele>178.1</ele>
        <time>2017-03-16T13:22:25Z</time>
      </trkpt>
      <trkpt lat="43.35325" lon="1.82348">
        <ele>177</ele>
        <time>2017-03-16T13:22:28Z</time>
      </trkpt>
      <trkpt lat="43.35333" lon="1.82345">
        <ele>177</ele>
        <time>2017-03-16T13:22:30Z</time>
      </trkpt>
      <trkpt lat="43.35343" lon="1.82342">
        <ele>177.1</ele>
        <time>2017-03-16T13:22:33Z</time>
      </trkpt>
      <trkpt lat="43.35351" lon="1.82339">
        <ele>176.1</ele>
        <time>2017-03-16T13:22:36Z</time>
      </trkpt>
      <trkpt lat="43.35359" lon="1.82337">
        <ele>176.3</ele>
        <time>2017-03-16T13:22:39Z</time>
      </trkpt>
      <trkpt lat="43.35365" lon="1.82334">
        <ele>176.7</ele>
        <time>2017-03-16T13:22:43Z</time>
      </trkpt>
      <trkpt lat="43.35368" lon="1.82321">
        <ele>176.2</ele>
        <time>2017-03-16T13:22:48Z</time>
      </trkpt>
      <trkpt lat="43.35375" lon="1.82312">
        <ele>175.3</ele>
        <time>2017-03-16T13:22:52Z</time>
      </trkpt>
      <trkpt lat="43.35378" lon="1.823">
        <ele>175.8</ele>
        <time>2017-03-16T13:22:55Z</time>
      </trkpt>
      <trkpt lat="43.3538" lon="1.82288">
        <ele>176.3</ele>
        <time>2017-03-16T13:22:58Z</time>
      </trkpt>
      <trkpt lat="43.35383" lon="1.82276">
        <ele>176.6</ele>
        <time>2017-03-16T13:23:01Z</time>
      </trkpt>
      <trkpt lat="43.35386" lon="1.82264">
        <ele>176.1</ele>
        <time>2017-03-16T13:23:04Z</time>
      </trkpt>
      <trkpt lat="43.3539" lon="1.8225">
        <ele>176.3</ele>
        <time>2017-03-16T13:23:07Z</time>
      </trkpt>
      <trkpt lat="43.35392" lon="1.82239">
        <ele>176.4</ele>
        <time>2017-03-16T13:23:09Z</time>
      </trkpt>
      <trkpt lat="43.35395" lon="1.82229">
        <ele>176.5</ele>
        <time>2017-03-16T13:23:11Z</time>
      </trkpt>
      <trkpt lat="43.35397" lon="1.82218">
        <ele>177.1</ele>
        <time>2017-03-16T13:23:13Z</time>
      </trkpt>
      <trkpt lat="43.35399" lon="1.82209">
        <ele>177.2</ele>
        <time>2017-03-16T13:23:15Z</time>
      </trkpt>
      <trkpt lat="43.35401" lon="1.82199">
        <ele>178</ele>
        <time>2017-03-16T13:23:17Z</time>
      </trkpt>
      <trkpt lat="43.35403" lon="1.82189">
        <ele>178.9</ele>
        <time>2017-03-16T13:23:19Z</time>
      </trkpt>
      <trkpt lat="43.35405" lon="1.82175">
        <ele>179.7</ele>
        <time>2017-03-16T13:23:22Z</time>
      </trkpt>
      <trkpt lat="43.35405" lon="1.82161">
        <ele>180.3</ele>
        <time>2017-03-16T13:23:25Z</time>
      </trkpt>
      <trkpt lat="43.35404" lon="1.8215">
        <ele>180.9</ele>
        <time>2017-03-16T13:23:27Z</time>
      </trkpt>
      <trkpt lat="43.35403" lon="1.82138">
        <ele>181.3</ele>
        <time>2017-03-16T13:23:29Z</time>
      </trkpt>
      <trkpt lat="43.35402" lon="1.82128">
        <ele>182</ele>
        <time>2017-03-16T13:23:31Z</time>
      </trkpt>
      <trkpt lat="43.35401" lon="1.82117">
        <ele>182</ele>
        <time>2017-03-16T13:23:33Z</time>
      </trkpt>
      <trkpt lat="43.35399" lon="1.82104">
        <ele>182.7</ele>
        <time>2017-03-16T13:23:35Z</time>
      </trkpt>
      <trkpt lat="43.35398" lon="1.82093">
        <ele>182.7</ele>
        <time>2017-03-16T13:23:37Z</time>
      </trkpt>
      <trkpt lat="43.35396" lon="1.82078">
        <ele>182.6</ele>
        <time>2017-03-16T13:23:40Z</time>
      </trkpt>
      <trkpt lat="43.35395" lon="1.82067">
        <ele>182.2</ele>
        <time>2017-03-16T13:23:42Z</time>
      </trkpt>
      <trkpt lat="43.35394" lon="1.82056">
        <ele>182.3</ele>
        <time>2017-03-16T13:23:44Z</time>
      </trkpt>
      <trkpt lat="43.35392" lon="1.82044">
        <ele>182.5</ele>
        <time>2017-03-16T13:23:46Z</time>
      </trkpt>
      <trkpt lat="43.3539" lon="1.82033">
        <ele>182.1</ele>
        <time>2017-03-16T13:23:48Z</time>
      </trkpt>
      <trkpt lat="43.35387" lon="1.82023">
        <ele>182.1</ele>
        <time>2017-03-16T13:23:50Z</time>
      </trkpt>
      <trkpt lat="43.35383" lon="1.82015">
        <ele>181.6</ele>
        <time>2017-03-16T13:23:52Z</time>
      </trkpt>
      <trkpt lat="43.35375" lon="1.82006">
        <ele>181.6</ele>
        <time>2017-03-16T13:23:54Z</time>
      </trkpt>
      <trkpt lat="43.35366" lon="1.82005">
        <ele>181.2</ele>
        <time>2017-03-16T13:23:56Z</time>
      </trkpt>
      <trkpt lat="43.35359" lon="1.82011">
        <ele>180.6</ele>
        <time>2017-03-16T13:23:58Z</time>
      </trkpt>
      <trkpt lat="43.35354" lon="1.82018">
        <ele>180.3</ele>
        <time>2017-03-16T13:24:00Z</time>
      </trkpt>
      <trkpt lat="43.35346" lon="1.82025">
        <ele>179.9</ele>
        <time>2017-03-16T13:24:03Z</time>
      </trkpt>
      <trkpt lat="43.35337" lon="1.82024">
        <ele>179.9</ele>
        <time>2017-03-16T13:24:07Z</time>
      </trkpt>
      <trkpt lat="43.35328" lon="1.82015">
        <ele>180</ele>
        <time>2017-03-16T13:24:10Z</time>
      </trkpt>
      <trkpt lat="43.35322" lon="1.82009">
        <ele>179.7</ele>
        <time>2017-03-16T13:24:12Z</time>
      </trkpt>
      <trkpt lat="43.35315" lon="1.82003">
        <ele>179.5</ele>
        <time>2017-03-16T13:24:14Z</time>
      </trkpt>
      <trkpt lat="43.35308" lon="1.81998">
        <ele>179.4</ele>
        <time>2017-03-16T13:24:16Z</time>
      </trkpt>
      <trkpt lat="43.35302" lon="1.81992">
        <ele>179.2</ele>
        <time>2017-03-16T13:24:18Z</time>
      </trkpt>
      <trkpt lat="43.35295" lon="1.81985">
        <ele>179.5</ele>
        <time>2017-03-16T13:24:20Z</time>
      </trkpt>
      <trkpt lat="43.35287" lon="1.8198">
        <ele>179.6</ele>
        <time>2017-03-16T13:24:22Z</time>
      </trkpt>
      <trkpt lat="43.35279" lon="1.81974">
        <ele>180.3</ele>
        <time>2017-03-16T13:24:24Z</time>
      </trkpt>
      <trkpt lat="43.3527" lon="1.8197">
        <ele>180.5</ele>
        <time>2017-03-16T13:24:26Z</time>
      </trkpt>
      <trkpt lat="43.35263" lon="1.81966">
        <ele>180.9</ele>
        <time>2017-03-16T13:24:28Z</time>
      </trkpt>
      <trkpt lat="43.35255" lon="1.81961">
        <ele>181.7</ele>
        <time>2017-03-16T13:24:30Z</time>
      </trkpt>
      <trkpt lat="43.35247" lon="1.81955">
        <ele>182.1</ele>
        <time>2017-03-16T13:24:32Z</time>
      </trkpt>
      <trkpt lat="43.35238" lon="1.81953">
        <ele>182.9</ele>
        <time>2017-03-16T13:24:34Z</time>
      </trkpt>
      <trkpt lat="43.3523" lon="1.81955">
        <ele>182.7</ele>
        <time>2017-03-16T13:24:36Z</time>
      </trkpt>
      <trkpt lat="43.35222" lon="1.81957">
        <ele>182.6</ele>
        <time>2017-03-16T13:24:38Z</time>
      </trkpt>
      <trkpt lat="43.35214" lon="1.81959">
        <ele>182.9</ele>
        <time>2017-03-16T13:24:40Z</time>
      </trkpt>
      <trkpt lat="43.35207" lon="1.81961">
        <ele>183.4</ele>
        <time>2017-03-16T13:24:42Z</time>
      </trkpt>
      <trkpt lat="43.35198" lon="1.81963">
        <ele>183.6</ele>
        <time>2017-03-16T13:24:44Z</time>
      </trkpt>
      <trkpt lat="43.3519" lon="1.81965">
        <ele>183.9</ele>
        <time>2017-03-16T13:24:46Z</time>
      </trkpt>
      <trkpt lat="43.35182" lon="1.81966">
        <ele>184.1</ele>
        <time>2017-03-16T13:24:48Z</time>
      </trkpt>
      <trkpt lat="43.35174" lon="1.81967">
        <ele>184</ele>
        <time>2017-03-16T13:24:50Z</time>
      </trkpt>
      <trkpt lat="43.35167" lon="1.81969">
        <ele>183.6</ele>
        <time>2017-03-16T13:24:52Z</time>
      </trkpt>
      <trkpt lat="43.35157" lon="1.8197">
        <ele>183.1</ele>
        <time>2017-03-16T13:24:55Z</time>
      </trkpt>
      <trkpt lat="43.35148" lon="1.81972">
        <ele>182.3</ele>
        <time>2017-03-16T13:24:58Z</time>
      </trkpt>
      <trkpt lat="43.3514" lon="1.81972">
        <ele>182.2</ele>
        <time>2017-03-16T13:25:01Z</time>
      </trkpt>
      <trkpt lat="43.35132" lon="1.81975">
        <ele>181.9</ele>
        <time>2017-03-16T13:25:05Z</time>
      </trkpt>
      <trkpt lat="43.35125" lon="1.81982">
        <ele>181.6</ele>
        <time>2017-03-16T13:25:10Z</time>
      </trkpt>
      <trkpt lat="43.35119" lon="1.81989">
        <ele>181.9</ele>
        <time>2017-03-16T13:25:14Z</time>
      </trkpt>
      <trkpt lat="43.35118" lon="1.82001">
        <ele>182.3</ele>
        <time>2017-03-16T13:25:18Z</time>
      </trkpt>
      <trkpt lat="43.35116" lon="1.8201">
        <ele>182.8</ele>
        <time>2017-03-16T13:25:21Z</time>
      </trkpt>
      <trkpt lat="43.35114" lon="1.82021">
        <ele>183.2</ele>
        <time>2017-03-16T13:25:24Z</time>
      </trkpt>
      <trkpt lat="43.35112" lon="1.8203">
        <ele>183.1</ele>
        <time>2017-03-16T13:25:26Z</time>
      </trkpt>
      <trkpt lat="43.3511" lon="1.82045">
        <ele>183.2</ele>
        <time>2017-03-16T13:25:29Z</time>
      </trkpt>
      <trkpt lat="43.35107" lon="1.82056">
        <ele>182.9</ele>
        <time>2017-03-16T13:25:31Z</time>
      </trkpt>
      <trkpt lat="43.35105" lon="1.82065">
        <ele>183</ele>
        <time>2017-03-16T13:25:33Z</time>
      </trkpt>
      <trkpt lat="43.35103" lon="1.8208">
        <ele>183.7</ele>
        <time>2017-03-16T13:25:36Z</time>
      </trkpt>
      <trkpt lat="43.35101" lon="1.82094">
        <ele>184</ele>
        <time>2017-03-16T13:25:39Z</time>
      </trkpt>
      <trkpt lat="43.35099" lon="1.82103">
        <ele>184</ele>
        <time>2017-03-16T13:25:41Z</time>
      </trkpt>
      <trkpt lat="43.35097" lon="1.82118">
        <ele>184</ele>
        <time>2017-03-16T13:25:44Z</time>
      </trkpt>
      <trkpt lat="43.35098" lon="1.82132">
        <ele>183.3</ele>
        <time>2017-03-16T13:25:47Z</time>
      </trkpt>
      <trkpt lat="43.35102" lon="1.82145">
        <ele>182.8</ele>
        <time>2017-03-16T13:25:50Z</time>
      </trkpt>
      <trkpt lat="43.35103" lon="1.82159">
        <ele>182.5</ele>
        <time>2017-03-16T13:25:53Z</time>
      </trkpt>
      <trkpt lat="43.35105" lon="1.82173">
        <ele>182.2</ele>
        <time>2017-03-16T13:25:56Z</time>
      </trkpt>
      <trkpt lat="43.3511" lon="1.82187">
        <ele>181.7</ele>
        <time>2017-03-16T13:25:59Z</time>
      </trkpt>
      <trkpt lat="43.35113" lon="1.82196">
        <ele>181.3</ele>
        <time>2017-03-16T13:26:01Z</time>
      </trkpt>
      <trkpt lat="43.35117" lon="1.82205">
        <ele>181</ele>
        <time>2017-03-16T13:26:03Z</time>
      </trkpt>
      <trkpt lat="43.35121" lon="1.82218">
        <ele>180.6</ele>
        <time>2017-03-16T13:26:06Z</time>
      </trkpt>
      <trkpt lat="43.35125" lon="1.82231">
        <ele>179.8</ele>
        <time>2017-03-16T13:26:09Z</time>
      </trkpt>
      <trkpt lat="43.35131" lon="1.82243">
        <ele>179.8</ele>
        <time>2017-03-16T13:26:12Z</time>
      </trkpt>
      <trkpt lat="43.35133" lon="1.82253">
        <ele>180</ele>
        <time>2017-03-16T13:26:15Z</time>
      </trkpt>
      <trkpt lat="43.35134" lon="1.82263">
        <ele>180.6</ele>
        <time>2017-03-16T13:26:18Z</time>
      </trkpt>
      <trkpt lat="43.35141" lon="1.8227">
        <ele>180.8</ele>
        <time>2017-03-16T13:26:22Z</time>
      </trkpt>
      <trkpt lat="43.35146" lon="1.82277">
        <ele>180.2</ele>
        <time>2017-03-16T13:26:27Z</time>
      </trkpt>
      <trkpt lat="43.35153" lon="1.82281">
        <ele>180.5</ele>
        <time>2017-03-16T13:26:32Z</time>
      </trkpt>
      <trkpt lat="43.35159" lon="1.82275">
        <ele>180.7</ele>
        <time>2017-03-16T13:26:38Z</time>
      </trkpt>
      <trkpt lat="43.35162" lon="1.82269">
        <ele>180.5</ele>
        <time>2017-03-16T13:26:45Z</time>
      </trkpt>
      <trkpt lat="43.3517" lon="1.82262">
        <ele>179.4</ele>
        <time>2017-03-16T13:26:51Z</time>
      </trkpt>
      <trkpt lat="43.35176" lon="1.82253">
        <ele>178.7</ele>
        <time>2017-03-16T13:26:54Z</time>
      </trkpt>
      <trkpt lat="43.35181" lon="1.82247">
        <ele>178.1</ele>
        <time>2017-03-16T13:26:56Z</time>
      </trkpt>
      <trkpt lat="43.35187" lon="1.8224">
        <ele>177.9</ele>
        <time>2017-03-16T13:26:58Z</time>
      </trkpt>
      <trkpt lat="43.35193" lon="1.82234">
        <ele>177.5</ele>
        <time>2017-03-16T13:27:00Z</time>
      </trkpt>
      <trkpt lat="43.352" lon="1.82226">
        <ele>177.2</ele>
        <time>2017-03-16T13:27:02Z</time>
      </trkpt>
      <trkpt lat="43.35206" lon="1.8222">
        <ele>176.9</ele>
        <time>2017-03-16T13:27:04Z</time>
      </trkpt>
      <trkpt lat="43.35212" lon="1.82212">
        <ele>177.1</ele>
        <time>2017-03-16T13:27:06Z</time>
      </trkpt>
      <trkpt lat="43.35217" lon="1.82204">
        <ele>177</ele>
        <time>2017-03-16T13:27:08Z</time>
      </trkpt>
      <trkpt lat="43.35223" lon="1.82195">
        <ele>176.9</ele>
        <time>2017-03-16T13:27:10Z</time>
      </trkpt>
      <trkpt lat="43.35228" lon="1.82186">
        <ele>176.7</ele>
        <time>2017-03-16T13:27:12Z</time>
      </trkpt>
      <trkpt lat="43.35235" lon="1.82178">
        <ele>176.4</ele>
        <time>2017-03-16T13:27:14Z</time>
      </trkpt>
      <trkpt lat="43.3524" lon="1.82171">
        <ele>176.5</ele>
        <time>2017-03-16T13:27:16Z</time>
      </trkpt>
      <trkpt lat="43.35246" lon="1.82163">
        <ele>176.4</ele>
        <time>2017-03-16T13:27:18Z</time>
      </trkpt>
      <trkpt lat="43.35254" lon="1.82155">
        <ele>176</ele>
        <time>2017-03-16T13:27:20Z</time>
      </trkpt>
      <trkpt lat="43.3526" lon="1.82146">
        <ele>175.9</ele>
        <time>2017-03-16T13:27:22Z</time>
      </trkpt>
      <trkpt lat="43.35265" lon="1.82137">
        <ele>175.5</ele>
        <time>2017-03-16T13:27:24Z</time>
      </trkpt>
      <trkpt lat="43.35271" lon="1.8213">
        <ele>175.3</ele>
        <time>2017-03-16T13:27:26Z</time>
      </trkpt>
      <trkpt lat="43.35277" lon="1.82123">
        <ele>174.6</ele>
        <time>2017-03-16T13:27:28Z</time>
      </trkpt>
      <trkpt lat="43.35283" lon="1.82115">
        <ele>174.7</ele>
        <time>2017-03-16T13:27:30Z</time>
      </trkpt>
      <trkpt lat="43.35291" lon="1.82106">
        <ele>174.4</ele>
        <time>2017-03-16T13:27:32Z</time>
      </trkpt>
      <trkpt lat="43.35297" lon="1.82096">
        <ele>173.6</ele>
        <time>2017-03-16T13:27:34Z</time>
      </trkpt>
      <trkpt lat="43.35303" lon="1.82088">
        <ele>172.8</ele>
        <time>2017-03-16T13:27:36Z</time>
      </trkpt>
      <trkpt lat="43.35309" lon="1.82081">
        <ele>172.3</ele>
        <time>2017-03-16T13:27:38Z</time>
      </trkpt>
      <trkpt lat="43.35315" lon="1.82072">
        <ele>172</ele>
        <time>2017-03-16T13:27:40Z</time>
      </trkpt>
      <trkpt lat="43.35321" lon="1.82065">
        <ele>171.7</ele>
        <time>2017-03-16T13:27:42Z</time>
      </trkpt>
      <trkpt lat="43.35326" lon="1.82057">
        <ele>171.4</ele>
        <time>2017-03-16T13:27:44Z</time>
      </trkpt>
      <trkpt lat="43.35331" lon="1.82049">
        <ele>170.2</ele>
        <time>2017-03-16T13:27:47Z</time>
      </trkpt>
      <trkpt lat="43.35337" lon="1.82042">
        <ele>169</ele>
        <time>2017-03-16T13:27:52Z</time>
      </trkpt>
      <trkpt lat="43.35338" lon="1.82037">
        <ele>169.3</ele>
        <time>2017-03-16T13:27:59Z</time>
      </trkpt>
      <trkpt lat="43.35348" lon="1.82018">
        <ele>173.5</ele>
        <time>2017-03-16T13:28:35Z</time>
      </trkpt>
      <trkpt lat="43.35354" lon="1.8201">
        <ele>174.4</ele>
        <time>2017-03-16T13:28:39Z</time>
      </trkpt>
      <trkpt lat="43.35361" lon="1.82004">
        <ele>174.9</ele>
        <time>2017-03-16T13:28:43Z</time>
      </trkpt>
      <trkpt lat="43.35368" lon="1.81998">
        <ele>175.5</ele>
        <time>2017-03-16T13:28:47Z</time>
      </trkpt>
      <trkpt lat="43.35375" lon="1.81989">
        <ele>176.3</ele>
        <time>2017-03-16T13:28:51Z</time>
      </trkpt>
      <trkpt lat="43.35381" lon="1.81982">
        <ele>176.9</ele>
        <time>2017-03-16T13:28:54Z</time>
      </trkpt>
      <trkpt lat="43.3539" lon="1.81974">
        <ele>177.5</ele>
        <time>2017-03-16T13:28:57Z</time>
      </trkpt>
      <trkpt lat="43.35399" lon="1.81966">
        <ele>177.7</ele>
        <time>2017-03-16T13:29:00Z</time>
      </trkpt>
      <trkpt lat="43.35405" lon="1.81961">
        <ele>177.9</ele>
        <time>2017-03-16T13:29:02Z</time>
      </trkpt>
      <trkpt lat="43.35412" lon="1.81955">
        <ele>178.2</ele>
        <time>2017-03-16T13:29:04Z</time>
      </trkpt>
      <trkpt lat="43.35417" lon="1.81948">
        <ele>178.2</ele>
        <time>2017-03-16T13:29:06Z</time>
      </trkpt>
      <trkpt lat="43.35424" lon="1.81943">
        <ele>178.1</ele>
        <time>2017-03-16T13:29:08Z</time>
      </trkpt>
      <trkpt lat="43.3543" lon="1.81938">
        <ele>178.1</ele>
        <time>2017-03-16T13:29:10Z</time>
      </trkpt>
      <trkpt lat="43.35437" lon="1.81932">
        <ele>177.9</ele>
        <time>2017-03-16T13:29:12Z</time>
      </trkpt>
      <trkpt lat="43.35444" lon="1.81927">
        <ele>177.6</ele>
        <time>2017-03-16T13:29:14Z</time>
      </trkpt>
      <trkpt lat="43.3545" lon="1.81921">
        <ele>177.2</ele>
        <time>2017-03-16T13:29:16Z</time>
      </trkpt>
      <trkpt lat="43.35457" lon="1.81917">
        <ele>176.9</ele>
        <time>2017-03-16T13:29:18Z</time>
      </trkpt>
      <trkpt lat="43.35463" lon="1.8191">
        <ele>176.6</ele>
        <time>2017-03-16T13:29:20Z</time>
      </trkpt>
      <trkpt lat="43.35469" lon="1.81902">
        <ele>176.3</ele>
        <time>2017-03-16T13:29:22Z</time>
      </trkpt>
      <trkpt lat="43.35478" lon="1.81894">
        <ele>176.5</ele>
        <time>2017-03-16T13:29:25Z</time>
      </trkpt>
      <trkpt lat="43.35485" lon="1.81886">
        <ele>176</ele>
        <time>2017-03-16T13:29:28Z</time>
      </trkpt>
      <trkpt lat="43.35491" lon="1.81879">
        <ele>175.9</ele>
        <time>2017-03-16T13:29:31Z</time>
      </trkpt>
      <trkpt lat="43.35498" lon="1.81872">
        <ele>176</ele>
        <time>2017-03-16T13:29:34Z</time>
      </trkpt>
      <trkpt lat="43.35505" lon="1.81864">
        <ele>176</ele>
        <time>2017-03-16T13:29:37Z</time>
      </trkpt>
      <trkpt lat="43.35511" lon="1.81858">
        <ele>175.8</ele>
        <time>2017-03-16T13:29:40Z</time>
      </trkpt>
      <trkpt lat="43.35519" lon="1.81854">
        <ele>175.4</ele>
        <time>2017-03-16T13:29:44Z</time>
      </trkpt>
      <trkpt lat="43.35525" lon="1.81845">
        <ele>174.7</ele>
        <time>2017-03-16T13:29:48Z</time>
      </trkpt>
      <trkpt lat="43.35527" lon="1.81835">
        <ele>175.9</ele>
        <time>2017-03-16T13:29:54Z</time>
      </trkpt>
      <trkpt lat="43.35535" lon="1.8184">
        <ele>178.8</ele>
        <time>2017-03-16T13:30:46Z</time>
      </trkpt>
      <trkpt lat="43.35535" lon="1.81842">
        <ele>178.5</ele>
        <time>2017-03-16T13:30:53Z</time>
      </trkpt>
      <trkpt lat="43.35534" lon="1.8183">
        <ele>179.6</ele>
        <time>2017-03-16T13:30:58Z</time>
      </trkpt>
      <trkpt lat="43.35528" lon="1.81822">
        <ele>180.3</ele>
        <time>2017-03-16T13:31:02Z</time>
      </trkpt>
      <trkpt lat="43.35523" lon="1.81812">
        <ele>179.8</ele>
        <time>2017-03-16T13:31:06Z</time>
      </trkpt>
      <trkpt lat="43.35515" lon="1.81809">
        <ele>181</ele>
        <time>2017-03-16T13:31:11Z</time>
      </trkpt>
      <trkpt lat="43.35513" lon="1.8181">
        <ele>181.4</ele>
        <time>2017-03-16T13:31:18Z</time>
      </trkpt>
      <trkpt lat="43.35511" lon="1.81815">
        <ele>182.4</ele>
        <time>2017-03-16T13:30:55Z</time>
      </trkpt>
      <trkpt lat="43.3551" lon="1.8181">
        <ele>183</ele>
        <time>2017-03-16T13:30:46Z</time>
      </trkpt>
      <trkpt lat="43.35515" lon="1.81818">
        <ele>181.6</ele>
        <time>2017-03-16T13:33:03Z</time>
      </trkpt>
      <trkpt lat="43.35508" lon="1.81826">
        <ele>181</ele>
        <time>2017-03-16T13:33:06Z</time>
      </trkpt>
      <trkpt lat="43.35499" lon="1.81833">
        <ele>180.3</ele>
        <time>2017-03-16T13:33:09Z</time>
      </trkpt>
      <trkpt lat="43.35493" lon="1.8184">
        <ele>179.4</ele>
        <time>2017-03-16T13:33:13Z</time>
      </trkpt>
      <trkpt lat="43.35487" lon="1.81846">
        <ele>178.1</ele>
        <time>2017-03-16T13:33:19Z</time>
      </trkpt>
      <trkpt lat="43.35482" lon="1.81853">
        <ele>177.3</ele>
        <time>2017-03-16T13:33:22Z</time>
      </trkpt>
      <trkpt lat="43.35476" lon="1.81861">
        <ele>176.7</ele>
        <time>2017-03-16T13:33:25Z</time>
      </trkpt>
      <trkpt lat="43.35469" lon="1.81868">
        <ele>176</ele>
        <time>2017-03-16T13:33:28Z</time>
      </trkpt>
      <trkpt lat="43.35461" lon="1.81876">
        <ele>175.9</ele>
        <time>2017-03-16T13:33:31Z</time>
      </trkpt>
      <trkpt lat="43.35452" lon="1.81884">
        <ele>176</ele>
        <time>2017-03-16T13:33:34Z</time>
      </trkpt>
      <trkpt lat="43.35446" lon="1.8189">
        <ele>176</ele>
        <time>2017-03-16T13:33:36Z</time>
      </trkpt>
      <trkpt lat="43.3544" lon="1.81894">
        <ele>175.9</ele>
        <time>2017-03-16T13:33:38Z</time>
      </trkpt>
      <trkpt lat="43.35433" lon="1.81898">
        <ele>175.9</ele>
        <time>2017-03-16T13:33:40Z</time>
      </trkpt>
      <trkpt lat="43.35425" lon="1.81901">
        <ele>176.2</ele>
        <time>2017-03-16T13:33:42Z</time>
      </trkpt>
      <trkpt lat="43.35418" lon="1.81902">
        <ele>176.1</ele>
        <time>2017-03-16T13:33:44Z</time>
      </trkpt>
      <trkpt lat="43.3541" lon="1.81902">
        <ele>176.2</ele>
        <time>2017-03-16T13:33:46Z</time>
      </trkpt>
      <trkpt lat="43.35403" lon="1.81901">
        <ele>176.5</ele>
        <time>2017-03-16T13:33:48Z</time>
      </trkpt>
      <trkpt lat="43.35392" lon="1.81899">
        <ele>176.8</ele>
        <time>2017-03-16T13:33:51Z</time>
      </trkpt>
      <trkpt lat="43.35385" lon="1.81898">
        <ele>177</ele>
        <time>2017-03-16T13:33:53Z</time>
      </trkpt>
      <trkpt lat="43.35377" lon="1.81896">
        <ele>177.3</ele>
        <time>2017-03-16T13:33:55Z</time>
      </trkpt>
      <trkpt lat="43.35366" lon="1.81894">
        <ele>177.8</ele>
        <time>2017-03-16T13:33:58Z</time>
      </trkpt>
      <trkpt lat="43.35357" lon="1.81893">
        <ele>178.2</ele>
        <time>2017-03-16T13:34:00Z</time>
      </trkpt>
      <trkpt lat="43.35349" lon="1.81892">
        <ele>178.4</ele>
        <time>2017-03-16T13:34:02Z</time>
      </trkpt>
      <trkpt lat="43.3534" lon="1.81892">
        <ele>178.8</ele>
        <time>2017-03-16T13:34:04Z</time>
      </trkpt>
      <trkpt lat="43.35333" lon="1.8189">
        <ele>179.2</ele>
        <time>2017-03-16T13:34:06Z</time>
      </trkpt>
      <trkpt lat="43.35323" lon="1.81888">
        <ele>179.6</ele>
        <time>2017-03-16T13:34:09Z</time>
      </trkpt>
      <trkpt lat="43.35312" lon="1.81886">
        <ele>180.3</ele>
        <time>2017-03-16T13:34:12Z</time>
      </trkpt>
      <trkpt lat="43.35304" lon="1.81886">
        <ele>180.8</ele>
        <time>2017-03-16T13:34:14Z</time>
      </trkpt>
      <trkpt lat="43.35296" lon="1.81886">
        <ele>181.1</ele>
        <time>2017-03-16T13:34:16Z</time>
      </trkpt>
      <trkpt lat="43.35288" lon="1.81884">
        <ele>181.6</ele>
        <time>2017-03-16T13:34:18Z</time>
      </trkpt>
      <trkpt lat="43.3528" lon="1.81883">
        <ele>182</ele>
        <time>2017-03-16T13:34:20Z</time>
      </trkpt>
      <trkpt lat="43.35272" lon="1.81881">
        <ele>182.9</ele>
        <time>2017-03-16T13:34:22Z</time>
      </trkpt>
      <trkpt lat="43.35264" lon="1.81881">
        <ele>183.6</ele>
        <time>2017-03-16T13:34:24Z</time>
      </trkpt>
      <trkpt lat="43.35257" lon="1.81881">
        <ele>184.6</ele>
        <time>2017-03-16T13:34:26Z</time>
      </trkpt>
      <trkpt lat="43.35247" lon="1.8188">
        <ele>186.7</ele>
        <time>2017-03-16T13:34:29Z</time>
      </trkpt>
      <trkpt lat="43.35239" lon="1.81878">
        <ele>187.7</ele>
        <time>2017-03-16T13:34:31Z</time>
      </trkpt>
      <trkpt lat="43.3523" lon="1.81876">
        <ele>189.4</ele>
        <time>2017-03-16T13:34:34Z</time>
      </trkpt>
      <trkpt lat="43.35222" lon="1.81874">
        <ele>190.1</ele>
        <time>2017-03-16T13:34:36Z</time>
      </trkpt>
      <trkpt lat="43.35214" lon="1.81874">
        <ele>191</ele>
        <time>2017-03-16T13:34:38Z</time>
      </trkpt>
      <trkpt lat="43.35207" lon="1.81872">
        <ele>192.3</ele>
        <time>2017-03-16T13:34:40Z</time>
      </trkpt>
      <trkpt lat="43.35199" lon="1.81871">
        <ele>193</ele>
        <time>2017-03-16T13:34:42Z</time>
      </trkpt>
      <trkpt lat="43.3519" lon="1.81869">
        <ele>193.7</ele>
        <time>2017-03-16T13:34:45Z</time>
      </trkpt>
      <trkpt lat="43.35179" lon="1.81867">
        <ele>194.9</ele>
        <time>2017-03-16T13:34:48Z</time>
      </trkpt>
      <trkpt lat="43.35172" lon="1.81866">
        <ele>195.4</ele>
        <time>2017-03-16T13:34:50Z</time>
      </trkpt>
      <trkpt lat="43.35164" lon="1.81864">
        <ele>196.2</ele>
        <time>2017-03-16T13:34:52Z</time>
      </trkpt>
      <trkpt lat="43.35154" lon="1.81862">
        <ele>197.5</ele>
        <time>2017-03-16T13:34:55Z</time>
      </trkpt>
      <trkpt lat="43.35143" lon="1.8186">
        <ele>198.5</ele>
        <time>2017-03-16T13:34:58Z</time>
      </trkpt>
      <trkpt lat="43.35134" lon="1.81858">
        <ele>199.8</ele>
        <time>2017-03-16T13:35:01Z</time>
      </trkpt>
      <trkpt lat="43.35126" lon="1.81857">
        <ele>199.2</ele>
        <time>2017-03-16T13:35:03Z</time>
      </trkpt>
      <trkpt lat="43.35118" lon="1.81854">
        <ele>199.7</ele>
        <time>2017-03-16T13:35:06Z</time>
      </trkpt>
      <trkpt lat="43.35108" lon="1.81852">
        <ele>200.1</ele>
        <time>2017-03-16T13:35:09Z</time>
      </trkpt>
      <trkpt lat="43.35097" lon="1.8185">
        <ele>199.7</ele>
        <time>2017-03-16T13:35:12Z</time>
      </trkpt>
      <trkpt lat="43.35089" lon="1.81849">
        <ele>199.9</ele>
        <time>2017-03-16T13:35:14Z</time>
      </trkpt>
      <trkpt lat="43.35082" lon="1.81847">
        <ele>199.4</ele>
        <time>2017-03-16T13:35:16Z</time>
      </trkpt>
      <trkpt lat="43.35073" lon="1.81845">
        <ele>198.8</ele>
        <time>2017-03-16T13:35:19Z</time>
      </trkpt>
      <trkpt lat="43.35064" lon="1.81843">
        <ele>197.6</ele>
        <time>2017-03-16T13:35:22Z</time>
      </trkpt>
      <trkpt lat="43.35054" lon="1.81843">
        <ele>195.6</ele>
        <time>2017-03-16T13:35:24Z</time>
      </trkpt>
      <trkpt lat="43.35045" lon="1.81841">
        <ele>194.1</ele>
        <time>2017-03-16T13:35:27Z</time>
      </trkpt>
      <trkpt lat="43.35036" lon="1.8184">
        <ele>192.5</ele>
        <time>2017-03-16T13:35:31Z</time>
      </trkpt>
      <trkpt lat="43.35027" lon="1.81836">
        <ele>190.5</ele>
        <time>2017-03-16T13:35:36Z</time>
      </trkpt>
      <trkpt lat="43.35025" lon="1.81837">
        <ele>189.7</ele>
        <time>2017-03-16T13:35:43Z</time>
      </trkpt>
      <trkpt lat="43.35026" lon="1.81833">
        <ele>189</ele>
        <time>2017-03-16T13:36:06Z</time>
      </trkpt>
      <trkpt lat="43.35017" lon="1.81832">
        <ele>187.7</ele>
        <time>2017-03-16T13:36:13Z</time>
      </trkpt>
      <trkpt lat="43.35009" lon="1.81832">
        <ele>187.8</ele>
        <time>2017-03-16T13:36:16Z</time>
      </trkpt>
      <trkpt lat="43.35" lon="1.81832">
        <ele>188.2</ele>
        <time>2017-03-16T13:36:19Z</time>
      </trkpt>
      <trkpt lat="43.3499" lon="1.81832">
        <ele>188.1</ele>
        <time>2017-03-16T13:36:22Z</time>
      </trkpt>
      <trkpt lat="43.3498" lon="1.81836">
        <ele>188.5</ele>
        <time>2017-03-16T13:36:25Z</time>
      </trkpt>
      <trkpt lat="43.34971" lon="1.8184">
        <ele>189.2</ele>
        <time>2017-03-16T13:36:28Z</time>
      </trkpt>
      <trkpt lat="43.34962" lon="1.81847">
        <ele>189.3</ele>
        <time>2017-03-16T13:36:31Z</time>
      </trkpt>
      <trkpt lat="43.34956" lon="1.81852">
        <ele>189.1</ele>
        <time>2017-03-16T13:36:33Z</time>
      </trkpt>
      <trkpt lat="43.3495" lon="1.81858">
        <ele>189.1</ele>
        <time>2017-03-16T13:36:35Z</time>
      </trkpt>
      <trkpt lat="43.34943" lon="1.81864">
        <ele>189.1</ele>
        <time>2017-03-16T13:36:37Z</time>
      </trkpt>
      <trkpt lat="43.34936" lon="1.81871">
        <ele>188.9</ele>
        <time>2017-03-16T13:36:39Z</time>
      </trkpt>
      <trkpt lat="43.34931" lon="1.81877">
        <ele>188.5</ele>
        <time>2017-03-16T13:36:41Z</time>
      </trkpt>
      <trkpt lat="43.34925" lon="1.81884">
        <ele>188.3</ele>
        <time>2017-03-16T13:36:43Z</time>
      </trkpt>
      <trkpt lat="43.34919" lon="1.81891">
        <ele>188.1</ele>
        <time>2017-03-16T13:36:45Z</time>
      </trkpt>
      <trkpt lat="43.34912" lon="1.81898">
        <ele>187.9</ele>
        <time>2017-03-16T13:36:47Z</time>
      </trkpt>
      <trkpt lat="43.34906" lon="1.81905">
        <ele>187.6</ele>
        <time>2017-03-16T13:36:49Z</time>
      </trkpt>
      <trkpt lat="43.34899" lon="1.81912">
        <ele>187.1</ele>
        <time>2017-03-16T13:36:51Z</time>
      </trkpt>
      <trkpt lat="43.34893" lon="1.81918">
        <ele>186.8</ele>
        <time>2017-03-16T13:36:53Z</time>
      </trkpt>
      <trkpt lat="43.34887" lon="1.81926">
        <ele>186.5</ele>
        <time>2017-03-16T13:36:55Z</time>
      </trkpt>
      <trkpt lat="43.3488" lon="1.81933">
        <ele>186.3</ele>
        <time>2017-03-16T13:36:57Z</time>
      </trkpt>
      <trkpt lat="43.34874" lon="1.8194">
        <ele>186</ele>
        <time>2017-03-16T13:36:59Z</time>
      </trkpt>
      <trkpt lat="43.34868" lon="1.81948">
        <ele>185.8</ele>
        <time>2017-03-16T13:37:01Z</time>
      </trkpt>
      <trkpt lat="43.34862" lon="1.81955">
        <ele>185</ele>
        <time>2017-03-16T13:37:03Z</time>
      </trkpt>
      <trkpt lat="43.34856" lon="1.81962">
        <ele>184.3</ele>
        <time>2017-03-16T13:37:05Z</time>
      </trkpt>
      <trkpt lat="43.3485" lon="1.81969">
        <ele>183.6</ele>
        <time>2017-03-16T13:37:07Z</time>
      </trkpt>
      <trkpt lat="43.34844" lon="1.81978">
        <ele>182.9</ele>
        <time>2017-03-16T13:37:09Z</time>
      </trkpt>
      <trkpt lat="43.34838" lon="1.81986">
        <ele>182.1</ele>
        <time>2017-03-16T13:37:11Z</time>
      </trkpt>
      <trkpt lat="43.34831" lon="1.81998">
        <ele>180.4</ele>
        <time>2017-03-16T13:37:14Z</time>
      </trkpt>
      <trkpt lat="43.34826" lon="1.82007">
        <ele>179.5</ele>
        <time>2017-03-16T13:37:16Z</time>
      </trkpt>
      <trkpt lat="43.34821" lon="1.82016">
        <ele>179.5</ele>
        <time>2017-03-16T13:37:18Z</time>
      </trkpt>
      <trkpt lat="43.34815" lon="1.82025">
        <ele>177.9</ele>
        <time>2017-03-16T13:37:20Z</time>
      </trkpt>
      <trkpt lat="43.3481" lon="1.82034">
        <ele>177.5</ele>
        <time>2017-03-16T13:37:22Z</time>
      </trkpt>
      <trkpt lat="43.34804" lon="1.82043">
        <ele>176.3</ele>
        <time>2017-03-16T13:37:24Z</time>
      </trkpt>
      <trkpt lat="43.34799" lon="1.82052">
        <ele>176.2</ele>
        <time>2017-03-16T13:37:26Z</time>
      </trkpt>
      <trkpt lat="43.34793" lon="1.82061">
        <ele>175.8</ele>
        <time>2017-03-16T13:37:28Z</time>
      </trkpt>
      <trkpt lat="43.34789" lon="1.82071">
        <ele>175.3</ele>
        <time>2017-03-16T13:37:30Z</time>
      </trkpt>
      <trkpt lat="43.34784" lon="1.8208">
        <ele>174.7</ele>
        <time>2017-03-16T13:37:32Z</time>
      </trkpt>
      <trkpt lat="43.34779" lon="1.82089">
        <ele>173.9</ele>
        <time>2017-03-16T13:37:34Z</time>
      </trkpt>
      <trkpt lat="43.34774" lon="1.82098">
        <ele>173.3</ele>
        <time>2017-03-16T13:37:36Z</time>
      </trkpt>
      <trkpt lat="43.34769" lon="1.82108">
        <ele>173.7</ele>
        <time>2017-03-16T13:37:38Z</time>
      </trkpt>
      <trkpt lat="43.34764" lon="1.82116">
        <ele>173.7</ele>
        <time>2017-03-16T13:37:40Z</time>
      </trkpt>
      <trkpt lat="43.34757" lon="1.82127">
        <ele>173.4</ele>
        <time>2017-03-16T13:37:43Z</time>
      </trkpt>
      <trkpt lat="43.34753" lon="1.82136">
        <ele>173.6</ele>
        <time>2017-03-16T13:37:46Z</time>
      </trkpt>
      <trkpt lat="43.34748" lon="1.82143">
        <ele>172.9</ele>
        <time>2017-03-16T13:37:49Z</time>
      </trkpt>
      <trkpt lat="43.34744" lon="1.82153">
        <ele>173.9</ele>
        <time>2017-03-16T13:37:54Z</time>
      </trkpt>
      <trkpt lat="43.34739" lon="1.82163">
        <ele>172.8</ele>
        <time>2017-03-16T13:37:59Z</time>
      </trkpt>
      <trkpt lat="43.34734" lon="1.82172">
        <ele>172.1</ele>
        <time>2017-03-16T13:38:03Z</time>
      </trkpt>
      <trkpt lat="43.34729" lon="1.82181">
        <ele>172.1</ele>
        <time>2017-03-16T13:38:07Z</time>
      </trkpt>
      <trkpt lat="43.34726" lon="1.82186">
        <ele>172.5</ele>
        <time>2017-03-16T13:38:14Z</time>
      </trkpt>
      <trkpt lat="43.34722" lon="1.82194">
        <ele>174.5</ele>
        <time>2017-03-16T13:38:36Z</time>
      </trkpt>
      <trkpt lat="43.34717" lon="1.82204">
        <ele>173.6</ele>
        <time>2017-03-16T13:38:52Z</time>
      </trkpt>
      <trkpt lat="43.34715" lon="1.82206">
        <ele>174.2</ele>
        <time>2017-03-16T13:38:59Z</time>
      </trkpt>
      <trkpt lat="43.34709" lon="1.82215">
        <ele>173.8</ele>
        <time>2017-03-16T13:39:06Z</time>
      </trkpt>
      <trkpt lat="43.34703" lon="1.82222">
        <ele>174.2</ele>
        <time>2017-03-16T13:39:09Z</time>
      </trkpt>
      <trkpt lat="43.34698" lon="1.82231">
        <ele>174.5</ele>
        <time>2017-03-16T13:39:12Z</time>
      </trkpt>
      <trkpt lat="43.34692" lon="1.8224">
        <ele>174.8</ele>
        <time>2017-03-16T13:39:15Z</time>
      </trkpt>
      <trkpt lat="43.34687" lon="1.8225">
        <ele>174.8</ele>
        <time>2017-03-16T13:39:18Z</time>
      </trkpt>
      <trkpt lat="43.34682" lon="1.8226">
        <ele>174.6</ele>
        <time>2017-03-16T13:39:21Z</time>
      </trkpt>
      <trkpt lat="43.34678" lon="1.82269">
        <ele>174.7</ele>
        <time>2017-03-16T13:39:23Z</time>
      </trkpt>
      <trkpt lat="43.34671" lon="1.8228">
        <ele>174.3</ele>
        <time>2017-03-16T13:39:26Z</time>
      </trkpt>
      <trkpt lat="43.34664" lon="1.8229">
        <ele>173.7</ele>
        <time>2017-03-16T13:39:29Z</time>
      </trkpt>
      <trkpt lat="43.34659" lon="1.82297">
        <ele>173.2</ele>
        <time>2017-03-16T13:39:31Z</time>
      </trkpt>
      <trkpt lat="43.34655" lon="1.82305">
        <ele>172.8</ele>
        <time>2017-03-16T13:39:33Z</time>
      </trkpt>
      <trkpt lat="43.3465" lon="1.82313">
        <ele>172.1</ele>
        <time>2017-03-16T13:39:35Z</time>
      </trkpt>
      <trkpt lat="43.34645" lon="1.82324">
        <ele>171.5</ele>
        <time>2017-03-16T13:39:38Z</time>
      </trkpt>
      <trkpt lat="43.3464" lon="1.82331">
        <ele>171.5</ele>
        <time>2017-03-16T13:39:40Z</time>
      </trkpt>
      <trkpt lat="43.34636" lon="1.82339">
        <ele>171.5</ele>
        <time>2017-03-16T13:39:42Z</time>
      </trkpt>
      <trkpt lat="43.34629" lon="1.8235">
        <ele>171.3</ele>
        <time>2017-03-16T13:39:45Z</time>
      </trkpt>
      <trkpt lat="43.34622" lon="1.82362">
        <ele>171.5</ele>
        <time>2017-03-16T13:39:48Z</time>
      </trkpt>
      <trkpt lat="43.34616" lon="1.82374">
        <ele>171.6</ele>
        <time>2017-03-16T13:39:51Z</time>
      </trkpt>
      <trkpt lat="43.34611" lon="1.82381">
        <ele>171.7</ele>
        <time>2017-03-16T13:39:53Z</time>
      </trkpt>
      <trkpt lat="43.34606" lon="1.82388">
        <ele>172</ele>
        <time>2017-03-16T13:39:55Z</time>
      </trkpt>
      <trkpt lat="43.34599" lon="1.824">
        <ele>172.7</ele>
        <time>2017-03-16T13:39:58Z</time>
      </trkpt>
      <trkpt lat="43.34594" lon="1.82408">
        <ele>172.4</ele>
        <time>2017-03-16T13:40:00Z</time>
      </trkpt>
      <trkpt lat="43.34588" lon="1.82419">
        <ele>171.4</ele>
        <time>2017-03-16T13:40:03Z</time>
      </trkpt>
      <trkpt lat="43.34581" lon="1.82429">
        <ele>171.1</ele>
        <time>2017-03-16T13:40:06Z</time>
      </trkpt>
      <trkpt lat="43.34576" lon="1.82437">
        <ele>170.1</ele>
        <time>2017-03-16T13:40:09Z</time>
      </trkpt>
      <trkpt lat="43.34569" lon="1.82447">
        <ele>168.9</ele>
        <time>2017-03-16T13:40:12Z</time>
      </trkpt>
      <trkpt lat="43.34563" lon="1.82455">
        <ele>169.5</ele>
        <time>2017-03-16T13:40:14Z</time>
      </trkpt>
      <trkpt lat="43.34558" lon="1.82463">
        <ele>168.8</ele>
        <time>2017-03-16T13:40:16Z</time>
      </trkpt>
      <trkpt lat="43.34551" lon="1.82473">
        <ele>167.6</ele>
        <time>2017-03-16T13:40:19Z</time>
      </trkpt>
      <trkpt lat="43.34545" lon="1.82484">
        <ele>167.3</ele>
        <time>2017-03-16T13:40:22Z</time>
      </trkpt>
      <trkpt lat="43.34539" lon="1.82493">
        <ele>167.4</ele>
        <time>2017-03-16T13:40:25Z</time>
      </trkpt>
      <trkpt lat="43.34533" lon="1.82501">
        <ele>167.3</ele>
        <time>2017-03-16T13:40:28Z</time>
      </trkpt>
      <trkpt lat="43.34528" lon="1.82509">
        <ele>167</ele>
        <time>2017-03-16T13:40:30Z</time>
      </trkpt>
      <trkpt lat="43.34523" lon="1.82518">
        <ele>168.6</ele>
        <time>2017-03-16T13:40:33Z</time>
      </trkpt>
      <trkpt lat="43.34516" lon="1.82526">
        <ele>177.5</ele>
        <time>2017-03-16T13:40:38Z</time>
      </trkpt>
      <trkpt lat="43.34511" lon="1.82534">
        <ele>179.7</ele>
        <time>2017-03-16T13:40:41Z</time>
      </trkpt>
      <trkpt lat="43.34505" lon="1.82544">
        <ele>181.5</ele>
        <time>2017-03-16T13:40:45Z</time>
      </trkpt>
      <trkpt lat="43.34498" lon="1.82554">
        <ele>182.7</ele>
        <time>2017-03-16T13:40:48Z</time>
      </trkpt>
      <trkpt lat="43.34493" lon="1.82562">
        <ele>182.5</ele>
        <time>2017-03-16T13:40:50Z</time>
      </trkpt>
      <trkpt lat="43.34487" lon="1.82569">
        <ele>182.8</ele>
        <time>2017-03-16T13:40:52Z</time>
      </trkpt>
      <trkpt lat="43.3448" lon="1.82579">
        <ele>183.1</ele>
        <time>2017-03-16T13:40:55Z</time>
      </trkpt>
      <trkpt lat="43.34472" lon="1.82589">
        <ele>183</ele>
        <time>2017-03-16T13:40:57Z</time>
      </trkpt>
      <trkpt lat="43.34467" lon="1.82596">
        <ele>183.5</ele>
        <time>2017-03-16T13:41:00Z</time>
      </trkpt>
      <trkpt lat="43.34459" lon="1.82606">
        <ele>184.5</ele>
        <time>2017-03-16T13:41:01Z</time>
      </trkpt>
      <trkpt lat="43.34454" lon="1.82613">
        <ele>184.8</ele>
        <time>2017-03-16T13:41:03Z</time>
      </trkpt>
      <trkpt lat="43.34446" lon="1.82624">
        <ele>184.9</ele>
        <time>2017-03-16T13:41:07Z</time>
      </trkpt>
      <trkpt lat="43.34439" lon="1.82636">
        <ele>185.9</ele>
        <time>2017-03-16T13:41:10Z</time>
      </trkpt>
      <trkpt lat="43.34433" lon="1.82646">
        <ele>186.1</ele>
        <time>2017-03-16T13:41:12Z</time>
      </trkpt>
      <trkpt lat="43.34427" lon="1.82656">
        <ele>186.2</ele>
        <time>2017-03-16T13:41:14Z</time>
      </trkpt>
      <trkpt lat="43.34421" lon="1.82666">
        <ele>186.4</ele>
        <time>2017-03-16T13:41:16Z</time>
      </trkpt>
      <trkpt lat="43.34416" lon="1.82677">
        <ele>186.5</ele>
        <time>2017-03-16T13:41:18Z</time>
      </trkpt>
      <trkpt lat="43.34411" lon="1.82687">
        <ele>187.2</ele>
        <time>2017-03-16T13:41:20Z</time>
      </trkpt>
      <trkpt lat="43.34407" lon="1.82696">
        <ele>187.7</ele>
        <time>2017-03-16T13:41:22Z</time>
      </trkpt>
      <trkpt lat="43.34401" lon="1.82709">
        <ele>188.4</ele>
        <time>2017-03-16T13:41:25Z</time>
      </trkpt>
      <trkpt lat="43.34396" lon="1.82719">
        <ele>187.7</ele>
        <time>2017-03-16T13:41:27Z</time>
      </trkpt>
      <trkpt lat="43.34391" lon="1.82729">
        <ele>187.3</ele>
        <time>2017-03-16T13:41:29Z</time>
      </trkpt>
      <trkpt lat="43.34387" lon="1.82738">
        <ele>186.4</ele>
        <time>2017-03-16T13:41:31Z</time>
      </trkpt>
      <trkpt lat="43.34382" lon="1.8275">
        <ele>186.1</ele>
        <time>2017-03-16T13:41:34Z</time>
      </trkpt>
      <trkpt lat="43.34378" lon="1.82759">
        <ele>186.1</ele>
        <time>2017-03-16T13:41:36Z</time>
      </trkpt>
      <trkpt lat="43.34374" lon="1.82769">
        <ele>185.1</ele>
        <time>2017-03-16T13:41:38Z</time>
      </trkpt>
      <trkpt lat="43.34369" lon="1.82778">
        <ele>183.9</ele>
        <time>2017-03-16T13:41:40Z</time>
      </trkpt>
      <trkpt lat="43.34366" lon="1.82787">
        <ele>183.8</ele>
        <time>2017-03-16T13:41:42Z</time>
      </trkpt>
      <trkpt lat="43.34362" lon="1.82797">
        <ele>184.2</ele>
        <time>2017-03-16T13:41:44Z</time>
      </trkpt>
      <trkpt lat="43.34358" lon="1.82806">
        <ele>182.9</ele>
        <time>2017-03-16T13:41:46Z</time>
      </trkpt>
      <trkpt lat="43.34353" lon="1.82817">
        <ele>182</ele>
        <time>2017-03-16T13:41:48Z</time>
      </trkpt>
      <trkpt lat="43.34349" lon="1.82828">
        <ele>180.8</ele>
        <time>2017-03-16T13:41:50Z</time>
      </trkpt>
      <trkpt lat="43.34345" lon="1.82841">
        <ele>179.5</ele>
        <time>2017-03-16T13:41:52Z</time>
      </trkpt>
      <trkpt lat="43.34341" lon="1.82852">
        <ele>179.6</ele>
        <time>2017-03-16T13:41:54Z</time>
      </trkpt>
      <trkpt lat="43.34337" lon="1.82862">
        <ele>178.9</ele>
        <time>2017-03-16T13:41:56Z</time>
      </trkpt>
      <trkpt lat="43.34333" lon="1.82872">
        <ele>178.1</ele>
        <time>2017-03-16T13:41:58Z</time>
      </trkpt>
      <trkpt lat="43.3433" lon="1.82882">
        <ele>178.2</ele>
        <time>2017-03-16T13:42:00Z</time>
      </trkpt>
      <trkpt lat="43.34325" lon="1.82891">
        <ele>179</ele>
        <time>2017-03-16T13:42:02Z</time>
      </trkpt>
      <trkpt lat="43.34321" lon="1.82901">
        <ele>178.2</ele>
        <time>2017-03-16T13:42:04Z</time>
      </trkpt>
      <trkpt lat="43.34317" lon="1.82912">
        <ele>178.6</ele>
        <time>2017-03-16T13:42:06Z</time>
      </trkpt>
      <trkpt lat="43.34314" lon="1.82923">
        <ele>177.1</ele>
        <time>2017-03-16T13:42:08Z</time>
      </trkpt>
      <trkpt lat="43.3431" lon="1.82935">
        <ele>177.4</ele>
        <time>2017-03-16T13:42:10Z</time>
      </trkpt>
      <trkpt lat="43.34307" lon="1.82945">
        <ele>177.6</ele>
        <time>2017-03-16T13:42:12Z</time>
      </trkpt>
      <trkpt lat="43.34303" lon="1.82955">
        <ele>176.5</ele>
        <time>2017-03-16T13:42:14Z</time>
      </trkpt>
      <trkpt lat="43.343" lon="1.82966">
        <ele>178.1</ele>
        <time>2017-03-16T13:42:16Z</time>
      </trkpt>
      <trkpt lat="43.34296" lon="1.82976">
        <ele>177.4</ele>
        <time>2017-03-16T13:42:18Z</time>
      </trkpt>
      <trkpt lat="43.34293" lon="1.82987">
        <ele>177.8</ele>
        <time>2017-03-16T13:42:20Z</time>
      </trkpt>
      <trkpt lat="43.34289" lon="1.82997">
        <ele>177.2</ele>
        <time>2017-03-16T13:42:22Z</time>
      </trkpt>
      <trkpt lat="43.34287" lon="1.83007">
        <ele>177.3</ele>
        <time>2017-03-16T13:42:24Z</time>
      </trkpt>
      <trkpt lat="43.34283" lon="1.83019">
        <ele>177.5</ele>
        <time>2017-03-16T13:42:26Z</time>
      </trkpt>
      <trkpt lat="43.34279" lon="1.83029">
        <ele>178</ele>
        <time>2017-03-16T13:42:28Z</time>
      </trkpt>
      <trkpt lat="43.34275" lon="1.83038">
        <ele>178.2</ele>
        <time>2017-03-16T13:42:30Z</time>
      </trkpt>
      <trkpt lat="43.34271" lon="1.83049">
        <ele>178</ele>
        <time>2017-03-16T13:42:32Z</time>
      </trkpt>
      <trkpt lat="43.34267" lon="1.83059">
        <ele>176.8</ele>
        <time>2017-03-16T13:42:34Z</time>
      </trkpt>
      <trkpt lat="43.34263" lon="1.8307">
        <ele>176.4</ele>
        <time>2017-03-16T13:42:36Z</time>
      </trkpt>
      <trkpt lat="43.34258" lon="1.8308">
        <ele>176.4</ele>
        <time>2017-03-16T13:42:38Z</time>
      </trkpt>
      <trkpt lat="43.34254" lon="1.83088">
        <ele>175.8</ele>
        <time>2017-03-16T13:42:40Z</time>
      </trkpt>
      <trkpt lat="43.34251" lon="1.83098">
        <ele>176.1</ele>
        <time>2017-03-16T13:42:42Z</time>
      </trkpt>
      <trkpt lat="43.34247" lon="1.83106">
        <ele>175.7</ele>
        <time>2017-03-16T13:42:44Z</time>
      </trkpt>
      <trkpt lat="43.34244" lon="1.83116">
        <ele>176.7</ele>
        <time>2017-03-16T13:42:46Z</time>
      </trkpt>
      <trkpt lat="43.3424" lon="1.83125">
        <ele>176.6</ele>
        <time>2017-03-16T13:42:48Z</time>
      </trkpt>
      <trkpt lat="43.34236" lon="1.83133">
        <ele>177.2</ele>
        <time>2017-03-16T13:42:50Z</time>
      </trkpt>
      <trkpt lat="43.34232" lon="1.83144">
        <ele>176.9</ele>
        <time>2017-03-16T13:42:52Z</time>
      </trkpt>
      <trkpt lat="43.3423" lon="1.83154">
        <ele>178</ele>
        <time>2017-03-16T13:42:54Z</time>
      </trkpt>
      <trkpt lat="43.34227" lon="1.83164">
        <ele>178</ele>
        <time>2017-03-16T13:42:56Z</time>
      </trkpt>
      <trkpt lat="43.34223" lon="1.83174">
        <ele>177.2</ele>
        <time>2017-03-16T13:42:58Z</time>
      </trkpt>
      <trkpt lat="43.34219" lon="1.83185">
        <ele>176.6</ele>
        <time>2017-03-16T13:43:00Z</time>
      </trkpt>
      <trkpt lat="43.34216" lon="1.83196">
        <ele>176.3</ele>
        <time>2017-03-16T13:43:02Z</time>
      </trkpt>
      <trkpt lat="43.34212" lon="1.83208">
        <ele>176.8</ele>
        <time>2017-03-16T13:43:04Z</time>
      </trkpt>
      <trkpt lat="43.34208" lon="1.83219">
        <ele>176.9</ele>
        <time>2017-03-16T13:43:06Z</time>
      </trkpt>
      <trkpt lat="43.34204" lon="1.83228">
        <ele>176.5</ele>
        <time>2017-03-16T13:43:08Z</time>
      </trkpt>
      <trkpt lat="43.342" lon="1.83239">
        <ele>177.4</ele>
        <time>2017-03-16T13:43:10Z</time>
      </trkpt>
      <trkpt lat="43.34195" lon="1.83252">
        <ele>176.6</ele>
        <time>2017-03-16T13:43:13Z</time>
      </trkpt>
      <trkpt lat="43.34191" lon="1.83261">
        <ele>177.4</ele>
        <time>2017-03-16T13:43:15Z</time>
      </trkpt>
      <trkpt lat="43.34187" lon="1.8327">
        <ele>177.1</ele>
        <time>2017-03-16T13:43:17Z</time>
      </trkpt>
      <trkpt lat="43.34184" lon="1.8328">
        <ele>177</ele>
        <time>2017-03-16T13:43:19Z</time>
      </trkpt>
      <trkpt lat="43.34181" lon="1.83288">
        <ele>176.1</ele>
        <time>2017-03-16T13:43:21Z</time>
      </trkpt>
      <trkpt lat="43.34177" lon="1.83298">
        <ele>176.4</ele>
        <time>2017-03-16T13:43:23Z</time>
      </trkpt>
      <trkpt lat="43.34173" lon="1.8331">
        <ele>176.8</ele>
        <time>2017-03-16T13:43:25Z</time>
      </trkpt>
      <trkpt lat="43.34169" lon="1.8332">
        <ele>177.1</ele>
        <time>2017-03-16T13:43:27Z</time>
      </trkpt>
      <trkpt lat="43.34165" lon="1.83329">
        <ele>177.5</ele>
        <time>2017-03-16T13:43:29Z</time>
      </trkpt>
      <trkpt lat="43.34161" lon="1.83341">
        <ele>177.1</ele>
        <time>2017-03-16T13:43:32Z</time>
      </trkpt>
      <trkpt lat="43.34157" lon="1.83353">
        <ele>177.4</ele>
        <time>2017-03-16T13:43:35Z</time>
      </trkpt>
      <trkpt lat="43.34153" lon="1.83364">
        <ele>177.6</ele>
        <time>2017-03-16T13:43:38Z</time>
      </trkpt>
      <trkpt lat="43.34149" lon="1.83372">
        <ele>176.7</ele>
        <time>2017-03-16T13:43:41Z</time>
      </trkpt>
      <trkpt lat="43.3415" lon="1.83383">
        <ele>178.1</ele>
        <time>2017-03-16T13:43:46Z</time>
      </trkpt>
      <trkpt lat="43.34149" lon="1.83395">
        <ele>177.4</ele>
        <time>2017-03-16T13:43:50Z</time>
      </trkpt>
      <trkpt lat="43.34146" lon="1.83409">
        <ele>176.7</ele>
        <time>2017-03-16T13:43:53Z</time>
      </trkpt>
      <trkpt lat="43.34145" lon="1.83423">
        <ele>175.6</ele>
        <time>2017-03-16T13:43:56Z</time>
      </trkpt>
      <trkpt lat="43.34144" lon="1.83434">
        <ele>174.2</ele>
        <time>2017-03-16T13:43:59Z</time>
      </trkpt>
      <trkpt lat="43.34139" lon="1.83445">
        <ele>173.4</ele>
        <time>2017-03-16T13:44:03Z</time>
      </trkpt>
      <trkpt lat="43.34133" lon="1.83451">
        <ele>173</ele>
        <time>2017-03-16T13:44:06Z</time>
      </trkpt>
      <trkpt lat="43.34127" lon="1.8346">
        <ele>173</ele>
        <time>2017-03-16T13:44:09Z</time>
      </trkpt>
      <trkpt lat="43.34123" lon="1.8347">
        <ele>172.6</ele>
        <time>2017-03-16T13:44:12Z</time>
      </trkpt>
      <trkpt lat="43.3412" lon="1.83479">
        <ele>172.3</ele>
        <time>2017-03-16T13:44:15Z</time>
      </trkpt>
      <trkpt lat="43.34114" lon="1.83486">
        <ele>172.4</ele>
        <time>2017-03-16T13:44:18Z</time>
      </trkpt>
      <trkpt lat="43.34108" lon="1.83494">
        <ele>172.3</ele>
        <time>2017-03-16T13:44:21Z</time>
      </trkpt>
      <trkpt lat="43.34105" lon="1.83505">
        <ele>172.2</ele>
        <time>2017-03-16T13:44:24Z</time>
      </trkpt>
      <trkpt lat="43.34099" lon="1.83515">
        <ele>172.3</ele>
        <time>2017-03-16T13:44:27Z</time>
      </trkpt>
      <trkpt lat="43.34094" lon="1.83524">
        <ele>172.6</ele>
        <time>2017-03-16T13:44:30Z</time>
      </trkpt>
      <trkpt lat="43.34088" lon="1.83533">
        <ele>172.4</ele>
        <time>2017-03-16T13:44:33Z</time>
      </trkpt>
      <trkpt lat="43.34085" lon="1.83543">
        <ele>172.5</ele>
        <time>2017-03-16T13:44:36Z</time>
      </trkpt>
      <trkpt lat="43.3408" lon="1.83554">
        <ele>172.6</ele>
        <time>2017-03-16T13:44:39Z</time>
      </trkpt>
      <trkpt lat="43.34076" lon="1.83567">
        <ele>172.9</ele>
        <time>2017-03-16T13:44:42Z</time>
      </trkpt>
      <trkpt lat="43.34072" lon="1.83581">
        <ele>173.3</ele>
        <time>2017-03-16T13:44:45Z</time>
      </trkpt>
      <trkpt lat="43.34068" lon="1.83594">
        <ele>173.5</ele>
        <time>2017-03-16T13:44:48Z</time>
      </trkpt>
      <trkpt lat="43.34065" lon="1.83604">
        <ele>173.7</ele>
        <time>2017-03-16T13:44:50Z</time>
      </trkpt>
      <trkpt lat="43.34064" lon="1.83614">
        <ele>173.7</ele>
        <time>2017-03-16T13:44:52Z</time>
      </trkpt>
      <trkpt lat="43.34062" lon="1.83624">
        <ele>173.7</ele>
        <time>2017-03-16T13:44:54Z</time>
      </trkpt>
      <trkpt lat="43.34059" lon="1.83633">
        <ele>173.7</ele>
        <time>2017-03-16T13:44:56Z</time>
      </trkpt>
      <trkpt lat="43.34057" lon="1.83642">
        <ele>173.6</ele>
        <time>2017-03-16T13:44:58Z</time>
      </trkpt>
      <trkpt lat="43.34053" lon="1.83656">
        <ele>173.6</ele>
        <time>2017-03-16T13:45:01Z</time>
      </trkpt>
      <trkpt lat="43.34052" lon="1.83667">
        <ele>173.5</ele>
        <time>2017-03-16T13:45:04Z</time>
      </trkpt>
      <trkpt lat="43.34049" lon="1.83677">
        <ele>172.7</ele>
        <time>2017-03-16T13:45:08Z</time>
      </trkpt>
      <trkpt lat="43.34046" lon="1.83686">
        <ele>172.3</ele>
        <time>2017-03-16T13:45:11Z</time>
      </trkpt>
      <trkpt lat="43.34044" lon="1.83697">
        <ele>171.2</ele>
        <time>2017-03-16T13:45:14Z</time>
      </trkpt>
      <trkpt lat="43.34043" lon="1.8371">
        <ele>170</ele>
        <time>2017-03-16T13:45:17Z</time>
      </trkpt>
      <trkpt lat="43.34041" lon="1.83721">
        <ele>169.3</ele>
        <time>2017-03-16T13:45:19Z</time>
      </trkpt>
      <trkpt lat="43.34038" lon="1.83732">
        <ele>168.9</ele>
        <time>2017-03-16T13:45:21Z</time>
      </trkpt>
      <trkpt lat="43.34036" lon="1.83743">
        <ele>168.9</ele>
        <time>2017-03-16T13:45:23Z</time>
      </trkpt>
      <trkpt lat="43.34034" lon="1.83754">
        <ele>169.1</ele>
        <time>2017-03-16T13:45:25Z</time>
      </trkpt>
      <trkpt lat="43.34034" lon="1.83769">
        <ele>169.5</ele>
        <time>2017-03-16T13:45:28Z</time>
      </trkpt>
      <trkpt lat="43.34033" lon="1.83778">
        <ele>169.5</ele>
        <time>2017-03-16T13:45:30Z</time>
      </trkpt>
      <trkpt lat="43.34032" lon="1.83792">
        <ele>169.6</ele>
        <time>2017-03-16T13:45:33Z</time>
      </trkpt>
      <trkpt lat="43.34031" lon="1.83807">
        <ele>169.6</ele>
        <time>2017-03-16T13:45:36Z</time>
      </trkpt>
      <trkpt lat="43.34032" lon="1.8382">
        <ele>169.6</ele>
        <time>2017-03-16T13:45:39Z</time>
      </trkpt>
      <trkpt lat="43.34033" lon="1.83832">
        <ele>169.6</ele>
        <time>2017-03-16T13:45:42Z</time>
      </trkpt>
      <trkpt lat="43.34033" lon="1.83842">
        <ele>170.7</ele>
        <time>2017-03-16T13:45:45Z</time>
      </trkpt>
      <trkpt lat="43.34031" lon="1.83856">
        <ele>171</ele>
        <time>2017-03-16T13:45:48Z</time>
      </trkpt>
      <trkpt lat="43.34031" lon="1.83867">
        <ele>171.1</ele>
        <time>2017-03-16T13:45:50Z</time>
      </trkpt>
      <trkpt lat="43.34031" lon="1.83877">
        <ele>170.7</ele>
        <time>2017-03-16T13:45:52Z</time>
      </trkpt>
      <trkpt lat="43.3403" lon="1.83887">
        <ele>170.9</ele>
        <time>2017-03-16T13:45:54Z</time>
      </trkpt>
      <trkpt lat="43.3403" lon="1.83901">
        <ele>171.2</ele>
        <time>2017-03-16T13:45:58Z</time>
      </trkpt>
      <trkpt lat="43.3403" lon="1.83916">
        <ele>171.4</ele>
        <time>2017-03-16T13:46:00Z</time>
      </trkpt>
      <trkpt lat="43.3403" lon="1.83931">
        <ele>171.8</ele>
        <time>2017-03-16T13:46:03Z</time>
      </trkpt>
      <trkpt lat="43.34028" lon="1.83941">
        <ele>172.7</ele>
        <time>2017-03-16T13:46:05Z</time>
      </trkpt>
      <trkpt lat="43.34029" lon="1.83954">
        <ele>174.4</ele>
        <time>2017-03-16T13:46:08Z</time>
      </trkpt>
      <trkpt lat="43.34029" lon="1.83968">
        <ele>175.7</ele>
        <time>2017-03-16T13:46:11Z</time>
      </trkpt>
      <trkpt lat="43.34027" lon="1.83983">
        <ele>176.1</ele>
        <time>2017-03-16T13:46:14Z</time>
      </trkpt>
      <trkpt lat="43.34026" lon="1.83996">
        <ele>175.9</ele>
        <time>2017-03-16T13:46:17Z</time>
      </trkpt>
      <trkpt lat="43.34025" lon="1.8401">
        <ele>175.8</ele>
        <time>2017-03-16T13:46:20Z</time>
      </trkpt>
      <trkpt lat="43.34024" lon="1.8402">
        <ele>175.8</ele>
        <time>2017-03-16T13:46:22Z</time>
      </trkpt>
      <trkpt lat="43.34023" lon="1.84032">
        <ele>176.1</ele>
        <time>2017-03-16T13:46:24Z</time>
      </trkpt>
      <trkpt lat="43.34023" lon="1.84044">
        <ele>176.1</ele>
        <time>2017-03-16T13:46:26Z</time>
      </trkpt>
      <trkpt lat="43.34023" lon="1.84056">
        <ele>175.9</ele>
        <time>2017-03-16T13:46:28Z</time>
      </trkpt>
      <trkpt lat="43.34022" lon="1.8407">
        <ele>175.7</ele>
        <time>2017-03-16T13:46:30Z</time>
      </trkpt>
      <trkpt lat="43.34022" lon="1.84084">
        <ele>175.9</ele>
        <time>2017-03-16T13:46:32Z</time>
      </trkpt>
      <trkpt lat="43.34022" lon="1.84094">
        <ele>176</ele>
        <time>2017-03-16T13:46:34Z</time>
      </trkpt>
      <trkpt lat="43.34019" lon="1.84107">
        <ele>175.8</ele>
        <time>2017-03-16T13:46:36Z</time>
      </trkpt>
      <trkpt lat="43.34018" lon="1.84117">
        <ele>176.1</ele>
        <time>2017-03-16T13:46:38Z</time>
      </trkpt>
      <trkpt lat="43.34018" lon="1.84128">
        <ele>176.1</ele>
        <time>2017-03-16T13:46:40Z</time>
      </trkpt>
      <trkpt lat="43.34017" lon="1.84141">
        <ele>176.5</ele>
        <time>2017-03-16T13:46:42Z</time>
      </trkpt>
      <trkpt lat="43.34017" lon="1.84151">
        <ele>176.2</ele>
        <time>2017-03-16T13:46:44Z</time>
      </trkpt>
      <trkpt lat="43.34018" lon="1.84163">
        <ele>176.3</ele>
        <time>2017-03-16T13:46:46Z</time>
      </trkpt>
      <trkpt lat="43.34016" lon="1.84174">
        <ele>176.3</ele>
        <time>2017-03-16T13:46:48Z</time>
      </trkpt>
      <trkpt lat="43.34013" lon="1.84184">
        <ele>176.3</ele>
        <time>2017-03-16T13:46:50Z</time>
      </trkpt>
      <trkpt lat="43.34012" lon="1.84195">
        <ele>176.4</ele>
        <time>2017-03-16T13:46:52Z</time>
      </trkpt>
      <trkpt lat="43.34009" lon="1.84206">
        <ele>176.3</ele>
        <time>2017-03-16T13:46:54Z</time>
      </trkpt>
      <trkpt lat="43.34007" lon="1.84216">
        <ele>175.7</ele>
        <time>2017-03-16T13:46:56Z</time>
      </trkpt>
      <trkpt lat="43.34004" lon="1.84227">
        <ele>175.6</ele>
        <time>2017-03-16T13:46:58Z</time>
      </trkpt>
      <trkpt lat="43.34001" lon="1.84237">
        <ele>174.6</ele>
        <time>2017-03-16T13:47:00Z</time>
      </trkpt>
      <trkpt lat="43.33998" lon="1.84247">
        <ele>174.4</ele>
        <time>2017-03-16T13:47:02Z</time>
      </trkpt>
      <trkpt lat="43.33995" lon="1.84259">
        <ele>175.4</ele>
        <time>2017-03-16T13:47:04Z</time>
      </trkpt>
      <trkpt lat="43.3399" lon="1.84268">
        <ele>175</ele>
        <time>2017-03-16T13:47:06Z</time>
      </trkpt>
      <trkpt lat="43.33986" lon="1.84278">
        <ele>174.3</ele>
        <time>2017-03-16T13:47:08Z</time>
      </trkpt>
      <trkpt lat="43.33982" lon="1.84288">
        <ele>174.8</ele>
        <time>2017-03-16T13:47:10Z</time>
      </trkpt>
      <trkpt lat="43.33977" lon="1.84298">
        <ele>175.6</ele>
        <time>2017-03-16T13:47:12Z</time>
      </trkpt>
      <trkpt lat="43.33971" lon="1.8431">
        <ele>176.5</ele>
        <time>2017-03-16T13:47:15Z</time>
      </trkpt>
      <trkpt lat="43.33964" lon="1.8432">
        <ele>177.4</ele>
        <time>2017-03-16T13:47:18Z</time>
      </trkpt>
      <trkpt lat="43.33957" lon="1.84329">
        <ele>177.7</ele>
        <time>2017-03-16T13:47:21Z</time>
      </trkpt>
      <trkpt lat="43.33951" lon="1.84335">
        <ele>178.2</ele>
        <time>2017-03-16T13:47:23Z</time>
      </trkpt>
      <trkpt lat="43.33943" lon="1.84343">
        <ele>179.6</ele>
        <time>2017-03-16T13:47:26Z</time>
      </trkpt>
      <trkpt lat="43.33936" lon="1.84348">
        <ele>180.6</ele>
        <time>2017-03-16T13:47:28Z</time>
      </trkpt>
      <trkpt lat="43.33929" lon="1.84353">
        <ele>181.3</ele>
        <time>2017-03-16T13:47:30Z</time>
      </trkpt>
      <trkpt lat="43.33921" lon="1.84359">
        <ele>180</ele>
        <time>2017-03-16T13:47:32Z</time>
      </trkpt>
      <trkpt lat="43.33914" lon="1.84364">
        <ele>180.5</ele>
        <time>2017-03-16T13:47:34Z</time>
      </trkpt>
      <trkpt lat="43.33907" lon="1.84366">
        <ele>180.7</ele>
        <time>2017-03-16T13:47:36Z</time>
      </trkpt>
      <trkpt lat="43.33899" lon="1.84369">
        <ele>181.9</ele>
        <time>2017-03-16T13:47:39Z</time>
      </trkpt>
      <trkpt lat="43.33892" lon="1.84367">
        <ele>183.5</ele>
        <time>2017-03-16T13:47:42Z</time>
      </trkpt>
      <trkpt lat="43.33883" lon="1.8436">
        <ele>183.7</ele>
        <time>2017-03-16T13:47:45Z</time>
      </trkpt>
      <trkpt lat="43.33878" lon="1.84352">
        <ele>183.6</ele>
        <time>2017-03-16T13:47:47Z</time>
      </trkpt>
      <trkpt lat="43.33872" lon="1.84343">
        <ele>183.2</ele>
        <time>2017-03-16T13:47:49Z</time>
      </trkpt>
      <trkpt lat="43.33867" lon="1.84334">
        <ele>182.5</ele>
        <time>2017-03-16T13:47:51Z</time>
      </trkpt>
      <trkpt lat="43.33861" lon="1.84322">
        <ele>182.3</ele>
        <time>2017-03-16T13:47:53Z</time>
      </trkpt>
      <trkpt lat="43.33854" lon="1.84312">
        <ele>182.8</ele>
        <time>2017-03-16T13:47:55Z</time>
      </trkpt>
      <trkpt lat="43.33847" lon="1.84301">
        <ele>182.5</ele>
        <time>2017-03-16T13:47:57Z</time>
      </trkpt>
      <trkpt lat="43.33842" lon="1.84292">
        <ele>183</ele>
        <time>2017-03-16T13:47:59Z</time>
      </trkpt>
      <trkpt lat="43.33836" lon="1.84281">
        <ele>182.7</ele>
        <time>2017-03-16T13:48:01Z</time>
      </trkpt>
      <trkpt lat="43.3383" lon="1.84273">
        <ele>182.2</ele>
        <time>2017-03-16T13:48:03Z</time>
      </trkpt>
      <trkpt lat="43.33825" lon="1.84264">
        <ele>182</ele>
        <time>2017-03-16T13:48:05Z</time>
      </trkpt>
      <trkpt lat="43.33821" lon="1.84255">
        <ele>182.1</ele>
        <time>2017-03-16T13:48:07Z</time>
      </trkpt>
      <trkpt lat="43.33816" lon="1.84247">
        <ele>183.2</ele>
        <time>2017-03-16T13:48:09Z</time>
      </trkpt>
      <trkpt lat="43.33811" lon="1.8424">
        <ele>184.1</ele>
        <time>2017-03-16T13:48:11Z</time>
      </trkpt>
      <trkpt lat="43.33806" lon="1.84233">
        <ele>184.2</ele>
        <time>2017-03-16T13:48:13Z</time>
      </trkpt>
      <trkpt lat="43.33798" lon="1.84224">
        <ele>183.4</ele>
        <time>2017-03-16T13:48:15Z</time>
      </trkpt>
      <trkpt lat="43.33791" lon="1.84216">
        <ele>184.3</ele>
        <time>2017-03-16T13:48:17Z</time>
      </trkpt>
      <trkpt lat="43.33783" lon="1.84211">
        <ele>185</ele>
        <time>2017-03-16T13:48:19Z</time>
      </trkpt>
      <trkpt lat="43.33776" lon="1.84208">
        <ele>184.4</ele>
        <time>2017-03-16T13:48:21Z</time>
      </trkpt>
      <trkpt lat="43.33768" lon="1.84206">
        <ele>184.3</ele>
        <time>2017-03-16T13:48:23Z</time>
      </trkpt>
      <trkpt lat="43.33761" lon="1.84205">
        <ele>183.7</ele>
        <time>2017-03-16T13:48:25Z</time>
      </trkpt>
      <trkpt lat="43.33751" lon="1.84204">
        <ele>184.3</ele>
        <time>2017-03-16T13:48:28Z</time>
      </trkpt>
      <trkpt lat="43.33742" lon="1.84204">
        <ele>184.9</ele>
        <time>2017-03-16T13:48:31Z</time>
      </trkpt>
      <trkpt lat="43.33733" lon="1.84204">
        <ele>185.3</ele>
        <time>2017-03-16T13:48:34Z</time>
      </trkpt>
      <trkpt lat="43.33724" lon="1.84204">
        <ele>185</ele>
        <time>2017-03-16T13:48:37Z</time>
      </trkpt>
      <trkpt lat="43.33715" lon="1.84207">
        <ele>185.4</ele>
        <time>2017-03-16T13:48:40Z</time>
      </trkpt>
      <trkpt lat="43.33706" lon="1.84209">
        <ele>185.6</ele>
        <time>2017-03-16T13:48:43Z</time>
      </trkpt>
      <trkpt lat="43.33695" lon="1.84213">
        <ele>185.5</ele>
        <time>2017-03-16T13:48:46Z</time>
      </trkpt>
      <trkpt lat="43.33689" lon="1.84219">
        <ele>186</ele>
        <time>2017-03-16T13:48:48Z</time>
      </trkpt>
      <trkpt lat="43.3368" lon="1.84226">
        <ele>185.8</ele>
        <time>2017-03-16T13:48:51Z</time>
      </trkpt>
      <trkpt lat="43.3367" lon="1.84233">
        <ele>185.4</ele>
        <time>2017-03-16T13:48:54Z</time>
      </trkpt>
      <trkpt lat="43.33664" lon="1.8424">
        <ele>184.4</ele>
        <time>2017-03-16T13:48:56Z</time>
      </trkpt>
      <trkpt lat="43.33658" lon="1.84246">
        <ele>183.9</ele>
        <time>2017-03-16T13:48:58Z</time>
      </trkpt>
      <trkpt lat="43.33652" lon="1.84253">
        <ele>183.9</ele>
        <time>2017-03-16T13:49:00Z</time>
      </trkpt>
      <trkpt lat="43.33645" lon="1.8426">
        <ele>183.9</ele>
        <time>2017-03-16T13:49:02Z</time>
      </trkpt>
      <trkpt lat="43.33639" lon="1.84266">
        <ele>183.5</ele>
        <time>2017-03-16T13:49:04Z</time>
      </trkpt>
      <trkpt lat="43.33633" lon="1.84274">
        <ele>183.1</ele>
        <time>2017-03-16T13:49:06Z</time>
      </trkpt>
      <trkpt lat="43.33627" lon="1.84281">
        <ele>182.4</ele>
        <time>2017-03-16T13:49:08Z</time>
      </trkpt>
      <trkpt lat="43.33622" lon="1.8429">
        <ele>181.8</ele>
        <time>2017-03-16T13:49:11Z</time>
      </trkpt>
      <trkpt lat="43.33614" lon="1.843">
        <ele>180.7</ele>
        <time>2017-03-16T13:49:14Z</time>
      </trkpt>
      <trkpt lat="43.33609" lon="1.84307">
        <ele>179.2</ele>
        <time>2017-03-16T13:49:16Z</time>
      </trkpt>
      <trkpt lat="43.33603" lon="1.8432">
        <ele>178.9</ele>
        <time>2017-03-16T13:49:19Z</time>
      </trkpt>
      <trkpt lat="43.33598" lon="1.8433">
        <ele>178.2</ele>
        <time>2017-03-16T13:49:21Z</time>
      </trkpt>
      <trkpt lat="43.33594" lon="1.84339">
        <ele>177.4</ele>
        <time>2017-03-16T13:49:23Z</time>
      </trkpt>
      <trkpt lat="43.33591" lon="1.84348">
        <ele>177.3</ele>
        <time>2017-03-16T13:49:25Z</time>
      </trkpt>
      <trkpt lat="43.33587" lon="1.84358">
        <ele>177.5</ele>
        <time>2017-03-16T13:49:27Z</time>
      </trkpt>
      <trkpt lat="43.33583" lon="1.8437">
        <ele>177.7</ele>
        <time>2017-03-16T13:49:30Z</time>
      </trkpt>
      <trkpt lat="43.3358" lon="1.8438">
        <ele>177.7</ele>
        <time>2017-03-16T13:49:32Z</time>
      </trkpt>
      <trkpt lat="43.33576" lon="1.84393">
        <ele>178.1</ele>
        <time>2017-03-16T13:49:35Z</time>
      </trkpt>
      <trkpt lat="43.33572" lon="1.84404">
        <ele>177.2</ele>
        <time>2017-03-16T13:49:37Z</time>
      </trkpt>
      <trkpt lat="43.33569" lon="1.84415">
        <ele>177.7</ele>
        <time>2017-03-16T13:49:39Z</time>
      </trkpt>
      <trkpt lat="43.33565" lon="1.84426">
        <ele>176.8</ele>
        <time>2017-03-16T13:49:41Z</time>
      </trkpt>
      <trkpt lat="43.33561" lon="1.84436">
        <ele>176.7</ele>
        <time>2017-03-16T13:49:43Z</time>
      </trkpt>
      <trkpt lat="43.33557" lon="1.84448">
        <ele>176.3</ele>
        <time>2017-03-16T13:49:45Z</time>
      </trkpt>
      <trkpt lat="43.33554" lon="1.84457">
        <ele>175.9</ele>
        <time>2017-03-16T13:49:47Z</time>
      </trkpt>
      <trkpt lat="43.3355" lon="1.84467">
        <ele>175.9</ele>
        <time>2017-03-16T13:49:49Z</time>
      </trkpt>
      <trkpt lat="43.33548" lon="1.84477">
        <ele>174.6</ele>
        <time>2017-03-16T13:49:51Z</time>
      </trkpt>
      <trkpt lat="43.33544" lon="1.84486">
        <ele>174.2</ele>
        <time>2017-03-16T13:49:53Z</time>
      </trkpt>
      <trkpt lat="43.3354" lon="1.84497">
        <ele>174.8</ele>
        <time>2017-03-16T13:49:55Z</time>
      </trkpt>
      <trkpt lat="43.33536" lon="1.84507">
        <ele>174.7</ele>
        <time>2017-03-16T13:49:57Z</time>
      </trkpt>
      <trkpt lat="43.33534" lon="1.84517">
        <ele>175</ele>
        <time>2017-03-16T13:49:59Z</time>
      </trkpt>
      <trkpt lat="43.33531" lon="1.84526">
        <ele>175.5</ele>
        <time>2017-03-16T13:50:01Z</time>
      </trkpt>
      <trkpt lat="43.33527" lon="1.84536">
        <ele>174.9</ele>
        <time>2017-03-16T13:50:03Z</time>
      </trkpt>
      <trkpt lat="43.33524" lon="1.84545">
        <ele>174.9</ele>
        <time>2017-03-16T13:50:05Z</time>
      </trkpt>
      <trkpt lat="43.3352" lon="1.84555">
        <ele>177.2</ele>
        <time>2017-03-16T13:50:07Z</time>
      </trkpt>
      <trkpt lat="43.33517" lon="1.84566">
        <ele>178.2</ele>
        <time>2017-03-16T13:50:09Z</time>
      </trkpt>
      <trkpt lat="43.33515" lon="1.84576">
        <ele>179.2</ele>
        <time>2017-03-16T13:50:11Z</time>
      </trkpt>
      <trkpt lat="43.33511" lon="1.84585">
        <ele>178.9</ele>
        <time>2017-03-16T13:50:13Z</time>
      </trkpt>
      <trkpt lat="43.33508" lon="1.84595">
        <ele>179.7</ele>
        <time>2017-03-16T13:50:15Z</time>
      </trkpt>
      <trkpt lat="43.33505" lon="1.84604">
        <ele>179.3</ele>
        <time>2017-03-16T13:50:17Z</time>
      </trkpt>
      <trkpt lat="43.33501" lon="1.84617">
        <ele>179.6</ele>
        <time>2017-03-16T13:50:20Z</time>
      </trkpt>
      <trkpt lat="43.33496" lon="1.84629">
        <ele>179.8</ele>
        <time>2017-03-16T13:50:23Z</time>
      </trkpt>
      <trkpt lat="43.33491" lon="1.84641">
        <ele>179.8</ele>
        <time>2017-03-16T13:50:26Z</time>
      </trkpt>
      <trkpt lat="43.33488" lon="1.84653">
        <ele>179.6</ele>
        <time>2017-03-16T13:50:29Z</time>
      </trkpt>
      <trkpt lat="43.33484" lon="1.84665">
        <ele>179.7</ele>
        <time>2017-03-16T13:50:32Z</time>
      </trkpt>
      <trkpt lat="43.33481" lon="1.84675">
        <ele>179.2</ele>
        <time>2017-03-16T13:50:34Z</time>
      </trkpt>
      <trkpt lat="43.33477" lon="1.84684">
        <ele>179</ele>
        <time>2017-03-16T13:50:36Z</time>
      </trkpt>
      <trkpt lat="43.33473" lon="1.84697">
        <ele>178.2</ele>
        <time>2017-03-16T13:50:39Z</time>
      </trkpt>
      <trkpt lat="43.3347" lon="1.84707">
        <ele>178.8</ele>
        <time>2017-03-16T13:50:41Z</time>
      </trkpt>
      <trkpt lat="43.33466" lon="1.84716">
        <ele>179.4</ele>
        <time>2017-03-16T13:50:43Z</time>
      </trkpt>
      <trkpt lat="43.33461" lon="1.84727">
        <ele>181.8</ele>
        <time>2017-03-16T13:50:46Z</time>
      </trkpt>
      <trkpt lat="43.33457" lon="1.84735">
        <ele>182</ele>
        <time>2017-03-16T13:50:49Z</time>
      </trkpt>
      <trkpt lat="43.33453" lon="1.84745">
        <ele>182.3</ele>
        <time>2017-03-16T13:50:52Z</time>
      </trkpt>
      <trkpt lat="43.33449" lon="1.84754">
        <ele>182.1</ele>
        <time>2017-03-16T13:50:55Z</time>
      </trkpt>
      <trkpt lat="43.33444" lon="1.84764">
        <ele>182.1</ele>
        <time>2017-03-16T13:50:58Z</time>
      </trkpt>
      <trkpt lat="43.33438" lon="1.84772">
        <ele>181.8</ele>
        <time>2017-03-16T13:51:01Z</time>
      </trkpt>
      <trkpt lat="43.33432" lon="1.84782">
        <ele>181.8</ele>
        <time>2017-03-16T13:51:04Z</time>
      </trkpt>
      <trkpt lat="43.33426" lon="1.8479">
        <ele>182.5</ele>
        <time>2017-03-16T13:51:07Z</time>
      </trkpt>
      <trkpt lat="43.33421" lon="1.84798">
        <ele>182.8</ele>
        <time>2017-03-16T13:51:10Z</time>
      </trkpt>
      <trkpt lat="43.33416" lon="1.84804">
        <ele>183</ele>
        <time>2017-03-16T13:51:13Z</time>
      </trkpt>
      <trkpt lat="43.3341" lon="1.8481">
        <ele>182.5</ele>
        <time>2017-03-16T13:51:16Z</time>
      </trkpt>
      <trkpt lat="43.33404" lon="1.84819">
        <ele>181.4</ele>
        <time>2017-03-16T13:51:19Z</time>
      </trkpt>
      <trkpt lat="43.33397" lon="1.84827">
        <ele>180.9</ele>
        <time>2017-03-16T13:51:22Z</time>
      </trkpt>
      <trkpt lat="43.3339" lon="1.84836">
        <ele>180.5</ele>
        <time>2017-03-16T13:51:25Z</time>
      </trkpt>
      <trkpt lat="43.33382" lon="1.84844">
        <ele>179.5</ele>
        <time>2017-03-16T13:51:28Z</time>
      </trkpt>
      <trkpt lat="43.33374" lon="1.84852">
        <ele>179.8</ele>
        <time>2017-03-16T13:51:31Z</time>
      </trkpt>
      <trkpt lat="43.33366" lon="1.8486">
        <ele>180.1</ele>
        <time>2017-03-16T13:51:34Z</time>
      </trkpt>
      <trkpt lat="43.3336" lon="1.84868">
        <ele>179.9</ele>
        <time>2017-03-16T13:51:37Z</time>
      </trkpt>
      <trkpt lat="43.33357" lon="1.84876">
        <ele>180</ele>
        <time>2017-03-16T13:51:44Z</time>
      </trkpt>
      <trkpt lat="43.33358" lon="1.84876">
        <ele>180.4</ele>
        <time>2017-03-16T13:51:51Z</time>
      </trkpt>
      <trkpt lat="43.3335" lon="1.84877">
        <ele>184.1</ele>
        <time>2017-03-16T13:52:02Z</time>
      </trkpt>
      <trkpt lat="43.33344" lon="1.84883">
        <ele>184</ele>
        <time>2017-03-16T13:52:05Z</time>
      </trkpt>
      <trkpt lat="43.33339" lon="1.8489">
        <ele>183.2</ele>
        <time>2017-03-16T13:52:07Z</time>
      </trkpt>
      <trkpt lat="43.33332" lon="1.84899">
        <ele>182.6</ele>
        <time>2017-03-16T13:52:09Z</time>
      </trkpt>
      <trkpt lat="43.33326" lon="1.84908">
        <ele>182</ele>
        <time>2017-03-16T13:52:11Z</time>
      </trkpt>
      <trkpt lat="43.33321" lon="1.84917">
        <ele>181.9</ele>
        <time>2017-03-16T13:52:13Z</time>
      </trkpt>
      <trkpt lat="43.33316" lon="1.84926">
        <ele>181.8</ele>
        <time>2017-03-16T13:52:15Z</time>
      </trkpt>
      <trkpt lat="43.33313" lon="1.84935">
        <ele>181.7</ele>
        <time>2017-03-16T13:52:17Z</time>
      </trkpt>
      <trkpt lat="43.3331" lon="1.84944">
        <ele>181.4</ele>
        <time>2017-03-16T13:52:19Z</time>
      </trkpt>
      <trkpt lat="43.33307" lon="1.84958">
        <ele>180.6</ele>
        <time>2017-03-16T13:52:22Z</time>
      </trkpt>
      <trkpt lat="43.33304" lon="1.84971">
        <ele>180.3</ele>
        <time>2017-03-16T13:52:25Z</time>
      </trkpt>
      <trkpt lat="43.33303" lon="1.84981">
        <ele>179.7</ele>
        <time>2017-03-16T13:52:27Z</time>
      </trkpt>
      <trkpt lat="43.33301" lon="1.84992">
        <ele>179.3</ele>
        <time>2017-03-16T13:52:29Z</time>
      </trkpt>
      <trkpt lat="43.333" lon="1.85003">
        <ele>178.6</ele>
        <time>2017-03-16T13:52:31Z</time>
      </trkpt>
      <trkpt lat="43.33299" lon="1.85016">
        <ele>177.6</ele>
        <time>2017-03-16T13:52:34Z</time>
      </trkpt>
      <trkpt lat="43.33299" lon="1.85026">
        <ele>176.7</ele>
        <time>2017-03-16T13:52:36Z</time>
      </trkpt>
      <trkpt lat="43.33297" lon="1.85041">
        <ele>175.3</ele>
        <time>2017-03-16T13:52:39Z</time>
      </trkpt>
      <trkpt lat="43.33297" lon="1.85052">
        <ele>174.4</ele>
        <time>2017-03-16T13:52:41Z</time>
      </trkpt>
      <trkpt lat="43.33298" lon="1.85066">
        <ele>173.7</ele>
        <time>2017-03-16T13:52:44Z</time>
      </trkpt>
      <trkpt lat="43.33296" lon="1.8508">
        <ele>174.4</ele>
        <time>2017-03-16T13:52:47Z</time>
      </trkpt>
      <trkpt lat="43.33295" lon="1.85092">
        <ele>174.7</ele>
        <time>2017-03-16T13:52:49Z</time>
      </trkpt>
      <trkpt lat="43.33295" lon="1.85101">
        <ele>174.1</ele>
        <time>2017-03-16T13:52:51Z</time>
      </trkpt>
      <trkpt lat="43.33295" lon="1.85113">
        <ele>174.5</ele>
        <time>2017-03-16T13:52:53Z</time>
      </trkpt>
      <trkpt lat="43.33294" lon="1.85125">
        <ele>174.5</ele>
        <time>2017-03-16T13:52:55Z</time>
      </trkpt>
      <trkpt lat="43.33292" lon="1.8514">
        <ele>174</ele>
        <time>2017-03-16T13:52:57Z</time>
      </trkpt>
      <trkpt lat="43.33291" lon="1.85151">
        <ele>174</ele>
        <time>2017-03-16T13:52:59Z</time>
      </trkpt>
      <trkpt lat="43.33288" lon="1.85163">
        <ele>174.5</ele>
        <time>2017-03-16T13:53:01Z</time>
      </trkpt>
      <trkpt lat="43.33285" lon="1.85173">
        <ele>174.6</ele>
        <time>2017-03-16T13:53:03Z</time>
      </trkpt>
      <trkpt lat="43.33282" lon="1.85184">
        <ele>175.4</ele>
        <time>2017-03-16T13:53:05Z</time>
      </trkpt>
      <trkpt lat="43.33278" lon="1.85195">
        <ele>175.4</ele>
        <time>2017-03-16T13:53:07Z</time>
      </trkpt>
      <trkpt lat="43.33275" lon="1.85205">
        <ele>175.7</ele>
        <time>2017-03-16T13:53:09Z</time>
      </trkpt>
      <trkpt lat="43.33271" lon="1.85214">
        <ele>176.6</ele>
        <time>2017-03-16T13:53:11Z</time>
      </trkpt>
      <trkpt lat="43.33268" lon="1.85223">
        <ele>176.9</ele>
        <time>2017-03-16T13:53:13Z</time>
      </trkpt>
      <trkpt lat="43.33265" lon="1.85233">
        <ele>177.3</ele>
        <time>2017-03-16T13:53:15Z</time>
      </trkpt>
      <trkpt lat="43.33261" lon="1.85242">
        <ele>177.6</ele>
        <time>2017-03-16T13:53:17Z</time>
      </trkpt>
      <trkpt lat="43.33256" lon="1.85253">
        <ele>178.1</ele>
        <time>2017-03-16T13:53:19Z</time>
      </trkpt>
      <trkpt lat="43.33253" lon="1.85262">
        <ele>179.4</ele>
        <time>2017-03-16T13:53:21Z</time>
      </trkpt>
      <trkpt lat="43.33249" lon="1.85272">
        <ele>179.4</ele>
        <time>2017-03-16T13:53:23Z</time>
      </trkpt>
      <trkpt lat="43.33245" lon="1.85283">
        <ele>179.8</ele>
        <time>2017-03-16T13:53:25Z</time>
      </trkpt>
      <trkpt lat="43.33242" lon="1.85294">
        <ele>180.2</ele>
        <time>2017-03-16T13:53:27Z</time>
      </trkpt>
      <trkpt lat="43.33237" lon="1.85305">
        <ele>180.5</ele>
        <time>2017-03-16T13:53:29Z</time>
      </trkpt>
      <trkpt lat="43.33235" lon="1.85316">
        <ele>182.8</ele>
        <time>2017-03-16T13:53:31Z</time>
      </trkpt>
      <trkpt lat="43.33231" lon="1.85326">
        <ele>183.1</ele>
        <time>2017-03-16T13:53:33Z</time>
      </trkpt>
      <trkpt lat="43.33227" lon="1.85335">
        <ele>184.1</ele>
        <time>2017-03-16T13:53:35Z</time>
      </trkpt>
      <trkpt lat="43.33224" lon="1.85344">
        <ele>184.3</ele>
        <time>2017-03-16T13:53:37Z</time>
      </trkpt>
      <trkpt lat="43.3322" lon="1.85354">
        <ele>184.2</ele>
        <time>2017-03-16T13:53:39Z</time>
      </trkpt>
      <trkpt lat="43.33217" lon="1.85363">
        <ele>183.7</ele>
        <time>2017-03-16T13:53:41Z</time>
      </trkpt>
      <trkpt lat="43.33213" lon="1.85373">
        <ele>184</ele>
        <time>2017-03-16T13:53:43Z</time>
      </trkpt>
      <trkpt lat="43.33209" lon="1.85382">
        <ele>183.8</ele>
        <time>2017-03-16T13:53:45Z</time>
      </trkpt>
      <trkpt lat="43.33206" lon="1.85393">
        <ele>183.7</ele>
        <time>2017-03-16T13:53:47Z</time>
      </trkpt>
      <trkpt lat="43.33203" lon="1.85403">
        <ele>182.8</ele>
        <time>2017-03-16T13:53:49Z</time>
      </trkpt>
      <trkpt lat="43.332" lon="1.85413">
        <ele>182.2</ele>
        <time>2017-03-16T13:53:51Z</time>
      </trkpt>
      <trkpt lat="43.33197" lon="1.85424">
        <ele>182.4</ele>
        <time>2017-03-16T13:53:53Z</time>
      </trkpt>
      <trkpt lat="43.33194" lon="1.85435">
        <ele>181.1</ele>
        <time>2017-03-16T13:53:55Z</time>
      </trkpt>
      <trkpt lat="43.33191" lon="1.85445">
        <ele>180.7</ele>
        <time>2017-03-16T13:53:57Z</time>
      </trkpt>
      <trkpt lat="43.33191" lon="1.85455">
        <ele>179.1</ele>
        <time>2017-03-16T13:53:59Z</time>
      </trkpt>
      <trkpt lat="43.33191" lon="1.85465">
        <ele>178.8</ele>
        <time>2017-03-16T13:54:01Z</time>
      </trkpt>
      <trkpt lat="43.33191" lon="1.85476">
        <ele>177.8</ele>
        <time>2017-03-16T13:54:03Z</time>
      </trkpt>
      <trkpt lat="43.3319" lon="1.85486">
        <ele>177.6</ele>
        <time>2017-03-16T13:54:05Z</time>
      </trkpt>
      <trkpt lat="43.33188" lon="1.85496">
        <ele>177.7</ele>
        <time>2017-03-16T13:54:07Z</time>
      </trkpt>
      <trkpt lat="43.33187" lon="1.85507">
        <ele>177.5</ele>
        <time>2017-03-16T13:54:09Z</time>
      </trkpt>
      <trkpt lat="43.33187" lon="1.85517">
        <ele>177.5</ele>
        <time>2017-03-16T13:54:11Z</time>
      </trkpt>
      <trkpt lat="43.33186" lon="1.85528">
        <ele>177.4</ele>
        <time>2017-03-16T13:54:13Z</time>
      </trkpt>
      <trkpt lat="43.33186" lon="1.8554">
        <ele>176.6</ele>
        <time>2017-03-16T13:54:15Z</time>
      </trkpt>
      <trkpt lat="43.33186" lon="1.85552">
        <ele>176.3</ele>
        <time>2017-03-16T13:54:17Z</time>
      </trkpt>
      <trkpt lat="43.33186" lon="1.85562">
        <ele>176.3</ele>
        <time>2017-03-16T13:54:19Z</time>
      </trkpt>
      <trkpt lat="43.33186" lon="1.85573">
        <ele>176.1</ele>
        <time>2017-03-16T13:54:21Z</time>
      </trkpt>
      <trkpt lat="43.33187" lon="1.85583">
        <ele>175.8</ele>
        <time>2017-03-16T13:54:23Z</time>
      </trkpt>
      <trkpt lat="43.33187" lon="1.85596">
        <ele>174.8</ele>
        <time>2017-03-16T13:54:26Z</time>
      </trkpt>
      <trkpt lat="43.33187" lon="1.85609">
        <ele>174.5</ele>
        <time>2017-03-16T13:54:29Z</time>
      </trkpt>
      <trkpt lat="43.33187" lon="1.85623">
        <ele>173</ele>
        <time>2017-03-16T13:54:32Z</time>
      </trkpt>
      <trkpt lat="43.33185" lon="1.85633">
        <ele>173.2</ele>
        <time>2017-03-16T13:54:34Z</time>
      </trkpt>
      <trkpt lat="43.33182" lon="1.85643">
        <ele>173.3</ele>
        <time>2017-03-16T13:54:36Z</time>
      </trkpt>
      <trkpt lat="43.3318" lon="1.85652">
        <ele>173.5</ele>
        <time>2017-03-16T13:54:38Z</time>
      </trkpt>
      <trkpt lat="43.33176" lon="1.85661">
        <ele>173.1</ele>
        <time>2017-03-16T13:54:40Z</time>
      </trkpt>
      <trkpt lat="43.33172" lon="1.8567">
        <ele>172.7</ele>
        <time>2017-03-16T13:54:42Z</time>
      </trkpt>
      <trkpt lat="43.33169" lon="1.8568">
        <ele>172.9</ele>
        <time>2017-03-16T13:54:44Z</time>
      </trkpt>
      <trkpt lat="43.33165" lon="1.8569">
        <ele>173.4</ele>
        <time>2017-03-16T13:54:46Z</time>
      </trkpt>
      <trkpt lat="43.33161" lon="1.857">
        <ele>173.5</ele>
        <time>2017-03-16T13:54:48Z</time>
      </trkpt>
      <trkpt lat="43.33155" lon="1.85713">
        <ele>173.6</ele>
        <time>2017-03-16T13:54:51Z</time>
      </trkpt>
      <trkpt lat="43.33151" lon="1.85722">
        <ele>174.2</ele>
        <time>2017-03-16T13:54:53Z</time>
      </trkpt>
      <trkpt lat="43.33147" lon="1.8573">
        <ele>173.6</ele>
        <time>2017-03-16T13:54:55Z</time>
      </trkpt>
      <trkpt lat="43.33143" lon="1.8574">
        <ele>173.8</ele>
        <time>2017-03-16T13:54:57Z</time>
      </trkpt>
      <trkpt lat="43.33139" lon="1.8575">
        <ele>173.4</ele>
        <time>2017-03-16T13:54:59Z</time>
      </trkpt>
      <trkpt lat="43.33133" lon="1.85761">
        <ele>173.7</ele>
        <time>2017-03-16T13:55:01Z</time>
      </trkpt>
      <trkpt lat="43.33129" lon="1.85769">
        <ele>173.9</ele>
        <time>2017-03-16T13:55:03Z</time>
      </trkpt>
      <trkpt lat="43.33125" lon="1.85778">
        <ele>173.5</ele>
        <time>2017-03-16T13:55:05Z</time>
      </trkpt>
      <trkpt lat="43.3312" lon="1.85787">
        <ele>173.5</ele>
        <time>2017-03-16T13:55:07Z</time>
      </trkpt>
      <trkpt lat="43.33116" lon="1.85796">
        <ele>173.3</ele>
        <time>2017-03-16T13:55:09Z</time>
      </trkpt>
      <trkpt lat="43.3311" lon="1.85807">
        <ele>173.1</ele>
        <time>2017-03-16T13:55:12Z</time>
      </trkpt>
      <trkpt lat="43.33106" lon="1.85819">
        <ele>173.6</ele>
        <time>2017-03-16T13:55:15Z</time>
      </trkpt>
      <trkpt lat="43.33102" lon="1.85831">
        <ele>175</ele>
        <time>2017-03-16T13:55:18Z</time>
      </trkpt>
      <trkpt lat="43.33099" lon="1.8584">
        <ele>176.1</ele>
        <time>2017-03-16T13:55:20Z</time>
      </trkpt>
      <trkpt lat="43.33095" lon="1.8585">
        <ele>177.1</ele>
        <time>2017-03-16T13:55:22Z</time>
      </trkpt>
      <trkpt lat="43.33091" lon="1.85861">
        <ele>177.6</ele>
        <time>2017-03-16T13:55:25Z</time>
      </trkpt>
      <trkpt lat="43.33088" lon="1.85871">
        <ele>177.8</ele>
        <time>2017-03-16T13:55:27Z</time>
      </trkpt>
      <trkpt lat="43.33085" lon="1.8588">
        <ele>177.8</ele>
        <time>2017-03-16T13:55:29Z</time>
      </trkpt>
      <trkpt lat="43.33082" lon="1.8589">
        <ele>177.4</ele>
        <time>2017-03-16T13:55:31Z</time>
      </trkpt>
      <trkpt lat="43.33079" lon="1.85899">
        <ele>177.5</ele>
        <time>2017-03-16T13:55:33Z</time>
      </trkpt>
      <trkpt lat="43.33076" lon="1.85908">
        <ele>177.6</ele>
        <time>2017-03-16T13:55:35Z</time>
      </trkpt>
      <trkpt lat="43.33071" lon="1.85922">
        <ele>177.6</ele>
        <time>2017-03-16T13:55:38Z</time>
      </trkpt>
      <trkpt lat="43.33068" lon="1.85931">
        <ele>177.3</ele>
        <time>2017-03-16T13:55:40Z</time>
      </trkpt>
      <trkpt lat="43.33064" lon="1.85944">
        <ele>176.8</ele>
        <time>2017-03-16T13:55:43Z</time>
      </trkpt>
      <trkpt lat="43.33061" lon="1.85955">
        <ele>175.8</ele>
        <time>2017-03-16T13:55:46Z</time>
      </trkpt>
      <trkpt lat="43.33057" lon="1.85965">
        <ele>175.6</ele>
        <time>2017-03-16T13:55:49Z</time>
      </trkpt>
      <trkpt lat="43.33055" lon="1.85976">
        <ele>176.1</ele>
        <time>2017-03-16T13:55:52Z</time>
      </trkpt>
      <trkpt lat="43.3305" lon="1.85989">
        <ele>175.9</ele>
        <time>2017-03-16T13:55:55Z</time>
      </trkpt>
      <trkpt lat="43.33048" lon="1.85999">
        <ele>176</ele>
        <time>2017-03-16T13:55:57Z</time>
      </trkpt>
      <trkpt lat="43.33046" lon="1.86009">
        <ele>176</ele>
        <time>2017-03-16T13:55:59Z</time>
      </trkpt>
      <trkpt lat="43.33043" lon="1.86023">
        <ele>175.9</ele>
        <time>2017-03-16T13:56:02Z</time>
      </trkpt>
      <trkpt lat="43.33041" lon="1.86037">
        <ele>175.6</ele>
        <time>2017-03-16T13:56:05Z</time>
      </trkpt>
      <trkpt lat="43.33037" lon="1.86049">
        <ele>176</ele>
        <time>2017-03-16T13:56:08Z</time>
      </trkpt>
      <trkpt lat="43.33034" lon="1.8606">
        <ele>176.2</ele>
        <time>2017-03-16T13:56:11Z</time>
      </trkpt>
      <trkpt lat="43.33029" lon="1.8607">
        <ele>175.8</ele>
        <time>2017-03-16T13:56:14Z</time>
      </trkpt>
      <trkpt lat="43.33025" lon="1.86082">
        <ele>175.2</ele>
        <time>2017-03-16T13:56:17Z</time>
      </trkpt>
      <trkpt lat="43.33021" lon="1.86093">
        <ele>174.9</ele>
        <time>2017-03-16T13:56:20Z</time>
      </trkpt>
      <trkpt lat="43.33023" lon="1.86107">
        <ele>174.9</ele>
        <time>2017-03-16T13:56:23Z</time>
      </trkpt>
      <trkpt lat="43.33024" lon="1.86118">
        <ele>174.7</ele>
        <time>2017-03-16T13:56:26Z</time>
      </trkpt>
      <trkpt lat="43.33022" lon="1.86129">
        <ele>174.3</ele>
        <time>2017-03-16T13:56:29Z</time>
      </trkpt>
      <trkpt lat="43.33017" lon="1.86139">
        <ele>174.3</ele>
        <time>2017-03-16T13:56:32Z</time>
      </trkpt>
      <trkpt lat="43.33014" lon="1.8615">
        <ele>174.4</ele>
        <time>2017-03-16T13:56:35Z</time>
      </trkpt>
      <trkpt lat="43.3301" lon="1.86164">
        <ele>174.3</ele>
        <time>2017-03-16T13:56:38Z</time>
      </trkpt>
      <trkpt lat="43.33007" lon="1.86174">
        <ele>174.2</ele>
        <time>2017-03-16T13:56:40Z</time>
      </trkpt>
      <trkpt lat="43.33004" lon="1.86186">
        <ele>174.2</ele>
        <time>2017-03-16T13:56:42Z</time>
      </trkpt>
      <trkpt lat="43.33" lon="1.862">
        <ele>174.4</ele>
        <time>2017-03-16T13:56:44Z</time>
      </trkpt>
      <trkpt lat="43.32996" lon="1.86214">
        <ele>174.5</ele>
        <time>2017-03-16T13:56:46Z</time>
      </trkpt>
      <trkpt lat="43.32993" lon="1.86227">
        <ele>174.5</ele>
        <time>2017-03-16T13:56:48Z</time>
      </trkpt>
      <trkpt lat="43.3299" lon="1.86239">
        <ele>174.5</ele>
        <time>2017-03-16T13:56:50Z</time>
      </trkpt>
      <trkpt lat="43.32987" lon="1.86252">
        <ele>174.3</ele>
        <time>2017-03-16T13:56:52Z</time>
      </trkpt>
      <trkpt lat="43.32985" lon="1.86263">
        <ele>174.2</ele>
        <time>2017-03-16T13:56:54Z</time>
      </trkpt>
      <trkpt lat="43.32982" lon="1.86273">
        <ele>174.2</ele>
        <time>2017-03-16T13:56:56Z</time>
      </trkpt>
      <trkpt lat="43.3298" lon="1.86283">
        <ele>174.1</ele>
        <time>2017-03-16T13:56:58Z</time>
      </trkpt>
      <trkpt lat="43.32977" lon="1.86297">
        <ele>174.7</ele>
        <time>2017-03-16T13:57:01Z</time>
      </trkpt>
      <trkpt lat="43.32974" lon="1.86307">
        <ele>175.1</ele>
        <time>2017-03-16T13:57:03Z</time>
      </trkpt>
      <trkpt lat="43.32971" lon="1.86317">
        <ele>175.5</ele>
        <time>2017-03-16T13:57:05Z</time>
      </trkpt>
      <trkpt lat="43.32969" lon="1.86327">
        <ele>175.9</ele>
        <time>2017-03-16T13:57:07Z</time>
      </trkpt>
      <trkpt lat="43.32967" lon="1.86336">
        <ele>175.9</ele>
        <time>2017-03-16T13:57:09Z</time>
      </trkpt>
      <trkpt lat="43.32965" lon="1.86346">
        <ele>175.9</ele>
        <time>2017-03-16T13:57:11Z</time>
      </trkpt>
      <trkpt lat="43.32961" lon="1.86359">
        <ele>176</ele>
        <time>2017-03-16T13:57:14Z</time>
      </trkpt>
      <trkpt lat="43.32959" lon="1.86372">
        <ele>176.3</ele>
        <time>2017-03-16T13:57:17Z</time>
      </trkpt>
      <trkpt lat="43.32957" lon="1.86382">
        <ele>176.3</ele>
        <time>2017-03-16T13:57:19Z</time>
      </trkpt>
      <trkpt lat="43.32954" lon="1.86392">
        <ele>176.4</ele>
        <time>2017-03-16T13:57:21Z</time>
      </trkpt>
      <trkpt lat="43.32952" lon="1.86402">
        <ele>176.8</ele>
        <time>2017-03-16T13:57:23Z</time>
      </trkpt>
      <trkpt lat="43.32949" lon="1.86411">
        <ele>177.1</ele>
        <time>2017-03-16T13:57:25Z</time>
      </trkpt>
      <trkpt lat="43.32947" lon="1.86426">
        <ele>177.6</ele>
        <time>2017-03-16T13:57:28Z</time>
      </trkpt>
      <trkpt lat="43.32945" lon="1.86437">
        <ele>177.5</ele>
        <time>2017-03-16T13:57:30Z</time>
      </trkpt>
      <trkpt lat="43.32943" lon="1.86448">
        <ele>177.4</ele>
        <time>2017-03-16T13:57:32Z</time>
      </trkpt>
      <trkpt lat="43.3294" lon="1.86457">
        <ele>176.9</ele>
        <time>2017-03-16T13:57:34Z</time>
      </trkpt>
      <trkpt lat="43.32936" lon="1.86468">
        <ele>176.6</ele>
        <time>2017-03-16T13:57:36Z</time>
      </trkpt>
      <trkpt lat="43.32935" lon="1.86478">
        <ele>176.4</ele>
        <time>2017-03-16T13:57:38Z</time>
      </trkpt>
      <trkpt lat="43.32932" lon="1.86488">
        <ele>176.1</ele>
        <time>2017-03-16T13:57:40Z</time>
      </trkpt>
      <trkpt lat="43.32931" lon="1.86498">
        <ele>175.9</ele>
        <time>2017-03-16T13:57:42Z</time>
      </trkpt>
      <trkpt lat="43.32928" lon="1.86513">
        <ele>173.9</ele>
        <time>2017-03-16T13:57:45Z</time>
      </trkpt>
      <trkpt lat="43.32925" lon="1.86528">
        <ele>172.8</ele>
        <time>2017-03-16T13:57:48Z</time>
      </trkpt>
      <trkpt lat="43.32923" lon="1.86538">
        <ele>171.7</ele>
        <time>2017-03-16T13:57:50Z</time>
      </trkpt>
      <trkpt lat="43.32921" lon="1.86549">
        <ele>171.3</ele>
        <time>2017-03-16T13:57:52Z</time>
      </trkpt>
      <trkpt lat="43.32918" lon="1.8656">
        <ele>170.6</ele>
        <time>2017-03-16T13:57:54Z</time>
      </trkpt>
      <trkpt lat="43.32914" lon="1.86572">
        <ele>170.2</ele>
        <time>2017-03-16T13:57:56Z</time>
      </trkpt>
      <trkpt lat="43.32911" lon="1.86583">
        <ele>170.2</ele>
        <time>2017-03-16T13:57:58Z</time>
      </trkpt>
      <trkpt lat="43.32908" lon="1.86593">
        <ele>170.4</ele>
        <time>2017-03-16T13:58:00Z</time>
      </trkpt>
      <trkpt lat="43.32907" lon="1.86604">
        <ele>170.8</ele>
        <time>2017-03-16T13:58:02Z</time>
      </trkpt>
      <trkpt lat="43.32906" lon="1.86617">
        <ele>171</ele>
        <time>2017-03-16T13:58:04Z</time>
      </trkpt>
      <trkpt lat="43.32905" lon="1.86629">
        <ele>171</ele>
        <time>2017-03-16T13:58:06Z</time>
      </trkpt>
      <trkpt lat="43.32904" lon="1.8664">
        <ele>170.7</ele>
        <time>2017-03-16T13:58:08Z</time>
      </trkpt>
      <trkpt lat="43.32903" lon="1.86652">
        <ele>170.1</ele>
        <time>2017-03-16T13:58:10Z</time>
      </trkpt>
      <trkpt lat="43.32903" lon="1.86663">
        <ele>171</ele>
        <time>2017-03-16T13:58:12Z</time>
      </trkpt>
      <trkpt lat="43.32902" lon="1.86673">
        <ele>171.2</ele>
        <time>2017-03-16T13:58:14Z</time>
      </trkpt>
      <trkpt lat="43.32902" lon="1.86684">
        <ele>171.7</ele>
        <time>2017-03-16T13:58:16Z</time>
      </trkpt>
      <trkpt lat="43.32902" lon="1.86697">
        <ele>172.7</ele>
        <time>2017-03-16T13:58:18Z</time>
      </trkpt>
      <trkpt lat="43.32902" lon="1.86707">
        <ele>172.8</ele>
        <time>2017-03-16T13:58:20Z</time>
      </trkpt>
      <trkpt lat="43.32902" lon="1.86719">
        <ele>172.8</ele>
        <time>2017-03-16T13:58:22Z</time>
      </trkpt>
      <trkpt lat="43.32902" lon="1.86729">
        <ele>172.9</ele>
        <time>2017-03-16T13:58:24Z</time>
      </trkpt>
      <trkpt lat="43.32903" lon="1.86741">
        <ele>173.2</ele>
        <time>2017-03-16T13:58:26Z</time>
      </trkpt>
      <trkpt lat="43.32904" lon="1.86752">
        <ele>173.4</ele>
        <time>2017-03-16T13:58:28Z</time>
      </trkpt>
      <trkpt lat="43.32904" lon="1.86763">
        <ele>174</ele>
        <time>2017-03-16T13:58:30Z</time>
      </trkpt>
      <trkpt lat="43.32905" lon="1.86774">
        <ele>173.8</ele>
        <time>2017-03-16T13:58:32Z</time>
      </trkpt>
      <trkpt lat="43.32905" lon="1.86784">
        <ele>174.1</ele>
        <time>2017-03-16T13:58:34Z</time>
      </trkpt>
      <trkpt lat="43.32906" lon="1.868">
        <ele>174.3</ele>
        <time>2017-03-16T13:58:37Z</time>
      </trkpt>
      <trkpt lat="43.32907" lon="1.86814">
        <ele>174.1</ele>
        <time>2017-03-16T13:58:40Z</time>
      </trkpt>
      <trkpt lat="43.32907" lon="1.86824">
        <ele>173.8</ele>
        <time>2017-03-16T13:58:42Z</time>
      </trkpt>
      <trkpt lat="43.32907" lon="1.86835">
        <ele>173.7</ele>
        <time>2017-03-16T13:58:44Z</time>
      </trkpt>
      <trkpt lat="43.32907" lon="1.86846">
        <ele>174</ele>
        <time>2017-03-16T13:58:46Z</time>
      </trkpt>
      <trkpt lat="43.32907" lon="1.86856">
        <ele>173.9</ele>
        <time>2017-03-16T13:58:48Z</time>
      </trkpt>
      <trkpt lat="43.32907" lon="1.86866">
        <ele>173.3</ele>
        <time>2017-03-16T13:58:50Z</time>
      </trkpt>
      <trkpt lat="43.32906" lon="1.8688">
        <ele>172.7</ele>
        <time>2017-03-16T13:58:53Z</time>
      </trkpt>
      <trkpt lat="43.32903" lon="1.86893">
        <ele>172.5</ele>
        <time>2017-03-16T13:58:56Z</time>
      </trkpt>
      <trkpt lat="43.329" lon="1.86905">
        <ele>172.3</ele>
        <time>2017-03-16T13:58:59Z</time>
      </trkpt>
      <trkpt lat="43.32896" lon="1.86918">
        <ele>172.2</ele>
        <time>2017-03-16T13:59:02Z</time>
      </trkpt>
      <trkpt lat="43.32893" lon="1.86931">
        <ele>173.4</ele>
        <time>2017-03-16T13:59:05Z</time>
      </trkpt>
      <trkpt lat="43.32889" lon="1.8694">
        <ele>173.4</ele>
        <time>2017-03-16T13:59:07Z</time>
      </trkpt>
      <trkpt lat="43.32886" lon="1.86953">
        <ele>173.3</ele>
        <time>2017-03-16T13:59:09Z</time>
      </trkpt>
      <trkpt lat="43.32882" lon="1.86964">
        <ele>173.1</ele>
        <time>2017-03-16T13:59:11Z</time>
      </trkpt>
      <trkpt lat="43.32878" lon="1.86976">
        <ele>173.1</ele>
        <time>2017-03-16T13:59:14Z</time>
      </trkpt>
      <trkpt lat="43.32876" lon="1.86988">
        <ele>172.9</ele>
        <time>2017-03-16T13:59:17Z</time>
      </trkpt>
      <trkpt lat="43.32875" lon="1.86999">
        <ele>173.2</ele>
        <time>2017-03-16T13:59:20Z</time>
      </trkpt>
      <trkpt lat="43.32874" lon="1.8701">
        <ele>173.3</ele>
        <time>2017-03-16T13:59:23Z</time>
      </trkpt>
      <trkpt lat="43.32873" lon="1.87021">
        <ele>173.3</ele>
        <time>2017-03-16T13:59:27Z</time>
      </trkpt>
      <trkpt lat="43.32869" lon="1.8703">
        <ele>173.5</ele>
        <time>2017-03-16T13:59:31Z</time>
      </trkpt>
      <trkpt lat="43.32868" lon="1.8704">
        <ele>175.1</ele>
        <time>2017-03-16T13:59:35Z</time>
      </trkpt>
      <trkpt lat="43.32867" lon="1.87046">
        <ele>175</ele>
        <time>2017-03-16T13:59:42Z</time>
      </trkpt>
      <trkpt lat="43.32864" lon="1.87044">
        <ele>176.9</ele>
        <time>2017-03-16T14:00:02Z</time>
      </trkpt>
      <trkpt lat="43.32868" lon="1.87052">
        <ele>175.4</ele>
        <time>2017-03-16T14:00:22Z</time>
      </trkpt>
      <trkpt lat="43.32871" lon="1.87052">
        <ele>175</ele>
        <time>2017-03-16T14:00:30Z</time>
      </trkpt>
      <trkpt lat="43.32864" lon="1.87051">
        <ele>175.5</ele>
        <time>2017-03-16T14:01:06Z</time>
      </trkpt>
      <trkpt lat="43.32863" lon="1.87054">
        <ele>175.7</ele>
        <time>2017-03-16T14:01:13Z</time>
      </trkpt>
      <trkpt lat="43.32866" lon="1.87049">
        <ele>176.2</ele>
        <time>2017-03-16T14:01:24Z</time>
      </trkpt>
      <trkpt lat="43.32866" lon="1.87043">
        <ele>176.7</ele>
        <time>2017-03-16T14:01:36Z</time>
      </trkpt>
      <trkpt lat="43.3287" lon="1.8704">
        <ele>174.4</ele>
        <time>2017-03-16T14:03:22Z</time>
      </trkpt>
      <trkpt lat="43.32873" lon="1.8703">
        <ele>175</ele>
        <time>2017-03-16T14:03:28Z</time>
      </trkpt>
      <trkpt lat="43.32875" lon="1.87019">
        <ele>175.2</ele>
        <time>2017-03-16T14:03:33Z</time>
      </trkpt>
      <trkpt lat="43.32868" lon="1.87019">
        <ele>175.3</ele>
        <time>2017-03-16T14:03:39Z</time>
      </trkpt>
      <trkpt lat="43.32864" lon="1.87029">
        <ele>176.1</ele>
        <time>2017-03-16T14:03:43Z</time>
      </trkpt>
      <trkpt lat="43.32861" lon="1.8704">
        <ele>176.5</ele>
        <time>2017-03-16T14:03:46Z</time>
      </trkpt>
      <trkpt lat="43.32859" lon="1.87052">
        <ele>177</ele>
        <time>2017-03-16T14:03:49Z</time>
      </trkpt>
      <trkpt lat="43.32856" lon="1.87062">
        <ele>177.1</ele>
        <time>2017-03-16T14:03:51Z</time>
      </trkpt>
      <trkpt lat="43.32853" lon="1.87073">
        <ele>176.8</ele>
        <time>2017-03-16T14:03:53Z</time>
      </trkpt>
      <trkpt lat="43.32849" lon="1.87085">
        <ele>176.4</ele>
        <time>2017-03-16T14:03:55Z</time>
      </trkpt>
      <trkpt lat="43.32845" lon="1.87097">
        <ele>176.4</ele>
        <time>2017-03-16T14:03:57Z</time>
      </trkpt>
      <trkpt lat="43.32841" lon="1.8711">
        <ele>176.5</ele>
        <time>2017-03-16T14:03:59Z</time>
      </trkpt>
      <trkpt lat="43.32837" lon="1.87124">
        <ele>176.3</ele>
        <time>2017-03-16T14:04:01Z</time>
      </trkpt>
      <trkpt lat="43.32832" lon="1.87137">
        <ele>176.1</ele>
        <time>2017-03-16T14:04:03Z</time>
      </trkpt>
      <trkpt lat="43.32828" lon="1.87149">
        <ele>175.8</ele>
        <time>2017-03-16T14:04:05Z</time>
      </trkpt>
      <trkpt lat="43.32824" lon="1.8716">
        <ele>175.2</ele>
        <time>2017-03-16T14:04:07Z</time>
      </trkpt>
      <trkpt lat="43.3282" lon="1.8717">
        <ele>174.8</ele>
        <time>2017-03-16T14:04:09Z</time>
      </trkpt>
      <trkpt lat="43.32817" lon="1.8718">
        <ele>174.5</ele>
        <time>2017-03-16T14:04:11Z</time>
      </trkpt>
      <trkpt lat="43.32813" lon="1.87189">
        <ele>174.3</ele>
        <time>2017-03-16T14:04:13Z</time>
      </trkpt>
      <trkpt lat="43.32808" lon="1.87202">
        <ele>174.1</ele>
        <time>2017-03-16T14:04:16Z</time>
      </trkpt>
      <trkpt lat="43.32806" lon="1.87212">
        <ele>173.9</ele>
        <time>2017-03-16T14:04:18Z</time>
      </trkpt>
      <trkpt lat="43.32803" lon="1.87226">
        <ele>173.8</ele>
        <time>2017-03-16T14:04:21Z</time>
      </trkpt>
      <trkpt lat="43.328" lon="1.87235">
        <ele>173.7</ele>
        <time>2017-03-16T14:04:23Z</time>
      </trkpt>
      <trkpt lat="43.32797" lon="1.87246">
        <ele>173.7</ele>
        <time>2017-03-16T14:04:25Z</time>
      </trkpt>
      <trkpt lat="43.32795" lon="1.87255">
        <ele>173.8</ele>
        <time>2017-03-16T14:04:27Z</time>
      </trkpt>
      <trkpt lat="43.32793" lon="1.87266">
        <ele>174.1</ele>
        <time>2017-03-16T14:04:29Z</time>
      </trkpt>
      <trkpt lat="43.32788" lon="1.87279">
        <ele>174</ele>
        <time>2017-03-16T14:04:32Z</time>
      </trkpt>
      <trkpt lat="43.32784" lon="1.87292">
        <ele>173.8</ele>
        <time>2017-03-16T14:04:34Z</time>
      </trkpt>
      <trkpt lat="43.32779" lon="1.87305">
        <ele>173.8</ele>
        <time>2017-03-16T14:04:37Z</time>
      </trkpt>
      <trkpt lat="43.32775" lon="1.87315">
        <ele>173.8</ele>
        <time>2017-03-16T14:04:39Z</time>
      </trkpt>
      <trkpt lat="43.32772" lon="1.87324">
        <ele>173.7</ele>
        <time>2017-03-16T14:04:41Z</time>
      </trkpt>
      <trkpt lat="43.32769" lon="1.87334">
        <ele>173.8</ele>
        <time>2017-03-16T14:04:43Z</time>
      </trkpt>
      <trkpt lat="43.32767" lon="1.87343">
        <ele>173.9</ele>
        <time>2017-03-16T14:04:45Z</time>
      </trkpt>
      <trkpt lat="43.32762" lon="1.87353">
        <ele>173.7</ele>
        <time>2017-03-16T14:04:47Z</time>
      </trkpt>
      <trkpt lat="43.32759" lon="1.87363">
        <ele>174.1</ele>
        <time>2017-03-16T14:04:49Z</time>
      </trkpt>
      <trkpt lat="43.32754" lon="1.87375">
        <ele>173.9</ele>
        <time>2017-03-16T14:04:51Z</time>
      </trkpt>
      <trkpt lat="43.3275" lon="1.87385">
        <ele>173.8</ele>
        <time>2017-03-16T14:04:53Z</time>
      </trkpt>
      <trkpt lat="43.32747" lon="1.87395">
        <ele>173.6</ele>
        <time>2017-03-16T14:04:55Z</time>
      </trkpt>
      <trkpt lat="43.32743" lon="1.87406">
        <ele>173.5</ele>
        <time>2017-03-16T14:04:57Z</time>
      </trkpt>
      <trkpt lat="43.32741" lon="1.87417">
        <ele>173.5</ele>
        <time>2017-03-16T14:04:59Z</time>
      </trkpt>
      <trkpt lat="43.32741" lon="1.87428">
        <ele>173.2</ele>
        <time>2017-03-16T14:05:01Z</time>
      </trkpt>
      <trkpt lat="43.32741" lon="1.87444">
        <ele>172.2</ele>
        <time>2017-03-16T14:05:04Z</time>
      </trkpt>
      <trkpt lat="43.32739" lon="1.87458">
        <ele>171.8</ele>
        <time>2017-03-16T14:05:06Z</time>
      </trkpt>
      <trkpt lat="43.32737" lon="1.87472">
        <ele>171.9</ele>
        <time>2017-03-16T14:05:08Z</time>
      </trkpt>
      <trkpt lat="43.32736" lon="1.87486">
        <ele>171.6</ele>
        <time>2017-03-16T14:05:10Z</time>
      </trkpt>
      <trkpt lat="43.32735" lon="1.87497">
        <ele>171.2</ele>
        <time>2017-03-16T14:05:12Z</time>
      </trkpt>
      <trkpt lat="43.32734" lon="1.87509">
        <ele>170.7</ele>
        <time>2017-03-16T14:05:14Z</time>
      </trkpt>
      <trkpt lat="43.32733" lon="1.8752">
        <ele>170.1</ele>
        <time>2017-03-16T14:05:16Z</time>
      </trkpt>
      <trkpt lat="43.32732" lon="1.87531">
        <ele>169.9</ele>
        <time>2017-03-16T14:05:18Z</time>
      </trkpt>
      <trkpt lat="43.32731" lon="1.87543">
        <ele>169.9</ele>
        <time>2017-03-16T14:05:20Z</time>
      </trkpt>
      <trkpt lat="43.32729" lon="1.87556">
        <ele>170</ele>
        <time>2017-03-16T14:05:22Z</time>
      </trkpt>
      <trkpt lat="43.32728" lon="1.87569">
        <ele>169.7</ele>
        <time>2017-03-16T14:05:24Z</time>
      </trkpt>
      <trkpt lat="43.32727" lon="1.87581">
        <ele>169.3</ele>
        <time>2017-03-16T14:05:26Z</time>
      </trkpt>
      <trkpt lat="43.32726" lon="1.87591">
        <ele>169</ele>
        <time>2017-03-16T14:05:28Z</time>
      </trkpt>
      <trkpt lat="43.32725" lon="1.87603">
        <ele>169</ele>
        <time>2017-03-16T14:05:30Z</time>
      </trkpt>
      <trkpt lat="43.32724" lon="1.87615">
        <ele>169.1</ele>
        <time>2017-03-16T14:05:32Z</time>
      </trkpt>
      <trkpt lat="43.32724" lon="1.87628">
        <ele>169.3</ele>
        <time>2017-03-16T14:05:34Z</time>
      </trkpt>
      <trkpt lat="43.32723" lon="1.87641">
        <ele>169.1</ele>
        <time>2017-03-16T14:05:36Z</time>
      </trkpt>
      <trkpt lat="43.32721" lon="1.87652">
        <ele>169</ele>
        <time>2017-03-16T14:05:38Z</time>
      </trkpt>
      <trkpt lat="43.32719" lon="1.87662">
        <ele>168.8</ele>
        <time>2017-03-16T14:05:40Z</time>
      </trkpt>
      <trkpt lat="43.32716" lon="1.87676">
        <ele>169.2</ele>
        <time>2017-03-16T14:05:43Z</time>
      </trkpt>
      <trkpt lat="43.32715" lon="1.87687">
        <ele>169.1</ele>
        <time>2017-03-16T14:05:45Z</time>
      </trkpt>
      <trkpt lat="43.32713" lon="1.87697">
        <ele>169.3</ele>
        <time>2017-03-16T14:05:47Z</time>
      </trkpt>
      <trkpt lat="43.32712" lon="1.87707">
        <ele>169.3</ele>
        <time>2017-03-16T14:05:49Z</time>
      </trkpt>
      <trkpt lat="43.32711" lon="1.87719">
        <ele>169.4</ele>
        <time>2017-03-16T14:05:51Z</time>
      </trkpt>
      <trkpt lat="43.32709" lon="1.87731">
        <ele>169.6</ele>
        <time>2017-03-16T14:05:53Z</time>
      </trkpt>
      <trkpt lat="43.32709" lon="1.87743">
        <ele>169.2</ele>
        <time>2017-03-16T14:05:55Z</time>
      </trkpt>
      <trkpt lat="43.32706" lon="1.87755">
        <ele>169.2</ele>
        <time>2017-03-16T14:05:57Z</time>
      </trkpt>
      <trkpt lat="43.32704" lon="1.87767">
        <ele>169</ele>
        <time>2017-03-16T14:05:59Z</time>
      </trkpt>
      <trkpt lat="43.32703" lon="1.87778">
        <ele>168.8</ele>
        <time>2017-03-16T14:06:01Z</time>
      </trkpt>
      <trkpt lat="43.32702" lon="1.8779">
        <ele>168.9</ele>
        <time>2017-03-16T14:06:03Z</time>
      </trkpt>
      <trkpt lat="43.327" lon="1.87801">
        <ele>169.1</ele>
        <time>2017-03-16T14:06:05Z</time>
      </trkpt>
      <trkpt lat="43.32699" lon="1.87816">
        <ele>169.2</ele>
        <time>2017-03-16T14:06:07Z</time>
      </trkpt>
      <trkpt lat="43.32697" lon="1.8783">
        <ele>169.1</ele>
        <time>2017-03-16T14:06:09Z</time>
      </trkpt>
      <trkpt lat="43.32696" lon="1.87842">
        <ele>169.2</ele>
        <time>2017-03-16T14:06:11Z</time>
      </trkpt>
      <trkpt lat="43.32694" lon="1.87853">
        <ele>169</ele>
        <time>2017-03-16T14:06:13Z</time>
      </trkpt>
      <trkpt lat="43.32691" lon="1.87866">
        <ele>169</ele>
        <time>2017-03-16T14:06:15Z</time>
      </trkpt>
      <trkpt lat="43.32688" lon="1.87876">
        <ele>168.6</ele>
        <time>2017-03-16T14:06:17Z</time>
      </trkpt>
      <trkpt lat="43.32682" lon="1.87886">
        <ele>168.1</ele>
        <time>2017-03-16T14:06:19Z</time>
      </trkpt>
      <trkpt lat="43.32677" lon="1.87895">
        <ele>167.9</ele>
        <time>2017-03-16T14:06:21Z</time>
      </trkpt>
      <trkpt lat="43.32673" lon="1.87907">
        <ele>168</ele>
        <time>2017-03-16T14:06:23Z</time>
      </trkpt>
      <trkpt lat="43.3267" lon="1.87916">
        <ele>168</ele>
        <time>2017-03-16T14:06:25Z</time>
      </trkpt>
      <trkpt lat="43.32665" lon="1.87927">
        <ele>168.4</ele>
        <time>2017-03-16T14:06:28Z</time>
      </trkpt>
      <trkpt lat="43.32659" lon="1.8794">
        <ele>167.8</ele>
        <time>2017-03-16T14:06:31Z</time>
      </trkpt>
      <trkpt lat="43.32655" lon="1.87949">
        <ele>167.4</ele>
        <time>2017-03-16T14:06:33Z</time>
      </trkpt>
      <trkpt lat="43.32652" lon="1.87959">
        <ele>167.6</ele>
        <time>2017-03-16T14:06:35Z</time>
      </trkpt>
      <trkpt lat="43.3265" lon="1.87972">
        <ele>168.6</ele>
        <time>2017-03-16T14:06:37Z</time>
      </trkpt>
      <trkpt lat="43.32647" lon="1.87982">
        <ele>169.1</ele>
        <time>2017-03-16T14:06:39Z</time>
      </trkpt>
      <trkpt lat="43.32641" lon="1.87991">
        <ele>169.4</ele>
        <time>2017-03-16T14:06:41Z</time>
      </trkpt>
      <trkpt lat="43.32636" lon="1.88002">
        <ele>169.2</ele>
        <time>2017-03-16T14:06:43Z</time>
      </trkpt>
      <trkpt lat="43.32631" lon="1.88012">
        <ele>169.6</ele>
        <time>2017-03-16T14:06:45Z</time>
      </trkpt>
      <trkpt lat="43.32626" lon="1.88025">
        <ele>170.2</ele>
        <time>2017-03-16T14:06:47Z</time>
      </trkpt>
      <trkpt lat="43.32621" lon="1.88036">
        <ele>170.7</ele>
        <time>2017-03-16T14:06:49Z</time>
      </trkpt>
      <trkpt lat="43.32616" lon="1.88046">
        <ele>171.4</ele>
        <time>2017-03-16T14:06:51Z</time>
      </trkpt>
      <trkpt lat="43.3261" lon="1.88056">
        <ele>172.1</ele>
        <time>2017-03-16T14:06:53Z</time>
      </trkpt>
      <trkpt lat="43.32607" lon="1.88065">
        <ele>172.8</ele>
        <time>2017-03-16T14:06:55Z</time>
      </trkpt>
      <trkpt lat="43.32603" lon="1.88075">
        <ele>173.6</ele>
        <time>2017-03-16T14:06:57Z</time>
      </trkpt>
      <trkpt lat="43.32599" lon="1.88084">
        <ele>174.1</ele>
        <time>2017-03-16T14:06:59Z</time>
      </trkpt>
      <trkpt lat="43.32595" lon="1.88094">
        <ele>174.6</ele>
        <time>2017-03-16T14:07:01Z</time>
      </trkpt>
      <trkpt lat="43.32589" lon="1.88106">
        <ele>174.7</ele>
        <time>2017-03-16T14:07:03Z</time>
      </trkpt>
      <trkpt lat="43.32584" lon="1.88116">
        <ele>175</ele>
        <time>2017-03-16T14:07:05Z</time>
      </trkpt>
      <trkpt lat="43.32579" lon="1.88124">
        <ele>174.9</ele>
        <time>2017-03-16T14:07:07Z</time>
      </trkpt>
      <trkpt lat="43.32574" lon="1.88136">
        <ele>175.1</ele>
        <time>2017-03-16T14:07:09Z</time>
      </trkpt>
      <trkpt lat="43.32569" lon="1.88146">
        <ele>175.2</ele>
        <time>2017-03-16T14:07:11Z</time>
      </trkpt>
      <trkpt lat="43.32563" lon="1.88158">
        <ele>175.8</ele>
        <time>2017-03-16T14:07:13Z</time>
      </trkpt>
      <trkpt lat="43.32557" lon="1.8817">
        <ele>175.8</ele>
        <time>2017-03-16T14:07:15Z</time>
      </trkpt>
      <trkpt lat="43.32553" lon="1.8818">
        <ele>175.8</ele>
        <time>2017-03-16T14:07:17Z</time>
      </trkpt>
      <trkpt lat="43.32548" lon="1.8819">
        <ele>175.8</ele>
        <time>2017-03-16T14:07:19Z</time>
      </trkpt>
      <trkpt lat="43.32544" lon="1.88199">
        <ele>176</ele>
        <time>2017-03-16T14:07:21Z</time>
      </trkpt>
      <trkpt lat="43.32539" lon="1.8821">
        <ele>176.4</ele>
        <time>2017-03-16T14:07:23Z</time>
      </trkpt>
      <trkpt lat="43.32534" lon="1.88219">
        <ele>176.5</ele>
        <time>2017-03-16T14:07:25Z</time>
      </trkpt>
      <trkpt lat="43.3253" lon="1.88229">
        <ele>176.8</ele>
        <time>2017-03-16T14:07:27Z</time>
      </trkpt>
      <trkpt lat="43.32526" lon="1.8824">
        <ele>177.2</ele>
        <time>2017-03-16T14:07:29Z</time>
      </trkpt>
      <trkpt lat="43.32522" lon="1.8825">
        <ele>176.7</ele>
        <time>2017-03-16T14:07:31Z</time>
      </trkpt>
      <trkpt lat="43.32519" lon="1.8826">
        <ele>176.7</ele>
        <time>2017-03-16T14:07:33Z</time>
      </trkpt>
      <trkpt lat="43.32516" lon="1.88273">
        <ele>177.5</ele>
        <time>2017-03-16T14:07:36Z</time>
      </trkpt>
      <trkpt lat="43.32515" lon="1.88285">
        <ele>177.5</ele>
        <time>2017-03-16T14:07:38Z</time>
      </trkpt>
      <trkpt lat="43.32515" lon="1.88299">
        <ele>177.7</ele>
        <time>2017-03-16T14:07:40Z</time>
      </trkpt>
      <trkpt lat="43.32516" lon="1.88313">
        <ele>177.7</ele>
        <time>2017-03-16T14:07:42Z</time>
      </trkpt>
      <trkpt lat="43.32518" lon="1.88325">
        <ele>177.4</ele>
        <time>2017-03-16T14:07:44Z</time>
      </trkpt>
      <trkpt lat="43.32518" lon="1.88336">
        <ele>176.6</ele>
        <time>2017-03-16T14:07:46Z</time>
      </trkpt>
      <trkpt lat="43.32519" lon="1.88348">
        <ele>175.4</ele>
        <time>2017-03-16T14:07:48Z</time>
      </trkpt>
      <trkpt lat="43.32517" lon="1.88361">
        <ele>174.6</ele>
        <time>2017-03-16T14:07:50Z</time>
      </trkpt>
      <trkpt lat="43.32516" lon="1.88373">
        <ele>173.2</ele>
        <time>2017-03-16T14:07:52Z</time>
      </trkpt>
      <trkpt lat="43.32516" lon="1.88387">
        <ele>173.3</ele>
        <time>2017-03-16T14:07:54Z</time>
      </trkpt>
      <trkpt lat="43.32516" lon="1.88399">
        <ele>173.2</ele>
        <time>2017-03-16T14:07:56Z</time>
      </trkpt>
      <trkpt lat="43.32517" lon="1.88412">
        <ele>173.2</ele>
        <time>2017-03-16T14:07:58Z</time>
      </trkpt>
      <trkpt lat="43.32517" lon="1.88423">
        <ele>173.2</ele>
        <time>2017-03-16T14:08:00Z</time>
      </trkpt>
      <trkpt lat="43.32516" lon="1.88434">
        <ele>173</ele>
        <time>2017-03-16T14:08:02Z</time>
      </trkpt>
      <trkpt lat="43.32516" lon="1.88446">
        <ele>173.2</ele>
        <time>2017-03-16T14:08:04Z</time>
      </trkpt>
      <trkpt lat="43.32516" lon="1.88459">
        <ele>173.1</ele>
        <time>2017-03-16T14:08:06Z</time>
      </trkpt>
      <trkpt lat="43.32516" lon="1.8847">
        <ele>172.4</ele>
        <time>2017-03-16T14:08:08Z</time>
      </trkpt>
      <trkpt lat="43.32517" lon="1.88484">
        <ele>172.3</ele>
        <time>2017-03-16T14:08:10Z</time>
      </trkpt>
      <trkpt lat="43.32518" lon="1.88497">
        <ele>171.9</ele>
        <time>2017-03-16T14:08:12Z</time>
      </trkpt>
      <trkpt lat="43.32518" lon="1.8851">
        <ele>171.3</ele>
        <time>2017-03-16T14:08:14Z</time>
      </trkpt>
      <trkpt lat="43.32517" lon="1.88524">
        <ele>170.7</ele>
        <time>2017-03-16T14:08:16Z</time>
      </trkpt>
      <trkpt lat="43.32516" lon="1.88537">
        <ele>170.3</ele>
        <time>2017-03-16T14:08:18Z</time>
      </trkpt>
      <trkpt lat="43.32515" lon="1.88548">
        <ele>169.8</ele>
        <time>2017-03-16T14:08:20Z</time>
      </trkpt>
      <trkpt lat="43.32513" lon="1.88558">
        <ele>169.5</ele>
        <time>2017-03-16T14:08:22Z</time>
      </trkpt>
      <trkpt lat="43.32513" lon="1.88568">
        <ele>168.8</ele>
        <time>2017-03-16T14:08:24Z</time>
      </trkpt>
      <trkpt lat="43.32513" lon="1.8858">
        <ele>168.6</ele>
        <time>2017-03-16T14:08:26Z</time>
      </trkpt>
      <trkpt lat="43.32512" lon="1.88593">
        <ele>168.1</ele>
        <time>2017-03-16T14:08:28Z</time>
      </trkpt>
      <trkpt lat="43.32512" lon="1.88606">
        <ele>168</ele>
        <time>2017-03-16T14:08:30Z</time>
      </trkpt>
      <trkpt lat="43.32513" lon="1.88619">
        <ele>167.8</ele>
        <time>2017-03-16T14:08:32Z</time>
      </trkpt>
      <trkpt lat="43.32513" lon="1.88631">
        <ele>167.3</ele>
        <time>2017-03-16T14:08:34Z</time>
      </trkpt>
      <trkpt lat="43.32514" lon="1.88646">
        <ele>167.7</ele>
        <time>2017-03-16T14:08:36Z</time>
      </trkpt>
      <trkpt lat="43.32515" lon="1.8866">
        <ele>167.6</ele>
        <time>2017-03-16T14:08:38Z</time>
      </trkpt>
      <trkpt lat="43.32515" lon="1.88674">
        <ele>168.1</ele>
        <time>2017-03-16T14:08:40Z</time>
      </trkpt>
      <trkpt lat="43.32515" lon="1.88689">
        <ele>168.9</ele>
        <time>2017-03-16T14:08:42Z</time>
      </trkpt>
      <trkpt lat="43.32514" lon="1.88702">
        <ele>168.7</ele>
        <time>2017-03-16T14:08:44Z</time>
      </trkpt>
      <trkpt lat="43.32513" lon="1.88716">
        <ele>168.8</ele>
        <time>2017-03-16T14:08:46Z</time>
      </trkpt>
      <trkpt lat="43.32512" lon="1.88729">
        <ele>168.9</ele>
        <time>2017-03-16T14:08:48Z</time>
      </trkpt>
      <trkpt lat="43.32512" lon="1.88741">
        <ele>169</ele>
        <time>2017-03-16T14:08:50Z</time>
      </trkpt>
      <trkpt lat="43.32511" lon="1.88754">
        <ele>169.3</ele>
        <time>2017-03-16T14:08:52Z</time>
      </trkpt>
      <trkpt lat="43.3251" lon="1.88767">
        <ele>169.3</ele>
        <time>2017-03-16T14:08:54Z</time>
      </trkpt>
      <trkpt lat="43.3251" lon="1.88779">
        <ele>169.3</ele>
        <time>2017-03-16T14:08:56Z</time>
      </trkpt>
      <trkpt lat="43.3251" lon="1.88791">
        <ele>169.3</ele>
        <time>2017-03-16T14:08:58Z</time>
      </trkpt>
      <trkpt lat="43.3251" lon="1.88803">
        <ele>169.1</ele>
        <time>2017-03-16T14:09:00Z</time>
      </trkpt>
      <trkpt lat="43.3251" lon="1.88815">
        <ele>169</ele>
        <time>2017-03-16T14:09:02Z</time>
      </trkpt>
      <trkpt lat="43.3251" lon="1.88827">
        <ele>168.9</ele>
        <time>2017-03-16T14:09:04Z</time>
      </trkpt>
      <trkpt lat="43.32509" lon="1.88839">
        <ele>168.9</ele>
        <time>2017-03-16T14:09:06Z</time>
      </trkpt>
      <trkpt lat="43.32509" lon="1.8885">
        <ele>168.8</ele>
        <time>2017-03-16T14:09:08Z</time>
      </trkpt>
      <trkpt lat="43.32508" lon="1.88862">
        <ele>168.5</ele>
        <time>2017-03-16T14:09:10Z</time>
      </trkpt>
      <trkpt lat="43.32508" lon="1.88876">
        <ele>168.1</ele>
        <time>2017-03-16T14:09:13Z</time>
      </trkpt>
      <trkpt lat="43.32507" lon="1.88891">
        <ele>167.4</ele>
        <time>2017-03-16T14:09:16Z</time>
      </trkpt>
      <trkpt lat="43.32505" lon="1.88901">
        <ele>166.4</ele>
        <time>2017-03-16T14:09:18Z</time>
      </trkpt>
      <trkpt lat="43.32503" lon="1.88913">
        <ele>166.2</ele>
        <time>2017-03-16T14:09:20Z</time>
      </trkpt>
      <trkpt lat="43.32502" lon="1.88925">
        <ele>165.6</ele>
        <time>2017-03-16T14:09:22Z</time>
      </trkpt>
      <trkpt lat="43.32499" lon="1.88936">
        <ele>165.4</ele>
        <time>2017-03-16T14:09:24Z</time>
      </trkpt>
      <trkpt lat="43.32497" lon="1.88948">
        <ele>165</ele>
        <time>2017-03-16T14:09:26Z</time>
      </trkpt>
      <trkpt lat="43.32494" lon="1.88958">
        <ele>164.7</ele>
        <time>2017-03-16T14:09:28Z</time>
      </trkpt>
      <trkpt lat="43.32492" lon="1.8897">
        <ele>164.6</ele>
        <time>2017-03-16T14:09:30Z</time>
      </trkpt>
      <trkpt lat="43.32489" lon="1.88982">
        <ele>164.5</ele>
        <time>2017-03-16T14:09:32Z</time>
      </trkpt>
      <trkpt lat="43.32487" lon="1.88994">
        <ele>163.7</ele>
        <time>2017-03-16T14:09:34Z</time>
      </trkpt>
      <trkpt lat="43.32485" lon="1.89005">
        <ele>163.9</ele>
        <time>2017-03-16T14:09:36Z</time>
      </trkpt>
      <trkpt lat="43.32482" lon="1.89016">
        <ele>163.7</ele>
        <time>2017-03-16T14:09:38Z</time>
      </trkpt>
      <trkpt lat="43.32479" lon="1.89028">
        <ele>163.1</ele>
        <time>2017-03-16T14:09:40Z</time>
      </trkpt>
      <trkpt lat="43.32476" lon="1.8904">
        <ele>162.7</ele>
        <time>2017-03-16T14:09:42Z</time>
      </trkpt>
      <trkpt lat="43.32472" lon="1.89053">
        <ele>161.9</ele>
        <time>2017-03-16T14:09:44Z</time>
      </trkpt>
      <trkpt lat="43.32469" lon="1.89066">
        <ele>161</ele>
        <time>2017-03-16T14:09:46Z</time>
      </trkpt>
      <trkpt lat="43.32466" lon="1.89077">
        <ele>160.4</ele>
        <time>2017-03-16T14:09:48Z</time>
      </trkpt>
      <trkpt lat="43.32463" lon="1.89089">
        <ele>160</ele>
        <time>2017-03-16T14:09:50Z</time>
      </trkpt>
      <trkpt lat="43.32459" lon="1.89102">
        <ele>160.4</ele>
        <time>2017-03-16T14:09:52Z</time>
      </trkpt>
      <trkpt lat="43.32456" lon="1.89115">
        <ele>161.1</ele>
        <time>2017-03-16T14:09:54Z</time>
      </trkpt>
      <trkpt lat="43.32452" lon="1.89129">
        <ele>161.3</ele>
        <time>2017-03-16T14:09:56Z</time>
      </trkpt>
      <trkpt lat="43.32449" lon="1.89142">
        <ele>161.3</ele>
        <time>2017-03-16T14:09:58Z</time>
      </trkpt>
      <trkpt lat="43.32447" lon="1.89153">
        <ele>161.5</ele>
        <time>2017-03-16T14:10:00Z</time>
      </trkpt>
      <trkpt lat="43.32445" lon="1.89165">
        <ele>161.5</ele>
        <time>2017-03-16T14:10:02Z</time>
      </trkpt>
      <trkpt lat="43.32443" lon="1.89176">
        <ele>161.4</ele>
        <time>2017-03-16T14:10:04Z</time>
      </trkpt>
      <trkpt lat="43.32442" lon="1.89186">
        <ele>161.3</ele>
        <time>2017-03-16T14:10:06Z</time>
      </trkpt>
      <trkpt lat="43.32441" lon="1.89196">
        <ele>160.9</ele>
        <time>2017-03-16T14:10:08Z</time>
      </trkpt>
      <trkpt lat="43.3244" lon="1.89207">
        <ele>160.6</ele>
        <time>2017-03-16T14:10:10Z</time>
      </trkpt>
      <trkpt lat="43.32438" lon="1.89219">
        <ele>159.9</ele>
        <time>2017-03-16T14:10:12Z</time>
      </trkpt>
      <trkpt lat="43.32437" lon="1.8923">
        <ele>159.3</ele>
        <time>2017-03-16T14:10:14Z</time>
      </trkpt>
      <trkpt lat="43.32436" lon="1.89241">
        <ele>158.6</ele>
        <time>2017-03-16T14:10:16Z</time>
      </trkpt>
      <trkpt lat="43.32433" lon="1.89254">
        <ele>157.9</ele>
        <time>2017-03-16T14:10:18Z</time>
      </trkpt>
      <trkpt lat="43.32431" lon="1.89267">
        <ele>157.2</ele>
        <time>2017-03-16T14:10:20Z</time>
      </trkpt>
      <trkpt lat="43.3243" lon="1.89279">
        <ele>156.8</ele>
        <time>2017-03-16T14:10:22Z</time>
      </trkpt>
      <trkpt lat="43.32428" lon="1.8929">
        <ele>156.4</ele>
        <time>2017-03-16T14:10:24Z</time>
      </trkpt>
      <trkpt lat="43.32428" lon="1.89302">
        <ele>155.6</ele>
        <time>2017-03-16T14:10:26Z</time>
      </trkpt>
      <trkpt lat="43.32426" lon="1.89314">
        <ele>155.3</ele>
        <time>2017-03-16T14:10:28Z</time>
      </trkpt>
      <trkpt lat="43.32424" lon="1.89327">
        <ele>155</ele>
        <time>2017-03-16T14:10:30Z</time>
      </trkpt>
      <trkpt lat="43.32422" lon="1.89339">
        <ele>154.1</ele>
        <time>2017-03-16T14:10:32Z</time>
      </trkpt>
      <trkpt lat="43.32421" lon="1.89353">
        <ele>153.5</ele>
        <time>2017-03-16T14:10:34Z</time>
      </trkpt>
      <trkpt lat="43.32419" lon="1.89365">
        <ele>152.9</ele>
        <time>2017-03-16T14:10:36Z</time>
      </trkpt>
      <trkpt lat="43.32418" lon="1.89377">
        <ele>152.2</ele>
        <time>2017-03-16T14:10:38Z</time>
      </trkpt>
      <trkpt lat="43.32415" lon="1.89391">
        <ele>152</ele>
        <time>2017-03-16T14:10:40Z</time>
      </trkpt>
      <trkpt lat="43.32413" lon="1.89403">
        <ele>151.5</ele>
        <time>2017-03-16T14:10:42Z</time>
      </trkpt>
      <trkpt lat="43.32411" lon="1.89417">
        <ele>151.1</ele>
        <time>2017-03-16T14:10:44Z</time>
      </trkpt>
      <trkpt lat="43.32408" lon="1.89431">
        <ele>150.6</ele>
        <time>2017-03-16T14:10:46Z</time>
      </trkpt>
      <trkpt lat="43.32406" lon="1.89443">
        <ele>150.1</ele>
        <time>2017-03-16T14:10:48Z</time>
      </trkpt>
      <trkpt lat="43.32404" lon="1.89455">
        <ele>150.2</ele>
        <time>2017-03-16T14:10:50Z</time>
      </trkpt>
      <trkpt lat="43.32403" lon="1.89467">
        <ele>149.9</ele>
        <time>2017-03-16T14:10:52Z</time>
      </trkpt>
      <trkpt lat="43.32399" lon="1.8948">
        <ele>149.7</ele>
        <time>2017-03-16T14:10:54Z</time>
      </trkpt>
      <trkpt lat="43.32398" lon="1.89491">
        <ele>149.5</ele>
        <time>2017-03-16T14:10:56Z</time>
      </trkpt>
      <trkpt lat="43.32396" lon="1.89502">
        <ele>149</ele>
        <time>2017-03-16T14:10:58Z</time>
      </trkpt>
      <trkpt lat="43.32394" lon="1.89513">
        <ele>148.4</ele>
        <time>2017-03-16T14:11:00Z</time>
      </trkpt>
      <trkpt lat="43.32392" lon="1.89523">
        <ele>147.9</ele>
        <time>2017-03-16T14:11:02Z</time>
      </trkpt>
      <trkpt lat="43.3239" lon="1.89534">
        <ele>147.2</ele>
        <time>2017-03-16T14:11:04Z</time>
      </trkpt>
      <trkpt lat="43.32387" lon="1.89546">
        <ele>146.4</ele>
        <time>2017-03-16T14:11:06Z</time>
      </trkpt>
      <trkpt lat="43.32384" lon="1.89558">
        <ele>146.6</ele>
        <time>2017-03-16T14:11:08Z</time>
      </trkpt>
      <trkpt lat="43.32381" lon="1.8957">
        <ele>146.4</ele>
        <time>2017-03-16T14:11:10Z</time>
      </trkpt>
      <trkpt lat="43.32379" lon="1.89583">
        <ele>146.7</ele>
        <time>2017-03-16T14:11:12Z</time>
      </trkpt>
      <trkpt lat="43.32375" lon="1.89594">
        <ele>146.3</ele>
        <time>2017-03-16T14:11:14Z</time>
      </trkpt>
      <trkpt lat="43.32372" lon="1.89605">
        <ele>145.7</ele>
        <time>2017-03-16T14:11:16Z</time>
      </trkpt>
      <trkpt lat="43.3237" lon="1.89617">
        <ele>145.2</ele>
        <time>2017-03-16T14:11:18Z</time>
      </trkpt>
      <trkpt lat="43.32367" lon="1.89628">
        <ele>144.6</ele>
        <time>2017-03-16T14:11:20Z</time>
      </trkpt>
      <trkpt lat="43.32364" lon="1.8964">
        <ele>144.1</ele>
        <time>2017-03-16T14:11:22Z</time>
      </trkpt>
      <trkpt lat="43.32361" lon="1.8965">
        <ele>143.7</ele>
        <time>2017-03-16T14:11:24Z</time>
      </trkpt>
      <trkpt lat="43.32358" lon="1.89663">
        <ele>143.8</ele>
        <time>2017-03-16T14:11:26Z</time>
      </trkpt>
      <trkpt lat="43.32354" lon="1.89677">
        <ele>144</ele>
        <time>2017-03-16T14:11:28Z</time>
      </trkpt>
      <trkpt lat="43.3235" lon="1.8969">
        <ele>144.1</ele>
        <time>2017-03-16T14:11:30Z</time>
      </trkpt>
      <trkpt lat="43.32346" lon="1.89704">
        <ele>144.2</ele>
        <time>2017-03-16T14:11:32Z</time>
      </trkpt>
      <trkpt lat="43.32342" lon="1.89716">
        <ele>144.4</ele>
        <time>2017-03-16T14:11:34Z</time>
      </trkpt>
      <trkpt lat="43.32339" lon="1.89726">
        <ele>144.1</ele>
        <time>2017-03-16T14:11:36Z</time>
      </trkpt>
      <trkpt lat="43.32336" lon="1.89737">
        <ele>144</ele>
        <time>2017-03-16T14:11:38Z</time>
      </trkpt>
      <trkpt lat="43.32333" lon="1.89748">
        <ele>144.4</ele>
        <time>2017-03-16T14:11:40Z</time>
      </trkpt>
      <trkpt lat="43.3233" lon="1.89758">
        <ele>144.5</ele>
        <time>2017-03-16T14:11:42Z</time>
      </trkpt>
      <trkpt lat="43.32327" lon="1.8977">
        <ele>144.1</ele>
        <time>2017-03-16T14:11:44Z</time>
      </trkpt>
      <trkpt lat="43.32324" lon="1.8978">
        <ele>143.8</ele>
        <time>2017-03-16T14:11:46Z</time>
      </trkpt>
      <trkpt lat="43.32321" lon="1.89795">
        <ele>143.7</ele>
        <time>2017-03-16T14:11:48Z</time>
      </trkpt>
      <trkpt lat="43.32317" lon="1.89807">
        <ele>143.3</ele>
        <time>2017-03-16T14:11:50Z</time>
      </trkpt>
      <trkpt lat="43.32314" lon="1.89823">
        <ele>144</ele>
        <time>2017-03-16T14:11:52Z</time>
      </trkpt>
      <trkpt lat="43.32311" lon="1.89837">
        <ele>144.6</ele>
        <time>2017-03-16T14:11:54Z</time>
      </trkpt>
      <trkpt lat="43.32308" lon="1.89848">
        <ele>144.6</ele>
        <time>2017-03-16T14:11:56Z</time>
      </trkpt>
      <trkpt lat="43.32306" lon="1.89858">
        <ele>144.2</ele>
        <time>2017-03-16T14:11:58Z</time>
      </trkpt>
      <trkpt lat="43.32303" lon="1.89873">
        <ele>144.8</ele>
        <time>2017-03-16T14:12:00Z</time>
      </trkpt>
      <trkpt lat="43.323" lon="1.89885">
        <ele>145</ele>
        <time>2017-03-16T14:12:02Z</time>
      </trkpt>
      <trkpt lat="43.32298" lon="1.89894">
        <ele>145</ele>
        <time>2017-03-16T14:12:04Z</time>
      </trkpt>
      <trkpt lat="43.32294" lon="1.89904">
        <ele>144.5</ele>
        <time>2017-03-16T14:12:06Z</time>
      </trkpt>
      <trkpt lat="43.3229" lon="1.89915">
        <ele>144</ele>
        <time>2017-03-16T14:12:08Z</time>
      </trkpt>
      <trkpt lat="43.32285" lon="1.89931">
        <ele>144.2</ele>
        <time>2017-03-16T14:12:10Z</time>
      </trkpt>
      <trkpt lat="43.32282" lon="1.89947">
        <ele>144.6</ele>
        <time>2017-03-16T14:12:12Z</time>
      </trkpt>
      <trkpt lat="43.32278" lon="1.89964">
        <ele>144.5</ele>
        <time>2017-03-16T14:12:14Z</time>
      </trkpt>
      <trkpt lat="43.32272" lon="1.89981">
        <ele>144.6</ele>
        <time>2017-03-16T14:12:16Z</time>
      </trkpt>
      <trkpt lat="43.32267" lon="1.89998">
        <ele>145</ele>
        <time>2017-03-16T14:12:18Z</time>
      </trkpt>
      <trkpt lat="43.32261" lon="1.90015">
        <ele>145.5</ele>
        <time>2017-03-16T14:12:20Z</time>
      </trkpt>
      <trkpt lat="43.32256" lon="1.90029">
        <ele>145.8</ele>
        <time>2017-03-16T14:12:22Z</time>
      </trkpt>
      <trkpt lat="43.32251" lon="1.90043">
        <ele>146.4</ele>
        <time>2017-03-16T14:12:24Z</time>
      </trkpt>
      <trkpt lat="43.32246" lon="1.9006">
        <ele>147.8</ele>
        <time>2017-03-16T14:12:26Z</time>
      </trkpt>
      <trkpt lat="43.32242" lon="1.90075">
        <ele>148.8</ele>
        <time>2017-03-16T14:12:28Z</time>
      </trkpt>
      <trkpt lat="43.32237" lon="1.90092">
        <ele>149.9</ele>
        <time>2017-03-16T14:12:30Z</time>
      </trkpt>
      <trkpt lat="43.32234" lon="1.90106">
        <ele>150.5</ele>
        <time>2017-03-16T14:12:32Z</time>
      </trkpt>
      <trkpt lat="43.32231" lon="1.90121">
        <ele>151.2</ele>
        <time>2017-03-16T14:12:34Z</time>
      </trkpt>
      <trkpt lat="43.32229" lon="1.90136">
        <ele>151.9</ele>
        <time>2017-03-16T14:12:36Z</time>
      </trkpt>
      <trkpt lat="43.32228" lon="1.90149">
        <ele>152.3</ele>
        <time>2017-03-16T14:12:38Z</time>
      </trkpt>
      <trkpt lat="43.32226" lon="1.90161">
        <ele>152.5</ele>
        <time>2017-03-16T14:12:40Z</time>
      </trkpt>
      <trkpt lat="43.32224" lon="1.90171">
        <ele>152.7</ele>
        <time>2017-03-16T14:12:42Z</time>
      </trkpt>
      <trkpt lat="43.32224" lon="1.90182">
        <ele>153</ele>
        <time>2017-03-16T14:12:44Z</time>
      </trkpt>
      <trkpt lat="43.32224" lon="1.90191">
        <ele>153.2</ele>
        <time>2017-03-16T14:12:46Z</time>
      </trkpt>
      <trkpt lat="43.32222" lon="1.90207">
        <ele>154</ele>
        <time>2017-03-16T14:12:49Z</time>
      </trkpt>
      <trkpt lat="43.32219" lon="1.90218">
        <ele>154.5</ele>
        <time>2017-03-16T14:12:51Z</time>
      </trkpt>
      <trkpt lat="43.32218" lon="1.90229">
        <ele>154.6</ele>
        <time>2017-03-16T14:12:53Z</time>
      </trkpt>
      <trkpt lat="43.32216" lon="1.9024">
        <ele>154.4</ele>
        <time>2017-03-16T14:12:55Z</time>
      </trkpt>
      <trkpt lat="43.32216" lon="1.9025">
        <ele>154.1</ele>
        <time>2017-03-16T14:12:57Z</time>
      </trkpt>
      <trkpt lat="43.32216" lon="1.90262">
        <ele>154.2</ele>
        <time>2017-03-16T14:12:59Z</time>
      </trkpt>
      <trkpt lat="43.32216" lon="1.90276">
        <ele>153.6</ele>
        <time>2017-03-16T14:13:02Z</time>
      </trkpt>
      <trkpt lat="43.32216" lon="1.9029">
        <ele>153</ele>
        <time>2017-03-16T14:13:05Z</time>
      </trkpt>
      <trkpt lat="43.32217" lon="1.90302">
        <ele>153</ele>
        <time>2017-03-16T14:13:07Z</time>
      </trkpt>
      <trkpt lat="43.32218" lon="1.90314">
        <ele>152.9</ele>
        <time>2017-03-16T14:13:09Z</time>
      </trkpt>
      <trkpt lat="43.32217" lon="1.90326">
        <ele>152.4</ele>
        <time>2017-03-16T14:13:11Z</time>
      </trkpt>
      <trkpt lat="43.32218" lon="1.90336">
        <ele>152.4</ele>
        <time>2017-03-16T14:13:13Z</time>
      </trkpt>
      <trkpt lat="43.32218" lon="1.90347">
        <ele>152.5</ele>
        <time>2017-03-16T14:13:15Z</time>
      </trkpt>
      <trkpt lat="43.32218" lon="1.90358">
        <ele>152.5</ele>
        <time>2017-03-16T14:13:17Z</time>
      </trkpt>
      <trkpt lat="43.32218" lon="1.90371">
        <ele>153.3</ele>
        <time>2017-03-16T14:13:19Z</time>
      </trkpt>
      <trkpt lat="43.32219" lon="1.90386">
        <ele>153.3</ele>
        <time>2017-03-16T14:13:21Z</time>
      </trkpt>
      <trkpt lat="43.32218" lon="1.90397">
        <ele>153</ele>
        <time>2017-03-16T14:13:23Z</time>
      </trkpt>
      <trkpt lat="43.32216" lon="1.90407">
        <ele>152.7</ele>
        <time>2017-03-16T14:13:25Z</time>
      </trkpt>
      <trkpt lat="43.32216" lon="1.90417">
        <ele>152.3</ele>
        <time>2017-03-16T14:13:27Z</time>
      </trkpt>
      <trkpt lat="43.32214" lon="1.9043">
        <ele>152.2</ele>
        <time>2017-03-16T14:13:29Z</time>
      </trkpt>
      <trkpt lat="43.32213" lon="1.90442">
        <ele>152.1</ele>
        <time>2017-03-16T14:13:31Z</time>
      </trkpt>
      <trkpt lat="43.32211" lon="1.90454">
        <ele>152.4</ele>
        <time>2017-03-16T14:13:33Z</time>
      </trkpt>
      <trkpt lat="43.32211" lon="1.90465">
        <ele>152.6</ele>
        <time>2017-03-16T14:13:35Z</time>
      </trkpt>
      <trkpt lat="43.32209" lon="1.90476">
        <ele>153.1</ele>
        <time>2017-03-16T14:13:37Z</time>
      </trkpt>
      <trkpt lat="43.32207" lon="1.90487">
        <ele>152.3</ele>
        <time>2017-03-16T14:13:39Z</time>
      </trkpt>
      <trkpt lat="43.32205" lon="1.90499">
        <ele>151.9</ele>
        <time>2017-03-16T14:13:41Z</time>
      </trkpt>
      <trkpt lat="43.32202" lon="1.9051">
        <ele>151.6</ele>
        <time>2017-03-16T14:13:43Z</time>
      </trkpt>
      <trkpt lat="43.32201" lon="1.90523">
        <ele>151.6</ele>
        <time>2017-03-16T14:13:45Z</time>
      </trkpt>
      <trkpt lat="43.32199" lon="1.90533">
        <ele>150.9</ele>
        <time>2017-03-16T14:13:47Z</time>
      </trkpt>
      <trkpt lat="43.32197" lon="1.90546">
        <ele>151.4</ele>
        <time>2017-03-16T14:13:49Z</time>
      </trkpt>
      <trkpt lat="43.32194" lon="1.9056">
        <ele>151.7</ele>
        <time>2017-03-16T14:13:51Z</time>
      </trkpt>
      <trkpt lat="43.3219" lon="1.90574">
        <ele>152</ele>
        <time>2017-03-16T14:13:53Z</time>
      </trkpt>
      <trkpt lat="43.32188" lon="1.90586">
        <ele>152</ele>
        <time>2017-03-16T14:13:55Z</time>
      </trkpt>
      <trkpt lat="43.32185" lon="1.90596">
        <ele>152</ele>
        <time>2017-03-16T14:13:57Z</time>
      </trkpt>
      <trkpt lat="43.32183" lon="1.90606">
        <ele>152.1</ele>
        <time>2017-03-16T14:13:59Z</time>
      </trkpt>
      <trkpt lat="43.32181" lon="1.90617">
        <ele>152.9</ele>
        <time>2017-03-16T14:14:01Z</time>
      </trkpt>
      <trkpt lat="43.32178" lon="1.90628">
        <ele>153.1</ele>
        <time>2017-03-16T14:14:03Z</time>
      </trkpt>
      <trkpt lat="43.32176" lon="1.90639">
        <ele>153.3</ele>
        <time>2017-03-16T14:14:05Z</time>
      </trkpt>
      <trkpt lat="43.32174" lon="1.90649">
        <ele>153.1</ele>
        <time>2017-03-16T14:14:07Z</time>
      </trkpt>
      <trkpt lat="43.32171" lon="1.9066">
        <ele>153.6</ele>
        <time>2017-03-16T14:14:09Z</time>
      </trkpt>
      <trkpt lat="43.32169" lon="1.90672">
        <ele>153.9</ele>
        <time>2017-03-16T14:14:11Z</time>
      </trkpt>
      <trkpt lat="43.32166" lon="1.90683">
        <ele>153.7</ele>
        <time>2017-03-16T14:14:13Z</time>
      </trkpt>
      <trkpt lat="43.32164" lon="1.90695">
        <ele>154.6</ele>
        <time>2017-03-16T14:14:15Z</time>
      </trkpt>
      <trkpt lat="43.32162" lon="1.90708">
        <ele>155.3</ele>
        <time>2017-03-16T14:14:17Z</time>
      </trkpt>
      <trkpt lat="43.3216" lon="1.90721">
        <ele>155.7</ele>
        <time>2017-03-16T14:14:19Z</time>
      </trkpt>
      <trkpt lat="43.32157" lon="1.90734">
        <ele>156.3</ele>
        <time>2017-03-16T14:14:21Z</time>
      </trkpt>
      <trkpt lat="43.32155" lon="1.9075">
        <ele>156.2</ele>
        <time>2017-03-16T14:14:23Z</time>
      </trkpt>
      <trkpt lat="43.32153" lon="1.90762">
        <ele>156.2</ele>
        <time>2017-03-16T14:14:25Z</time>
      </trkpt>
      <trkpt lat="43.3215" lon="1.90772">
        <ele>155.8</ele>
        <time>2017-03-16T14:14:27Z</time>
      </trkpt>
      <trkpt lat="43.32148" lon="1.90784">
        <ele>156.3</ele>
        <time>2017-03-16T14:14:29Z</time>
      </trkpt>
      <trkpt lat="43.32148" lon="1.90797">
        <ele>156.3</ele>
        <time>2017-03-16T14:14:31Z</time>
      </trkpt>
      <trkpt lat="43.32145" lon="1.90809">
        <ele>156.5</ele>
        <time>2017-03-16T14:14:33Z</time>
      </trkpt>
      <trkpt lat="43.32142" lon="1.9082">
        <ele>157</ele>
        <time>2017-03-16T14:14:35Z</time>
      </trkpt>
      <trkpt lat="43.3214" lon="1.90833">
        <ele>157.4</ele>
        <time>2017-03-16T14:14:37Z</time>
      </trkpt>
      <trkpt lat="43.32137" lon="1.90845">
        <ele>156.9</ele>
        <time>2017-03-16T14:14:39Z</time>
      </trkpt>
      <trkpt lat="43.32135" lon="1.90856">
        <ele>157.6</ele>
        <time>2017-03-16T14:14:41Z</time>
      </trkpt>
      <trkpt lat="43.32133" lon="1.90869">
        <ele>157.3</ele>
        <time>2017-03-16T14:14:43Z</time>
      </trkpt>
      <trkpt lat="43.32132" lon="1.9088">
        <ele>157.2</ele>
        <time>2017-03-16T14:14:45Z</time>
      </trkpt>
      <trkpt lat="43.3213" lon="1.90891">
        <ele>157.2</ele>
        <time>2017-03-16T14:14:47Z</time>
      </trkpt>
      <trkpt lat="43.32128" lon="1.90903">
        <ele>156.1</ele>
        <time>2017-03-16T14:14:49Z</time>
      </trkpt>
      <trkpt lat="43.32126" lon="1.90915">
        <ele>156.7</ele>
        <time>2017-03-16T14:14:51Z</time>
      </trkpt>
      <trkpt lat="43.32124" lon="1.90927">
        <ele>155.1</ele>
        <time>2017-03-16T14:14:53Z</time>
      </trkpt>
      <trkpt lat="43.32122" lon="1.9094">
        <ele>156.1</ele>
        <time>2017-03-16T14:14:55Z</time>
      </trkpt>
      <trkpt lat="43.32119" lon="1.90951">
        <ele>156.6</ele>
        <time>2017-03-16T14:14:57Z</time>
      </trkpt>
      <trkpt lat="43.32116" lon="1.90963">
        <ele>156.9</ele>
        <time>2017-03-16T14:15:00Z</time>
      </trkpt>
      <trkpt lat="43.32111" lon="1.90976">
        <ele>157.9</ele>
        <time>2017-03-16T14:15:03Z</time>
      </trkpt>
      <trkpt lat="43.32107" lon="1.90987">
        <ele>157.5</ele>
        <time>2017-03-16T14:15:05Z</time>
      </trkpt>
      <trkpt lat="43.32103" lon="1.90997">
        <ele>157.8</ele>
        <time>2017-03-16T14:15:07Z</time>
      </trkpt>
      <trkpt lat="43.32099" lon="1.91008">
        <ele>157.7</ele>
        <time>2017-03-16T14:15:09Z</time>
      </trkpt>
      <trkpt lat="43.32095" lon="1.91019">
        <ele>158</ele>
        <time>2017-03-16T14:15:11Z</time>
      </trkpt>
      <trkpt lat="43.32093" lon="1.9103">
        <ele>157.9</ele>
        <time>2017-03-16T14:15:13Z</time>
      </trkpt>
      <trkpt lat="43.3209" lon="1.9104">
        <ele>157.7</ele>
        <time>2017-03-16T14:15:15Z</time>
      </trkpt>
      <trkpt lat="43.32089" lon="1.9105">
        <ele>157.5</ele>
        <time>2017-03-16T14:15:17Z</time>
      </trkpt>
      <trkpt lat="43.32087" lon="1.91062">
        <ele>157.5</ele>
        <time>2017-03-16T14:15:19Z</time>
      </trkpt>
      <trkpt lat="43.32084" lon="1.91073">
        <ele>157.2</ele>
        <time>2017-03-16T14:15:21Z</time>
      </trkpt>
      <trkpt lat="43.32081" lon="1.91082">
        <ele>156.9</ele>
        <time>2017-03-16T14:15:23Z</time>
      </trkpt>
      <trkpt lat="43.32079" lon="1.91096">
        <ele>155.9</ele>
        <time>2017-03-16T14:15:25Z</time>
      </trkpt>
      <trkpt lat="43.32077" lon="1.9111">
        <ele>156.1</ele>
        <time>2017-03-16T14:15:27Z</time>
      </trkpt>
      <trkpt lat="43.32075" lon="1.91122">
        <ele>155.9</ele>
        <time>2017-03-16T14:15:29Z</time>
      </trkpt>
      <trkpt lat="43.32074" lon="1.91134">
        <ele>154.8</ele>
        <time>2017-03-16T14:15:31Z</time>
      </trkpt>
      <trkpt lat="43.32072" lon="1.91146">
        <ele>154</ele>
        <time>2017-03-16T14:15:33Z</time>
      </trkpt>
      <trkpt lat="43.32072" lon="1.91157">
        <ele>153</ele>
        <time>2017-03-16T14:15:35Z</time>
      </trkpt>
      <trkpt lat="43.3207" lon="1.9117">
        <ele>152.9</ele>
        <time>2017-03-16T14:15:38Z</time>
      </trkpt>
      <trkpt lat="43.32071" lon="1.91183">
        <ele>151.8</ele>
        <time>2017-03-16T14:15:41Z</time>
      </trkpt>
      <trkpt lat="43.32073" lon="1.91195">
        <ele>150.3</ele>
        <time>2017-03-16T14:15:44Z</time>
      </trkpt>
      <trkpt lat="43.32075" lon="1.91207">
        <ele>148.1</ele>
        <time>2017-03-16T14:15:47Z</time>
      </trkpt>
      <trkpt lat="43.32077" lon="1.91218">
        <ele>145.7</ele>
        <time>2017-03-16T14:15:50Z</time>
      </trkpt>
      <trkpt lat="43.32081" lon="1.9123">
        <ele>144</ele>
        <time>2017-03-16T14:15:53Z</time>
      </trkpt>
      <trkpt lat="43.32083" lon="1.91241">
        <ele>142.3</ele>
        <time>2017-03-16T14:15:56Z</time>
      </trkpt>
      <trkpt lat="43.32086" lon="1.9125">
        <ele>139.8</ele>
        <time>2017-03-16T14:15:59Z</time>
      </trkpt>
      <trkpt lat="43.32084" lon="1.91259">
        <ele>140.8</ele>
        <time>2017-03-16T14:16:06Z</time>
      </trkpt>
      <trkpt lat="43.3208" lon="1.9127">
        <ele>143.3</ele>
        <time>2017-03-16T14:16:22Z</time>
      </trkpt>
      <trkpt lat="43.32082" lon="1.91271">
        <ele>143.4</ele>
        <time>2017-03-16T14:16:29Z</time>
      </trkpt>
      <trkpt lat="43.32074" lon="1.91277">
        <ele>144.4</ele>
        <time>2017-03-16T14:16:48Z</time>
      </trkpt>
      <trkpt lat="43.32071" lon="1.91277">
        <ele>144.4</ele>
        <time>2017-03-16T14:16:55Z</time>
      </trkpt>
      <trkpt lat="43.32069" lon="1.9129">
        <ele>147.8</ele>
        <time>2017-03-16T14:17:06Z</time>
      </trkpt>
      <trkpt lat="43.32087" lon="1.91292">
        <ele>155.3</ele>
        <time>2017-03-16T14:17:53Z</time>
      </trkpt>
      <trkpt lat="43.32083" lon="1.913">
        <ele>156.8</ele>
        <time>2017-03-16T14:18:07Z</time>
      </trkpt>
      <trkpt lat="43.3208" lon="1.91309">
        <ele>157.3</ele>
        <time>2017-03-16T14:18:11Z</time>
      </trkpt>
      <trkpt lat="43.3208" lon="1.9132">
        <ele>157.4</ele>
        <time>2017-03-16T14:18:15Z</time>
      </trkpt>
      <trkpt lat="43.32083" lon="1.9133">
        <ele>158.4</ele>
        <time>2017-03-16T14:18:19Z</time>
      </trkpt>
      <trkpt lat="43.32084" lon="1.9134">
        <ele>159.2</ele>
        <time>2017-03-16T14:18:23Z</time>
      </trkpt>
      <trkpt lat="43.32085" lon="1.91351">
        <ele>160.3</ele>
        <time>2017-03-16T14:18:27Z</time>
      </trkpt>
      <trkpt lat="43.32086" lon="1.91363">
        <ele>161.2</ele>
        <time>2017-03-16T14:18:31Z</time>
      </trkpt>
      <trkpt lat="43.32087" lon="1.91374">
        <ele>161.3</ele>
        <time>2017-03-16T14:18:34Z</time>
      </trkpt>
      <trkpt lat="43.32089" lon="1.91385">
        <ele>163.1</ele>
        <time>2017-03-16T14:18:38Z</time>
      </trkpt>
      <trkpt lat="43.32092" lon="1.91393">
        <ele>165</ele>
        <time>2017-03-16T14:18:45Z</time>
      </trkpt>
      <trkpt lat="43.32088" lon="1.91405">
        <ele>169.1</ele>
        <time>2017-03-16T14:19:01Z</time>
      </trkpt>
      <trkpt lat="43.32088" lon="1.91416">
        <ele>168.8</ele>
        <time>2017-03-16T14:19:04Z</time>
      </trkpt>
      <trkpt lat="43.32088" lon="1.91427">
        <ele>168.1</ele>
        <time>2017-03-16T14:19:07Z</time>
      </trkpt>
      <trkpt lat="43.32089" lon="1.91438">
        <ele>167.2</ele>
        <time>2017-03-16T14:19:10Z</time>
      </trkpt>
      <trkpt lat="43.32091" lon="1.91451">
        <ele>166.2</ele>
        <time>2017-03-16T14:19:13Z</time>
      </trkpt>
      <trkpt lat="43.32094" lon="1.91461">
        <ele>164.7</ele>
        <time>2017-03-16T14:19:16Z</time>
      </trkpt>
      <trkpt lat="43.32096" lon="1.91471">
        <ele>164.3</ele>
        <time>2017-03-16T14:19:19Z</time>
      </trkpt>
      <trkpt lat="43.32099" lon="1.91483">
        <ele>163</ele>
        <time>2017-03-16T14:19:23Z</time>
      </trkpt>
      <trkpt lat="43.32102" lon="1.91494">
        <ele>162.3</ele>
        <time>2017-03-16T14:19:27Z</time>
      </trkpt>
      <trkpt lat="43.32105" lon="1.91503">
        <ele>161.6</ele>
        <time>2017-03-16T14:19:31Z</time>
      </trkpt>
      <trkpt lat="43.32107" lon="1.91515">
        <ele>161.4</ele>
        <time>2017-03-16T14:19:35Z</time>
      </trkpt>
      <trkpt lat="43.3211" lon="1.91526">
        <ele>161.3</ele>
        <time>2017-03-16T14:19:38Z</time>
      </trkpt>
      <trkpt lat="43.32112" lon="1.91537">
        <ele>161.7</ele>
        <time>2017-03-16T14:19:41Z</time>
      </trkpt>
      <trkpt lat="43.32116" lon="1.91547">
        <ele>162.3</ele>
        <time>2017-03-16T14:19:44Z</time>
      </trkpt>
      <trkpt lat="43.32119" lon="1.91558">
        <ele>163.9</ele>
        <time>2017-03-16T14:19:47Z</time>
      </trkpt>
      <trkpt lat="43.32122" lon="1.91571">
        <ele>164.5</ele>
        <time>2017-03-16T14:19:50Z</time>
      </trkpt>
      <trkpt lat="43.32124" lon="1.9158">
        <ele>164.7</ele>
        <time>2017-03-16T14:19:52Z</time>
      </trkpt>
      <trkpt lat="43.32127" lon="1.91595">
        <ele>165.8</ele>
        <time>2017-03-16T14:19:55Z</time>
      </trkpt>
      <trkpt lat="43.32128" lon="1.91605">
        <ele>166</ele>
        <time>2017-03-16T14:19:57Z</time>
      </trkpt>
      <trkpt lat="43.32128" lon="1.9162">
        <ele>165.6</ele>
        <time>2017-03-16T14:20:00Z</time>
      </trkpt>
      <trkpt lat="43.32127" lon="1.91631">
        <ele>165</ele>
        <time>2017-03-16T14:20:02Z</time>
      </trkpt>
      <trkpt lat="43.32126" lon="1.91642">
        <ele>163.9</ele>
        <time>2017-03-16T14:20:04Z</time>
      </trkpt>
      <trkpt lat="43.32124" lon="1.91652">
        <ele>163.3</ele>
        <time>2017-03-16T14:20:06Z</time>
      </trkpt>
      <trkpt lat="43.32122" lon="1.91662">
        <ele>162.2</ele>
        <time>2017-03-16T14:20:08Z</time>
      </trkpt>
      <trkpt lat="43.32121" lon="1.91673">
        <ele>161.3</ele>
        <time>2017-03-16T14:20:10Z</time>
      </trkpt>
      <trkpt lat="43.32119" lon="1.91684">
        <ele>160.7</ele>
        <time>2017-03-16T14:20:12Z</time>
      </trkpt>
      <trkpt lat="43.32116" lon="1.91694">
        <ele>160.2</ele>
        <time>2017-03-16T14:20:14Z</time>
      </trkpt>
      <trkpt lat="43.32113" lon="1.91705">
        <ele>160</ele>
        <time>2017-03-16T14:20:16Z</time>
      </trkpt>
      <trkpt lat="43.32111" lon="1.91714">
        <ele>159.3</ele>
        <time>2017-03-16T14:20:18Z</time>
      </trkpt>
      <trkpt lat="43.32107" lon="1.91726">
        <ele>157.2</ele>
        <time>2017-03-16T14:20:21Z</time>
      </trkpt>
      <trkpt lat="43.32103" lon="1.91741">
        <ele>156.3</ele>
        <time>2017-03-16T14:20:24Z</time>
      </trkpt>
      <trkpt lat="43.321" lon="1.9175">
        <ele>155.9</ele>
        <time>2017-03-16T14:20:26Z</time>
      </trkpt>
      <trkpt lat="43.32096" lon="1.91762">
        <ele>155.1</ele>
        <time>2017-03-16T14:20:29Z</time>
      </trkpt>
      <trkpt lat="43.32093" lon="1.91777">
        <ele>153.6</ele>
        <time>2017-03-16T14:20:32Z</time>
      </trkpt>
      <trkpt lat="43.32091" lon="1.91788">
        <ele>153.8</ele>
        <time>2017-03-16T14:20:34Z</time>
      </trkpt>
      <trkpt lat="43.32088" lon="1.91798">
        <ele>154.3</ele>
        <time>2017-03-16T14:20:36Z</time>
      </trkpt>
      <trkpt lat="43.32086" lon="1.91812">
        <ele>154.3</ele>
        <time>2017-03-16T14:20:39Z</time>
      </trkpt>
      <trkpt lat="43.32084" lon="1.91823">
        <ele>154.3</ele>
        <time>2017-03-16T14:20:41Z</time>
      </trkpt>
      <trkpt lat="43.32082" lon="1.91834">
        <ele>155.1</ele>
        <time>2017-03-16T14:20:43Z</time>
      </trkpt>
      <trkpt lat="43.32079" lon="1.91846">
        <ele>155.7</ele>
        <time>2017-03-16T14:20:45Z</time>
      </trkpt>
      <trkpt lat="43.32077" lon="1.91857">
        <ele>156.7</ele>
        <time>2017-03-16T14:20:47Z</time>
      </trkpt>
      <trkpt lat="43.32074" lon="1.91868">
        <ele>157</ele>
        <time>2017-03-16T14:20:49Z</time>
      </trkpt>
      <trkpt lat="43.32073" lon="1.91878">
        <ele>156.9</ele>
        <time>2017-03-16T14:20:51Z</time>
      </trkpt>
      <trkpt lat="43.32072" lon="1.91889">
        <ele>156.8</ele>
        <time>2017-03-16T14:20:53Z</time>
      </trkpt>
      <trkpt lat="43.32071" lon="1.91899">
        <ele>155.8</ele>
        <time>2017-03-16T14:20:55Z</time>
      </trkpt>
      <trkpt lat="43.32071" lon="1.91909">
        <ele>156</ele>
        <time>2017-03-16T14:20:57Z</time>
      </trkpt>
      <trkpt lat="43.3207" lon="1.9192">
        <ele>155.8</ele>
        <time>2017-03-16T14:20:59Z</time>
      </trkpt>
      <trkpt lat="43.32069" lon="1.91931">
        <ele>156.2</ele>
        <time>2017-03-16T14:21:01Z</time>
      </trkpt>
      <trkpt lat="43.32068" lon="1.91941">
        <ele>157</ele>
        <time>2017-03-16T14:21:03Z</time>
      </trkpt>
      <trkpt lat="43.32066" lon="1.91956">
        <ele>157.2</ele>
        <time>2017-03-16T14:21:06Z</time>
      </trkpt>
      <trkpt lat="43.32066" lon="1.91966">
        <ele>157.3</ele>
        <time>2017-03-16T14:21:08Z</time>
      </trkpt>
      <trkpt lat="43.32065" lon="1.91979">
        <ele>158</ele>
        <time>2017-03-16T14:21:11Z</time>
      </trkpt>
      <trkpt lat="43.32065" lon="1.9199">
        <ele>157.7</ele>
        <time>2017-03-16T14:21:13Z</time>
      </trkpt>
      <trkpt lat="43.32067" lon="1.92003">
        <ele>155.8</ele>
        <time>2017-03-16T14:21:16Z</time>
      </trkpt>
      <trkpt lat="43.32066" lon="1.92013">
        <ele>156.1</ele>
        <time>2017-03-16T14:21:18Z</time>
      </trkpt>
      <trkpt lat="43.32066" lon="1.92024">
        <ele>157.1</ele>
        <time>2017-03-16T14:21:20Z</time>
      </trkpt>
      <trkpt lat="43.32067" lon="1.92034">
        <ele>157.5</ele>
        <time>2017-03-16T14:21:22Z</time>
      </trkpt>
      <trkpt lat="43.32068" lon="1.92047">
        <ele>157.8</ele>
        <time>2017-03-16T14:21:25Z</time>
      </trkpt>
      <trkpt lat="43.3207" lon="1.92057">
        <ele>158.6</ele>
        <time>2017-03-16T14:21:28Z</time>
      </trkpt>
      <trkpt lat="43.32071" lon="1.92071">
        <ele>160.4</ele>
        <time>2017-03-16T14:21:31Z</time>
      </trkpt>
      <trkpt lat="43.32072" lon="1.92085">
        <ele>161.3</ele>
        <time>2017-03-16T14:21:34Z</time>
      </trkpt>
      <trkpt lat="43.32074" lon="1.92094">
        <ele>160.7</ele>
        <time>2017-03-16T14:21:36Z</time>
      </trkpt>
      <trkpt lat="43.32077" lon="1.92109">
        <ele>160.1</ele>
        <time>2017-03-16T14:21:39Z</time>
      </trkpt>
      <trkpt lat="43.32078" lon="1.92119">
        <ele>158.3</ele>
        <time>2017-03-16T14:21:41Z</time>
      </trkpt>
      <trkpt lat="43.32081" lon="1.92129">
        <ele>159</ele>
        <time>2017-03-16T14:21:43Z</time>
      </trkpt>
      <trkpt lat="43.32082" lon="1.92143">
        <ele>159.2</ele>
        <time>2017-03-16T14:21:46Z</time>
      </trkpt>
      <trkpt lat="43.32084" lon="1.92153">
        <ele>159.7</ele>
        <time>2017-03-16T14:21:48Z</time>
      </trkpt>
      <trkpt lat="43.32086" lon="1.92164">
        <ele>160.1</ele>
        <time>2017-03-16T14:21:50Z</time>
      </trkpt>
      <trkpt lat="43.32088" lon="1.92176">
        <ele>160</ele>
        <time>2017-03-16T14:21:52Z</time>
      </trkpt>
      <trkpt lat="43.3209" lon="1.92186">
        <ele>160.7</ele>
        <time>2017-03-16T14:21:54Z</time>
      </trkpt>
      <trkpt lat="43.32092" lon="1.92197">
        <ele>159.7</ele>
        <time>2017-03-16T14:21:56Z</time>
      </trkpt>
      <trkpt lat="43.32094" lon="1.92207">
        <ele>159.7</ele>
        <time>2017-03-16T14:21:58Z</time>
      </trkpt>
      <trkpt lat="43.32095" lon="1.92218">
        <ele>160.1</ele>
        <time>2017-03-16T14:22:00Z</time>
      </trkpt>
      <trkpt lat="43.32097" lon="1.9223">
        <ele>160.6</ele>
        <time>2017-03-16T14:22:02Z</time>
      </trkpt>
      <trkpt lat="43.32097" lon="1.92241">
        <ele>160.4</ele>
        <time>2017-03-16T14:22:04Z</time>
      </trkpt>
      <trkpt lat="43.32097" lon="1.92253">
        <ele>160.1</ele>
        <time>2017-03-16T14:22:06Z</time>
      </trkpt>
      <trkpt lat="43.32097" lon="1.92264">
        <ele>158.4</ele>
        <time>2017-03-16T14:22:08Z</time>
      </trkpt>
      <trkpt lat="43.32097" lon="1.92274">
        <ele>156.9</ele>
        <time>2017-03-16T14:22:10Z</time>
      </trkpt>
      <trkpt lat="43.32095" lon="1.92285">
        <ele>155.2</ele>
        <time>2017-03-16T14:22:12Z</time>
      </trkpt>
      <trkpt lat="43.32093" lon="1.92297">
        <ele>154.1</ele>
        <time>2017-03-16T14:22:14Z</time>
      </trkpt>
      <trkpt lat="43.32092" lon="1.92308">
        <ele>152.6</ele>
        <time>2017-03-16T14:22:16Z</time>
      </trkpt>
      <trkpt lat="43.3209" lon="1.92318">
        <ele>151.3</ele>
        <time>2017-03-16T14:22:18Z</time>
      </trkpt>
      <trkpt lat="43.32086" lon="1.9233">
        <ele>150.6</ele>
        <time>2017-03-16T14:22:20Z</time>
      </trkpt>
      <trkpt lat="43.32083" lon="1.92341">
        <ele>150.1</ele>
        <time>2017-03-16T14:22:22Z</time>
      </trkpt>
      <trkpt lat="43.32079" lon="1.92352">
        <ele>149.4</ele>
        <time>2017-03-16T14:22:24Z</time>
      </trkpt>
      <trkpt lat="43.32075" lon="1.92364">
        <ele>148.9</ele>
        <time>2017-03-16T14:22:26Z</time>
      </trkpt>
      <trkpt lat="43.32072" lon="1.92375">
        <ele>148.5</ele>
        <time>2017-03-16T14:22:28Z</time>
      </trkpt>
      <trkpt lat="43.3207" lon="1.92385">
        <ele>148.5</ele>
        <time>2017-03-16T14:22:30Z</time>
      </trkpt>
      <trkpt lat="43.32066" lon="1.92398">
        <ele>148.7</ele>
        <time>2017-03-16T14:22:33Z</time>
      </trkpt>
      <trkpt lat="43.32064" lon="1.92408">
        <ele>148.3</ele>
        <time>2017-03-16T14:22:35Z</time>
      </trkpt>
      <trkpt lat="43.32063" lon="1.92421">
        <ele>146.9</ele>
        <time>2017-03-16T14:22:38Z</time>
      </trkpt>
      <trkpt lat="43.32062" lon="1.92431">
        <ele>146.3</ele>
        <time>2017-03-16T14:22:40Z</time>
      </trkpt>
      <trkpt lat="43.3206" lon="1.92443">
        <ele>145.9</ele>
        <time>2017-03-16T14:22:42Z</time>
      </trkpt>
      <trkpt lat="43.32059" lon="1.92453">
        <ele>144.8</ele>
        <time>2017-03-16T14:22:44Z</time>
      </trkpt>
      <trkpt lat="43.32057" lon="1.92464">
        <ele>143.6</ele>
        <time>2017-03-16T14:22:46Z</time>
      </trkpt>
      <trkpt lat="43.32055" lon="1.92479">
        <ele>143.2</ele>
        <time>2017-03-16T14:22:48Z</time>
      </trkpt>
      <trkpt lat="43.32053" lon="1.92491">
        <ele>143.6</ele>
        <time>2017-03-16T14:22:50Z</time>
      </trkpt>
      <trkpt lat="43.32049" lon="1.92508">
        <ele>145.8</ele>
        <time>2017-03-16T14:22:52Z</time>
      </trkpt>
      <trkpt lat="43.32047" lon="1.92523">
        <ele>148</ele>
        <time>2017-03-16T14:22:54Z</time>
      </trkpt>
      <trkpt lat="43.32045" lon="1.92537">
        <ele>149.5</ele>
        <time>2017-03-16T14:22:56Z</time>
      </trkpt>
      <trkpt lat="43.32043" lon="1.92548">
        <ele>151.5</ele>
        <time>2017-03-16T14:22:58Z</time>
      </trkpt>
      <trkpt lat="43.32041" lon="1.92559">
        <ele>153.1</ele>
        <time>2017-03-16T14:23:00Z</time>
      </trkpt>
      <trkpt lat="43.3204" lon="1.92571">
        <ele>154.3</ele>
        <time>2017-03-16T14:23:02Z</time>
      </trkpt>
      <trkpt lat="43.32039" lon="1.92584">
        <ele>155</ele>
        <time>2017-03-16T14:23:04Z</time>
      </trkpt>
      <trkpt lat="43.32037" lon="1.92594">
        <ele>155.5</ele>
        <time>2017-03-16T14:23:06Z</time>
      </trkpt>
      <trkpt lat="43.32036" lon="1.92604">
        <ele>155.6</ele>
        <time>2017-03-16T14:23:08Z</time>
      </trkpt>
      <trkpt lat="43.32034" lon="1.92616">
        <ele>156.7</ele>
        <time>2017-03-16T14:23:10Z</time>
      </trkpt>
      <trkpt lat="43.32033" lon="1.92628">
        <ele>157.3</ele>
        <time>2017-03-16T14:23:12Z</time>
      </trkpt>
      <trkpt lat="43.32032" lon="1.92639">
        <ele>158.4</ele>
        <time>2017-03-16T14:23:14Z</time>
      </trkpt>
      <trkpt lat="43.3203" lon="1.92651">
        <ele>159.7</ele>
        <time>2017-03-16T14:23:16Z</time>
      </trkpt>
      <trkpt lat="43.3203" lon="1.92664">
        <ele>159.1</ele>
        <time>2017-03-16T14:23:18Z</time>
      </trkpt>
      <trkpt lat="43.3203" lon="1.92677">
        <ele>158.9</ele>
        <time>2017-03-16T14:23:20Z</time>
      </trkpt>
      <trkpt lat="43.32029" lon="1.92689">
        <ele>159.1</ele>
        <time>2017-03-16T14:23:22Z</time>
      </trkpt>
      <trkpt lat="43.32028" lon="1.92699">
        <ele>159</ele>
        <time>2017-03-16T14:23:24Z</time>
      </trkpt>
      <trkpt lat="43.32026" lon="1.92712">
        <ele>158.6</ele>
        <time>2017-03-16T14:23:26Z</time>
      </trkpt>
      <trkpt lat="43.32025" lon="1.92723">
        <ele>157.7</ele>
        <time>2017-03-16T14:23:28Z</time>
      </trkpt>
      <trkpt lat="43.32024" lon="1.92735">
        <ele>157</ele>
        <time>2017-03-16T14:23:30Z</time>
      </trkpt>
      <trkpt lat="43.32022" lon="1.92746">
        <ele>156.6</ele>
        <time>2017-03-16T14:23:32Z</time>
      </trkpt>
      <trkpt lat="43.32021" lon="1.9276">
        <ele>156.6</ele>
        <time>2017-03-16T14:23:34Z</time>
      </trkpt>
      <trkpt lat="43.32019" lon="1.92773">
        <ele>157</ele>
        <time>2017-03-16T14:23:36Z</time>
      </trkpt>
      <trkpt lat="43.32017" lon="1.92785">
        <ele>157.7</ele>
        <time>2017-03-16T14:23:38Z</time>
      </trkpt>
      <trkpt lat="43.32016" lon="1.92797">
        <ele>157.2</ele>
        <time>2017-03-16T14:23:40Z</time>
      </trkpt>
      <trkpt lat="43.32015" lon="1.92808">
        <ele>157.2</ele>
        <time>2017-03-16T14:23:42Z</time>
      </trkpt>
      <trkpt lat="43.32012" lon="1.9282">
        <ele>157.8</ele>
        <time>2017-03-16T14:23:44Z</time>
      </trkpt>
      <trkpt lat="43.3201" lon="1.9283">
        <ele>157.3</ele>
        <time>2017-03-16T14:23:46Z</time>
      </trkpt>
      <trkpt lat="43.32008" lon="1.92842">
        <ele>156.8</ele>
        <time>2017-03-16T14:23:48Z</time>
      </trkpt>
      <trkpt lat="43.32005" lon="1.92852">
        <ele>155.9</ele>
        <time>2017-03-16T14:23:50Z</time>
      </trkpt>
      <trkpt lat="43.32004" lon="1.92863">
        <ele>155.5</ele>
        <time>2017-03-16T14:23:52Z</time>
      </trkpt>
      <trkpt lat="43.32002" lon="1.92876">
        <ele>154</ele>
        <time>2017-03-16T14:23:54Z</time>
      </trkpt>
      <trkpt lat="43.32" lon="1.92887">
        <ele>152.8</ele>
        <time>2017-03-16T14:23:56Z</time>
      </trkpt>
      <trkpt lat="43.31997" lon="1.92898">
        <ele>151.7</ele>
        <time>2017-03-16T14:23:58Z</time>
      </trkpt>
      <trkpt lat="43.31994" lon="1.92911">
        <ele>152.5</ele>
        <time>2017-03-16T14:24:00Z</time>
      </trkpt>
      <trkpt lat="43.31991" lon="1.92925">
        <ele>153.2</ele>
        <time>2017-03-16T14:24:02Z</time>
      </trkpt>
      <trkpt lat="43.31989" lon="1.92938">
        <ele>153.7</ele>
        <time>2017-03-16T14:24:04Z</time>
      </trkpt>
      <trkpt lat="43.31987" lon="1.92951">
        <ele>153.9</ele>
        <time>2017-03-16T14:24:06Z</time>
      </trkpt>
      <trkpt lat="43.31985" lon="1.92964">
        <ele>154.8</ele>
        <time>2017-03-16T14:24:08Z</time>
      </trkpt>
      <trkpt lat="43.31982" lon="1.92976">
        <ele>155.4</ele>
        <time>2017-03-16T14:24:10Z</time>
      </trkpt>
      <trkpt lat="43.3198" lon="1.92989">
        <ele>154.6</ele>
        <time>2017-03-16T14:24:12Z</time>
      </trkpt>
      <trkpt lat="43.31977" lon="1.93">
        <ele>154.6</ele>
        <time>2017-03-16T14:24:14Z</time>
      </trkpt>
      <trkpt lat="43.31974" lon="1.93011">
        <ele>154.5</ele>
        <time>2017-03-16T14:24:16Z</time>
      </trkpt>
      <trkpt lat="43.31972" lon="1.93024">
        <ele>154.5</ele>
        <time>2017-03-16T14:24:18Z</time>
      </trkpt>
      <trkpt lat="43.3197" lon="1.93036">
        <ele>154.5</ele>
        <time>2017-03-16T14:24:20Z</time>
      </trkpt>
      <trkpt lat="43.31968" lon="1.93049">
        <ele>155.1</ele>
        <time>2017-03-16T14:24:22Z</time>
      </trkpt>
      <trkpt lat="43.31966" lon="1.93061">
        <ele>155.1</ele>
        <time>2017-03-16T14:24:24Z</time>
      </trkpt>
      <trkpt lat="43.31963" lon="1.93072">
        <ele>154.7</ele>
        <time>2017-03-16T14:24:26Z</time>
      </trkpt>
      <trkpt lat="43.31961" lon="1.93082">
        <ele>153.2</ele>
        <time>2017-03-16T14:24:28Z</time>
      </trkpt>
      <trkpt lat="43.31958" lon="1.93093">
        <ele>152.9</ele>
        <time>2017-03-16T14:24:30Z</time>
      </trkpt>
      <trkpt lat="43.31955" lon="1.93106">
        <ele>152.6</ele>
        <time>2017-03-16T14:24:32Z</time>
      </trkpt>
      <trkpt lat="43.31953" lon="1.93119">
        <ele>152.6</ele>
        <time>2017-03-16T14:24:34Z</time>
      </trkpt>
      <trkpt lat="43.3195" lon="1.93131">
        <ele>152.7</ele>
        <time>2017-03-16T14:24:36Z</time>
      </trkpt>
      <trkpt lat="43.31947" lon="1.93143">
        <ele>152.7</ele>
        <time>2017-03-16T14:24:38Z</time>
      </trkpt>
      <trkpt lat="43.31944" lon="1.93155">
        <ele>152.5</ele>
        <time>2017-03-16T14:24:40Z</time>
      </trkpt>
      <trkpt lat="43.31941" lon="1.93167">
        <ele>152.5</ele>
        <time>2017-03-16T14:24:42Z</time>
      </trkpt>
      <trkpt lat="43.31938" lon="1.93178">
        <ele>152.2</ele>
        <time>2017-03-16T14:24:44Z</time>
      </trkpt>
      <trkpt lat="43.31935" lon="1.93187">
        <ele>152</ele>
        <time>2017-03-16T14:24:46Z</time>
      </trkpt>
      <trkpt lat="43.31931" lon="1.93196">
        <ele>151.6</ele>
        <time>2017-03-16T14:24:48Z</time>
      </trkpt>
      <trkpt lat="43.31926" lon="1.93207">
        <ele>150.7</ele>
        <time>2017-03-16T14:24:51Z</time>
      </trkpt>
      <trkpt lat="43.31923" lon="1.93216">
        <ele>150.7</ele>
        <time>2017-03-16T14:24:54Z</time>
      </trkpt>
      <trkpt lat="43.31918" lon="1.93229">
        <ele>150.9</ele>
        <time>2017-03-16T14:24:58Z</time>
      </trkpt>
      <trkpt lat="43.31912" lon="1.93241">
        <ele>150.5</ele>
        <time>2017-03-16T14:25:01Z</time>
      </trkpt>
      <trkpt lat="43.31907" lon="1.9325">
        <ele>150.5</ele>
        <time>2017-03-16T14:25:03Z</time>
      </trkpt>
      <trkpt lat="43.31902" lon="1.9326">
        <ele>150.7</ele>
        <time>2017-03-16T14:25:05Z</time>
      </trkpt>
      <trkpt lat="43.31896" lon="1.93268">
        <ele>151</ele>
        <time>2017-03-16T14:25:07Z</time>
      </trkpt>
      <trkpt lat="43.3189" lon="1.93276">
        <ele>151.4</ele>
        <time>2017-03-16T14:25:09Z</time>
      </trkpt>
      <trkpt lat="43.31885" lon="1.93284">
        <ele>152</ele>
        <time>2017-03-16T14:25:11Z</time>
      </trkpt>
      <trkpt lat="43.31879" lon="1.93295">
        <ele>153.3</ele>
        <time>2017-03-16T14:25:13Z</time>
      </trkpt>
      <trkpt lat="43.31872" lon="1.93304">
        <ele>154.3</ele>
        <time>2017-03-16T14:25:15Z</time>
      </trkpt>
      <trkpt lat="43.31867" lon="1.93312">
        <ele>155</ele>
        <time>2017-03-16T14:25:17Z</time>
      </trkpt>
      <trkpt lat="43.3186" lon="1.93325">
        <ele>155.6</ele>
        <time>2017-03-16T14:25:20Z</time>
      </trkpt>
      <trkpt lat="43.31853" lon="1.93334">
        <ele>155.8</ele>
        <time>2017-03-16T14:25:22Z</time>
      </trkpt>
      <trkpt lat="43.31846" lon="1.93344">
        <ele>156.7</ele>
        <time>2017-03-16T14:25:24Z</time>
      </trkpt>
      <trkpt lat="43.31839" lon="1.93353">
        <ele>156.6</ele>
        <time>2017-03-16T14:25:26Z</time>
      </trkpt>
      <trkpt lat="43.31834" lon="1.93362">
        <ele>156.7</ele>
        <time>2017-03-16T14:25:28Z</time>
      </trkpt>
      <trkpt lat="43.31828" lon="1.93371">
        <ele>157.4</ele>
        <time>2017-03-16T14:25:30Z</time>
      </trkpt>
      <trkpt lat="43.31822" lon="1.93379">
        <ele>157.8</ele>
        <time>2017-03-16T14:25:32Z</time>
      </trkpt>
      <trkpt lat="43.31816" lon="1.93388">
        <ele>158.3</ele>
        <time>2017-03-16T14:25:34Z</time>
      </trkpt>
      <trkpt lat="43.3181" lon="1.93397">
        <ele>158.8</ele>
        <time>2017-03-16T14:25:36Z</time>
      </trkpt>
      <trkpt lat="43.31804" lon="1.93406">
        <ele>158.6</ele>
        <time>2017-03-16T14:25:38Z</time>
      </trkpt>
      <trkpt lat="43.31799" lon="1.93415">
        <ele>158.5</ele>
        <time>2017-03-16T14:25:40Z</time>
      </trkpt>
      <trkpt lat="43.31795" lon="1.93424">
        <ele>157.8</ele>
        <time>2017-03-16T14:25:42Z</time>
      </trkpt>
      <trkpt lat="43.31792" lon="1.93435">
        <ele>157.1</ele>
        <time>2017-03-16T14:25:44Z</time>
      </trkpt>
      <trkpt lat="43.3179" lon="1.93447">
        <ele>157.2</ele>
        <time>2017-03-16T14:25:46Z</time>
      </trkpt>
      <trkpt lat="43.31789" lon="1.93459">
        <ele>156.8</ele>
        <time>2017-03-16T14:25:48Z</time>
      </trkpt>
      <trkpt lat="43.31789" lon="1.93471">
        <ele>157</ele>
        <time>2017-03-16T14:25:50Z</time>
      </trkpt>
      <trkpt lat="43.31791" lon="1.93483">
        <ele>157</ele>
        <time>2017-03-16T14:25:52Z</time>
      </trkpt>
      <trkpt lat="43.31792" lon="1.93497">
        <ele>158.3</ele>
        <time>2017-03-16T14:25:54Z</time>
      </trkpt>
      <trkpt lat="43.31794" lon="1.9351">
        <ele>158.9</ele>
        <time>2017-03-16T14:25:56Z</time>
      </trkpt>
      <trkpt lat="43.31797" lon="1.93522">
        <ele>158.8</ele>
        <time>2017-03-16T14:25:58Z</time>
      </trkpt>
      <trkpt lat="43.31798" lon="1.93534">
        <ele>159</ele>
        <time>2017-03-16T14:26:00Z</time>
      </trkpt>
      <trkpt lat="43.318" lon="1.93546">
        <ele>158.6</ele>
        <time>2017-03-16T14:26:02Z</time>
      </trkpt>
      <trkpt lat="43.31803" lon="1.93557">
        <ele>158.5</ele>
        <time>2017-03-16T14:26:04Z</time>
      </trkpt>
      <trkpt lat="43.31804" lon="1.93569">
        <ele>158.6</ele>
        <time>2017-03-16T14:26:06Z</time>
      </trkpt>
      <trkpt lat="43.31804" lon="1.93581">
        <ele>159.2</ele>
        <time>2017-03-16T14:26:08Z</time>
      </trkpt>
      <trkpt lat="43.31803" lon="1.93592">
        <ele>160.3</ele>
        <time>2017-03-16T14:26:10Z</time>
      </trkpt>
      <trkpt lat="43.318" lon="1.93605">
        <ele>160.7</ele>
        <time>2017-03-16T14:26:12Z</time>
      </trkpt>
      <trkpt lat="43.31798" lon="1.93615">
        <ele>160.5</ele>
        <time>2017-03-16T14:26:14Z</time>
      </trkpt>
      <trkpt lat="43.31794" lon="1.93628">
        <ele>160.2</ele>
        <time>2017-03-16T14:26:17Z</time>
      </trkpt>
      <trkpt lat="43.3179" lon="1.93639">
        <ele>159.9</ele>
        <time>2017-03-16T14:26:19Z</time>
      </trkpt>
      <trkpt lat="43.31788" lon="1.93649">
        <ele>159.2</ele>
        <time>2017-03-16T14:26:21Z</time>
      </trkpt>
      <trkpt lat="43.31783" lon="1.93659">
        <ele>158.4</ele>
        <time>2017-03-16T14:26:23Z</time>
      </trkpt>
      <trkpt lat="43.3178" lon="1.93671">
        <ele>157.9</ele>
        <time>2017-03-16T14:26:25Z</time>
      </trkpt>
      <trkpt lat="43.31776" lon="1.93681">
        <ele>156.5</ele>
        <time>2017-03-16T14:26:27Z</time>
      </trkpt>
      <trkpt lat="43.31773" lon="1.93691">
        <ele>155.4</ele>
        <time>2017-03-16T14:26:29Z</time>
      </trkpt>
      <trkpt lat="43.31769" lon="1.937">
        <ele>154.3</ele>
        <time>2017-03-16T14:26:31Z</time>
      </trkpt>
      <trkpt lat="43.31765" lon="1.93712">
        <ele>155.2</ele>
        <time>2017-03-16T14:26:33Z</time>
      </trkpt>
      <trkpt lat="43.31761" lon="1.93725">
        <ele>155.9</ele>
        <time>2017-03-16T14:26:35Z</time>
      </trkpt>
      <trkpt lat="43.31758" lon="1.93738">
        <ele>156</ele>
        <time>2017-03-16T14:26:37Z</time>
      </trkpt>
      <trkpt lat="43.31756" lon="1.93751">
        <ele>156.6</ele>
        <time>2017-03-16T14:26:39Z</time>
      </trkpt>
      <trkpt lat="43.31754" lon="1.93764">
        <ele>156</ele>
        <time>2017-03-16T14:26:41Z</time>
      </trkpt>
      <trkpt lat="43.31754" lon="1.93775">
        <ele>155.1</ele>
        <time>2017-03-16T14:26:43Z</time>
      </trkpt>
      <trkpt lat="43.31754" lon="1.93787">
        <ele>155.1</ele>
        <time>2017-03-16T14:26:45Z</time>
      </trkpt>
      <trkpt lat="43.31753" lon="1.93798">
        <ele>155.9</ele>
        <time>2017-03-16T14:26:47Z</time>
      </trkpt>
      <trkpt lat="43.31751" lon="1.93809">
        <ele>154.6</ele>
        <time>2017-03-16T14:26:49Z</time>
      </trkpt>
      <trkpt lat="43.31749" lon="1.9382">
        <ele>155</ele>
        <time>2017-03-16T14:26:51Z</time>
      </trkpt>
      <trkpt lat="43.31745" lon="1.93832">
        <ele>154.3</ele>
        <time>2017-03-16T14:26:53Z</time>
      </trkpt>
      <trkpt lat="43.31742" lon="1.93842">
        <ele>153.8</ele>
        <time>2017-03-16T14:26:55Z</time>
      </trkpt>
      <trkpt lat="43.31737" lon="1.93853">
        <ele>154.5</ele>
        <time>2017-03-16T14:26:57Z</time>
      </trkpt>
      <trkpt lat="43.31731" lon="1.93865">
        <ele>155.8</ele>
        <time>2017-03-16T14:26:59Z</time>
      </trkpt>
      <trkpt lat="43.31724" lon="1.93873">
        <ele>156.2</ele>
        <time>2017-03-16T14:27:01Z</time>
      </trkpt>
      <trkpt lat="43.31718" lon="1.93882">
        <ele>156.9</ele>
        <time>2017-03-16T14:27:03Z</time>
      </trkpt>
      <trkpt lat="43.31711" lon="1.9389">
        <ele>157.5</ele>
        <time>2017-03-16T14:27:05Z</time>
      </trkpt>
      <trkpt lat="43.31704" lon="1.93898">
        <ele>157.8</ele>
        <time>2017-03-16T14:27:08Z</time>
      </trkpt>
      <trkpt lat="43.31695" lon="1.93907">
        <ele>158.9</ele>
        <time>2017-03-16T14:27:11Z</time>
      </trkpt>
      <trkpt lat="43.31689" lon="1.93914">
        <ele>159.6</ele>
        <time>2017-03-16T14:27:13Z</time>
      </trkpt>
      <trkpt lat="43.31683" lon="1.93922">
        <ele>160.1</ele>
        <time>2017-03-16T14:27:15Z</time>
      </trkpt>
      <trkpt lat="43.31677" lon="1.93929">
        <ele>160.7</ele>
        <time>2017-03-16T14:27:17Z</time>
      </trkpt>
      <trkpt lat="43.31668" lon="1.93937">
        <ele>162</ele>
        <time>2017-03-16T14:27:20Z</time>
      </trkpt>
      <trkpt lat="43.31661" lon="1.93945">
        <ele>162.9</ele>
        <time>2017-03-16T14:27:22Z</time>
      </trkpt>
      <trkpt lat="43.31654" lon="1.93952">
        <ele>163.8</ele>
        <time>2017-03-16T14:27:24Z</time>
      </trkpt>
      <trkpt lat="43.31646" lon="1.9396">
        <ele>164.3</ele>
        <time>2017-03-16T14:27:26Z</time>
      </trkpt>
      <trkpt lat="43.31639" lon="1.93967">
        <ele>164.9</ele>
        <time>2017-03-16T14:27:28Z</time>
      </trkpt>
      <trkpt lat="43.31633" lon="1.93974">
        <ele>165.3</ele>
        <time>2017-03-16T14:27:30Z</time>
      </trkpt>
      <trkpt lat="43.31628" lon="1.93981">
        <ele>166.3</ele>
        <time>2017-03-16T14:27:32Z</time>
      </trkpt>
      <trkpt lat="43.31622" lon="1.93988">
        <ele>166.7</ele>
        <time>2017-03-16T14:27:34Z</time>
      </trkpt>
      <trkpt lat="43.31617" lon="1.93995">
        <ele>166.7</ele>
        <time>2017-03-16T14:27:36Z</time>
      </trkpt>
      <trkpt lat="43.31609" lon="1.94004">
        <ele>167.8</ele>
        <time>2017-03-16T14:27:39Z</time>
      </trkpt>
      <trkpt lat="43.31601" lon="1.94013">
        <ele>169.1</ele>
        <time>2017-03-16T14:27:42Z</time>
      </trkpt>
      <trkpt lat="43.31592" lon="1.9402">
        <ele>170.6</ele>
        <time>2017-03-16T14:27:45Z</time>
      </trkpt>
      <trkpt lat="43.31583" lon="1.94025">
        <ele>172.7</ele>
        <time>2017-03-16T14:27:48Z</time>
      </trkpt>
      <trkpt lat="43.31576" lon="1.94028">
        <ele>174.3</ele>
        <time>2017-03-16T14:27:50Z</time>
      </trkpt>
      <trkpt lat="43.31568" lon="1.94031">
        <ele>175.5</ele>
        <time>2017-03-16T14:27:52Z</time>
      </trkpt>
      <trkpt lat="43.31561" lon="1.94035">
        <ele>175.7</ele>
        <time>2017-03-16T14:27:54Z</time>
      </trkpt>
      <trkpt lat="43.3155" lon="1.94042">
        <ele>175.6</ele>
        <time>2017-03-16T14:27:56Z</time>
      </trkpt>
      <trkpt lat="43.31542" lon="1.94047">
        <ele>175.3</ele>
        <time>2017-03-16T14:27:58Z</time>
      </trkpt>
      <trkpt lat="43.31535" lon="1.94052">
        <ele>175.3</ele>
        <time>2017-03-16T14:28:00Z</time>
      </trkpt>
      <trkpt lat="43.31529" lon="1.94059">
        <ele>174.2</ele>
        <time>2017-03-16T14:28:02Z</time>
      </trkpt>
      <trkpt lat="43.31522" lon="1.94066">
        <ele>173.4</ele>
        <time>2017-03-16T14:28:04Z</time>
      </trkpt>
      <trkpt lat="43.31517" lon="1.94073">
        <ele>173.8</ele>
        <time>2017-03-16T14:28:06Z</time>
      </trkpt>
      <trkpt lat="43.31511" lon="1.94081">
        <ele>173.2</ele>
        <time>2017-03-16T14:28:08Z</time>
      </trkpt>
      <trkpt lat="43.31507" lon="1.94089">
        <ele>171.4</ele>
        <time>2017-03-16T14:28:10Z</time>
      </trkpt>
      <trkpt lat="43.31499" lon="1.941">
        <ele>170.6</ele>
        <time>2017-03-16T14:28:12Z</time>
      </trkpt>
      <trkpt lat="43.31493" lon="1.94108">
        <ele>170.5</ele>
        <time>2017-03-16T14:28:14Z</time>
      </trkpt>
      <trkpt lat="43.31486" lon="1.94119">
        <ele>169</ele>
        <time>2017-03-16T14:28:16Z</time>
      </trkpt>
      <trkpt lat="43.31481" lon="1.94128">
        <ele>167.1</ele>
        <time>2017-03-16T14:28:18Z</time>
      </trkpt>
      <trkpt lat="43.31475" lon="1.94138">
        <ele>166.3</ele>
        <time>2017-03-16T14:28:20Z</time>
      </trkpt>
      <trkpt lat="43.31469" lon="1.94147">
        <ele>164.6</ele>
        <time>2017-03-16T14:28:22Z</time>
      </trkpt>
      <trkpt lat="43.31463" lon="1.94157">
        <ele>163.2</ele>
        <time>2017-03-16T14:28:24Z</time>
      </trkpt>
      <trkpt lat="43.31456" lon="1.9417">
        <ele>163</ele>
        <time>2017-03-16T14:28:26Z</time>
      </trkpt>
      <trkpt lat="43.3145" lon="1.9418">
        <ele>162.7</ele>
        <time>2017-03-16T14:28:28Z</time>
      </trkpt>
      <trkpt lat="43.31443" lon="1.9419">
        <ele>162.8</ele>
        <time>2017-03-16T14:28:30Z</time>
      </trkpt>
      <trkpt lat="43.31438" lon="1.94199">
        <ele>162.8</ele>
        <time>2017-03-16T14:28:32Z</time>
      </trkpt>
      <trkpt lat="43.31432" lon="1.94208">
        <ele>163.2</ele>
        <time>2017-03-16T14:28:34Z</time>
      </trkpt>
      <trkpt lat="43.31427" lon="1.94217">
        <ele>163.2</ele>
        <time>2017-03-16T14:28:36Z</time>
      </trkpt>
      <trkpt lat="43.31421" lon="1.94225">
        <ele>163.6</ele>
        <time>2017-03-16T14:28:38Z</time>
      </trkpt>
      <trkpt lat="43.31417" lon="1.94235">
        <ele>163.6</ele>
        <time>2017-03-16T14:28:40Z</time>
      </trkpt>
      <trkpt lat="43.31412" lon="1.94244">
        <ele>163.7</ele>
        <time>2017-03-16T14:28:42Z</time>
      </trkpt>
      <trkpt lat="43.31407" lon="1.94252">
        <ele>163.8</ele>
        <time>2017-03-16T14:28:44Z</time>
      </trkpt>
      <trkpt lat="43.31401" lon="1.9426">
        <ele>163.3</ele>
        <time>2017-03-16T14:28:46Z</time>
      </trkpt>
      <trkpt lat="43.31396" lon="1.94269">
        <ele>163.1</ele>
        <time>2017-03-16T14:28:48Z</time>
      </trkpt>
      <trkpt lat="43.31392" lon="1.94277">
        <ele>162.8</ele>
        <time>2017-03-16T14:28:50Z</time>
      </trkpt>
      <trkpt lat="43.31387" lon="1.94286">
        <ele>162.6</ele>
        <time>2017-03-16T14:28:52Z</time>
      </trkpt>
      <trkpt lat="43.31382" lon="1.94295">
        <ele>162.8</ele>
        <time>2017-03-16T14:28:54Z</time>
      </trkpt>
      <trkpt lat="43.31376" lon="1.94305">
        <ele>162.7</ele>
        <time>2017-03-16T14:28:56Z</time>
      </trkpt>
      <trkpt lat="43.31372" lon="1.94315">
        <ele>162.6</ele>
        <time>2017-03-16T14:28:58Z</time>
      </trkpt>
      <trkpt lat="43.31367" lon="1.94324">
        <ele>161.8</ele>
        <time>2017-03-16T14:29:00Z</time>
      </trkpt>
      <trkpt lat="43.31362" lon="1.94334">
        <ele>161.2</ele>
        <time>2017-03-16T14:29:02Z</time>
      </trkpt>
      <trkpt lat="43.31359" lon="1.94344">
        <ele>160.6</ele>
        <time>2017-03-16T14:29:04Z</time>
      </trkpt>
      <trkpt lat="43.31356" lon="1.94354">
        <ele>160.1</ele>
        <time>2017-03-16T14:29:06Z</time>
      </trkpt>
      <trkpt lat="43.31354" lon="1.94366">
        <ele>159.7</ele>
        <time>2017-03-16T14:29:08Z</time>
      </trkpt>
      <trkpt lat="43.31352" lon="1.94377">
        <ele>159</ele>
        <time>2017-03-16T14:29:10Z</time>
      </trkpt>
      <trkpt lat="43.3135" lon="1.94388">
        <ele>158.2</ele>
        <time>2017-03-16T14:29:12Z</time>
      </trkpt>
      <trkpt lat="43.31348" lon="1.94399">
        <ele>157.8</ele>
        <time>2017-03-16T14:29:14Z</time>
      </trkpt>
      <trkpt lat="43.31346" lon="1.94411">
        <ele>157.6</ele>
        <time>2017-03-16T14:29:16Z</time>
      </trkpt>
      <trkpt lat="43.31343" lon="1.94423">
        <ele>156.2</ele>
        <time>2017-03-16T14:29:18Z</time>
      </trkpt>
      <trkpt lat="43.3134" lon="1.94433">
        <ele>156.1</ele>
        <time>2017-03-16T14:29:20Z</time>
      </trkpt>
      <trkpt lat="43.31335" lon="1.94443">
        <ele>156.2</ele>
        <time>2017-03-16T14:29:22Z</time>
      </trkpt>
      <trkpt lat="43.31328" lon="1.94452">
        <ele>156.6</ele>
        <time>2017-03-16T14:29:24Z</time>
      </trkpt>
      <trkpt lat="43.31321" lon="1.94461">
        <ele>156.8</ele>
        <time>2017-03-16T14:29:26Z</time>
      </trkpt>
      <trkpt lat="43.31315" lon="1.94471">
        <ele>157.1</ele>
        <time>2017-03-16T14:29:28Z</time>
      </trkpt>
      <trkpt lat="43.31308" lon="1.9448">
        <ele>157.5</ele>
        <time>2017-03-16T14:29:30Z</time>
      </trkpt>
      <trkpt lat="43.31302" lon="1.9449">
        <ele>157.5</ele>
        <time>2017-03-16T14:29:32Z</time>
      </trkpt>
      <trkpt lat="43.31296" lon="1.94501">
        <ele>157.6</ele>
        <time>2017-03-16T14:29:34Z</time>
      </trkpt>
      <trkpt lat="43.31291" lon="1.9451">
        <ele>157.4</ele>
        <time>2017-03-16T14:29:36Z</time>
      </trkpt>
      <trkpt lat="43.31287" lon="1.94521">
        <ele>156.9</ele>
        <time>2017-03-16T14:29:38Z</time>
      </trkpt>
      <trkpt lat="43.31284" lon="1.94531">
        <ele>155.9</ele>
        <time>2017-03-16T14:29:40Z</time>
      </trkpt>
      <trkpt lat="43.3128" lon="1.94542">
        <ele>155.2</ele>
        <time>2017-03-16T14:29:42Z</time>
      </trkpt>
      <trkpt lat="43.31276" lon="1.94557">
        <ele>155.5</ele>
        <time>2017-03-16T14:29:44Z</time>
      </trkpt>
      <trkpt lat="43.31273" lon="1.94571">
        <ele>155.9</ele>
        <time>2017-03-16T14:29:46Z</time>
      </trkpt>
      <trkpt lat="43.31271" lon="1.94586">
        <ele>156.1</ele>
        <time>2017-03-16T14:29:48Z</time>
      </trkpt>
      <trkpt lat="43.31269" lon="1.94601">
        <ele>155.9</ele>
        <time>2017-03-16T14:29:50Z</time>
      </trkpt>
      <trkpt lat="43.31269" lon="1.94614">
        <ele>154.9</ele>
        <time>2017-03-16T14:29:52Z</time>
      </trkpt>
      <trkpt lat="43.31269" lon="1.94628">
        <ele>154.2</ele>
        <time>2017-03-16T14:29:54Z</time>
      </trkpt>
      <trkpt lat="43.31269" lon="1.94639">
        <ele>153.4</ele>
        <time>2017-03-16T14:29:56Z</time>
      </trkpt>
      <trkpt lat="43.3127" lon="1.94649">
        <ele>152.6</ele>
        <time>2017-03-16T14:29:58Z</time>
      </trkpt>
      <trkpt lat="43.31274" lon="1.94662">
        <ele>152.2</ele>
        <time>2017-03-16T14:30:00Z</time>
      </trkpt>
      <trkpt lat="43.31276" lon="1.94675">
        <ele>152.6</ele>
        <time>2017-03-16T14:30:02Z</time>
      </trkpt>
      <trkpt lat="43.31279" lon="1.94687">
        <ele>152.6</ele>
        <time>2017-03-16T14:30:04Z</time>
      </trkpt>
      <trkpt lat="43.31283" lon="1.94699">
        <ele>152.8</ele>
        <time>2017-03-16T14:30:06Z</time>
      </trkpt>
      <trkpt lat="43.31286" lon="1.94711">
        <ele>153.1</ele>
        <time>2017-03-16T14:30:08Z</time>
      </trkpt>
      <trkpt lat="43.31291" lon="1.94722">
        <ele>153.9</ele>
        <time>2017-03-16T14:30:10Z</time>
      </trkpt>
      <trkpt lat="43.31295" lon="1.94732">
        <ele>154.2</ele>
        <time>2017-03-16T14:30:12Z</time>
      </trkpt>
      <trkpt lat="43.31298" lon="1.94741">
        <ele>154.5</ele>
        <time>2017-03-16T14:30:14Z</time>
      </trkpt>
      <trkpt lat="43.31302" lon="1.94749">
        <ele>154.4</ele>
        <time>2017-03-16T14:30:16Z</time>
      </trkpt>
      <trkpt lat="43.31307" lon="1.94758">
        <ele>154.5</ele>
        <time>2017-03-16T14:30:18Z</time>
      </trkpt>
      <trkpt lat="43.3131" lon="1.94768">
        <ele>154.9</ele>
        <time>2017-03-16T14:30:20Z</time>
      </trkpt>
      <trkpt lat="43.31314" lon="1.94778">
        <ele>155</ele>
        <time>2017-03-16T14:30:22Z</time>
      </trkpt>
      <trkpt lat="43.31318" lon="1.94787">
        <ele>155.2</ele>
        <time>2017-03-16T14:30:24Z</time>
      </trkpt>
      <trkpt lat="43.31323" lon="1.94799">
        <ele>155.3</ele>
        <time>2017-03-16T14:30:27Z</time>
      </trkpt>
      <trkpt lat="43.31329" lon="1.94807">
        <ele>155.9</ele>
        <time>2017-03-16T14:30:29Z</time>
      </trkpt>
      <trkpt lat="43.31337" lon="1.94818">
        <ele>156.4</ele>
        <time>2017-03-16T14:30:31Z</time>
      </trkpt>
      <trkpt lat="43.31344" lon="1.94825">
        <ele>156.8</ele>
        <time>2017-03-16T14:30:33Z</time>
      </trkpt>
      <trkpt lat="43.31352" lon="1.94831">
        <ele>157.1</ele>
        <time>2017-03-16T14:30:35Z</time>
      </trkpt>
      <trkpt lat="43.31362" lon="1.94837">
        <ele>157.3</ele>
        <time>2017-03-16T14:30:37Z</time>
      </trkpt>
      <trkpt lat="43.31372" lon="1.9484">
        <ele>157.1</ele>
        <time>2017-03-16T14:30:39Z</time>
      </trkpt>
      <trkpt lat="43.31382" lon="1.94841">
        <ele>157.4</ele>
        <time>2017-03-16T14:30:41Z</time>
      </trkpt>
      <trkpt lat="43.31391" lon="1.94842">
        <ele>157.8</ele>
        <time>2017-03-16T14:30:43Z</time>
      </trkpt>
      <trkpt lat="43.31401" lon="1.94841">
        <ele>157.4</ele>
        <time>2017-03-16T14:30:45Z</time>
      </trkpt>
      <trkpt lat="43.31411" lon="1.94841">
        <ele>157.3</ele>
        <time>2017-03-16T14:30:47Z</time>
      </trkpt>
      <trkpt lat="43.3142" lon="1.9484">
        <ele>156.8</ele>
        <time>2017-03-16T14:30:49Z</time>
      </trkpt>
      <trkpt lat="43.31428" lon="1.94839">
        <ele>157.2</ele>
        <time>2017-03-16T14:30:51Z</time>
      </trkpt>
      <trkpt lat="43.31438" lon="1.94839">
        <ele>157.5</ele>
        <time>2017-03-16T14:30:53Z</time>
      </trkpt>
      <trkpt lat="43.31448" lon="1.94844">
        <ele>155.7</ele>
        <time>2017-03-16T14:30:56Z</time>
      </trkpt>
      <trkpt lat="43.31455" lon="1.94847">
        <ele>156.5</ele>
        <time>2017-03-16T14:30:58Z</time>
      </trkpt>
      <trkpt lat="43.31462" lon="1.94849">
        <ele>156.5</ele>
        <time>2017-03-16T14:31:00Z</time>
      </trkpt>
      <trkpt lat="43.31472" lon="1.94854">
        <ele>157.9</ele>
        <time>2017-03-16T14:31:03Z</time>
      </trkpt>
      <trkpt lat="43.31481" lon="1.94857">
        <ele>158.7</ele>
        <time>2017-03-16T14:31:06Z</time>
      </trkpt>
      <trkpt lat="43.31491" lon="1.94861">
        <ele>160.1</ele>
        <time>2017-03-16T14:31:09Z</time>
      </trkpt>
      <trkpt lat="43.31498" lon="1.94865">
        <ele>160.7</ele>
        <time>2017-03-16T14:31:11Z</time>
      </trkpt>
      <trkpt lat="43.31506" lon="1.94869">
        <ele>160.1</ele>
        <time>2017-03-16T14:31:13Z</time>
      </trkpt>
      <trkpt lat="43.31513" lon="1.94874">
        <ele>160.2</ele>
        <time>2017-03-16T14:31:15Z</time>
      </trkpt>
      <trkpt lat="43.3152" lon="1.94881">
        <ele>160.6</ele>
        <time>2017-03-16T14:31:17Z</time>
      </trkpt>
      <trkpt lat="43.31527" lon="1.94886">
        <ele>161.6</ele>
        <time>2017-03-16T14:31:19Z</time>
      </trkpt>
      <trkpt lat="43.31534" lon="1.94891">
        <ele>162.8</ele>
        <time>2017-03-16T14:31:21Z</time>
      </trkpt>
      <trkpt lat="43.3154" lon="1.94898">
        <ele>162.8</ele>
        <time>2017-03-16T14:31:23Z</time>
      </trkpt>
      <trkpt lat="43.31546" lon="1.94905">
        <ele>162.7</ele>
        <time>2017-03-16T14:31:25Z</time>
      </trkpt>
      <trkpt lat="43.31552" lon="1.94913">
        <ele>162.5</ele>
        <time>2017-03-16T14:31:27Z</time>
      </trkpt>
      <trkpt lat="43.31558" lon="1.94921">
        <ele>161.9</ele>
        <time>2017-03-16T14:31:29Z</time>
      </trkpt>
      <trkpt lat="43.31564" lon="1.9493">
        <ele>161</ele>
        <time>2017-03-16T14:31:31Z</time>
      </trkpt>
      <trkpt lat="43.3157" lon="1.9494">
        <ele>161</ele>
        <time>2017-03-16T14:31:33Z</time>
      </trkpt>
      <trkpt lat="43.31573" lon="1.9495">
        <ele>161.2</ele>
        <time>2017-03-16T14:31:35Z</time>
      </trkpt>
      <trkpt lat="43.31576" lon="1.94963">
        <ele>160.9</ele>
        <time>2017-03-16T14:31:38Z</time>
      </trkpt>
      <trkpt lat="43.31576" lon="1.94976">
        <ele>159.5</ele>
        <time>2017-03-16T14:31:41Z</time>
      </trkpt>
      <trkpt lat="43.31577" lon="1.94986">
        <ele>159.5</ele>
        <time>2017-03-16T14:31:44Z</time>
      </trkpt>
      <trkpt lat="43.31576" lon="1.94997">
        <ele>159.2</ele>
        <time>2017-03-16T14:31:47Z</time>
      </trkpt>
      <trkpt lat="43.31575" lon="1.95007">
        <ele>160.1</ele>
        <time>2017-03-16T14:31:51Z</time>
      </trkpt>
      <trkpt lat="43.31576" lon="1.95008">
        <ele>160.8</ele>
        <time>2017-03-16T14:31:58Z</time>
      </trkpt>
      <trkpt lat="43.31579" lon="1.9503">
        <ele>162.9</ele>
        <time>2017-03-16T14:34:05Z</time>
      </trkpt>
      <trkpt lat="43.31575" lon="1.95039">
        <ele>162.9</ele>
        <time>2017-03-16T14:34:08Z</time>
      </trkpt>
      <trkpt lat="43.31571" lon="1.95051">
        <ele>162.9</ele>
        <time>2017-03-16T14:34:11Z</time>
      </trkpt>
      <trkpt lat="43.31569" lon="1.95062">
        <ele>162.6</ele>
        <time>2017-03-16T14:34:14Z</time>
      </trkpt>
      <trkpt lat="43.31569" lon="1.95072">
        <ele>162.2</ele>
        <time>2017-03-16T14:34:17Z</time>
      </trkpt>
      <trkpt lat="43.31565" lon="1.95083">
        <ele>161.6</ele>
        <time>2017-03-16T14:34:22Z</time>
      </trkpt>
      <trkpt lat="43.31559" lon="1.95092">
        <ele>160.3</ele>
        <time>2017-03-16T14:34:28Z</time>
      </trkpt>
      <trkpt lat="43.31551" lon="1.95093">
        <ele>159.7</ele>
        <time>2017-03-16T14:34:31Z</time>
      </trkpt>
      <trkpt lat="43.31545" lon="1.95099">
        <ele>160.4</ele>
        <time>2017-03-16T14:34:34Z</time>
      </trkpt>
      <trkpt lat="43.31542" lon="1.95108">
        <ele>161.8</ele>
        <time>2017-03-16T14:34:38Z</time>
      </trkpt>
      <trkpt lat="43.31537" lon="1.95117">
        <ele>162.9</ele>
        <time>2017-03-16T14:34:42Z</time>
      </trkpt>
      <trkpt lat="43.31532" lon="1.95124">
        <ele>163.5</ele>
        <time>2017-03-16T14:34:46Z</time>
      </trkpt>
      <trkpt lat="43.31526" lon="1.95129">
        <ele>164.4</ele>
        <time>2017-03-16T14:34:53Z</time>
      </trkpt>
      <trkpt lat="43.31525" lon="1.95141">
        <ele>165.1</ele>
        <time>2017-03-16T14:34:58Z</time>
      </trkpt>
      <trkpt lat="43.31523" lon="1.95152">
        <ele>164.2</ele>
        <time>2017-03-16T14:35:01Z</time>
      </trkpt>
      <trkpt lat="43.3152" lon="1.95165">
        <ele>163.7</ele>
        <time>2017-03-16T14:35:04Z</time>
      </trkpt>
      <trkpt lat="43.31518" lon="1.95175">
        <ele>163.4</ele>
        <time>2017-03-16T14:35:06Z</time>
      </trkpt>
      <trkpt lat="43.31516" lon="1.95188">
        <ele>163.3</ele>
        <time>2017-03-16T14:35:09Z</time>
      </trkpt>
      <trkpt lat="43.31515" lon="1.952">
        <ele>163.2</ele>
        <time>2017-03-16T14:35:12Z</time>
      </trkpt>
      <trkpt lat="43.31513" lon="1.95213">
        <ele>163.3</ele>
        <time>2017-03-16T14:35:15Z</time>
      </trkpt>
      <trkpt lat="43.31511" lon="1.95227">
        <ele>163.4</ele>
        <time>2017-03-16T14:35:18Z</time>
      </trkpt>
      <trkpt lat="43.31509" lon="1.9524">
        <ele>163.6</ele>
        <time>2017-03-16T14:35:21Z</time>
      </trkpt>
      <trkpt lat="43.31507" lon="1.95255">
        <ele>163.9</ele>
        <time>2017-03-16T14:35:24Z</time>
      </trkpt>
      <trkpt lat="43.31504" lon="1.95268">
        <ele>163.9</ele>
        <time>2017-03-16T14:35:27Z</time>
      </trkpt>
      <trkpt lat="43.31503" lon="1.95283">
        <ele>163.7</ele>
        <time>2017-03-16T14:35:30Z</time>
      </trkpt>
      <trkpt lat="43.31503" lon="1.95293">
        <ele>163.8</ele>
        <time>2017-03-16T14:35:32Z</time>
      </trkpt>
      <trkpt lat="43.31502" lon="1.95306">
        <ele>164</ele>
        <time>2017-03-16T14:35:35Z</time>
      </trkpt>
      <trkpt lat="43.31503" lon="1.95317">
        <ele>163.9</ele>
        <time>2017-03-16T14:35:38Z</time>
      </trkpt>
      <trkpt lat="43.31503" lon="1.95328">
        <ele>163.7</ele>
        <time>2017-03-16T14:35:41Z</time>
      </trkpt>
      <trkpt lat="43.31503" lon="1.95341">
        <ele>163.5</ele>
        <time>2017-03-16T14:35:45Z</time>
      </trkpt>
      <trkpt lat="43.31504" lon="1.95354">
        <ele>163.1</ele>
        <time>2017-03-16T14:35:49Z</time>
      </trkpt>
      <trkpt lat="43.31505" lon="1.95365">
        <ele>163.2</ele>
        <time>2017-03-16T14:35:52Z</time>
      </trkpt>
      <trkpt lat="43.31506" lon="1.95375">
        <ele>163.3</ele>
        <time>2017-03-16T14:35:55Z</time>
      </trkpt>
      <trkpt lat="43.31505" lon="1.95385">
        <ele>162.7</ele>
        <time>2017-03-16T14:35:58Z</time>
      </trkpt>
      <trkpt lat="43.31503" lon="1.95397">
        <ele>162.1</ele>
        <time>2017-03-16T14:36:01Z</time>
      </trkpt>
      <trkpt lat="43.31501" lon="1.9541">
        <ele>162.6</ele>
        <time>2017-03-16T14:36:05Z</time>
      </trkpt>
      <trkpt lat="43.31497" lon="1.9542">
        <ele>163.6</ele>
        <time>2017-03-16T14:36:08Z</time>
      </trkpt>
      <trkpt lat="43.31497" lon="1.95431">
        <ele>164.8</ele>
        <time>2017-03-16T14:36:11Z</time>
      </trkpt>
      <trkpt lat="43.315" lon="1.95442">
        <ele>166.2</ele>
        <time>2017-03-16T14:36:14Z</time>
      </trkpt>
      <trkpt lat="43.31504" lon="1.95453">
        <ele>166.7</ele>
        <time>2017-03-16T14:36:18Z</time>
      </trkpt>
      <trkpt lat="43.31511" lon="1.95455">
        <ele>166.1</ele>
        <time>2017-03-16T14:36:22Z</time>
      </trkpt>
      <trkpt lat="43.31512" lon="1.95456">
        <ele>166.5</ele>
        <time>2017-03-16T14:36:29Z</time>
      </trkpt>
      <trkpt lat="43.31516" lon="1.95466">
        <ele>166.5</ele>
        <time>2017-03-16T14:36:04Z</time>
      </trkpt>
      <trkpt lat="43.31522" lon="1.95475">
        <ele>165.6</ele>
        <time>2017-03-16T14:37:12Z</time>
      </trkpt>
      <trkpt lat="43.31519" lon="1.95485">
        <ele>165</ele>
        <time>2017-03-16T14:37:15Z</time>
      </trkpt>
      <trkpt lat="43.31513" lon="1.95493">
        <ele>164.3</ele>
        <time>2017-03-16T14:37:18Z</time>
      </trkpt>
      <trkpt lat="43.31507" lon="1.95501">
        <ele>164</ele>
        <time>2017-03-16T14:37:21Z</time>
      </trkpt>
      <trkpt lat="43.31506" lon="1.95514">
        <ele>163.2</ele>
        <time>2017-03-16T14:37:25Z</time>
      </trkpt>
      <trkpt lat="43.31504" lon="1.95524">
        <ele>162</ele>
        <time>2017-03-16T14:37:28Z</time>
      </trkpt>
      <trkpt lat="43.315" lon="1.95536">
        <ele>162.6</ele>
        <time>2017-03-16T14:37:31Z</time>
      </trkpt>
      <trkpt lat="43.31498" lon="1.95547">
        <ele>163.2</ele>
        <time>2017-03-16T14:37:34Z</time>
      </trkpt>
      <trkpt lat="43.31496" lon="1.95561">
        <ele>162.8</ele>
        <time>2017-03-16T14:37:37Z</time>
      </trkpt>
      <trkpt lat="43.31497" lon="1.95573">
        <ele>162.8</ele>
        <time>2017-03-16T14:37:40Z</time>
      </trkpt>
      <trkpt lat="43.315" lon="1.95586">
        <ele>163.1</ele>
        <time>2017-03-16T14:37:43Z</time>
      </trkpt>
      <trkpt lat="43.31502" lon="1.95599">
        <ele>163.6</ele>
        <time>2017-03-16T14:37:46Z</time>
      </trkpt>
      <trkpt lat="43.31504" lon="1.95613">
        <ele>163.8</ele>
        <time>2017-03-16T14:37:49Z</time>
      </trkpt>
      <trkpt lat="43.31506" lon="1.95627">
        <ele>164.2</ele>
        <time>2017-03-16T14:37:52Z</time>
      </trkpt>
      <trkpt lat="43.31507" lon="1.95636">
        <ele>164.2</ele>
        <time>2017-03-16T14:37:54Z</time>
      </trkpt>
      <trkpt lat="43.31508" lon="1.95646">
        <ele>165</ele>
        <time>2017-03-16T14:37:56Z</time>
      </trkpt>
      <trkpt lat="43.31508" lon="1.95659">
        <ele>165.4</ele>
        <time>2017-03-16T14:37:59Z</time>
      </trkpt>
      <trkpt lat="43.31506" lon="1.95672">
        <ele>164.5</ele>
        <time>2017-03-16T14:38:02Z</time>
      </trkpt>
      <trkpt lat="43.31504" lon="1.95686">
        <ele>164.8</ele>
        <time>2017-03-16T14:38:05Z</time>
      </trkpt>
      <trkpt lat="43.31502" lon="1.95699">
        <ele>164.3</ele>
        <time>2017-03-16T14:38:08Z</time>
      </trkpt>
      <trkpt lat="43.315" lon="1.95713">
        <ele>164</ele>
        <time>2017-03-16T14:38:11Z</time>
      </trkpt>
      <trkpt lat="43.31497" lon="1.95728">
        <ele>164.1</ele>
        <time>2017-03-16T14:38:14Z</time>
      </trkpt>
      <trkpt lat="43.31496" lon="1.95741">
        <ele>164.2</ele>
        <time>2017-03-16T14:38:17Z</time>
      </trkpt>
      <trkpt lat="43.31494" lon="1.95754">
        <ele>164</ele>
        <time>2017-03-16T14:38:20Z</time>
      </trkpt>
      <trkpt lat="43.31493" lon="1.95766">
        <ele>163.7</ele>
        <time>2017-03-16T14:38:23Z</time>
      </trkpt>
      <trkpt lat="43.31491" lon="1.95777">
        <ele>163.5</ele>
        <time>2017-03-16T14:38:27Z</time>
      </trkpt>
      <trkpt lat="43.31493" lon="1.9578">
        <ele>163</ele>
        <time>2017-03-16T14:38:34Z</time>
      </trkpt>
    </trkseg>
  </trk>
</gpx>